<?xml version="1.0" encoding="UTF-8"?>
<gpx
  version="1.0"
  creator="GPSBabel - http://www.gpsbabel.org"
  xmlns:xsi="http://www.w3.org/2001/XMLSchema-instance"
  xmlns="http://www.topografix.com/GPX/1/0"
  xsi:schemaLocation="http://www.topografix.com/GPX/1/0 http://www.topografix.com/GPX/1/0/gpx.xsd">
<time>2011-07-22T11:22:56Z</time>
<bounds minlat="32.858032227" minlon="35.243942261" maxlat="32.884094238" maxlon="35.258419037"/>
<trk>
  <name>Holux2011/07/22_06:56</name>
<trkseg>
<trkpt lat="32.861652374" lon="35.257030487">
  <ele>312.447754</ele>
  <time>2011-07-22T03:56:57Z</time>
  <speed>1.540000</speed>
</trkpt>
<trkpt lat="32.861679077" lon="35.257011414">
  <ele>313.010254</ele>
  <time>2011-07-22T03:56:58Z</time>
  <speed>1.780000</speed>
</trkpt>
<trkpt lat="32.861690521" lon="35.256984711">
  <ele>313.182129</ele>
  <time>2011-07-22T03:57:00Z</time>
  <speed>1.850000</speed>
</trkpt>
<trkpt lat="32.861717224" lon="35.256969452">
  <ele>313.158691</ele>
  <time>2011-07-22T03:57:01Z</time>
  <speed>2.070000</speed>
</trkpt>
<trkpt lat="32.861736298" lon="35.256946564">
  <ele>312.932129</ele>
  <time>2011-07-22T03:57:03Z</time>
  <speed>2.100000</speed>
</trkpt>
<trkpt lat="32.861755371" lon="35.256919861">
  <ele>312.908691</ele>
  <time>2011-07-22T03:57:04Z</time>
  <speed>2.050000</speed>
</trkpt>
<trkpt lat="32.861778259" lon="35.256900787">
  <ele>312.822754</ele>
  <time>2011-07-22T03:57:06Z</time>
  <speed>2.260000</speed>
</trkpt>
<trkpt lat="32.861812592" lon="35.256855011">
  <ele>312.689941</ele>
  <time>2011-07-22T03:57:09Z</time>
  <speed>2.030000</speed>
</trkpt>
<trkpt lat="32.861839294" lon="35.256828308">
  <ele>312.580566</ele>
  <time>2011-07-22T03:57:11Z</time>
  <speed>1.620000</speed>
</trkpt>
<trkpt lat="32.861862183" lon="35.256801605">
  <ele>312.393066</ele>
  <time>2011-07-22T03:57:13Z</time>
  <speed>2.030000</speed>
</trkpt>
<trkpt lat="32.861885071" lon="35.256763458">
  <ele>312.557129</ele>
  <time>2011-07-22T03:57:15Z</time>
  <speed>1.860000</speed>
</trkpt>
<trkpt lat="32.861911774" lon="35.256729126">
  <ele>312.986816</ele>
  <time>2011-07-22T03:57:17Z</time>
  <speed>1.760000</speed>
</trkpt>
<trkpt lat="32.861938477" lon="35.256698608">
  <ele>313.377441</ele>
  <time>2011-07-22T03:57:19Z</time>
  <speed>2.130000</speed>
</trkpt>
<trkpt lat="32.861972809" lon="35.256656647">
  <ele>313.393066</ele>
  <time>2011-07-22T03:57:21Z</time>
  <speed>2.320000</speed>
</trkpt>
<trkpt lat="32.862007141" lon="35.256614685">
  <ele>313.955566</ele>
  <time>2011-07-22T03:57:23Z</time>
  <speed>2.160000</speed>
</trkpt>
<trkpt lat="32.862041473" lon="35.256580353">
  <ele>313.697754</ele>
  <time>2011-07-22T03:57:25Z</time>
  <speed>2.320000</speed>
</trkpt>
<trkpt lat="32.862068176" lon="35.256549835">
  <ele>315.025879</ele>
  <time>2011-07-22T03:57:27Z</time>
  <speed>2.460000</speed>
</trkpt>
<trkpt lat="32.862098694" lon="35.256507874">
  <ele>315.791504</ele>
  <time>2011-07-22T03:57:29Z</time>
  <speed>2.380000</speed>
</trkpt>
<trkpt lat="32.862125397" lon="35.256469727">
  <ele>315.268066</ele>
  <time>2011-07-22T03:57:31Z</time>
  <speed>2.480000</speed>
</trkpt>
<trkpt lat="32.862152100" lon="35.256439209">
  <ele>315.674316</ele>
  <time>2011-07-22T03:57:33Z</time>
  <speed>2.080000</speed>
</trkpt>
<trkpt lat="32.862182617" lon="35.256416321">
  <ele>316.393066</ele>
  <time>2011-07-22T03:57:35Z</time>
  <speed>2.170000</speed>
</trkpt>
<trkpt lat="32.862220764" lon="35.256393433">
  <ele>315.861816</ele>
  <time>2011-07-22T03:57:37Z</time>
  <speed>2.150000</speed>
</trkpt>
<trkpt lat="32.862262726" lon="35.256381989">
  <ele>315.744629</ele>
  <time>2011-07-22T03:57:39Z</time>
  <speed>2.160000</speed>
</trkpt>
<trkpt lat="32.862289429" lon="35.256347656">
  <ele>316.432129</ele>
  <time>2011-07-22T03:57:41Z</time>
  <speed>2.220000</speed>
</trkpt>
<trkpt lat="32.862335205" lon="35.256336212">
  <ele>316.182129</ele>
  <time>2011-07-22T03:57:43Z</time>
  <speed>2.000000</speed>
</trkpt>
<trkpt lat="32.862373352" lon="35.256313324">
  <ele>317.057129</ele>
  <time>2011-07-22T03:57:45Z</time>
  <speed>2.120000</speed>
</trkpt>
<trkpt lat="32.862415314" lon="35.256305695">
  <ele>317.900879</ele>
  <time>2011-07-22T03:57:47Z</time>
  <speed>1.850000</speed>
</trkpt>
<trkpt lat="32.862457275" lon="35.256301880">
  <ele>318.760254</ele>
  <time>2011-07-22T03:57:49Z</time>
  <speed>1.870000</speed>
</trkpt>
<trkpt lat="32.862491608" lon="35.256294250">
  <ele>320.783691</ele>
  <time>2011-07-22T03:57:51Z</time>
  <speed>1.630000</speed>
</trkpt>
<trkpt lat="32.862525940" lon="35.256294250">
  <ele>322.705566</ele>
  <time>2011-07-22T03:57:53Z</time>
  <speed>1.660000</speed>
</trkpt>
<trkpt lat="32.862560272" lon="35.256298065">
  <ele>323.924316</ele>
  <time>2011-07-22T03:57:55Z</time>
  <speed>1.970000</speed>
</trkpt>
<trkpt lat="32.862586975" lon="35.256317139">
  <ele>325.736816</ele>
  <time>2011-07-22T03:57:57Z</time>
  <speed>1.700000</speed>
</trkpt>
<trkpt lat="32.862617493" lon="35.256328583">
  <ele>326.322754</ele>
  <time>2011-07-22T03:57:59Z</time>
  <speed>1.780000</speed>
</trkpt>
<trkpt lat="32.862644196" lon="35.256336212">
  <ele>327.385254</ele>
  <time>2011-07-22T03:58:01Z</time>
  <speed>1.860000</speed>
</trkpt>
<trkpt lat="32.862674713" lon="35.256347656">
  <ele>328.010254</ele>
  <time>2011-07-22T03:58:03Z</time>
  <speed>1.620000</speed>
</trkpt>
<trkpt lat="32.862705231" lon="35.256355286">
  <ele>328.807129</ele>
  <time>2011-07-22T03:58:05Z</time>
  <speed>1.550000</speed>
</trkpt>
<trkpt lat="32.862743378" lon="35.256370544">
  <ele>329.674316</ele>
  <time>2011-07-22T03:58:08Z</time>
  <speed>1.610000</speed>
</trkpt>
<trkpt lat="32.862781525" lon="35.256381989">
  <ele>330.088379</ele>
  <time>2011-07-22T03:58:10Z</time>
  <speed>1.790000</speed>
</trkpt>
<trkpt lat="32.862804413" lon="35.256393433">
  <ele>330.533691</ele>
  <time>2011-07-22T03:58:12Z</time>
  <speed>1.600000</speed>
</trkpt>
<trkpt lat="32.862838745" lon="35.256408691">
  <ele>331.182129</ele>
  <time>2011-07-22T03:58:14Z</time>
  <speed>1.670000</speed>
</trkpt>
<trkpt lat="32.862865448" lon="35.256423950">
  <ele>330.674316</ele>
  <time>2011-07-22T03:58:16Z</time>
  <speed>1.910000</speed>
</trkpt>
<trkpt lat="32.862895966" lon="35.256435394">
  <ele>330.471191</ele>
  <time>2011-07-22T03:58:18Z</time>
  <speed>1.600000</speed>
</trkpt>
<trkpt lat="32.862926483" lon="35.256446838">
  <ele>330.229004</ele>
  <time>2011-07-22T03:58:20Z</time>
  <speed>1.680000</speed>
</trkpt>
<trkpt lat="32.862957001" lon="35.256454468">
  <ele>330.689941</ele>
  <time>2011-07-22T03:58:22Z</time>
  <speed>1.650000</speed>
</trkpt>
<trkpt lat="32.862983704" lon="35.256465912">
  <ele>330.611816</ele>
  <time>2011-07-22T03:58:24Z</time>
  <speed>1.610000</speed>
</trkpt>
<trkpt lat="32.863014221" lon="35.256469727">
  <ele>331.346191</ele>
  <time>2011-07-22T03:58:26Z</time>
  <speed>1.660000</speed>
</trkpt>
<trkpt lat="32.863040924" lon="35.256481171">
  <ele>331.221191</ele>
  <time>2011-07-22T03:58:28Z</time>
  <speed>1.440000</speed>
</trkpt>
<trkpt lat="32.863067627" lon="35.256496429">
  <ele>331.213379</ele>
  <time>2011-07-22T03:58:30Z</time>
  <speed>1.520000</speed>
</trkpt>
<trkpt lat="32.863109589" lon="35.256515503">
  <ele>331.377441</ele>
  <time>2011-07-22T03:58:33Z</time>
  <speed>1.720000</speed>
</trkpt>
<trkpt lat="32.863143921" lon="35.256534576">
  <ele>330.744629</ele>
  <time>2011-07-22T03:58:35Z</time>
  <speed>1.870000</speed>
</trkpt>
<trkpt lat="32.863178253" lon="35.256546021">
  <ele>330.635254</ele>
  <time>2011-07-22T03:58:37Z</time>
  <speed>1.550000</speed>
</trkpt>
<trkpt lat="32.863208771" lon="35.256561279">
  <ele>330.986816</ele>
  <time>2011-07-22T03:58:39Z</time>
  <speed>1.650000</speed>
</trkpt>
<trkpt lat="32.863239288" lon="35.256568909">
  <ele>331.580566</ele>
  <time>2011-07-22T03:58:41Z</time>
  <speed>1.860000</speed>
</trkpt>
<trkpt lat="32.863262177" lon="35.256584167">
  <ele>332.127441</ele>
  <time>2011-07-22T03:58:43Z</time>
  <speed>1.560000</speed>
</trkpt>
<trkpt lat="32.863292694" lon="35.256584167">
  <ele>332.752441</ele>
  <time>2011-07-22T03:58:45Z</time>
  <speed>1.740000</speed>
</trkpt>
<trkpt lat="32.863323212" lon="35.256595612">
  <ele>334.174316</ele>
  <time>2011-07-22T03:58:47Z</time>
  <speed>1.880000</speed>
</trkpt>
<trkpt lat="32.863353729" lon="35.256595612">
  <ele>333.619629</ele>
  <time>2011-07-22T03:58:49Z</time>
  <speed>1.660000</speed>
</trkpt>
<trkpt lat="32.863384247" lon="35.256607056">
  <ele>334.314941</ele>
  <time>2011-07-22T03:58:51Z</time>
  <speed>1.680000</speed>
</trkpt>
<trkpt lat="32.863410950" lon="35.256622314">
  <ele>334.393066</ele>
  <time>2011-07-22T03:58:53Z</time>
  <speed>1.730000</speed>
</trkpt>
<trkpt lat="32.863441467" lon="35.256633759">
  <ele>335.354004</ele>
  <time>2011-07-22T03:58:55Z</time>
  <speed>1.610000</speed>
</trkpt>
<trkpt lat="32.863468170" lon="35.256645203">
  <ele>335.854004</ele>
  <time>2011-07-22T03:58:57Z</time>
  <speed>1.830000</speed>
</trkpt>
<trkpt lat="32.863506317" lon="35.256649017">
  <ele>335.299316</ele>
  <time>2011-07-22T03:58:59Z</time>
  <speed>1.810000</speed>
</trkpt>
<trkpt lat="32.863540649" lon="35.256645203">
  <ele>335.979004</ele>
  <time>2011-07-22T03:59:01Z</time>
  <speed>1.360000</speed>
</trkpt>
<trkpt lat="32.863578796" lon="35.256637573">
  <ele>336.861816</ele>
  <time>2011-07-22T03:59:04Z</time>
  <speed>1.380000</speed>
</trkpt>
<trkpt lat="32.863609314" lon="35.256614685">
  <ele>336.697754</ele>
  <time>2011-07-22T03:59:07Z</time>
  <speed>1.920000</speed>
</trkpt>
<trkpt lat="32.863643646" lon="35.256591797">
  <ele>337.682129</ele>
  <time>2011-07-22T03:59:09Z</time>
  <speed>2.000000</speed>
</trkpt>
<trkpt lat="32.863674164" lon="35.256576538">
  <ele>337.502441</ele>
  <time>2011-07-22T03:59:11Z</time>
  <speed>1.920000</speed>
</trkpt>
<trkpt lat="32.863700867" lon="35.256549835">
  <ele>338.432129</ele>
  <time>2011-07-22T03:59:13Z</time>
  <speed>1.820000</speed>
</trkpt>
<trkpt lat="32.863731384" lon="35.256530762">
  <ele>338.510254</ele>
  <time>2011-07-22T03:59:15Z</time>
  <speed>1.880000</speed>
</trkpt>
<trkpt lat="32.863754272" lon="35.256492615">
  <ele>339.775879</ele>
  <time>2011-07-22T03:59:17Z</time>
  <speed>1.890000</speed>
</trkpt>
<trkpt lat="32.863780975" lon="35.256465912">
  <ele>339.713379</ele>
  <time>2011-07-22T03:59:19Z</time>
  <speed>1.780000</speed>
</trkpt>
<trkpt lat="32.863803864" lon="35.256443024">
  <ele>339.479004</ele>
  <time>2011-07-22T03:59:21Z</time>
  <speed>1.810000</speed>
</trkpt>
<trkpt lat="32.863834381" lon="35.256420135">
  <ele>339.846191</ele>
  <time>2011-07-22T03:59:23Z</time>
  <speed>2.440000</speed>
</trkpt>
<trkpt lat="32.863868713" lon="35.256397247">
  <ele>339.643066</ele>
  <time>2011-07-22T03:59:25Z</time>
  <speed>2.390000</speed>
</trkpt>
<trkpt lat="32.863903046" lon="35.256381989">
  <ele>338.010254</ele>
  <time>2011-07-22T03:59:27Z</time>
  <speed>1.460000</speed>
</trkpt>
<trkpt lat="32.863937378" lon="35.256370544">
  <ele>336.963379</ele>
  <time>2011-07-22T03:59:29Z</time>
  <speed>2.250000</speed>
</trkpt>
<trkpt lat="32.863979340" lon="35.256343842">
  <ele>337.010254</ele>
  <time>2011-07-22T03:59:31Z</time>
  <speed>2.770000</speed>
</trkpt>
<trkpt lat="32.864006042" lon="35.256332397">
  <ele>336.877441</ele>
  <time>2011-07-22T03:59:32Z</time>
  <speed>3.010000</speed>
</trkpt>
<trkpt lat="32.864032745" lon="35.256328583">
  <ele>336.807129</ele>
  <time>2011-07-22T03:59:33Z</time>
  <speed>3.320000</speed>
</trkpt>
<trkpt lat="32.864059448" lon="35.256317139">
  <ele>337.197754</ele>
  <time>2011-07-22T03:59:34Z</time>
  <speed>3.510000</speed>
</trkpt>
<trkpt lat="32.864089966" lon="35.256305695">
  <ele>337.541504</ele>
  <time>2011-07-22T03:59:35Z</time>
  <speed>3.960000</speed>
</trkpt>
<trkpt lat="32.864124298" lon="35.256290436">
  <ele>337.588379</ele>
  <time>2011-07-22T03:59:36Z</time>
  <speed>3.680000</speed>
</trkpt>
<trkpt lat="32.864158630" lon="35.256275177">
  <ele>338.080566</ele>
  <time>2011-07-22T03:59:37Z</time>
  <speed>4.340000</speed>
</trkpt>
<trkpt lat="32.864208221" lon="35.256259918">
  <ele>338.447754</ele>
  <time>2011-07-22T03:59:38Z</time>
  <speed>4.740000</speed>
</trkpt>
<trkpt lat="32.864250183" lon="35.256248474">
  <ele>338.400879</ele>
  <time>2011-07-22T03:59:39Z</time>
  <speed>5.080000</speed>
</trkpt>
<trkpt lat="32.864299774" lon="35.256229401">
  <ele>338.369629</ele>
  <time>2011-07-22T03:59:40Z</time>
  <speed>5.540000</speed>
</trkpt>
<trkpt lat="32.864345551" lon="35.256206512">
  <ele>338.150879</ele>
  <time>2011-07-22T03:59:41Z</time>
  <speed>5.840000</speed>
</trkpt>
<trkpt lat="32.864402771" lon="35.256179810">
  <ele>337.588379</ele>
  <time>2011-07-22T03:59:42Z</time>
  <speed>6.290000</speed>
</trkpt>
<trkpt lat="32.864452362" lon="35.256160736">
  <ele>337.447754</ele>
  <time>2011-07-22T03:59:43Z</time>
  <speed>6.610000</speed>
</trkpt>
<trkpt lat="32.864513397" lon="35.256130219">
  <ele>337.775879</ele>
  <time>2011-07-22T03:59:44Z</time>
  <speed>7.020000</speed>
</trkpt>
<trkpt lat="32.864578247" lon="35.256107330">
  <ele>337.541504</ele>
  <time>2011-07-22T03:59:45Z</time>
  <speed>7.290000</speed>
</trkpt>
<trkpt lat="32.864639282" lon="35.256088257">
  <ele>337.283691</ele>
  <time>2011-07-22T03:59:46Z</time>
  <speed>7.290000</speed>
</trkpt>
<trkpt lat="32.864704132" lon="35.256076813">
  <ele>336.752441</ele>
  <time>2011-07-22T03:59:47Z</time>
  <speed>6.950000</speed>
</trkpt>
<trkpt lat="32.864768982" lon="35.256069183">
  <ele>336.635254</ele>
  <time>2011-07-22T03:59:48Z</time>
  <speed>6.900000</speed>
</trkpt>
<trkpt lat="32.864826202" lon="35.256057739">
  <ele>336.689941</ele>
  <time>2011-07-22T03:59:49Z</time>
  <speed>6.330000</speed>
</trkpt>
<trkpt lat="32.864879608" lon="35.256050110">
  <ele>334.580566</ele>
  <time>2011-07-22T03:59:50Z</time>
  <speed>5.400000</speed>
</trkpt>
<trkpt lat="32.864929199" lon="35.256050110">
  <ele>333.924316</ele>
  <time>2011-07-22T03:59:51Z</time>
  <speed>4.310000</speed>
</trkpt>
<trkpt lat="32.864963531" lon="35.256057739">
  <ele>333.533691</ele>
  <time>2011-07-22T03:59:52Z</time>
  <speed>3.520000</speed>
</trkpt>
<trkpt lat="32.864986420" lon="35.256069183">
  <ele>331.471191</ele>
  <time>2011-07-22T03:59:53Z</time>
  <speed>2.020000</speed>
</trkpt>
<trkpt lat="32.865024567" lon="35.256092072">
  <ele>330.502441</ele>
  <time>2011-07-22T03:59:55Z</time>
  <speed>2.730000</speed>
</trkpt>
<trkpt lat="32.865047455" lon="35.256114960">
  <ele>329.713379</ele>
  <time>2011-07-22T03:59:56Z</time>
  <speed>3.280000</speed>
</trkpt>
<trkpt lat="32.865070343" lon="35.256134033">
  <ele>329.424316</ele>
  <time>2011-07-22T03:59:57Z</time>
  <speed>2.790000</speed>
</trkpt>
<trkpt lat="32.865097046" lon="35.256160736">
  <ele>329.361816</ele>
  <time>2011-07-22T03:59:58Z</time>
  <speed>3.990000</speed>
</trkpt>
<trkpt lat="32.865123749" lon="35.256191254">
  <ele>328.650879</ele>
  <time>2011-07-22T03:59:59Z</time>
  <speed>4.180000</speed>
</trkpt>
<trkpt lat="32.865154266" lon="35.256225586">
  <ele>327.643066</ele>
  <time>2011-07-22T04:00:00Z</time>
  <speed>4.460000</speed>
</trkpt>
<trkpt lat="32.865177155" lon="35.256263733">
  <ele>326.541504</ele>
  <time>2011-07-22T04:00:01Z</time>
  <speed>4.640000</speed>
</trkpt>
<trkpt lat="32.865203857" lon="35.256305695">
  <ele>325.869629</ele>
  <time>2011-07-22T04:00:02Z</time>
  <speed>4.430000</speed>
</trkpt>
<trkpt lat="32.865226746" lon="35.256343842">
  <ele>324.689941</ele>
  <time>2011-07-22T04:00:03Z</time>
  <speed>4.380000</speed>
</trkpt>
<trkpt lat="32.865253448" lon="35.256378174">
  <ele>324.229004</ele>
  <time>2011-07-22T04:00:04Z</time>
  <speed>4.190000</speed>
</trkpt>
<trkpt lat="32.865280151" lon="35.256420135">
  <ele>322.760254</ele>
  <time>2011-07-22T04:00:05Z</time>
  <speed>4.020000</speed>
</trkpt>
<trkpt lat="32.865306854" lon="35.256439209">
  <ele>322.650879</ele>
  <time>2011-07-22T04:00:06Z</time>
  <speed>3.890000</speed>
</trkpt>
<trkpt lat="32.865333557" lon="35.256462097">
  <ele>322.502441</ele>
  <time>2011-07-22T04:00:07Z</time>
  <speed>4.320000</speed>
</trkpt>
<trkpt lat="32.865367889" lon="35.256484985">
  <ele>322.635254</ele>
  <time>2011-07-22T04:00:08Z</time>
  <speed>4.060000</speed>
</trkpt>
<trkpt lat="32.865402222" lon="35.256500244">
  <ele>322.729004</ele>
  <time>2011-07-22T04:00:09Z</time>
  <speed>4.110000</speed>
</trkpt>
<trkpt lat="32.865436554" lon="35.256511688">
  <ele>323.354004</ele>
  <time>2011-07-22T04:00:10Z</time>
  <speed>4.310000</speed>
</trkpt>
<trkpt lat="32.865474701" lon="35.256523132">
  <ele>323.510254</ele>
  <time>2011-07-22T04:00:11Z</time>
  <speed>4.290000</speed>
</trkpt>
<trkpt lat="32.865512848" lon="35.256523132">
  <ele>323.697754</ele>
  <time>2011-07-22T04:00:12Z</time>
  <speed>3.870000</speed>
</trkpt>
<trkpt lat="32.865547180" lon="35.256519318">
  <ele>324.182129</ele>
  <time>2011-07-22T04:00:13Z</time>
  <speed>3.850000</speed>
</trkpt>
<trkpt lat="32.865585327" lon="35.256507874">
  <ele>323.697754</ele>
  <time>2011-07-22T04:00:14Z</time>
  <speed>4.270000</speed>
</trkpt>
<trkpt lat="32.865627289" lon="35.256488800">
  <ele>323.314941</ele>
  <time>2011-07-22T04:00:15Z</time>
  <speed>4.310000</speed>
</trkpt>
<trkpt lat="32.865665436" lon="35.256469727">
  <ele>323.736816</ele>
  <time>2011-07-22T04:00:16Z</time>
  <speed>4.190000</speed>
</trkpt>
<trkpt lat="32.865699768" lon="35.256446838">
  <ele>323.627441</ele>
  <time>2011-07-22T04:00:17Z</time>
  <speed>4.390000</speed>
</trkpt>
<trkpt lat="32.865730286" lon="35.256420135">
  <ele>324.025879</ele>
  <time>2011-07-22T04:00:18Z</time>
  <speed>4.510000</speed>
</trkpt>
<trkpt lat="32.865768433" lon="35.256397247">
  <ele>324.072754</ele>
  <time>2011-07-22T04:00:19Z</time>
  <speed>4.680000</speed>
</trkpt>
<trkpt lat="32.865802765" lon="35.256374359">
  <ele>324.135254</ele>
  <time>2011-07-22T04:00:20Z</time>
  <speed>4.460000</speed>
</trkpt>
<trkpt lat="32.865837097" lon="35.256347656">
  <ele>323.994629</ele>
  <time>2011-07-22T04:00:21Z</time>
  <speed>4.670000</speed>
</trkpt>
<trkpt lat="32.865875244" lon="35.256317139">
  <ele>323.713379</ele>
  <time>2011-07-22T04:00:22Z</time>
  <speed>5.170000</speed>
</trkpt>
<trkpt lat="32.865921021" lon="35.256282806">
  <ele>323.182129</ele>
  <time>2011-07-22T04:00:23Z</time>
  <speed>6.040000</speed>
</trkpt>
<trkpt lat="32.865955353" lon="35.256233215">
  <ele>323.400879</ele>
  <time>2011-07-22T04:00:24Z</time>
  <speed>5.170000</speed>
</trkpt>
<trkpt lat="32.865989685" lon="35.256172180">
  <ele>323.033691</ele>
  <time>2011-07-22T04:00:25Z</time>
  <speed>6.250000</speed>
</trkpt>
<trkpt lat="32.866016388" lon="35.256095886">
  <ele>322.299316</ele>
  <time>2011-07-22T04:00:26Z</time>
  <speed>7.010000</speed>
</trkpt>
<trkpt lat="32.866027832" lon="35.256015778">
  <ele>321.564941</ele>
  <time>2011-07-22T04:00:27Z</time>
  <speed>6.850000</speed>
</trkpt>
<trkpt lat="32.866043091" lon="35.255935669">
  <ele>320.783691</ele>
  <time>2011-07-22T04:00:28Z</time>
  <speed>7.510000</speed>
</trkpt>
<trkpt lat="32.866054535" lon="35.255855560">
  <ele>320.244629</ele>
  <time>2011-07-22T04:00:29Z</time>
  <speed>7.120000</speed>
</trkpt>
<trkpt lat="32.866069794" lon="35.255775452">
  <ele>319.768066</ele>
  <time>2011-07-22T04:00:30Z</time>
  <speed>7.710000</speed>
</trkpt>
<trkpt lat="32.866088867" lon="35.255691528">
  <ele>319.283691</ele>
  <time>2011-07-22T04:00:31Z</time>
  <speed>7.540000</speed>
</trkpt>
<trkpt lat="32.866127014" lon="35.255630493">
  <ele>319.072754</ele>
  <time>2011-07-22T04:00:32Z</time>
  <speed>7.120000</speed>
</trkpt>
<trkpt lat="32.866184235" lon="35.255588531">
  <ele>318.744629</ele>
  <time>2011-07-22T04:00:33Z</time>
  <speed>7.350000</speed>
</trkpt>
<trkpt lat="32.866245270" lon="35.255588531">
  <ele>318.885254</ele>
  <time>2011-07-22T04:00:34Z</time>
  <speed>7.170000</speed>
</trkpt>
<trkpt lat="32.866306305" lon="35.255603790">
  <ele>318.986816</ele>
  <time>2011-07-22T04:00:35Z</time>
  <speed>6.950000</speed>
</trkpt>
<trkpt lat="32.866363525" lon="35.255638123">
  <ele>318.627441</ele>
  <time>2011-07-22T04:00:36Z</time>
  <speed>6.680000</speed>
</trkpt>
<trkpt lat="32.866413116" lon="35.255676270">
  <ele>318.377441</ele>
  <time>2011-07-22T04:00:37Z</time>
  <speed>6.380000</speed>
</trkpt>
<trkpt lat="32.866462708" lon="35.255714417">
  <ele>318.166504</ele>
  <time>2011-07-22T04:00:38Z</time>
  <speed>6.120000</speed>
</trkpt>
<trkpt lat="32.866516113" lon="35.255729675">
  <ele>318.939941</ele>
  <time>2011-07-22T04:00:39Z</time>
  <speed>5.710000</speed>
</trkpt>
<trkpt lat="32.866561890" lon="35.255764008">
  <ele>319.041504</ele>
  <time>2011-07-22T04:00:40Z</time>
  <speed>5.610000</speed>
</trkpt>
<trkpt lat="32.866607666" lon="35.255790710">
  <ele>319.182129</ele>
  <time>2011-07-22T04:00:41Z</time>
  <speed>5.400000</speed>
</trkpt>
<trkpt lat="32.866653442" lon="35.255817413">
  <ele>319.189941</ele>
  <time>2011-07-22T04:00:42Z</time>
  <speed>5.210000</speed>
</trkpt>
<trkpt lat="32.866706848" lon="35.255844116">
  <ele>318.838379</ele>
  <time>2011-07-22T04:00:43Z</time>
  <speed>5.270000</speed>
</trkpt>
<trkpt lat="32.866748810" lon="35.255874634">
  <ele>318.752441</ele>
  <time>2011-07-22T04:00:44Z</time>
  <speed>5.020000</speed>
</trkpt>
<trkpt lat="32.866790771" lon="35.255905151">
  <ele>318.916504</ele>
  <time>2011-07-22T04:00:45Z</time>
  <speed>4.890000</speed>
</trkpt>
<trkpt lat="32.866836548" lon="35.255924225">
  <ele>319.385254</ele>
  <time>2011-07-22T04:00:46Z</time>
  <speed>4.280000</speed>
</trkpt>
<trkpt lat="32.866874695" lon="35.255947113">
  <ele>318.729004</ele>
  <time>2011-07-22T04:00:47Z</time>
  <speed>3.730000</speed>
</trkpt>
<trkpt lat="32.866912842" lon="35.255966187">
  <ele>318.346191</ele>
  <time>2011-07-22T04:00:48Z</time>
  <speed>3.720000</speed>
</trkpt>
<trkpt lat="32.866943359" lon="35.255981445">
  <ele>318.400879</ele>
  <time>2011-07-22T04:00:49Z</time>
  <speed>3.360000</speed>
</trkpt>
<trkpt lat="32.866985321" lon="35.255992889">
  <ele>318.158691</ele>
  <time>2011-07-22T04:00:50Z</time>
  <speed>4.200000</speed>
</trkpt>
<trkpt lat="32.867034912" lon="35.256008148">
  <ele>318.002441</ele>
  <time>2011-07-22T04:00:51Z</time>
  <speed>4.750000</speed>
</trkpt>
<trkpt lat="32.867084503" lon="35.256027222">
  <ele>317.689941</ele>
  <time>2011-07-22T04:00:52Z</time>
  <speed>4.840000</speed>
</trkpt>
<trkpt lat="32.867156982" lon="35.256046295">
  <ele>317.486816</ele>
  <time>2011-07-22T04:00:53Z</time>
  <speed>5.240000</speed>
</trkpt>
<trkpt lat="32.867206573" lon="35.256053925">
  <ele>317.174316</ele>
  <time>2011-07-22T04:00:54Z</time>
  <speed>5.370000</speed>
</trkpt>
<trkpt lat="32.867267609" lon="35.256053925">
  <ele>317.494629</ele>
  <time>2011-07-22T04:00:55Z</time>
  <speed>5.370000</speed>
</trkpt>
<trkpt lat="32.867317200" lon="35.256065369">
  <ele>317.400879</ele>
  <time>2011-07-22T04:00:56Z</time>
  <speed>5.650000</speed>
</trkpt>
<trkpt lat="32.867362976" lon="35.256076813">
  <ele>318.377441</ele>
  <time>2011-07-22T04:00:57Z</time>
  <speed>5.950000</speed>
</trkpt>
<trkpt lat="32.867416382" lon="35.256103516">
  <ele>317.885254</ele>
  <time>2011-07-22T04:00:58Z</time>
  <speed>6.020000</speed>
</trkpt>
<trkpt lat="32.867473602" lon="35.256134033">
  <ele>317.557129</ele>
  <time>2011-07-22T04:00:59Z</time>
  <speed>6.680000</speed>
</trkpt>
<trkpt lat="32.867515564" lon="35.256168365">
  <ele>317.369629</ele>
  <time>2011-07-22T04:01:00Z</time>
  <speed>5.520000</speed>
</trkpt>
<trkpt lat="32.867549896" lon="35.256202698">
  <ele>317.541504</ele>
  <time>2011-07-22T04:01:01Z</time>
  <speed>4.500000</speed>
</trkpt>
<trkpt lat="32.867576599" lon="35.256233215">
  <ele>317.627441</ele>
  <time>2011-07-22T04:01:02Z</time>
  <speed>3.800000</speed>
</trkpt>
<trkpt lat="32.867599487" lon="35.256259918">
  <ele>317.775879</ele>
  <time>2011-07-22T04:01:03Z</time>
  <speed>2.810000</speed>
</trkpt>
<trkpt lat="32.867633820" lon="35.256282806">
  <ele>318.236816</ele>
  <time>2011-07-22T04:01:04Z</time>
  <speed>2.930000</speed>
</trkpt>
<trkpt lat="32.867675781" lon="35.256328583">
  <ele>317.908691</ele>
  <time>2011-07-22T04:01:06Z</time>
  <speed>2.890000</speed>
</trkpt>
<trkpt lat="32.867710114" lon="35.256374359">
  <ele>317.713379</ele>
  <time>2011-07-22T04:01:08Z</time>
  <speed>2.900000</speed>
</trkpt>
<trkpt lat="32.867755890" lon="35.256420135">
  <ele>317.658691</ele>
  <time>2011-07-22T04:01:10Z</time>
  <speed>3.800000</speed>
</trkpt>
<trkpt lat="32.867782593" lon="35.256450653">
  <ele>317.400879</ele>
  <time>2011-07-22T04:01:11Z</time>
  <speed>3.650000</speed>
</trkpt>
<trkpt lat="32.867809296" lon="35.256481171">
  <ele>317.486816</ele>
  <time>2011-07-22T04:01:12Z</time>
  <speed>3.860000</speed>
</trkpt>
<trkpt lat="32.867832184" lon="35.256519318">
  <ele>317.119629</ele>
  <time>2011-07-22T04:01:13Z</time>
  <speed>3.920000</speed>
</trkpt>
<trkpt lat="32.867862701" lon="35.256553650">
  <ele>317.408691</ele>
  <time>2011-07-22T04:01:14Z</time>
  <speed>4.200000</speed>
</trkpt>
<trkpt lat="32.867889404" lon="35.256587982">
  <ele>316.854004</ele>
  <time>2011-07-22T04:01:15Z</time>
  <speed>4.260000</speed>
</trkpt>
<trkpt lat="32.867919922" lon="35.256618500">
  <ele>316.861816</ele>
  <time>2011-07-22T04:01:16Z</time>
  <speed>4.560000</speed>
</trkpt>
<trkpt lat="32.867961884" lon="35.256660461">
  <ele>317.088379</ele>
  <time>2011-07-22T04:01:17Z</time>
  <speed>4.740000</speed>
</trkpt>
<trkpt lat="32.868003845" lon="35.256687164">
  <ele>316.564941</ele>
  <time>2011-07-22T04:01:18Z</time>
  <speed>4.570000</speed>
</trkpt>
<trkpt lat="32.868041992" lon="35.256702423">
  <ele>316.580566</ele>
  <time>2011-07-22T04:01:19Z</time>
  <speed>4.470000</speed>
</trkpt>
<trkpt lat="32.868080139" lon="35.256717682">
  <ele>316.393066</ele>
  <time>2011-07-22T04:01:20Z</time>
  <speed>4.250000</speed>
</trkpt>
<trkpt lat="32.868110657" lon="35.256729126">
  <ele>317.189941</ele>
  <time>2011-07-22T04:01:21Z</time>
  <speed>3.640000</speed>
</trkpt>
<trkpt lat="32.868148804" lon="35.256740570">
  <ele>317.814941</ele>
  <time>2011-07-22T04:01:22Z</time>
  <speed>3.900000</speed>
</trkpt>
<trkpt lat="32.868183136" lon="35.256752014">
  <ele>318.018066</ele>
  <time>2011-07-22T04:01:23Z</time>
  <speed>3.400000</speed>
</trkpt>
<trkpt lat="32.868213654" lon="35.256759644">
  <ele>317.963379</ele>
  <time>2011-07-22T04:01:24Z</time>
  <speed>3.130000</speed>
</trkpt>
<trkpt lat="32.868240356" lon="35.256763458">
  <ele>317.682129</ele>
  <time>2011-07-22T04:01:25Z</time>
  <speed>2.880000</speed>
</trkpt>
<trkpt lat="32.868289948" lon="35.256778717">
  <ele>319.111816</ele>
  <time>2011-07-22T04:01:27Z</time>
  <speed>2.870000</speed>
</trkpt>
<trkpt lat="32.868316650" lon="35.256786346">
  <ele>319.049316</ele>
  <time>2011-07-22T04:01:28Z</time>
  <speed>3.130000</speed>
</trkpt>
<trkpt lat="32.868370056" lon="35.256801605">
  <ele>319.682129</ele>
  <time>2011-07-22T04:01:30Z</time>
  <speed>3.080000</speed>
</trkpt>
<trkpt lat="32.868400574" lon="35.256801605">
  <ele>320.127441</ele>
  <time>2011-07-22T04:01:31Z</time>
  <speed>3.130000</speed>
</trkpt>
<trkpt lat="32.868431091" lon="35.256813049">
  <ele>321.064941</ele>
  <time>2011-07-22T04:01:32Z</time>
  <speed>3.240000</speed>
</trkpt>
<trkpt lat="32.868457794" lon="35.256824493">
  <ele>320.736816</ele>
  <time>2011-07-22T04:01:33Z</time>
  <speed>3.270000</speed>
</trkpt>
<trkpt lat="32.868488312" lon="35.256835938">
  <ele>320.971191</ele>
  <time>2011-07-22T04:01:34Z</time>
  <speed>3.150000</speed>
</trkpt>
<trkpt lat="32.868518829" lon="35.256851196">
  <ele>320.869629</ele>
  <time>2011-07-22T04:01:35Z</time>
  <speed>3.380000</speed>
</trkpt>
<trkpt lat="32.868553162" lon="35.256862640">
  <ele>320.900879</ele>
  <time>2011-07-22T04:01:36Z</time>
  <speed>3.490000</speed>
</trkpt>
<trkpt lat="32.868583679" lon="35.256866455">
  <ele>321.619629</ele>
  <time>2011-07-22T04:01:37Z</time>
  <speed>3.140000</speed>
</trkpt>
<trkpt lat="32.868614197" lon="35.256877899">
  <ele>322.182129</ele>
  <time>2011-07-22T04:01:38Z</time>
  <speed>3.930000</speed>
</trkpt>
<trkpt lat="32.868652344" lon="35.256900787">
  <ele>321.885254</ele>
  <time>2011-07-22T04:01:39Z</time>
  <speed>4.760000</speed>
</trkpt>
<trkpt lat="32.868698120" lon="35.256916046">
  <ele>321.666504</ele>
  <time>2011-07-22T04:01:40Z</time>
  <speed>4.930000</speed>
</trkpt>
<trkpt lat="32.868755341" lon="35.256935120">
  <ele>321.260254</ele>
  <time>2011-07-22T04:01:41Z</time>
  <speed>6.210000</speed>
</trkpt>
<trkpt lat="32.868816376" lon="35.256946564">
  <ele>321.416504</ele>
  <time>2011-07-22T04:01:42Z</time>
  <speed>6.440000</speed>
</trkpt>
<trkpt lat="32.868881226" lon="35.256965637">
  <ele>321.127441</ele>
  <time>2011-07-22T04:01:43Z</time>
  <speed>7.220000</speed>
</trkpt>
<trkpt lat="32.868949890" lon="35.256961823">
  <ele>320.963379</ele>
  <time>2011-07-22T04:01:44Z</time>
  <speed>7.090000</speed>
</trkpt>
<trkpt lat="32.869018555" lon="35.256946564">
  <ele>319.932129</ele>
  <time>2011-07-22T04:01:45Z</time>
  <speed>6.910000</speed>
</trkpt>
<trkpt lat="32.869083405" lon="35.256916046">
  <ele>318.861816</ele>
  <time>2011-07-22T04:01:46Z</time>
  <speed>6.870000</speed>
</trkpt>
<trkpt lat="32.869144440" lon="35.256874084">
  <ele>317.525879</ele>
  <time>2011-07-22T04:01:47Z</time>
  <speed>6.840000</speed>
</trkpt>
<trkpt lat="32.869197845" lon="35.256828308">
  <ele>316.611816</ele>
  <time>2011-07-22T04:01:48Z</time>
  <speed>6.560000</speed>
</trkpt>
<trkpt lat="32.869243622" lon="35.256782532">
  <ele>316.111816</ele>
  <time>2011-07-22T04:01:49Z</time>
  <speed>5.980000</speed>
</trkpt>
<trkpt lat="32.869300842" lon="35.256744385">
  <ele>315.166504</ele>
  <time>2011-07-22T04:01:50Z</time>
  <speed>5.610000</speed>
</trkpt>
<trkpt lat="32.869342804" lon="35.256706238">
  <ele>315.354004</ele>
  <time>2011-07-22T04:01:51Z</time>
  <speed>5.650000</speed>
</trkpt>
<trkpt lat="32.869384766" lon="35.256671906">
  <ele>315.166504</ele>
  <time>2011-07-22T04:01:52Z</time>
  <speed>5.370000</speed>
</trkpt>
<trkpt lat="32.869426727" lon="35.256641388">
  <ele>314.939941</ele>
  <time>2011-07-22T04:01:53Z</time>
  <speed>5.530000</speed>
</trkpt>
<trkpt lat="32.869472504" lon="35.256607056">
  <ele>314.729004</ele>
  <time>2011-07-22T04:01:54Z</time>
  <speed>5.610000</speed>
</trkpt>
<trkpt lat="32.869514465" lon="35.256568909">
  <ele>314.541504</ele>
  <time>2011-07-22T04:01:55Z</time>
  <speed>5.680000</speed>
</trkpt>
<trkpt lat="32.869564056" lon="35.256523132">
  <ele>314.713379</ele>
  <time>2011-07-22T04:01:56Z</time>
  <speed>5.850000</speed>
</trkpt>
<trkpt lat="32.869613647" lon="35.256484985">
  <ele>314.588379</ele>
  <time>2011-07-22T04:01:57Z</time>
  <speed>5.910000</speed>
</trkpt>
<trkpt lat="32.869655609" lon="35.256450653">
  <ele>314.338379</ele>
  <time>2011-07-22T04:01:58Z</time>
  <speed>5.880000</speed>
</trkpt>
<trkpt lat="32.869701385" lon="35.256416321">
  <ele>313.994629</ele>
  <time>2011-07-22T04:01:59Z</time>
  <speed>5.920000</speed>
</trkpt>
<trkpt lat="32.869747162" lon="35.256381989">
  <ele>314.127441</ele>
  <time>2011-07-22T04:02:00Z</time>
  <speed>5.950000</speed>
</trkpt>
<trkpt lat="32.869796753" lon="35.256351471">
  <ele>313.697754</ele>
  <time>2011-07-22T04:02:01Z</time>
  <speed>6.130000</speed>
</trkpt>
<trkpt lat="32.869846344" lon="35.256313324">
  <ele>313.424316</ele>
  <time>2011-07-22T04:02:02Z</time>
  <speed>6.130000</speed>
</trkpt>
<trkpt lat="32.869895935" lon="35.256282806">
  <ele>312.822754</ele>
  <time>2011-07-22T04:02:03Z</time>
  <speed>6.790000</speed>
</trkpt>
<trkpt lat="32.869953156" lon="35.256248474">
  <ele>312.658691</ele>
  <time>2011-07-22T04:02:04Z</time>
  <speed>7.180000</speed>
</trkpt>
<trkpt lat="32.870006561" lon="35.256206512">
  <ele>312.393066</ele>
  <time>2011-07-22T04:02:05Z</time>
  <speed>7.430000</speed>
</trkpt>
<trkpt lat="32.870063782" lon="35.256156921">
  <ele>311.939941</ele>
  <time>2011-07-22T04:02:06Z</time>
  <speed>8.170000</speed>
</trkpt>
<trkpt lat="32.870124817" lon="35.256103516">
  <ele>311.768066</ele>
  <time>2011-07-22T04:02:07Z</time>
  <speed>8.320000</speed>
</trkpt>
<trkpt lat="32.870185852" lon="35.256046295">
  <ele>312.025879</ele>
  <time>2011-07-22T04:02:08Z</time>
  <speed>8.490000</speed>
</trkpt>
<trkpt lat="32.870250702" lon="35.255992889">
  <ele>311.557129</ele>
  <time>2011-07-22T04:02:09Z</time>
  <speed>8.780000</speed>
</trkpt>
<trkpt lat="32.870311737" lon="35.255931854">
  <ele>310.846191</ele>
  <time>2011-07-22T04:02:10Z</time>
  <speed>8.960000</speed>
</trkpt>
<trkpt lat="32.870372772" lon="35.255859375">
  <ele>309.705566</ele>
  <time>2011-07-22T04:02:11Z</time>
  <speed>9.160000</speed>
</trkpt>
<trkpt lat="32.870426178" lon="35.255786896">
  <ele>308.775879</ele>
  <time>2011-07-22T04:02:12Z</time>
  <speed>9.250000</speed>
</trkpt>
<trkpt lat="32.870475769" lon="35.255702972">
  <ele>308.689941</ele>
  <time>2011-07-22T04:02:13Z</time>
  <speed>10.110000</speed>
</trkpt>
<trkpt lat="32.870517731" lon="35.255607605">
  <ele>308.150879</ele>
  <time>2011-07-22T04:02:14Z</time>
  <speed>9.740000</speed>
</trkpt>
<trkpt lat="32.870548248" lon="35.255516052">
  <ele>307.596191</ele>
  <time>2011-07-22T04:02:15Z</time>
  <speed>9.280000</speed>
</trkpt>
<trkpt lat="32.870578766" lon="35.255413055">
  <ele>307.486816</ele>
  <time>2011-07-22T04:02:16Z</time>
  <speed>9.330000</speed>
</trkpt>
<trkpt lat="32.870601654" lon="35.255313873">
  <ele>306.463379</ele>
  <time>2011-07-22T04:02:17Z</time>
  <speed>9.290000</speed>
</trkpt>
<trkpt lat="32.870620728" lon="35.255218506">
  <ele>305.682129</ele>
  <time>2011-07-22T04:02:18Z</time>
  <speed>8.670000</speed>
</trkpt>
<trkpt lat="32.870632172" lon="35.255115509">
  <ele>305.424316</ele>
  <time>2011-07-22T04:02:19Z</time>
  <speed>8.690000</speed>
</trkpt>
<trkpt lat="32.870639801" lon="35.255016327">
  <ele>306.416504</ele>
  <time>2011-07-22T04:02:20Z</time>
  <speed>8.480000</speed>
</trkpt>
<trkpt lat="32.870643616" lon="35.254924774">
  <ele>306.127441</ele>
  <time>2011-07-22T04:02:21Z</time>
  <speed>8.300000</speed>
</trkpt>
<trkpt lat="32.870635986" lon="35.254829407">
  <ele>305.885254</ele>
  <time>2011-07-22T04:02:22Z</time>
  <speed>8.640000</speed>
</trkpt>
<trkpt lat="32.870628357" lon="35.254741669">
  <ele>305.143066</ele>
  <time>2011-07-22T04:02:23Z</time>
  <speed>8.480000</speed>
</trkpt>
<trkpt lat="32.870620728" lon="35.254646301">
  <ele>304.963379</ele>
  <time>2011-07-22T04:02:24Z</time>
  <speed>8.770000</speed>
</trkpt>
<trkpt lat="32.870609283" lon="35.254554749">
  <ele>304.877441</ele>
  <time>2011-07-22T04:02:25Z</time>
  <speed>8.730000</speed>
</trkpt>
<trkpt lat="32.870601654" lon="35.254459381">
  <ele>304.580566</ele>
  <time>2011-07-22T04:02:26Z</time>
  <speed>8.850000</speed>
</trkpt>
<trkpt lat="32.870590210" lon="35.254360199">
  <ele>304.221191</ele>
  <time>2011-07-22T04:02:27Z</time>
  <speed>9.120000</speed>
</trkpt>
<trkpt lat="32.870563507" lon="35.254241943">
  <ele>302.197754</ele>
  <time>2011-07-22T04:02:28Z</time>
  <speed>9.910000</speed>
</trkpt>
<trkpt lat="32.870540619" lon="35.254135132">
  <ele>301.619629</ele>
  <time>2011-07-22T04:02:29Z</time>
  <speed>10.320000</speed>
</trkpt>
<trkpt lat="32.870498657" lon="35.254024506">
  <ele>300.627441</ele>
  <time>2011-07-22T04:02:30Z</time>
  <speed>10.580000</speed>
</trkpt>
<trkpt lat="32.870449066" lon="35.253913879">
  <ele>300.307129</ele>
  <time>2011-07-22T04:02:31Z</time>
  <speed>10.870000</speed>
</trkpt>
<trkpt lat="32.870410919" lon="35.253795624">
  <ele>299.877441</ele>
  <time>2011-07-22T04:02:32Z</time>
  <speed>11.090000</speed>
</trkpt>
<trkpt lat="32.870361328" lon="35.253684998">
  <ele>299.674316</ele>
  <time>2011-07-22T04:02:33Z</time>
  <speed>10.430000</speed>
</trkpt>
<trkpt lat="32.870323181" lon="35.253574371">
  <ele>299.752441</ele>
  <time>2011-07-22T04:02:34Z</time>
  <speed>10.120000</speed>
</trkpt>
<trkpt lat="32.870292664" lon="35.253475189">
  <ele>299.213379</ele>
  <time>2011-07-22T04:02:35Z</time>
  <speed>9.900000</speed>
</trkpt>
<trkpt lat="32.870273590" lon="35.253379822">
  <ele>299.182129</ele>
  <time>2011-07-22T04:02:36Z</time>
  <speed>9.590000</speed>
</trkpt>
<trkpt lat="32.870269775" lon="35.253280640">
  <ele>298.619629</ele>
  <time>2011-07-22T04:02:37Z</time>
  <speed>9.280000</speed>
</trkpt>
<trkpt lat="32.870277405" lon="35.253185272">
  <ele>297.494629</ele>
  <time>2011-07-22T04:02:38Z</time>
  <speed>9.050001</speed>
</trkpt>
<trkpt lat="32.870304108" lon="35.253097534">
  <ele>296.549316</ele>
  <time>2011-07-22T04:02:39Z</time>
  <speed>8.800000</speed>
</trkpt>
<trkpt lat="32.870338440" lon="35.253021240">
  <ele>295.932129</ele>
  <time>2011-07-22T04:02:40Z</time>
  <speed>8.450000</speed>
</trkpt>
<trkpt lat="32.870376587" lon="35.252944946">
  <ele>294.877441</ele>
  <time>2011-07-22T04:02:41Z</time>
  <speed>8.270000</speed>
</trkpt>
<trkpt lat="32.870418549" lon="35.252872467">
  <ele>294.596191</ele>
  <time>2011-07-22T04:02:42Z</time>
  <speed>8.020000</speed>
</trkpt>
<trkpt lat="32.870468140" lon="35.252807617">
  <ele>295.799316</ele>
  <time>2011-07-22T04:02:43Z</time>
  <speed>8.390000</speed>
</trkpt>
<trkpt lat="32.870525360" lon="35.252754211">
  <ele>295.697754</ele>
  <time>2011-07-22T04:02:44Z</time>
  <speed>7.400000</speed>
</trkpt>
<trkpt lat="32.870586395" lon="35.252750397">
  <ele>292.182129</ele>
  <time>2011-07-22T04:02:45Z</time>
  <speed>6.910000</speed>
</trkpt>
<trkpt lat="32.870655060" lon="35.252758026">
  <ele>291.518066</ele>
  <time>2011-07-22T04:02:46Z</time>
  <speed>6.670000</speed>
</trkpt>
<trkpt lat="32.870716095" lon="35.252773285">
  <ele>291.525879</ele>
  <time>2011-07-22T04:02:47Z</time>
  <speed>6.580000</speed>
</trkpt>
<trkpt lat="32.870780945" lon="35.252796173">
  <ele>289.947754</ele>
  <time>2011-07-22T04:02:48Z</time>
  <speed>6.570000</speed>
</trkpt>
<trkpt lat="32.870841980" lon="35.252819061">
  <ele>289.275879</ele>
  <time>2011-07-22T04:02:49Z</time>
  <speed>6.250000</speed>
</trkpt>
<trkpt lat="32.870899200" lon="35.252826691">
  <ele>289.604004</ele>
  <time>2011-07-22T04:02:50Z</time>
  <speed>5.930000</speed>
</trkpt>
<trkpt lat="32.870956421" lon="35.252826691">
  <ele>289.502441</ele>
  <time>2011-07-22T04:02:51Z</time>
  <speed>6.310000</speed>
</trkpt>
<trkpt lat="32.871009827" lon="35.252845764">
  <ele>289.189941</ele>
  <time>2011-07-22T04:02:52Z</time>
  <speed>6.170000</speed>
</trkpt>
<trkpt lat="32.871059418" lon="35.252876282">
  <ele>288.721191</ele>
  <time>2011-07-22T04:02:53Z</time>
  <speed>5.240000</speed>
</trkpt>
<trkpt lat="32.871093750" lon="35.252906799">
  <ele>288.197754</ele>
  <time>2011-07-22T04:02:54Z</time>
  <speed>4.470000</speed>
</trkpt>
<trkpt lat="32.871120453" lon="35.252937317">
  <ele>287.127441</ele>
  <time>2011-07-22T04:02:55Z</time>
  <speed>3.690000</speed>
</trkpt>
<trkpt lat="32.871143341" lon="35.252960205">
  <ele>286.689941</ele>
  <time>2011-07-22T04:02:56Z</time>
  <speed>3.320000</speed>
</trkpt>
<trkpt lat="32.871162415" lon="35.252998352">
  <ele>287.971191</ele>
  <time>2011-07-22T04:02:57Z</time>
  <speed>3.140000</speed>
</trkpt>
<trkpt lat="32.871166229" lon="35.253032684">
  <ele>288.596191</ele>
  <time>2011-07-22T04:02:58Z</time>
  <speed>2.910000</speed>
</trkpt>
<trkpt lat="32.871173859" lon="35.253070831">
  <ele>289.307129</ele>
  <time>2011-07-22T04:02:59Z</time>
  <speed>3.070000</speed>
</trkpt>
<trkpt lat="32.871177673" lon="35.253105164">
  <ele>289.463379</ele>
  <time>2011-07-22T04:03:00Z</time>
  <speed>3.260000</speed>
</trkpt>
<trkpt lat="32.871185303" lon="35.253139496">
  <ele>290.525879</ele>
  <time>2011-07-22T04:03:01Z</time>
  <speed>2.990000</speed>
</trkpt>
<trkpt lat="32.871204376" lon="35.253204346">
  <ele>290.361816</ele>
  <time>2011-07-22T04:03:03Z</time>
  <speed>3.160000</speed>
</trkpt>
<trkpt lat="32.871215820" lon="35.253242493">
  <ele>289.479004</ele>
  <time>2011-07-22T04:03:04Z</time>
  <speed>3.110000</speed>
</trkpt>
<trkpt lat="32.871227264" lon="35.253269196">
  <ele>289.236816</ele>
  <time>2011-07-22T04:03:05Z</time>
  <speed>2.550000</speed>
</trkpt>
<trkpt lat="32.871246338" lon="35.253311157">
  <ele>288.588379</ele>
  <time>2011-07-22T04:03:07Z</time>
  <speed>1.970000</speed>
</trkpt>
<trkpt lat="32.871273041" lon="35.253341675">
  <ele>287.525879</ele>
  <time>2011-07-22T04:03:09Z</time>
  <speed>1.750000</speed>
</trkpt>
<trkpt lat="32.871288300" lon="35.253376007">
  <ele>286.775879</ele>
  <time>2011-07-22T04:03:11Z</time>
  <speed>1.820000</speed>
</trkpt>
<trkpt lat="32.871303558" lon="35.253421783">
  <ele>286.166504</ele>
  <time>2011-07-22T04:03:13Z</time>
  <speed>1.740000</speed>
</trkpt>
<trkpt lat="32.871307373" lon="35.253456116">
  <ele>286.002441</ele>
  <time>2011-07-22T04:03:15Z</time>
  <speed>1.110000</speed>
</trkpt>
<trkpt lat="32.871322632" lon="35.253486633">
  <ele>284.549316</ele>
  <time>2011-07-22T04:03:18Z</time>
  <speed>1.380000</speed>
</trkpt>
<trkpt lat="32.871349335" lon="35.253509521">
  <ele>284.650879</ele>
  <time>2011-07-22T04:03:22Z</time>
  <speed>0.530000</speed>
</trkpt>
<trkpt lat="32.871364594" lon="35.253536224">
  <ele>285.361816</ele>
  <time>2011-07-22T04:04:01Z</time>
  <speed>2.590000</speed>
</trkpt>
<trkpt lat="32.871383667" lon="35.253566742">
  <ele>285.471191</ele>
  <time>2011-07-22T04:04:02Z</time>
  <speed>3.170000</speed>
</trkpt>
<trkpt lat="32.871398926" lon="35.253593445">
  <ele>285.666504</ele>
  <time>2011-07-22T04:04:03Z</time>
  <speed>2.900000</speed>
</trkpt>
<trkpt lat="32.871414185" lon="35.253627777">
  <ele>285.791504</ele>
  <time>2011-07-22T04:04:04Z</time>
  <speed>3.310000</speed>
</trkpt>
<trkpt lat="32.871433258" lon="35.253658295">
  <ele>285.908691</ele>
  <time>2011-07-22T04:04:05Z</time>
  <speed>3.590000</speed>
</trkpt>
<trkpt lat="32.871448517" lon="35.253688812">
  <ele>285.994629</ele>
  <time>2011-07-22T04:04:06Z</time>
  <speed>3.850000</speed>
</trkpt>
<trkpt lat="32.871471405" lon="35.253719330">
  <ele>286.166504</ele>
  <time>2011-07-22T04:04:07Z</time>
  <speed>3.700000</speed>
</trkpt>
<trkpt lat="32.871494293" lon="35.253753662">
  <ele>286.361816</ele>
  <time>2011-07-22T04:04:08Z</time>
  <speed>3.910000</speed>
</trkpt>
<trkpt lat="32.871517181" lon="35.253784180">
  <ele>286.213379</ele>
  <time>2011-07-22T04:04:09Z</time>
  <speed>3.690000</speed>
</trkpt>
<trkpt lat="32.871543884" lon="35.253818512">
  <ele>286.619629</ele>
  <time>2011-07-22T04:04:10Z</time>
  <speed>4.290000</speed>
</trkpt>
<trkpt lat="32.871570587" lon="35.253852844">
  <ele>286.697754</ele>
  <time>2011-07-22T04:04:11Z</time>
  <speed>4.540000</speed>
</trkpt>
<trkpt lat="32.871597290" lon="35.253890991">
  <ele>286.900879</ele>
  <time>2011-07-22T04:04:12Z</time>
  <speed>4.280000</speed>
</trkpt>
<trkpt lat="32.871623993" lon="35.253921509">
  <ele>287.525879</ele>
  <time>2011-07-22T04:04:13Z</time>
  <speed>4.060000</speed>
</trkpt>
<trkpt lat="32.871654510" lon="35.253948212">
  <ele>287.744629</ele>
  <time>2011-07-22T04:04:14Z</time>
  <speed>4.040000</speed>
</trkpt>
<trkpt lat="32.871681213" lon="35.253982544">
  <ele>287.963379</ele>
  <time>2011-07-22T04:04:15Z</time>
  <speed>4.130000</speed>
</trkpt>
<trkpt lat="32.871707916" lon="35.254016876">
  <ele>288.322754</ele>
  <time>2011-07-22T04:04:16Z</time>
  <speed>3.970000</speed>
</trkpt>
<trkpt lat="32.871738434" lon="35.254043579">
  <ele>288.354004</ele>
  <time>2011-07-22T04:04:17Z</time>
  <speed>4.200000</speed>
</trkpt>
<trkpt lat="32.871780396" lon="35.254070282">
  <ele>288.010254</ele>
  <time>2011-07-22T04:04:18Z</time>
  <speed>4.160000</speed>
</trkpt>
<trkpt lat="32.871814728" lon="35.254085541">
  <ele>288.463379</ele>
  <time>2011-07-22T04:04:19Z</time>
  <speed>4.110000</speed>
</trkpt>
<trkpt lat="32.871868134" lon="35.254108429">
  <ele>289.291504</ele>
  <time>2011-07-22T04:04:20Z</time>
  <speed>4.890000</speed>
</trkpt>
<trkpt lat="32.871902466" lon="35.254127502">
  <ele>289.283691</ele>
  <time>2011-07-22T04:04:21Z</time>
  <speed>4.580000</speed>
</trkpt>
<trkpt lat="32.871944427" lon="35.254142761">
  <ele>289.807129</ele>
  <time>2011-07-22T04:04:22Z</time>
  <speed>4.120000</speed>
</trkpt>
<trkpt lat="32.871986389" lon="35.254158020">
  <ele>289.854004</ele>
  <time>2011-07-22T04:04:23Z</time>
  <speed>4.220000</speed>
</trkpt>
<trkpt lat="32.872024536" lon="35.254158020">
  <ele>290.002441</ele>
  <time>2011-07-22T04:04:24Z</time>
  <speed>4.000000</speed>
</trkpt>
<trkpt lat="32.872055054" lon="35.254165649">
  <ele>289.721191</ele>
  <time>2011-07-22T04:04:25Z</time>
  <speed>3.490000</speed>
</trkpt>
<trkpt lat="32.872085571" lon="35.254173279">
  <ele>290.096191</ele>
  <time>2011-07-22T04:04:26Z</time>
  <speed>3.320000</speed>
</trkpt>
<trkpt lat="32.872112274" lon="35.254180908">
  <ele>289.838379</ele>
  <time>2011-07-22T04:04:27Z</time>
  <speed>2.970000</speed>
</trkpt>
<trkpt lat="32.872142792" lon="35.254188538">
  <ele>289.299316</ele>
  <time>2011-07-22T04:04:28Z</time>
  <speed>3.340000</speed>
</trkpt>
<trkpt lat="32.872184753" lon="35.254192352">
  <ele>289.057129</ele>
  <time>2011-07-22T04:04:29Z</time>
  <speed>4.000000</speed>
</trkpt>
<trkpt lat="32.872219086" lon="35.254192352">
  <ele>288.471191</ele>
  <time>2011-07-22T04:04:30Z</time>
  <speed>3.480000</speed>
</trkpt>
<trkpt lat="32.872261047" lon="35.254196167">
  <ele>288.760254</ele>
  <time>2011-07-22T04:04:31Z</time>
  <speed>3.680000</speed>
</trkpt>
<trkpt lat="32.872295380" lon="35.254192352">
  <ele>289.127441</ele>
  <time>2011-07-22T04:04:32Z</time>
  <speed>3.700000</speed>
</trkpt>
<trkpt lat="32.872322083" lon="35.254192352">
  <ele>289.580566</ele>
  <time>2011-07-22T04:04:33Z</time>
  <speed>3.370000</speed>
</trkpt>
<trkpt lat="32.872364044" lon="35.254196167">
  <ele>289.041504</ele>
  <time>2011-07-22T04:04:34Z</time>
  <speed>3.290000</speed>
</trkpt>
<trkpt lat="32.872398376" lon="35.254207611">
  <ele>289.072754</ele>
  <time>2011-07-22T04:04:35Z</time>
  <speed>3.630000</speed>
</trkpt>
<trkpt lat="32.872428894" lon="35.254211426">
  <ele>289.127441</ele>
  <time>2011-07-22T04:04:36Z</time>
  <speed>3.650000</speed>
</trkpt>
<trkpt lat="32.872467041" lon="35.254211426">
  <ele>288.713379</ele>
  <time>2011-07-22T04:04:37Z</time>
  <speed>3.610000</speed>
</trkpt>
<trkpt lat="32.872501373" lon="35.254219055">
  <ele>289.213379</ele>
  <time>2011-07-22T04:04:38Z</time>
  <speed>3.580000</speed>
</trkpt>
<trkpt lat="32.872531891" lon="35.254226685">
  <ele>288.393066</ele>
  <time>2011-07-22T04:04:39Z</time>
  <speed>3.480000</speed>
</trkpt>
<trkpt lat="32.872562408" lon="35.254226685">
  <ele>288.596191</ele>
  <time>2011-07-22T04:04:40Z</time>
  <speed>3.470000</speed>
</trkpt>
<trkpt lat="32.872612000" lon="35.254226685">
  <ele>288.869629</ele>
  <time>2011-07-22T04:04:42Z</time>
  <speed>2.910000</speed>
</trkpt>
<trkpt lat="32.872661591" lon="35.254222870">
  <ele>290.166504</ele>
  <time>2011-07-22T04:04:44Z</time>
  <speed>2.860000</speed>
</trkpt>
<trkpt lat="32.872714996" lon="35.254230499">
  <ele>289.838379</ele>
  <time>2011-07-22T04:04:46Z</time>
  <speed>3.280000</speed>
</trkpt>
<trkpt lat="32.872749329" lon="35.254238129">
  <ele>290.518066</ele>
  <time>2011-07-22T04:04:47Z</time>
  <speed>3.570000</speed>
</trkpt>
<trkpt lat="32.872783661" lon="35.254241943">
  <ele>290.986816</ele>
  <time>2011-07-22T04:04:48Z</time>
  <speed>3.670000</speed>
</trkpt>
<trkpt lat="32.872814178" lon="35.254238129">
  <ele>290.713379</ele>
  <time>2011-07-22T04:04:49Z</time>
  <speed>2.920000</speed>
</trkpt>
<trkpt lat="32.872837067" lon="35.254230499">
  <ele>291.900879</ele>
  <time>2011-07-22T04:04:50Z</time>
  <speed>2.770000</speed>
</trkpt>
<trkpt lat="32.872867584" lon="35.254226685">
  <ele>292.799316</ele>
  <time>2011-07-22T04:04:51Z</time>
  <speed>2.780000</speed>
</trkpt>
<trkpt lat="32.872913361" lon="35.254230499">
  <ele>293.275879</ele>
  <time>2011-07-22T04:04:53Z</time>
  <speed>2.390000</speed>
</trkpt>
<trkpt lat="32.872955322" lon="35.254226685">
  <ele>293.150879</ele>
  <time>2011-07-22T04:04:55Z</time>
  <speed>2.110000</speed>
</trkpt>
<trkpt lat="32.873004913" lon="35.254222870">
  <ele>293.893066</ele>
  <time>2011-07-22T04:04:57Z</time>
  <speed>2.060000</speed>
</trkpt>
<trkpt lat="32.873039246" lon="35.254234314">
  <ele>294.619629</ele>
  <time>2011-07-22T04:04:59Z</time>
  <speed>2.080000</speed>
</trkpt>
<trkpt lat="32.873073578" lon="35.254249573">
  <ele>294.119629</ele>
  <time>2011-07-22T04:05:01Z</time>
  <speed>1.660000</speed>
</trkpt>
<trkpt lat="32.873107910" lon="35.254249573">
  <ele>293.854004</ele>
  <time>2011-07-22T04:05:03Z</time>
  <speed>1.640000</speed>
</trkpt>
<trkpt lat="32.873138428" lon="35.254241943">
  <ele>293.135254</ele>
  <time>2011-07-22T04:05:05Z</time>
  <speed>1.540000</speed>
</trkpt>
<trkpt lat="32.873176575" lon="35.254245758">
  <ele>293.643066</ele>
  <time>2011-07-22T04:05:08Z</time>
  <speed>1.260000</speed>
</trkpt>
<trkpt lat="32.873203278" lon="35.254241943">
  <ele>293.189941</ele>
  <time>2011-07-22T04:05:10Z</time>
  <speed>0.560000</speed>
</trkpt>
<trkpt lat="32.873229980" lon="35.254230499">
  <ele>292.135254</ele>
  <time>2011-07-22T04:05:13Z</time>
  <speed>0.500000</speed>
</trkpt>
<trkpt lat="32.873245239" lon="35.254211426">
  <ele>294.244629</ele>
  <time>2011-07-22T04:05:54Z</time>
  <speed>0.040000</speed>
</trkpt>
<trkpt lat="32.873218536" lon="35.254199982">
  <ele>294.518066</ele>
  <time>2011-07-22T04:06:18Z</time>
</trkpt>
<trkpt lat="32.873188019" lon="35.254196167">
  <ele>295.104004</ele>
  <time>2011-07-22T04:06:26Z</time>
</trkpt>
<trkpt lat="32.873233795" lon="35.254215240">
  <ele>295.119629</ele>
  <time>2011-07-22T04:09:04Z</time>
  <speed>2.300000</speed>
</trkpt>
<trkpt lat="32.873256683" lon="35.254234314">
  <ele>295.119629</ele>
  <time>2011-07-22T04:09:05Z</time>
  <speed>2.900000</speed>
</trkpt>
<trkpt lat="32.873306274" lon="35.254257202">
  <ele>295.205566</ele>
  <time>2011-07-22T04:09:06Z</time>
  <speed>5.060000</speed>
</trkpt>
<trkpt lat="32.873355865" lon="35.254283905">
  <ele>294.877441</ele>
  <time>2011-07-22T04:09:07Z</time>
  <speed>4.620000</speed>
</trkpt>
<trkpt lat="32.873390198" lon="35.254302979">
  <ele>294.650879</ele>
  <time>2011-07-22T04:09:08Z</time>
  <speed>3.850000</speed>
</trkpt>
<trkpt lat="32.873416901" lon="35.254329681">
  <ele>294.229004</ele>
  <time>2011-07-22T04:09:09Z</time>
  <speed>3.540000</speed>
</trkpt>
<trkpt lat="32.873451233" lon="35.254364014">
  <ele>293.838379</ele>
  <time>2011-07-22T04:09:10Z</time>
  <speed>3.510000</speed>
</trkpt>
<trkpt lat="32.873485565" lon="35.254386902">
  <ele>293.104004</ele>
  <time>2011-07-22T04:09:11Z</time>
  <speed>4.020000</speed>
</trkpt>
<trkpt lat="32.873519897" lon="35.254421234">
  <ele>292.416504</ele>
  <time>2011-07-22T04:09:12Z</time>
  <speed>3.690000</speed>
</trkpt>
<trkpt lat="32.873569489" lon="35.254459381">
  <ele>291.463379</ele>
  <time>2011-07-22T04:09:13Z</time>
  <speed>4.040000</speed>
</trkpt>
<trkpt lat="32.873596191" lon="35.254497528">
  <ele>291.260254</ele>
  <time>2011-07-22T04:09:14Z</time>
  <speed>4.250000</speed>
</trkpt>
<trkpt lat="32.873626709" lon="35.254520416">
  <ele>290.705566</ele>
  <time>2011-07-22T04:09:15Z</time>
  <speed>4.230000</speed>
</trkpt>
<trkpt lat="32.873668671" lon="35.254531860">
  <ele>290.252441</ele>
  <time>2011-07-22T04:09:16Z</time>
  <speed>4.550000</speed>
</trkpt>
<trkpt lat="32.873718262" lon="35.254539490">
  <ele>289.932129</ele>
  <time>2011-07-22T04:09:17Z</time>
  <speed>5.250000</speed>
</trkpt>
<trkpt lat="32.873767853" lon="35.254547119">
  <ele>290.205566</ele>
  <time>2011-07-22T04:09:18Z</time>
  <speed>5.560000</speed>
</trkpt>
<trkpt lat="32.873828888" lon="35.254547119">
  <ele>290.338379</ele>
  <time>2011-07-22T04:09:19Z</time>
  <speed>5.300000</speed>
</trkpt>
<trkpt lat="32.873874664" lon="35.254535675">
  <ele>290.033691</ele>
  <time>2011-07-22T04:09:20Z</time>
  <speed>4.820000</speed>
</trkpt>
<trkpt lat="32.873908997" lon="35.254539490">
  <ele>289.166504</ele>
  <time>2011-07-22T04:09:21Z</time>
  <speed>3.460000</speed>
</trkpt>
<trkpt lat="32.873943329" lon="35.254554749">
  <ele>288.432129</ele>
  <time>2011-07-22T04:09:22Z</time>
  <speed>3.750000</speed>
</trkpt>
<trkpt lat="32.873970032" lon="35.254570007">
  <ele>287.752441</ele>
  <time>2011-07-22T04:09:23Z</time>
  <speed>2.760000</speed>
</trkpt>
<trkpt lat="32.873992920" lon="35.254592896">
  <ele>287.033691</ele>
  <time>2011-07-22T04:09:24Z</time>
  <speed>2.570000</speed>
</trkpt>
<trkpt lat="32.874011993" lon="35.254627228">
  <ele>285.814941</ele>
  <time>2011-07-22T04:09:25Z</time>
  <speed>3.360000</speed>
</trkpt>
<trkpt lat="32.874038696" lon="35.254661560">
  <ele>285.057129</ele>
  <time>2011-07-22T04:09:26Z</time>
  <speed>4.020000</speed>
</trkpt>
<trkpt lat="32.874076843" lon="35.254695892">
  <ele>283.377441</ele>
  <time>2011-07-22T04:09:27Z</time>
  <speed>3.280000</speed>
</trkpt>
<trkpt lat="32.874038696" lon="35.254730225">
  <ele>282.783691</ele>
  <time>2011-07-22T04:09:29Z</time>
  <speed>3.110000</speed>
</trkpt>
<trkpt lat="32.874008179" lon="35.254737854">
  <ele>281.869629</ele>
  <time>2011-07-22T04:09:30Z</time>
  <speed>2.980000</speed>
</trkpt>
<trkpt lat="32.873985291" lon="35.254783630">
  <ele>280.580566</ele>
  <time>2011-07-22T04:09:32Z</time>
  <speed>2.390000</speed>
</trkpt>
<trkpt lat="32.874004364" lon="35.254825592">
  <ele>279.416504</ele>
  <time>2011-07-22T04:09:33Z</time>
  <speed>3.210000</speed>
</trkpt>
<trkpt lat="32.874011993" lon="35.254867554">
  <ele>278.432129</ele>
  <time>2011-07-22T04:09:34Z</time>
  <speed>3.170000</speed>
</trkpt>
<trkpt lat="32.874023438" lon="35.254932404">
  <ele>278.416504</ele>
  <time>2011-07-22T04:09:35Z</time>
  <speed>2.040000</speed>
</trkpt>
<trkpt lat="32.874069214" lon="35.254966736">
  <ele>277.471191</ele>
  <time>2011-07-22T04:09:37Z</time>
  <speed>2.610000</speed>
</trkpt>
<trkpt lat="32.874092102" lon="35.255008698">
  <ele>276.338379</ele>
  <time>2011-07-22T04:09:39Z</time>
  <speed>2.500000</speed>
</trkpt>
<trkpt lat="32.874073029" lon="35.255069733">
  <ele>272.174316</ele>
  <time>2011-07-22T04:09:41Z</time>
  <speed>3.180000</speed>
</trkpt>
<trkpt lat="32.874057770" lon="35.255111694">
  <ele>271.260254</ele>
  <time>2011-07-22T04:09:42Z</time>
  <speed>2.940000</speed>
</trkpt>
<trkpt lat="32.874061584" lon="35.255149841">
  <ele>270.674316</ele>
  <time>2011-07-22T04:09:43Z</time>
  <speed>2.750000</speed>
</trkpt>
<trkpt lat="32.874061584" lon="35.255184174">
  <ele>269.549316</ele>
  <time>2011-07-22T04:09:44Z</time>
  <speed>2.650000</speed>
</trkpt>
<trkpt lat="32.874069214" lon="35.255222321">
  <ele>268.502441</ele>
  <time>2011-07-22T04:09:45Z</time>
  <speed>2.490000</speed>
</trkpt>
<trkpt lat="32.874099731" lon="35.255271912">
  <ele>267.072754</ele>
  <time>2011-07-22T04:09:47Z</time>
  <speed>3.150000</speed>
</trkpt>
<trkpt lat="32.874130249" lon="35.255302429">
  <ele>264.986816</ele>
  <time>2011-07-22T04:09:48Z</time>
  <speed>3.190000</speed>
</trkpt>
<trkpt lat="32.874137878" lon="35.255336761">
  <ele>264.158691</ele>
  <time>2011-07-22T04:09:49Z</time>
  <speed>2.840000</speed>
</trkpt>
<trkpt lat="32.874145508" lon="35.255371094">
  <ele>263.721191</ele>
  <time>2011-07-22T04:09:50Z</time>
  <speed>3.110000</speed>
</trkpt>
<trkpt lat="32.874160767" lon="35.255401611">
  <ele>262.525879</ele>
  <time>2011-07-22T04:09:51Z</time>
  <speed>1.750000</speed>
</trkpt>
<trkpt lat="32.874176025" lon="35.255428314">
  <ele>262.713379</ele>
  <time>2011-07-22T04:09:52Z</time>
  <speed>2.700000</speed>
</trkpt>
<trkpt lat="32.874221802" lon="35.255455017">
  <ele>262.096191</ele>
  <time>2011-07-22T04:09:54Z</time>
  <speed>2.580000</speed>
</trkpt>
<trkpt lat="32.874248505" lon="35.255474091">
  <ele>261.729004</ele>
  <time>2011-07-22T04:09:55Z</time>
  <speed>3.430000</speed>
</trkpt>
<trkpt lat="32.874275208" lon="35.255500793">
  <ele>261.236816</ele>
  <time>2011-07-22T04:09:56Z</time>
  <speed>3.040000</speed>
</trkpt>
<trkpt lat="32.874320984" lon="35.255527496">
  <ele>260.408691</ele>
  <time>2011-07-22T04:09:58Z</time>
  <speed>2.600000</speed>
</trkpt>
<trkpt lat="32.874355316" lon="35.255542755">
  <ele>259.760254</ele>
  <time>2011-07-22T04:09:59Z</time>
  <speed>3.390000</speed>
</trkpt>
<trkpt lat="32.874382019" lon="35.255546570">
  <ele>259.182129</ele>
  <time>2011-07-22T04:10:00Z</time>
  <speed>3.090000</speed>
</trkpt>
<trkpt lat="32.874408722" lon="35.255558014">
  <ele>258.721191</ele>
  <time>2011-07-22T04:10:01Z</time>
  <speed>3.080000</speed>
</trkpt>
<trkpt lat="32.874443054" lon="35.255588531">
  <ele>257.596191</ele>
  <time>2011-07-22T04:10:02Z</time>
  <speed>4.360000</speed>
</trkpt>
<trkpt lat="32.874462128" lon="35.255626678">
  <ele>256.893066</ele>
  <time>2011-07-22T04:10:03Z</time>
  <speed>4.090000</speed>
</trkpt>
<trkpt lat="32.874485016" lon="35.255664825">
  <ele>256.455566</ele>
  <time>2011-07-22T04:10:04Z</time>
  <speed>4.830000</speed>
</trkpt>
<trkpt lat="32.874511719" lon="35.255714417">
  <ele>255.762939</ele>
  <time>2011-07-22T04:10:05Z</time>
  <speed>5.060000</speed>
</trkpt>
<trkpt lat="32.874549866" lon="35.255764008">
  <ele>255.852783</ele>
  <time>2011-07-22T04:10:06Z</time>
  <speed>5.570000</speed>
</trkpt>
<trkpt lat="32.874595642" lon="35.255798340">
  <ele>256.689941</ele>
  <time>2011-07-22T04:10:07Z</time>
  <speed>5.350000</speed>
</trkpt>
<trkpt lat="32.874664307" lon="35.255821228">
  <ele>255.540283</ele>
  <time>2011-07-22T04:10:08Z</time>
  <speed>5.310000</speed>
</trkpt>
<trkpt lat="32.874710083" lon="35.255836487">
  <ele>255.130127</ele>
  <time>2011-07-22T04:10:09Z</time>
  <speed>5.090000</speed>
</trkpt>
<trkpt lat="32.874752045" lon="35.255863190">
  <ele>254.778564</ele>
  <time>2011-07-22T04:10:10Z</time>
  <speed>4.860000</speed>
</trkpt>
<trkpt lat="32.874790192" lon="35.255882263">
  <ele>254.360596</ele>
  <time>2011-07-22T04:10:11Z</time>
  <speed>4.550000</speed>
</trkpt>
<trkpt lat="32.874828339" lon="35.255901337">
  <ele>254.122314</ele>
  <time>2011-07-22T04:10:12Z</time>
  <speed>4.150000</speed>
</trkpt>
<trkpt lat="32.874858856" lon="35.255928040">
  <ele>253.852783</ele>
  <time>2011-07-22T04:10:13Z</time>
  <speed>4.630000</speed>
</trkpt>
<trkpt lat="32.874897003" lon="35.255966187">
  <ele>253.790283</ele>
  <time>2011-07-22T04:10:14Z</time>
  <speed>5.210000</speed>
</trkpt>
<trkpt lat="32.874942780" lon="35.256027222">
  <ele>253.204346</ele>
  <time>2011-07-22T04:10:15Z</time>
  <speed>6.000000</speed>
</trkpt>
<trkpt lat="32.874961853" lon="35.256084442">
  <ele>252.766846</ele>
  <time>2011-07-22T04:10:16Z</time>
  <speed>6.130000</speed>
</trkpt>
<trkpt lat="32.874988556" lon="35.256137848">
  <ele>252.563721</ele>
  <time>2011-07-22T04:10:17Z</time>
  <speed>5.320000</speed>
</trkpt>
<trkpt lat="32.874992371" lon="35.256191254">
  <ele>251.798096</ele>
  <time>2011-07-22T04:10:18Z</time>
  <speed>5.540000</speed>
</trkpt>
<trkpt lat="32.874992371" lon="35.256259918">
  <ele>252.114502</ele>
  <time>2011-07-22T04:10:19Z</time>
  <speed>5.140000</speed>
</trkpt>
<trkpt lat="32.875000000" lon="35.256320953">
  <ele>251.087158</ele>
  <time>2011-07-22T04:10:20Z</time>
  <speed>5.260000</speed>
</trkpt>
<trkpt lat="32.874984741" lon="35.256378174">
  <ele>251.387939</ele>
  <time>2011-07-22T04:10:21Z</time>
  <speed>4.990000</speed>
</trkpt>
<trkpt lat="32.874980927" lon="35.256427765">
  <ele>250.911377</ele>
  <time>2011-07-22T04:10:22Z</time>
  <speed>3.830000</speed>
</trkpt>
<trkpt lat="32.874988556" lon="35.256458282">
  <ele>250.524658</ele>
  <time>2011-07-22T04:10:23Z</time>
  <speed>2.760000</speed>
</trkpt>
<trkpt lat="32.875003815" lon="35.256488800">
  <ele>249.173096</ele>
  <time>2011-07-22T04:10:24Z</time>
  <speed>2.930000</speed>
</trkpt>
<trkpt lat="32.874984741" lon="35.256534576">
  <ele>247.731689</ele>
  <time>2011-07-22T04:10:26Z</time>
  <speed>2.880000</speed>
</trkpt>
<trkpt lat="32.874946594" lon="35.256572723">
  <ele>246.333252</ele>
  <time>2011-07-22T04:10:28Z</time>
  <speed>3.050000</speed>
</trkpt>
<trkpt lat="32.874927521" lon="35.256614685">
  <ele>245.380127</ele>
  <time>2011-07-22T04:10:29Z</time>
  <speed>3.560000</speed>
</trkpt>
<trkpt lat="32.874916077" lon="35.256660461">
  <ele>244.395752</ele>
  <time>2011-07-22T04:10:30Z</time>
  <speed>3.410000</speed>
</trkpt>
<trkpt lat="32.874916077" lon="35.256706238">
  <ele>243.087158</ele>
  <time>2011-07-22T04:10:31Z</time>
  <speed>3.770000</speed>
</trkpt>
<trkpt lat="32.874927521" lon="35.256759644">
  <ele>243.192627</ele>
  <time>2011-07-22T04:10:32Z</time>
  <speed>3.720000</speed>
</trkpt>
<trkpt lat="32.874935150" lon="35.256793976">
  <ele>243.110596</ele>
  <time>2011-07-22T04:10:33Z</time>
  <speed>2.700000</speed>
</trkpt>
<trkpt lat="32.874938965" lon="35.256835938">
  <ele>242.634033</ele>
  <time>2011-07-22T04:10:35Z</time>
  <speed>1.470000</speed>
</trkpt>
<trkpt lat="32.874946594" lon="35.256885529">
  <ele>241.579346</ele>
  <time>2011-07-22T04:10:37Z</time>
  <speed>2.000000</speed>
</trkpt>
<trkpt lat="32.874977112" lon="35.256908417">
  <ele>241.610596</ele>
  <time>2011-07-22T04:10:38Z</time>
  <speed>3.050000</speed>
</trkpt>
<trkpt lat="32.875000000" lon="35.256923676">
  <ele>241.802002</ele>
  <time>2011-07-22T04:10:39Z</time>
  <speed>3.320000</speed>
</trkpt>
<trkpt lat="32.875057220" lon="35.256950378">
  <ele>241.063721</ele>
  <time>2011-07-22T04:10:41Z</time>
  <speed>3.580000</speed>
</trkpt>
<trkpt lat="32.875083923" lon="35.256977081">
  <ele>240.856689</ele>
  <time>2011-07-22T04:10:42Z</time>
  <speed>3.400000</speed>
</trkpt>
<trkpt lat="32.875099182" lon="35.257007599">
  <ele>240.661377</ele>
  <time>2011-07-22T04:10:43Z</time>
  <speed>3.850000</speed>
</trkpt>
<trkpt lat="32.875110626" lon="35.257041931">
  <ele>240.411377</ele>
  <time>2011-07-22T04:10:44Z</time>
  <speed>2.950000</speed>
</trkpt>
<trkpt lat="32.875125885" lon="35.257091522">
  <ele>240.723877</ele>
  <time>2011-07-22T04:10:46Z</time>
  <speed>2.080000</speed>
</trkpt>
<trkpt lat="32.875152588" lon="35.257141113">
  <ele>239.485596</ele>
  <time>2011-07-22T04:10:48Z</time>
  <speed>2.230000</speed>
</trkpt>
<trkpt lat="32.875156403" lon="35.257186890">
  <ele>239.622314</ele>
  <time>2011-07-22T04:10:51Z</time>
  <speed>1.150000</speed>
</trkpt>
<trkpt lat="32.875144958" lon="35.257217407">
  <ele>238.844971</ele>
  <time>2011-07-22T04:10:53Z</time>
  <speed>1.710000</speed>
</trkpt>
<trkpt lat="32.875125885" lon="35.257255554">
  <ele>237.891846</ele>
  <time>2011-07-22T04:10:55Z</time>
  <speed>2.800000</speed>
</trkpt>
<trkpt lat="32.875110626" lon="35.257286072">
  <ele>237.673096</ele>
  <time>2011-07-22T04:10:56Z</time>
  <speed>2.750000</speed>
</trkpt>
<trkpt lat="32.875110626" lon="35.257362366">
  <ele>238.134033</ele>
  <time>2011-07-22T04:10:58Z</time>
  <speed>3.240000</speed>
</trkpt>
<trkpt lat="32.875125885" lon="35.257400513">
  <ele>238.677002</ele>
  <time>2011-07-22T04:10:59Z</time>
  <speed>3.680000</speed>
</trkpt>
<trkpt lat="32.875141144" lon="35.257434845">
  <ele>238.657471</ele>
  <time>2011-07-22T04:11:00Z</time>
  <speed>2.960000</speed>
</trkpt>
<trkpt lat="32.875167847" lon="35.257465363">
  <ele>238.399658</ele>
  <time>2011-07-22T04:11:01Z</time>
  <speed>3.810000</speed>
</trkpt>
<trkpt lat="32.875194550" lon="35.257484436">
  <ele>238.415283</ele>
  <time>2011-07-22T04:11:02Z</time>
  <speed>3.270000</speed>
</trkpt>
<trkpt lat="32.875225067" lon="35.257507324">
  <ele>237.505127</ele>
  <time>2011-07-22T04:11:03Z</time>
  <speed>3.350000</speed>
</trkpt>
<trkpt lat="32.875251770" lon="35.257526398">
  <ele>237.161377</ele>
  <time>2011-07-22T04:11:04Z</time>
  <speed>3.230000</speed>
</trkpt>
<trkpt lat="32.875282288" lon="35.257537842">
  <ele>236.739502</ele>
  <time>2011-07-22T04:11:05Z</time>
  <speed>3.400000</speed>
</trkpt>
<trkpt lat="32.875316620" lon="35.257545471">
  <ele>236.427002</ele>
  <time>2011-07-22T04:11:06Z</time>
  <speed>3.090000</speed>
</trkpt>
<trkpt lat="32.875350952" lon="35.257553101">
  <ele>236.438721</ele>
  <time>2011-07-22T04:11:07Z</time>
  <speed>3.600000</speed>
</trkpt>
<trkpt lat="32.875385284" lon="35.257564545">
  <ele>235.977783</ele>
  <time>2011-07-22T04:11:08Z</time>
  <speed>3.600000</speed>
</trkpt>
<trkpt lat="32.875427246" lon="35.257587433">
  <ele>235.481689</ele>
  <time>2011-07-22T04:11:09Z</time>
  <speed>3.850000</speed>
</trkpt>
<trkpt lat="32.875457764" lon="35.257610321">
  <ele>234.809814</ele>
  <time>2011-07-22T04:11:10Z</time>
  <speed>3.700000</speed>
</trkpt>
<trkpt lat="32.875492096" lon="35.257633209">
  <ele>234.356689</ele>
  <time>2011-07-22T04:11:11Z</time>
  <speed>4.050000</speed>
</trkpt>
<trkpt lat="32.875526428" lon="35.257652283">
  <ele>234.102783</ele>
  <time>2011-07-22T04:11:12Z</time>
  <speed>3.470000</speed>
</trkpt>
<trkpt lat="32.875564575" lon="35.257659912">
  <ele>233.954346</ele>
  <time>2011-07-22T04:11:13Z</time>
  <speed>4.540000</speed>
</trkpt>
<trkpt lat="32.875625610" lon="35.257678986">
  <ele>232.915283</ele>
  <time>2011-07-22T04:11:14Z</time>
  <speed>5.070000</speed>
</trkpt>
<trkpt lat="32.875671387" lon="35.257698059">
  <ele>232.977783</ele>
  <time>2011-07-22T04:11:15Z</time>
  <speed>5.070000</speed>
</trkpt>
<trkpt lat="32.875717163" lon="35.257728577">
  <ele>232.348877</ele>
  <time>2011-07-22T04:11:16Z</time>
  <speed>5.500000</speed>
</trkpt>
<trkpt lat="32.875770569" lon="35.257755280">
  <ele>231.114502</ele>
  <time>2011-07-22T04:11:17Z</time>
  <speed>5.560000</speed>
</trkpt>
<trkpt lat="32.875816345" lon="35.257785797">
  <ele>231.126221</ele>
  <time>2011-07-22T04:11:18Z</time>
  <speed>5.500000</speed>
</trkpt>
<trkpt lat="32.875862122" lon="35.257823944">
  <ele>230.626221</ele>
  <time>2011-07-22T04:11:19Z</time>
  <speed>5.590000</speed>
</trkpt>
<trkpt lat="32.875919342" lon="35.257846832">
  <ele>229.985596</ele>
  <time>2011-07-22T04:11:20Z</time>
  <speed>5.880000</speed>
</trkpt>
<trkpt lat="32.875965118" lon="35.257869720">
  <ele>228.954346</ele>
  <time>2011-07-22T04:11:21Z</time>
  <speed>5.670000</speed>
</trkpt>
<trkpt lat="32.876003265" lon="35.257907867">
  <ele>228.532471</ele>
  <time>2011-07-22T04:11:22Z</time>
  <speed>4.710000</speed>
</trkpt>
<trkpt lat="32.876029968" lon="35.257942200">
  <ele>227.454346</ele>
  <time>2011-07-22T04:11:23Z</time>
  <speed>4.140000</speed>
</trkpt>
<trkpt lat="32.876056671" lon="35.257968903">
  <ele>226.704346</ele>
  <time>2011-07-22T04:11:24Z</time>
  <speed>3.590000</speed>
</trkpt>
<trkpt lat="32.876083374" lon="35.257991791">
  <ele>226.016846</ele>
  <time>2011-07-22T04:11:25Z</time>
  <speed>3.690000</speed>
</trkpt>
<trkpt lat="32.876110077" lon="35.258026123">
  <ele>225.876221</ele>
  <time>2011-07-22T04:11:26Z</time>
  <speed>3.590000</speed>
</trkpt>
<trkpt lat="32.876140594" lon="35.258049011">
  <ele>225.137939</ele>
  <time>2011-07-22T04:11:27Z</time>
  <speed>3.690000</speed>
</trkpt>
<trkpt lat="32.876174927" lon="35.258060455">
  <ele>224.477783</ele>
  <time>2011-07-22T04:11:28Z</time>
  <speed>3.380000</speed>
</trkpt>
<trkpt lat="32.876220703" lon="35.258068085">
  <ele>224.052002</ele>
  <time>2011-07-22T04:11:29Z</time>
  <speed>3.370000</speed>
</trkpt>
<trkpt lat="32.876266479" lon="35.258060455">
  <ele>223.141846</ele>
  <time>2011-07-22T04:11:30Z</time>
  <speed>3.570000</speed>
</trkpt>
<trkpt lat="32.876304626" lon="35.258056641">
  <ele>222.462158</ele>
  <time>2011-07-22T04:11:31Z</time>
  <speed>3.440000</speed>
</trkpt>
<trkpt lat="32.876335144" lon="35.258056641">
  <ele>221.653564</ele>
  <time>2011-07-22T04:11:32Z</time>
  <speed>3.090000</speed>
</trkpt>
<trkpt lat="32.876422882" lon="35.258087158">
  <ele>220.688721</ele>
  <time>2011-07-22T04:11:33Z</time>
  <speed>4.520000</speed>
</trkpt>
<trkpt lat="32.876445770" lon="35.258132935">
  <ele>220.208252</ele>
  <time>2011-07-22T04:11:34Z</time>
  <speed>4.540000</speed>
</trkpt>
<trkpt lat="32.876453400" lon="35.258171082">
  <ele>219.497314</ele>
  <time>2011-07-22T04:11:35Z</time>
  <speed>2.950000</speed>
</trkpt>
<trkpt lat="32.876480103" lon="35.258197784">
  <ele>218.704346</ele>
  <time>2011-07-22T04:11:36Z</time>
  <speed>3.720000</speed>
</trkpt>
<trkpt lat="32.876510620" lon="35.258224487">
  <ele>218.180908</ele>
  <time>2011-07-22T04:11:37Z</time>
  <speed>3.960000</speed>
</trkpt>
<trkpt lat="32.876541138" lon="35.258251190">
  <ele>217.938721</ele>
  <time>2011-07-22T04:11:38Z</time>
  <speed>3.460000</speed>
</trkpt>
<trkpt lat="32.876567841" lon="35.258262634">
  <ele>216.469971</ele>
  <time>2011-07-22T04:11:39Z</time>
  <speed>2.880000</speed>
</trkpt>
<trkpt lat="32.876605988" lon="35.258270264">
  <ele>215.934814</ele>
  <time>2011-07-22T04:11:40Z</time>
  <speed>3.320000</speed>
</trkpt>
<trkpt lat="32.876663208" lon="35.258274078">
  <ele>214.950439</ele>
  <time>2011-07-22T04:11:41Z</time>
  <speed>5.130000</speed>
</trkpt>
<trkpt lat="32.876712799" lon="35.258270264">
  <ele>214.864502</ele>
  <time>2011-07-22T04:11:42Z</time>
  <speed>4.660000</speed>
</trkpt>
<trkpt lat="32.876758575" lon="35.258270264">
  <ele>214.610596</ele>
  <time>2011-07-22T04:11:43Z</time>
  <speed>4.670000</speed>
</trkpt>
<trkpt lat="32.876804352" lon="35.258285522">
  <ele>213.880127</ele>
  <time>2011-07-22T04:11:44Z</time>
  <speed>4.320000</speed>
</trkpt>
<trkpt lat="32.876842499" lon="35.258300781">
  <ele>213.387939</ele>
  <time>2011-07-22T04:11:45Z</time>
  <speed>4.300000</speed>
</trkpt>
<trkpt lat="32.876876831" lon="35.258319855">
  <ele>213.091064</ele>
  <time>2011-07-22T04:11:46Z</time>
  <speed>4.200000</speed>
</trkpt>
<trkpt lat="32.876922607" lon="35.258338928">
  <ele>212.712158</ele>
  <time>2011-07-22T04:11:47Z</time>
  <speed>5.030000</speed>
</trkpt>
<trkpt lat="32.876972198" lon="35.258358002">
  <ele>212.266846</ele>
  <time>2011-07-22T04:11:48Z</time>
  <speed>4.870000</speed>
</trkpt>
<trkpt lat="32.877021790" lon="35.258377075">
  <ele>211.567627</ele>
  <time>2011-07-22T04:11:49Z</time>
  <speed>5.450000</speed>
</trkpt>
<trkpt lat="32.877067566" lon="35.258396149">
  <ele>210.860596</ele>
  <time>2011-07-22T04:11:50Z</time>
  <speed>5.310000</speed>
</trkpt>
<trkpt lat="32.877105713" lon="35.258415222">
  <ele>210.466064</ele>
  <time>2011-07-22T04:11:51Z</time>
  <speed>3.890000</speed>
</trkpt>
<trkpt lat="32.877143860" lon="35.258419037">
  <ele>209.962158</ele>
  <time>2011-07-22T04:11:52Z</time>
  <speed>3.270000</speed>
</trkpt>
<trkpt lat="32.877182007" lon="35.258399963">
  <ele>209.032471</ele>
  <time>2011-07-22T04:11:53Z</time>
  <speed>3.280000</speed>
</trkpt>
<trkpt lat="32.877220154" lon="35.258361816">
  <ele>207.934814</ele>
  <time>2011-07-22T04:11:54Z</time>
  <speed>4.660000</speed>
</trkpt>
<trkpt lat="32.877250671" lon="35.258331299">
  <ele>206.856689</ele>
  <time>2011-07-22T04:11:55Z</time>
  <speed>3.740000</speed>
</trkpt>
<trkpt lat="32.877292633" lon="35.258296967">
  <ele>206.442627</ele>
  <time>2011-07-22T04:11:56Z</time>
  <speed>4.850000</speed>
</trkpt>
<trkpt lat="32.877349854" lon="35.258251190">
  <ele>205.044189</ele>
  <time>2011-07-22T04:11:57Z</time>
  <speed>5.780000</speed>
</trkpt>
<trkpt lat="32.877418518" lon="35.258205414">
  <ele>203.548096</ele>
  <time>2011-07-22T04:11:58Z</time>
  <speed>5.970000</speed>
</trkpt>
<trkpt lat="32.877464294" lon="35.258163452">
  <ele>202.247314</ele>
  <time>2011-07-22T04:11:59Z</time>
  <speed>5.820000</speed>
</trkpt>
<trkpt lat="32.877529144" lon="35.258106232">
  <ele>199.919189</ele>
  <time>2011-07-22T04:12:00Z</time>
  <speed>6.140000</speed>
</trkpt>
<trkpt lat="32.877571106" lon="35.258060455">
  <ele>199.145752</ele>
  <time>2011-07-22T04:12:01Z</time>
  <speed>6.220000</speed>
</trkpt>
<trkpt lat="32.877620697" lon="35.258014679">
  <ele>197.794189</ele>
  <time>2011-07-22T04:12:02Z</time>
  <speed>6.160000</speed>
</trkpt>
<trkpt lat="32.877662659" lon="35.257965088">
  <ele>196.743408</ele>
  <time>2011-07-22T04:12:03Z</time>
  <speed>5.870000</speed>
</trkpt>
<trkpt lat="32.877716064" lon="35.257923126">
  <ele>195.692627</ele>
  <time>2011-07-22T04:12:04Z</time>
  <speed>6.550000</speed>
</trkpt>
<trkpt lat="32.877761841" lon="35.257884979">
  <ele>194.884033</ele>
  <time>2011-07-22T04:12:05Z</time>
  <speed>5.410000</speed>
</trkpt>
<trkpt lat="32.877799988" lon="35.257850647">
  <ele>194.071533</ele>
  <time>2011-07-22T04:12:06Z</time>
  <speed>4.930000</speed>
</trkpt>
<trkpt lat="32.877830505" lon="35.257789612">
  <ele>192.579346</ele>
  <time>2011-07-22T04:12:07Z</time>
  <speed>5.170000</speed>
</trkpt>
<trkpt lat="32.877861023" lon="35.257743835">
  <ele>191.298096</ele>
  <time>2011-07-22T04:12:08Z</time>
  <speed>5.330000</speed>
</trkpt>
<trkpt lat="32.877891541" lon="35.257690430">
  <ele>191.598877</ele>
  <time>2011-07-22T04:12:09Z</time>
  <speed>4.590000</speed>
</trkpt>
<trkpt lat="32.877925873" lon="35.257644653">
  <ele>191.071533</ele>
  <time>2011-07-22T04:12:10Z</time>
  <speed>5.380000</speed>
</trkpt>
<trkpt lat="32.877967834" lon="35.257595062">
  <ele>190.469971</ele>
  <time>2011-07-22T04:12:11Z</time>
  <speed>5.830000</speed>
</trkpt>
<trkpt lat="32.878005981" lon="35.257530212">
  <ele>188.509033</ele>
  <time>2011-07-22T04:12:12Z</time>
  <speed>5.560000</speed>
</trkpt>
<trkpt lat="32.878021240" lon="35.257469177">
  <ele>187.790283</ele>
  <time>2011-07-22T04:12:13Z</time>
  <speed>3.980000</speed>
</trkpt>
<trkpt lat="32.878036499" lon="35.257423401">
  <ele>187.372314</ele>
  <time>2011-07-22T04:12:14Z</time>
  <speed>4.110000</speed>
</trkpt>
<trkpt lat="32.878047943" lon="35.257366180">
  <ele>185.958252</ele>
  <time>2011-07-22T04:12:15Z</time>
  <speed>4.860000</speed>
</trkpt>
<trkpt lat="32.878086090" lon="35.257289886">
  <ele>184.598877</ele>
  <time>2011-07-22T04:12:16Z</time>
  <speed>8.300000</speed>
</trkpt>
<trkpt lat="32.878135681" lon="35.257221222">
  <ele>183.876221</ele>
  <time>2011-07-22T04:12:17Z</time>
  <speed>8.510000</speed>
</trkpt>
<trkpt lat="32.878196716" lon="35.257144928">
  <ele>183.571533</ele>
  <time>2011-07-22T04:12:18Z</time>
  <speed>8.080000</speed>
</trkpt>
<trkpt lat="32.878253937" lon="35.257068634">
  <ele>183.282471</ele>
  <time>2011-07-22T04:12:19Z</time>
  <speed>7.280000</speed>
</trkpt>
<trkpt lat="32.878299713" lon="35.257011414">
  <ele>182.704346</ele>
  <time>2011-07-22T04:12:20Z</time>
  <speed>6.160000</speed>
</trkpt>
<trkpt lat="32.878337860" lon="35.256961823">
  <ele>184.212158</ele>
  <time>2011-07-22T04:12:21Z</time>
  <speed>4.070000</speed>
</trkpt>
<trkpt lat="32.878368378" lon="35.256961823">
  <ele>183.419189</ele>
  <time>2011-07-22T04:12:22Z</time>
  <speed>2.880000</speed>
</trkpt>
<trkpt lat="32.878410339" lon="35.256950378">
  <ele>183.641846</ele>
  <time>2011-07-22T04:12:24Z</time>
  <speed>2.050000</speed>
</trkpt>
<trkpt lat="32.878444672" lon="35.256965637">
  <ele>183.012939</ele>
  <time>2011-07-22T04:12:25Z</time>
  <speed>3.060000</speed>
</trkpt>
<trkpt lat="32.878479004" lon="35.256969452">
  <ele>182.813721</ele>
  <time>2011-07-22T04:12:26Z</time>
  <speed>2.750000</speed>
</trkpt>
<trkpt lat="32.878520966" lon="35.256977081">
  <ele>183.708252</ele>
  <time>2011-07-22T04:12:27Z</time>
  <speed>3.550000</speed>
</trkpt>
<trkpt lat="32.878555298" lon="35.256988525">
  <ele>183.259033</ele>
  <time>2011-07-22T04:12:28Z</time>
  <speed>3.410000</speed>
</trkpt>
<trkpt lat="32.878585815" lon="35.257007599">
  <ele>183.149658</ele>
  <time>2011-07-22T04:12:29Z</time>
  <speed>3.450000</speed>
</trkpt>
<trkpt lat="32.878620148" lon="35.257026672">
  <ele>183.192627</ele>
  <time>2011-07-22T04:12:30Z</time>
  <speed>2.740000</speed>
</trkpt>
<trkpt lat="32.878650665" lon="35.257038116">
  <ele>183.180908</ele>
  <time>2011-07-22T04:12:31Z</time>
  <speed>3.010000</speed>
</trkpt>
<trkpt lat="32.878681183" lon="35.257045746">
  <ele>182.923096</ele>
  <time>2011-07-22T04:12:32Z</time>
  <speed>3.340000</speed>
</trkpt>
<trkpt lat="32.878715515" lon="35.257057190">
  <ele>182.766846</ele>
  <time>2011-07-22T04:12:33Z</time>
  <speed>2.930000</speed>
</trkpt>
<trkpt lat="32.878746033" lon="35.257072449">
  <ele>182.059814</ele>
  <time>2011-07-22T04:12:34Z</time>
  <speed>3.480000</speed>
</trkpt>
<trkpt lat="32.878784180" lon="35.257087708">
  <ele>181.716064</ele>
  <time>2011-07-22T04:12:35Z</time>
  <speed>3.960000</speed>
</trkpt>
<trkpt lat="32.878826141" lon="35.257102966">
  <ele>181.696533</ele>
  <time>2011-07-22T04:12:36Z</time>
  <speed>4.320000</speed>
</trkpt>
<trkpt lat="32.878860474" lon="35.257122040">
  <ele>181.360596</ele>
  <time>2011-07-22T04:12:37Z</time>
  <speed>3.890000</speed>
</trkpt>
<trkpt lat="32.878906250" lon="35.257148743">
  <ele>181.716064</ele>
  <time>2011-07-22T04:12:38Z</time>
  <speed>4.280000</speed>
</trkpt>
<trkpt lat="32.878952026" lon="35.257144928">
  <ele>181.821533</ele>
  <time>2011-07-22T04:12:39Z</time>
  <speed>3.640000</speed>
</trkpt>
<trkpt lat="32.878997803" lon="35.257152557">
  <ele>181.376221</ele>
  <time>2011-07-22T04:12:40Z</time>
  <speed>3.470000</speed>
</trkpt>
<trkpt lat="32.879032135" lon="35.257156372">
  <ele>181.137939</ele>
  <time>2011-07-22T04:12:41Z</time>
  <speed>3.380000</speed>
</trkpt>
<trkpt lat="32.879066467" lon="35.257156372">
  <ele>180.868408</ele>
  <time>2011-07-22T04:12:42Z</time>
  <speed>2.700000</speed>
</trkpt>
<trkpt lat="32.879104614" lon="35.257156372">
  <ele>179.950439</ele>
  <time>2011-07-22T04:12:43Z</time>
  <speed>2.710000</speed>
</trkpt>
<trkpt lat="32.879142761" lon="35.257160187">
  <ele>180.032471</ele>
  <time>2011-07-22T04:12:44Z</time>
  <speed>2.760000</speed>
</trkpt>
<trkpt lat="32.879173279" lon="35.257164001">
  <ele>179.887939</ele>
  <time>2011-07-22T04:12:45Z</time>
  <speed>2.360000</speed>
</trkpt>
<trkpt lat="32.879203796" lon="35.257167816">
  <ele>179.497314</ele>
  <time>2011-07-22T04:12:46Z</time>
  <speed>2.660000</speed>
</trkpt>
<trkpt lat="32.879241943" lon="35.257160187">
  <ele>178.622314</ele>
  <time>2011-07-22T04:12:47Z</time>
  <speed>2.660000</speed>
</trkpt>
<trkpt lat="32.879283905" lon="35.257156372">
  <ele>178.962158</ele>
  <time>2011-07-22T04:12:49Z</time>
  <speed>1.600000</speed>
</trkpt>
<trkpt lat="32.879333496" lon="35.257141113">
  <ele>178.993408</ele>
  <time>2011-07-22T04:12:51Z</time>
  <speed>1.720000</speed>
</trkpt>
<trkpt lat="32.879394531" lon="35.257122040">
  <ele>178.266846</ele>
  <time>2011-07-22T04:12:53Z</time>
  <speed>1.970000</speed>
</trkpt>
<trkpt lat="32.879447937" lon="35.257102966">
  <ele>178.403564</ele>
  <time>2011-07-22T04:12:55Z</time>
  <speed>1.630000</speed>
</trkpt>
<trkpt lat="32.879474640" lon="35.257083893">
  <ele>179.356689</ele>
  <time>2011-07-22T04:12:56Z</time>
  <speed>1.560000</speed>
</trkpt>
<trkpt lat="32.879505157" lon="35.257083893">
  <ele>179.790283</ele>
  <time>2011-07-22T04:12:57Z</time>
  <speed>1.100000</speed>
</trkpt>
<trkpt lat="32.879562378" lon="35.257064819">
  <ele>181.247314</ele>
  <time>2011-07-22T04:12:59Z</time>
  <speed>1.820000</speed>
</trkpt>
<trkpt lat="32.879604340" lon="35.257064819">
  <ele>181.387939</ele>
  <time>2011-07-22T04:13:00Z</time>
  <speed>1.270000</speed>
</trkpt>
<trkpt lat="32.879638672" lon="35.257064819">
  <ele>181.341064</ele>
  <time>2011-07-22T04:13:02Z</time>
  <speed>0.830000</speed>
</trkpt>
<trkpt lat="32.879665375" lon="35.257038116">
  <ele>182.001221</ele>
  <time>2011-07-22T04:13:04Z</time>
  <speed>1.050000</speed>
</trkpt>
<trkpt lat="32.879699707" lon="35.257034302">
  <ele>182.657471</ele>
  <time>2011-07-22T04:13:06Z</time>
  <speed>1.160000</speed>
</trkpt>
<trkpt lat="32.879722595" lon="35.257011414">
  <ele>182.899658</ele>
  <time>2011-07-22T04:13:08Z</time>
  <speed>0.860000</speed>
</trkpt>
<trkpt lat="32.879749298" lon="35.256996155">
  <ele>183.239502</ele>
  <time>2011-07-22T04:13:12Z</time>
  <speed>0.850000</speed>
</trkpt>
<trkpt lat="32.879783630" lon="35.256977081">
  <ele>183.505127</ele>
  <time>2011-07-22T04:13:14Z</time>
  <speed>1.740000</speed>
</trkpt>
<trkpt lat="32.879817963" lon="35.256961823">
  <ele>184.993408</ele>
  <time>2011-07-22T04:13:16Z</time>
  <speed>1.250000</speed>
</trkpt>
<trkpt lat="32.879852295" lon="35.256942749">
  <ele>186.153564</ele>
  <time>2011-07-22T04:13:19Z</time>
  <speed>0.740000</speed>
</trkpt>
<trkpt lat="32.879890442" lon="35.256958008">
  <ele>186.059814</ele>
  <time>2011-07-22T04:13:22Z</time>
  <speed>1.120000</speed>
</trkpt>
<trkpt lat="32.879924774" lon="35.256965637">
  <ele>185.868408</ele>
  <time>2011-07-22T04:13:24Z</time>
  <speed>1.410000</speed>
</trkpt>
<trkpt lat="32.879966736" lon="35.256965637">
  <ele>185.524658</ele>
  <time>2011-07-22T04:13:26Z</time>
  <speed>1.680000</speed>
</trkpt>
<trkpt lat="32.880020142" lon="35.256961823">
  <ele>185.337158</ele>
  <time>2011-07-22T04:13:28Z</time>
  <speed>2.820000</speed>
</trkpt>
<trkpt lat="32.880046844" lon="35.256950378">
  <ele>184.872314</ele>
  <time>2011-07-22T04:13:29Z</time>
  <speed>2.180000</speed>
</trkpt>
<trkpt lat="32.880092621" lon="35.256938934">
  <ele>186.247314</ele>
  <time>2011-07-22T04:13:31Z</time>
  <speed>2.690000</speed>
</trkpt>
<trkpt lat="32.880123138" lon="35.256950378">
  <ele>186.719971</ele>
  <time>2011-07-22T04:13:32Z</time>
  <speed>2.420000</speed>
</trkpt>
<trkpt lat="32.880168915" lon="35.256942749">
  <ele>185.794189</ele>
  <time>2011-07-22T04:13:34Z</time>
  <speed>1.820000</speed>
</trkpt>
<trkpt lat="32.880210876" lon="35.256942749">
  <ele>185.368408</ele>
  <time>2011-07-22T04:13:36Z</time>
  <speed>1.990000</speed>
</trkpt>
<trkpt lat="32.880249023" lon="35.256942749">
  <ele>184.825439</ele>
  <time>2011-07-22T04:13:38Z</time>
  <speed>1.980000</speed>
</trkpt>
<trkpt lat="32.880290985" lon="35.256958008">
  <ele>184.020752</ele>
  <time>2011-07-22T04:13:40Z</time>
  <speed>2.330000</speed>
</trkpt>
<trkpt lat="32.880344391" lon="35.256950378">
  <ele>182.712158</ele>
  <time>2011-07-22T04:13:42Z</time>
  <speed>3.010000</speed>
</trkpt>
<trkpt lat="32.880378723" lon="35.256950378">
  <ele>182.001221</ele>
  <time>2011-07-22T04:13:43Z</time>
  <speed>2.350000</speed>
</trkpt>
<trkpt lat="32.880409241" lon="35.256938934">
  <ele>181.223877</ele>
  <time>2011-07-22T04:13:44Z</time>
  <speed>3.090000</speed>
</trkpt>
<trkpt lat="32.880462646" lon="35.256942749">
  <ele>179.255127</ele>
  <time>2011-07-22T04:13:45Z</time>
  <speed>2.650000</speed>
</trkpt>
<trkpt lat="32.880496979" lon="35.256938934">
  <ele>177.559814</ele>
  <time>2011-07-22T04:13:46Z</time>
  <speed>2.000000</speed>
</trkpt>
<trkpt lat="32.880535126" lon="35.256904602">
  <ele>175.380127</ele>
  <time>2011-07-22T04:13:48Z</time>
  <speed>2.350000</speed>
</trkpt>
<trkpt lat="32.880554199" lon="35.256881714">
  <ele>174.798096</ele>
  <time>2011-07-22T04:13:49Z</time>
  <speed>2.540000</speed>
</trkpt>
<trkpt lat="32.880599976" lon="35.256877899">
  <ele>174.098877</ele>
  <time>2011-07-22T04:13:50Z</time>
  <speed>2.780000</speed>
</trkpt>
<trkpt lat="32.880626678" lon="35.256874084">
  <ele>172.915283</ele>
  <time>2011-07-22T04:13:51Z</time>
  <speed>2.890000</speed>
</trkpt>
<trkpt lat="32.880661011" lon="35.256862640">
  <ele>172.192627</ele>
  <time>2011-07-22T04:13:52Z</time>
  <speed>3.840000</speed>
</trkpt>
<trkpt lat="32.880722046" lon="35.256870270">
  <ele>171.059814</ele>
  <time>2011-07-22T04:13:53Z</time>
  <speed>3.880000</speed>
</trkpt>
<trkpt lat="32.880771637" lon="35.256851196">
  <ele>170.227783</ele>
  <time>2011-07-22T04:13:54Z</time>
  <speed>3.820000</speed>
</trkpt>
<trkpt lat="32.880813599" lon="35.256828308">
  <ele>170.430908</ele>
  <time>2011-07-22T04:13:55Z</time>
  <speed>3.910000</speed>
</trkpt>
<trkpt lat="32.880874634" lon="35.256813049">
  <ele>169.868408</ele>
  <time>2011-07-22T04:13:56Z</time>
  <speed>3.870000</speed>
</trkpt>
<trkpt lat="32.880939484" lon="35.256790161">
  <ele>168.528564</ele>
  <time>2011-07-22T04:13:57Z</time>
  <speed>4.550000</speed>
</trkpt>
<trkpt lat="32.880981445" lon="35.256767273">
  <ele>168.005127</ele>
  <time>2011-07-22T04:13:58Z</time>
  <speed>4.130000</speed>
</trkpt>
<trkpt lat="32.881023407" lon="35.256740570">
  <ele>167.677002</ele>
  <time>2011-07-22T04:13:59Z</time>
  <speed>4.320000</speed>
</trkpt>
<trkpt lat="32.881099701" lon="35.256725311">
  <ele>166.661377</ele>
  <time>2011-07-22T04:14:00Z</time>
  <speed>3.510000</speed>
</trkpt>
<trkpt lat="32.881145477" lon="35.256706238">
  <ele>166.294189</ele>
  <time>2011-07-22T04:14:01Z</time>
  <speed>2.980000</speed>
</trkpt>
<trkpt lat="32.881175995" lon="35.256664276">
  <ele>165.700439</ele>
  <time>2011-07-22T04:14:02Z</time>
  <speed>2.880000</speed>
</trkpt>
<trkpt lat="32.881282806" lon="35.256652832">
  <ele>164.368408</ele>
  <time>2011-07-22T04:14:04Z</time>
  <speed>3.050000</speed>
</trkpt>
<trkpt lat="32.881332397" lon="35.256633759">
  <ele>164.016846</ele>
  <time>2011-07-22T04:14:05Z</time>
  <speed>3.110000</speed>
</trkpt>
<trkpt lat="32.881435394" lon="35.256618500">
  <ele>163.274658</ele>
  <time>2011-07-22T04:14:06Z</time>
  <speed>4.160000</speed>
</trkpt>
<trkpt lat="32.881458282" lon="35.256534576">
  <ele>162.930908</ele>
  <time>2011-07-22T04:14:07Z</time>
  <speed>4.310000</speed>
</trkpt>
<trkpt lat="32.881553650" lon="35.256481171">
  <ele>161.813721</ele>
  <time>2011-07-22T04:14:08Z</time>
  <speed>4.890000</speed>
</trkpt>
<trkpt lat="32.881591797" lon="35.256427765">
  <ele>161.356689</ele>
  <time>2011-07-22T04:14:09Z</time>
  <speed>3.920000</speed>
</trkpt>
<trkpt lat="32.881649017" lon="35.256397247">
  <ele>160.805908</ele>
  <time>2011-07-22T04:14:10Z</time>
  <speed>2.800000</speed>
</trkpt>
<trkpt lat="32.881664276" lon="35.256343842">
  <ele>160.759033</ele>
  <time>2011-07-22T04:14:11Z</time>
  <speed>2.930000</speed>
</trkpt>
<trkpt lat="32.881683350" lon="35.256305695">
  <ele>160.552002</ele>
  <time>2011-07-22T04:14:12Z</time>
  <speed>2.490000</speed>
</trkpt>
<trkpt lat="32.881717682" lon="35.256282806">
  <ele>159.934814</ele>
  <time>2011-07-22T04:14:13Z</time>
  <speed>2.140000</speed>
</trkpt>
<trkpt lat="32.881759644" lon="35.256267548">
  <ele>160.098877</ele>
  <time>2011-07-22T04:14:15Z</time>
  <speed>1.800000</speed>
</trkpt>
<trkpt lat="32.881790161" lon="35.256267548">
  <ele>160.692627</ele>
  <time>2011-07-22T04:14:16Z</time>
  <speed>3.510000</speed>
</trkpt>
<trkpt lat="32.881824493" lon="35.256256104">
  <ele>160.247314</ele>
  <time>2011-07-22T04:14:17Z</time>
  <speed>3.080000</speed>
</trkpt>
<trkpt lat="32.881855011" lon="35.256244659">
  <ele>159.524658</ele>
  <time>2011-07-22T04:14:18Z</time>
  <speed>2.530000</speed>
</trkpt>
<trkpt lat="32.881931305" lon="35.256225586">
  <ele>161.028564</ele>
  <time>2011-07-22T04:14:19Z</time>
  <speed>2.570000</speed>
</trkpt>
<trkpt lat="32.881954193" lon="35.256202698">
  <ele>160.997314</ele>
  <time>2011-07-22T04:14:20Z</time>
  <speed>2.760000</speed>
</trkpt>
<trkpt lat="32.881999969" lon="35.256179810">
  <ele>159.973877</ele>
  <time>2011-07-22T04:14:22Z</time>
  <speed>2.630000</speed>
</trkpt>
<trkpt lat="32.882003784" lon="35.256141663">
  <ele>162.153564</ele>
  <time>2011-07-22T04:14:23Z</time>
  <speed>0.980000</speed>
</trkpt>
<trkpt lat="32.882038116" lon="35.256118774">
  <ele>161.387939</ele>
  <time>2011-07-22T04:14:27Z</time>
  <speed>0.610000</speed>
</trkpt>
<trkpt lat="32.882064819" lon="35.256099701">
  <ele>162.813721</ele>
  <time>2011-07-22T04:14:35Z</time>
  <speed>0.600000</speed>
</trkpt>
<trkpt lat="32.882091522" lon="35.256084442">
  <ele>163.016846</ele>
  <time>2011-07-22T04:14:38Z</time>
  <speed>1.200000</speed>
</trkpt>
<trkpt lat="32.882102966" lon="35.256053925">
  <ele>162.798096</ele>
  <time>2011-07-22T04:14:40Z</time>
  <speed>1.750000</speed>
</trkpt>
<trkpt lat="32.882129669" lon="35.256046295">
  <ele>163.337158</ele>
  <time>2011-07-22T04:14:41Z</time>
  <speed>2.440000</speed>
</trkpt>
<trkpt lat="32.882167816" lon="35.256019592">
  <ele>163.024658</ele>
  <time>2011-07-22T04:14:43Z</time>
  <speed>2.410000</speed>
</trkpt>
<trkpt lat="32.882213593" lon="35.255996704">
  <ele>163.278564</ele>
  <time>2011-07-22T04:14:45Z</time>
  <speed>2.450000</speed>
</trkpt>
<trkpt lat="32.882240295" lon="35.255985260">
  <ele>162.942627</ele>
  <time>2011-07-22T04:14:46Z</time>
  <speed>3.010000</speed>
</trkpt>
<trkpt lat="32.882274628" lon="35.255939484">
  <ele>161.852783</ele>
  <time>2011-07-22T04:14:48Z</time>
  <speed>2.150000</speed>
</trkpt>
<trkpt lat="32.882289886" lon="35.255912781">
  <ele>160.680908</ele>
  <time>2011-07-22T04:14:49Z</time>
  <speed>2.440000</speed>
</trkpt>
<trkpt lat="32.882293701" lon="35.255878448">
  <ele>160.259033</ele>
  <time>2011-07-22T04:14:50Z</time>
  <speed>2.500000</speed>
</trkpt>
<trkpt lat="32.882320404" lon="35.255817413">
  <ele>159.626221</ele>
  <time>2011-07-22T04:14:52Z</time>
  <speed>1.940000</speed>
</trkpt>
<trkpt lat="32.882343292" lon="35.255764008">
  <ele>160.255127</ele>
  <time>2011-07-22T04:14:53Z</time>
  <speed>2.520000</speed>
</trkpt>
<trkpt lat="32.882362366" lon="35.255699158">
  <ele>158.962158</ele>
  <time>2011-07-22T04:14:55Z</time>
  <speed>2.980000</speed>
</trkpt>
<trkpt lat="32.882373810" lon="35.255661011">
  <ele>158.774658</ele>
  <time>2011-07-22T04:14:56Z</time>
  <speed>2.620000</speed>
</trkpt>
<trkpt lat="32.882389069" lon="35.255592346">
  <ele>158.305908</ele>
  <time>2011-07-22T04:14:58Z</time>
  <speed>3.110000</speed>
</trkpt>
<trkpt lat="32.882385254" lon="35.255561829">
  <ele>158.430908</ele>
  <time>2011-07-22T04:14:59Z</time>
  <speed>2.890000</speed>
</trkpt>
<trkpt lat="32.882381439" lon="35.255527496">
  <ele>157.399658</ele>
  <time>2011-07-22T04:15:00Z</time>
  <speed>3.240000</speed>
</trkpt>
<trkpt lat="32.882396698" lon="35.255493164">
  <ele>156.712158</ele>
  <time>2011-07-22T04:15:01Z</time>
  <speed>2.800000</speed>
</trkpt>
<trkpt lat="32.882419586" lon="35.255466461">
  <ele>155.864502</ele>
  <time>2011-07-22T04:15:02Z</time>
  <speed>2.810000</speed>
</trkpt>
<trkpt lat="32.882442474" lon="35.255409241">
  <ele>154.837158</ele>
  <time>2011-07-22T04:15:04Z</time>
  <speed>3.720000</speed>
</trkpt>
<trkpt lat="32.882450104" lon="35.255363464">
  <ele>153.985596</ele>
  <time>2011-07-22T04:15:05Z</time>
  <speed>3.840000</speed>
</trkpt>
<trkpt lat="32.882457733" lon="35.255313873">
  <ele>153.134033</ele>
  <time>2011-07-22T04:15:06Z</time>
  <speed>4.070000</speed>
</trkpt>
<trkpt lat="32.882469177" lon="35.255268097">
  <ele>152.094971</ele>
  <time>2011-07-22T04:15:07Z</time>
  <speed>3.720000</speed>
</trkpt>
<trkpt lat="32.882476807" lon="35.255233765">
  <ele>150.817627</ele>
  <time>2011-07-22T04:15:08Z</time>
  <speed>2.850000</speed>
</trkpt>
<trkpt lat="32.882480621" lon="35.255184174">
  <ele>149.872314</ele>
  <time>2011-07-22T04:15:09Z</time>
  <speed>3.480000</speed>
</trkpt>
<trkpt lat="32.882488251" lon="35.255134583">
  <ele>148.852783</ele>
  <time>2011-07-22T04:15:10Z</time>
  <speed>3.700000</speed>
</trkpt>
<trkpt lat="32.882511139" lon="35.255069733">
  <ele>149.677002</ele>
  <time>2011-07-22T04:15:11Z</time>
  <speed>3.820000</speed>
</trkpt>
<trkpt lat="32.882522583" lon="35.255027771">
  <ele>148.887939</ele>
  <time>2011-07-22T04:15:12Z</time>
  <speed>3.320000</speed>
</trkpt>
<trkpt lat="32.882530212" lon="35.254993439">
  <ele>148.102783</ele>
  <time>2011-07-22T04:15:13Z</time>
  <speed>3.130000</speed>
</trkpt>
<trkpt lat="32.882530212" lon="35.254955292">
  <ele>147.333252</ele>
  <time>2011-07-22T04:15:14Z</time>
  <speed>2.450000</speed>
</trkpt>
<trkpt lat="32.882537842" lon="35.254905701">
  <ele>144.751221</ele>
  <time>2011-07-22T04:15:16Z</time>
  <speed>2.450000</speed>
</trkpt>
<trkpt lat="32.882545471" lon="35.254852295">
  <ele>145.016846</ele>
  <time>2011-07-22T04:15:17Z</time>
  <speed>1.750000</speed>
</trkpt>
<trkpt lat="32.882560730" lon="35.254791260">
  <ele>145.364502</ele>
  <time>2011-07-22T04:15:19Z</time>
  <speed>2.440000</speed>
</trkpt>
<trkpt lat="32.882568359" lon="35.254756927">
  <ele>144.841064</ele>
  <time>2011-07-22T04:15:20Z</time>
  <speed>2.530000</speed>
</trkpt>
<trkpt lat="32.882575989" lon="35.254714966">
  <ele>144.962158</ele>
  <time>2011-07-22T04:15:21Z</time>
  <speed>2.260000</speed>
</trkpt>
<trkpt lat="32.882583618" lon="35.254661560">
  <ele>142.802002</ele>
  <time>2011-07-22T04:15:23Z</time>
  <speed>2.470000</speed>
</trkpt>
<trkpt lat="32.882598877" lon="35.254638672">
  <ele>141.626221</ele>
  <time>2011-07-22T04:15:24Z</time>
  <speed>2.430000</speed>
</trkpt>
<trkpt lat="32.882625580" lon="35.254589081">
  <ele>139.298096</ele>
  <time>2011-07-22T04:15:26Z</time>
  <speed>2.620000</speed>
</trkpt>
<trkpt lat="32.882637024" lon="35.254547119">
  <ele>139.516846</ele>
  <time>2011-07-22T04:15:28Z</time>
  <speed>1.330000</speed>
</trkpt>
<trkpt lat="32.882659912" lon="35.254516602">
  <ele>138.149658</ele>
  <time>2011-07-22T04:15:30Z</time>
  <speed>0.890000</speed>
</trkpt>
<trkpt lat="32.882656097" lon="35.254486084">
  <ele>137.305908</ele>
  <time>2011-07-22T04:15:32Z</time>
  <speed>1.510000</speed>
</trkpt>
<trkpt lat="32.882659912" lon="35.254455566">
  <ele>136.110596</ele>
  <time>2011-07-22T04:15:33Z</time>
  <speed>2.260000</speed>
</trkpt>
<trkpt lat="32.882659912" lon="35.254425049">
  <ele>135.462158</ele>
  <time>2011-07-22T04:15:34Z</time>
  <speed>2.440000</speed>
</trkpt>
<trkpt lat="32.882656097" lon="35.254390717">
  <ele>134.677002</ele>
  <time>2011-07-22T04:15:35Z</time>
  <speed>2.610000</speed>
</trkpt>
<trkpt lat="32.882648468" lon="35.254325867">
  <ele>132.727783</ele>
  <time>2011-07-22T04:15:37Z</time>
  <speed>3.000000</speed>
</trkpt>
<trkpt lat="32.882652283" lon="35.254295349">
  <ele>132.489502</ele>
  <time>2011-07-22T04:15:38Z</time>
  <speed>2.470000</speed>
</trkpt>
<trkpt lat="32.882652283" lon="35.254241943">
  <ele>131.380127</ele>
  <time>2011-07-22T04:15:40Z</time>
  <speed>2.090000</speed>
</trkpt>
<trkpt lat="32.882659912" lon="35.254192352">
  <ele>129.356689</ele>
  <time>2011-07-22T04:15:42Z</time>
  <speed>2.110000</speed>
</trkpt>
<trkpt lat="32.882667542" lon="35.254142761">
  <ele>128.036377</ele>
  <time>2011-07-22T04:15:44Z</time>
  <speed>2.620000</speed>
</trkpt>
<trkpt lat="32.882675171" lon="35.254108429">
  <ele>127.432251</ele>
  <time>2011-07-22T04:15:45Z</time>
  <speed>3.350000</speed>
</trkpt>
<trkpt lat="32.882682800" lon="35.254062653">
  <ele>126.914673</ele>
  <time>2011-07-22T04:15:46Z</time>
  <speed>4.980000</speed>
</trkpt>
<trkpt lat="32.882682800" lon="35.254001617">
  <ele>126.412720</ele>
  <time>2011-07-22T04:15:47Z</time>
  <speed>4.500000</speed>
</trkpt>
<trkpt lat="32.882678986" lon="35.253952026">
  <ele>126.004517</ele>
  <time>2011-07-22T04:15:48Z</time>
  <speed>3.990000</speed>
</trkpt>
<trkpt lat="32.882678986" lon="35.253910065">
  <ele>125.240845</ele>
  <time>2011-07-22T04:15:49Z</time>
  <speed>2.840000</speed>
</trkpt>
<trkpt lat="32.882678986" lon="35.253868103">
  <ele>124.783813</ele>
  <time>2011-07-22T04:15:50Z</time>
  <speed>2.340000</speed>
</trkpt>
<trkpt lat="32.882694244" lon="35.253795624">
  <ele>123.026001</ele>
  <time>2011-07-22T04:15:52Z</time>
  <speed>3.600000</speed>
</trkpt>
<trkpt lat="32.882705688" lon="35.253746033">
  <ele>123.004517</ele>
  <time>2011-07-22T04:15:53Z</time>
  <speed>3.640000</speed>
</trkpt>
<trkpt lat="32.882709503" lon="35.253704071">
  <ele>121.981079</ele>
  <time>2011-07-22T04:15:54Z</time>
  <speed>3.300000</speed>
</trkpt>
<trkpt lat="32.882701874" lon="35.253673553">
  <ele>122.135376</ele>
  <time>2011-07-22T04:15:55Z</time>
  <speed>2.860000</speed>
</trkpt>
<trkpt lat="32.882698059" lon="35.253635406">
  <ele>123.125610</ele>
  <time>2011-07-22T04:15:56Z</time>
  <speed>2.100000</speed>
</trkpt>
<trkpt lat="32.882675171" lon="35.253593445">
  <ele>125.285767</ele>
  <time>2011-07-22T04:15:58Z</time>
  <speed>1.410000</speed>
</trkpt>
<trkpt lat="32.882640839" lon="35.253578186">
  <ele>124.596313</ele>
  <time>2011-07-22T04:16:00Z</time>
  <speed>1.850000</speed>
</trkpt>
<trkpt lat="32.882610321" lon="35.253562927">
  <ele>125.793579</ele>
  <time>2011-07-22T04:16:04Z</time>
  <speed>0.420000</speed>
</trkpt>
<trkpt lat="32.882587433" lon="35.253528595">
  <ele>126.795532</ele>
  <time>2011-07-22T04:17:45Z</time>
  <speed>1.540000</speed>
</trkpt>
<trkpt lat="32.882579803" lon="35.253494263">
  <ele>126.881470</ele>
  <time>2011-07-22T04:17:47Z</time>
  <speed>1.690000</speed>
</trkpt>
<trkpt lat="32.882556915" lon="35.253452301">
  <ele>127.111938</ele>
  <time>2011-07-22T04:17:49Z</time>
  <speed>3.290000</speed>
</trkpt>
<trkpt lat="32.882537842" lon="35.253425598">
  <ele>127.082642</ele>
  <time>2011-07-22T04:17:50Z</time>
  <speed>3.260000</speed>
</trkpt>
<trkpt lat="32.882526398" lon="35.253395081">
  <ele>127.006470</ele>
  <time>2011-07-22T04:17:51Z</time>
  <speed>2.600000</speed>
</trkpt>
<trkpt lat="32.882503510" lon="35.253334045">
  <ele>126.674438</ele>
  <time>2011-07-22T04:17:53Z</time>
  <speed>3.210000</speed>
</trkpt>
<trkpt lat="32.882484436" lon="35.253303528">
  <ele>126.416626</ele>
  <time>2011-07-22T04:17:54Z</time>
  <speed>3.250000</speed>
</trkpt>
<trkpt lat="32.882461548" lon="35.253269196">
  <ele>126.320923</ele>
  <time>2011-07-22T04:17:55Z</time>
  <speed>3.440000</speed>
</trkpt>
<trkpt lat="32.882434845" lon="35.253223419">
  <ele>125.820923</ele>
  <time>2011-07-22T04:17:57Z</time>
  <speed>2.150000</speed>
</trkpt>
<trkpt lat="32.882415771" lon="35.253200531">
  <ele>125.567017</ele>
  <time>2011-07-22T04:17:58Z</time>
  <speed>2.380000</speed>
</trkpt>
<trkpt lat="32.882377625" lon="35.253162384">
  <ele>124.865845</ele>
  <time>2011-07-22T04:18:00Z</time>
  <speed>2.480000</speed>
</trkpt>
<trkpt lat="32.882358551" lon="35.253139496">
  <ele>124.818970</ele>
  <time>2011-07-22T04:18:01Z</time>
  <speed>3.020000</speed>
</trkpt>
<trkpt lat="32.882335663" lon="35.253101349">
  <ele>124.551392</ele>
  <time>2011-07-22T04:18:02Z</time>
  <speed>3.150000</speed>
</trkpt>
<trkpt lat="32.882308960" lon="35.253063202">
  <ele>123.559204</ele>
  <time>2011-07-22T04:18:03Z</time>
  <speed>3.650000</speed>
</trkpt>
<trkpt lat="32.882286072" lon="35.253032684">
  <ele>123.213501</ele>
  <time>2011-07-22T04:18:04Z</time>
  <speed>3.460000</speed>
</trkpt>
<trkpt lat="32.882259369" lon="35.253009796">
  <ele>123.068970</ele>
  <time>2011-07-22T04:18:05Z</time>
  <speed>3.130000</speed>
</trkpt>
<trkpt lat="32.882236481" lon="35.252990723">
  <ele>123.225220</ele>
  <time>2011-07-22T04:18:06Z</time>
  <speed>2.730000</speed>
</trkpt>
<trkpt lat="32.882209778" lon="35.252979279">
  <ele>123.070923</ele>
  <time>2011-07-22T04:18:07Z</time>
  <speed>2.830000</speed>
</trkpt>
<trkpt lat="32.882183075" lon="35.252960205">
  <ele>123.043579</ele>
  <time>2011-07-22T04:18:08Z</time>
  <speed>2.170000</speed>
</trkpt>
<trkpt lat="32.882144928" lon="35.252933502">
  <ele>122.920532</ele>
  <time>2011-07-22T04:18:09Z</time>
  <speed>2.070000</speed>
</trkpt>
<trkpt lat="32.882129669" lon="35.252902985">
  <ele>122.582642</ele>
  <time>2011-07-22T04:18:10Z</time>
  <speed>2.310000</speed>
</trkpt>
<trkpt lat="32.882129669" lon="35.252868652">
  <ele>122.106079</ele>
  <time>2011-07-22T04:18:11Z</time>
  <speed>2.340000</speed>
</trkpt>
<trkpt lat="32.882152557" lon="35.252811432">
  <ele>121.695923</ele>
  <time>2011-07-22T04:18:13Z</time>
  <speed>3.600000</speed>
</trkpt>
<trkpt lat="32.882171631" lon="35.252788544">
  <ele>121.535767</ele>
  <time>2011-07-22T04:18:14Z</time>
  <speed>2.840000</speed>
</trkpt>
<trkpt lat="32.882213593" lon="35.252792358">
  <ele>120.576782</ele>
  <time>2011-07-22T04:18:15Z</time>
  <speed>3.570000</speed>
</trkpt>
<trkpt lat="32.882244110" lon="35.252788544">
  <ele>120.151001</ele>
  <time>2011-07-22T04:18:16Z</time>
  <speed>2.890000</speed>
</trkpt>
<trkpt lat="32.882305145" lon="35.252765656">
  <ele>119.211548</ele>
  <time>2011-07-22T04:18:18Z</time>
  <speed>3.180000</speed>
</trkpt>
<trkpt lat="32.882339478" lon="35.252742767">
  <ele>118.736938</ele>
  <time>2011-07-22T04:18:19Z</time>
  <speed>2.900000</speed>
</trkpt>
<trkpt lat="32.882381439" lon="35.252700806">
  <ele>118.229126</ele>
  <time>2011-07-22T04:18:21Z</time>
  <speed>2.880000</speed>
</trkpt>
<trkpt lat="32.882450104" lon="35.252674103">
  <ele>117.963501</ele>
  <time>2011-07-22T04:18:23Z</time>
  <speed>4.080000</speed>
</trkpt>
<trkpt lat="32.882488251" lon="35.252655029">
  <ele>117.481079</ele>
  <time>2011-07-22T04:18:24Z</time>
  <speed>4.090000</speed>
</trkpt>
<trkpt lat="32.882522583" lon="35.252651215">
  <ele>116.943970</ele>
  <time>2011-07-22T04:18:25Z</time>
  <speed>3.950000</speed>
</trkpt>
<trkpt lat="32.882572174" lon="35.252651215">
  <ele>116.641235</ele>
  <time>2011-07-22T04:18:26Z</time>
  <speed>4.320000</speed>
</trkpt>
<trkpt lat="32.882610321" lon="35.252639771">
  <ele>115.940063</ele>
  <time>2011-07-22T04:18:27Z</time>
  <speed>4.220000</speed>
</trkpt>
<trkpt lat="32.882644653" lon="35.252624512">
  <ele>115.129517</ele>
  <time>2011-07-22T04:18:28Z</time>
  <speed>3.380000</speed>
</trkpt>
<trkpt lat="32.882667542" lon="35.252605438">
  <ele>114.363892</ele>
  <time>2011-07-22T04:18:29Z</time>
  <speed>3.000000</speed>
</trkpt>
<trkpt lat="32.882690430" lon="35.252586365">
  <ele>113.818970</ele>
  <time>2011-07-22T04:18:30Z</time>
  <speed>1.770000</speed>
</trkpt>
<trkpt lat="32.882736206" lon="35.252548218">
  <ele>114.293579</ele>
  <time>2011-07-22T04:18:32Z</time>
  <speed>1.290000</speed>
</trkpt>
<trkpt lat="32.882705688" lon="35.252548218">
  <ele>114.561157</ele>
  <time>2011-07-22T04:18:46Z</time>
  <speed>1.260000</speed>
</trkpt>
<trkpt lat="32.882694244" lon="35.252578735">
  <ele>115.619751</ele>
  <time>2011-07-22T04:18:49Z</time>
  <speed>0.610000</speed>
</trkpt>
<trkpt lat="32.882724762" lon="35.252552032">
  <ele>116.988892</ele>
  <time>2011-07-22T04:18:56Z</time>
  <speed>1.040000</speed>
</trkpt>
<trkpt lat="32.882747650" lon="35.252536774">
  <ele>117.088501</ele>
  <time>2011-07-22T04:18:59Z</time>
  <speed>1.010000</speed>
</trkpt>
<trkpt lat="32.882751465" lon="35.252498627">
  <ele>117.986938</ele>
  <time>2011-07-22T04:19:01Z</time>
  <speed>0.840000</speed>
</trkpt>
<trkpt lat="32.882774353" lon="35.252456665">
  <ele>116.992798</ele>
  <time>2011-07-22T04:19:04Z</time>
  <speed>1.260000</speed>
</trkpt>
<trkpt lat="32.882797241" lon="35.252414703">
  <ele>117.168579</ele>
  <time>2011-07-22T04:19:07Z</time>
  <speed>1.780000</speed>
</trkpt>
<trkpt lat="32.882823944" lon="35.252407074">
  <ele>117.359985</ele>
  <time>2011-07-22T04:19:10Z</time>
  <speed>0.690000</speed>
</trkpt>
<trkpt lat="32.882858276" lon="35.252384186">
  <ele>116.594360</ele>
  <time>2011-07-22T04:19:13Z</time>
  <speed>1.310000</speed>
</trkpt>
<trkpt lat="32.882869720" lon="35.252338409">
  <ele>117.070923</ele>
  <time>2011-07-22T04:19:16Z</time>
  <speed>1.410000</speed>
</trkpt>
<trkpt lat="32.882884979" lon="35.252307892">
  <ele>117.678345</ele>
  <time>2011-07-22T04:19:17Z</time>
  <speed>2.220000</speed>
</trkpt>
<trkpt lat="32.882900238" lon="35.252258301">
  <ele>118.498657</ele>
  <time>2011-07-22T04:19:19Z</time>
  <speed>1.740000</speed>
</trkpt>
<trkpt lat="32.882904053" lon="35.252227783">
  <ele>118.986938</ele>
  <time>2011-07-22T04:19:21Z</time>
  <speed>1.300000</speed>
</trkpt>
<trkpt lat="32.882926941" lon="35.252166748">
  <ele>119.559204</ele>
  <time>2011-07-22T04:19:24Z</time>
  <speed>4.030000</speed>
</trkpt>
<trkpt lat="32.882946014" lon="35.252124786">
  <ele>119.024048</ele>
  <time>2011-07-22T04:19:25Z</time>
  <speed>4.360000</speed>
</trkpt>
<trkpt lat="32.882965088" lon="35.252079010">
  <ele>118.883423</ele>
  <time>2011-07-22T04:19:26Z</time>
  <speed>4.530000</speed>
</trkpt>
<trkpt lat="32.882980347" lon="35.252017975">
  <ele>117.510376</ele>
  <time>2011-07-22T04:19:27Z</time>
  <speed>4.930000</speed>
</trkpt>
<trkpt lat="32.882980347" lon="35.251960754">
  <ele>117.289673</ele>
  <time>2011-07-22T04:19:28Z</time>
  <speed>4.160000</speed>
</trkpt>
<trkpt lat="32.882987976" lon="35.251907349">
  <ele>117.004517</ele>
  <time>2011-07-22T04:19:29Z</time>
  <speed>4.220000</speed>
</trkpt>
<trkpt lat="32.882999420" lon="35.251857758">
  <ele>116.859985</ele>
  <time>2011-07-22T04:19:30Z</time>
  <speed>4.540000</speed>
</trkpt>
<trkpt lat="32.883014679" lon="35.251808167">
  <ele>116.828735</ele>
  <time>2011-07-22T04:19:31Z</time>
  <speed>4.400000</speed>
</trkpt>
<trkpt lat="32.883029938" lon="35.251758575">
  <ele>116.217407</ele>
  <time>2011-07-22T04:19:32Z</time>
  <speed>4.470000</speed>
</trkpt>
<trkpt lat="32.883045197" lon="35.251708984">
  <ele>115.416626</ele>
  <time>2011-07-22T04:19:33Z</time>
  <speed>4.140000</speed>
</trkpt>
<trkpt lat="32.883056641" lon="35.251663208">
  <ele>115.039673</ele>
  <time>2011-07-22T04:19:34Z</time>
  <speed>4.000000</speed>
</trkpt>
<trkpt lat="32.883064270" lon="35.251621246">
  <ele>114.895142</ele>
  <time>2011-07-22T04:19:35Z</time>
  <speed>4.100000</speed>
</trkpt>
<trkpt lat="32.883068085" lon="35.251567841">
  <ele>113.928345</ele>
  <time>2011-07-22T04:19:36Z</time>
  <speed>4.550000</speed>
</trkpt>
<trkpt lat="32.883071899" lon="35.251525879">
  <ele>113.858032</ele>
  <time>2011-07-22T04:19:37Z</time>
  <speed>3.540000</speed>
</trkpt>
<trkpt lat="32.883068085" lon="35.251491547">
  <ele>113.512329</ele>
  <time>2011-07-22T04:19:38Z</time>
  <speed>3.380000</speed>
</trkpt>
<trkpt lat="32.883060455" lon="35.251453400">
  <ele>113.037720</ele>
  <time>2011-07-22T04:19:39Z</time>
  <speed>3.670000</speed>
</trkpt>
<trkpt lat="32.883049011" lon="35.251419067">
  <ele>112.383423</ele>
  <time>2011-07-22T04:19:40Z</time>
  <speed>2.850000</speed>
</trkpt>
<trkpt lat="32.883026123" lon="35.251365662">
  <ele>111.756470</ele>
  <time>2011-07-22T04:19:42Z</time>
  <speed>2.400000</speed>
</trkpt>
<trkpt lat="32.883014679" lon="35.251308441">
  <ele>111.830688</ele>
  <time>2011-07-22T04:19:44Z</time>
  <speed>2.270000</speed>
</trkpt>
<trkpt lat="32.883007050" lon="35.251255035">
  <ele>111.154907</ele>
  <time>2011-07-22T04:19:46Z</time>
  <speed>2.660000</speed>
</trkpt>
<trkpt lat="32.882980347" lon="35.251197815">
  <ele>111.135376</ele>
  <time>2011-07-22T04:19:48Z</time>
  <speed>3.140000</speed>
</trkpt>
<trkpt lat="32.882965088" lon="35.251171112">
  <ele>110.891235</ele>
  <time>2011-07-22T04:19:49Z</time>
  <speed>2.690000</speed>
</trkpt>
<trkpt lat="32.882942200" lon="35.251117706">
  <ele>110.248657</ele>
  <time>2011-07-22T04:19:51Z</time>
  <speed>2.270000</speed>
</trkpt>
<trkpt lat="32.882926941" lon="35.251064301">
  <ele>109.748657</ele>
  <time>2011-07-22T04:19:53Z</time>
  <speed>1.890000</speed>
</trkpt>
<trkpt lat="32.882904053" lon="35.251018524">
  <ele>109.395142</ele>
  <time>2011-07-22T04:19:55Z</time>
  <speed>1.950000</speed>
</trkpt>
<trkpt lat="32.882892609" lon="35.250988007">
  <ele>109.098267</ele>
  <time>2011-07-22T04:19:56Z</time>
  <speed>2.480000</speed>
</trkpt>
<trkpt lat="32.882884979" lon="35.250953674">
  <ele>108.608032</ele>
  <time>2011-07-22T04:19:57Z</time>
  <speed>2.660000</speed>
</trkpt>
<trkpt lat="32.882881165" lon="35.250915527">
  <ele>108.338501</ele>
  <time>2011-07-22T04:19:58Z</time>
  <speed>3.120000</speed>
</trkpt>
<trkpt lat="32.882881165" lon="35.250869751">
  <ele>108.022095</ele>
  <time>2011-07-22T04:19:59Z</time>
  <speed>4.040000</speed>
</trkpt>
<trkpt lat="32.882869720" lon="35.250823975">
  <ele>107.723267</ele>
  <time>2011-07-22T04:20:00Z</time>
  <speed>4.030000</speed>
</trkpt>
<trkpt lat="32.882862091" lon="35.250774384">
  <ele>107.381470</ele>
  <time>2011-07-22T04:20:01Z</time>
  <speed>3.840000</speed>
</trkpt>
<trkpt lat="32.882854462" lon="35.250732422">
  <ele>106.986938</ele>
  <time>2011-07-22T04:20:02Z</time>
  <speed>3.500000</speed>
</trkpt>
<trkpt lat="32.882843018" lon="35.250671387">
  <ele>105.908813</ele>
  <time>2011-07-22T04:20:03Z</time>
  <speed>3.780000</speed>
</trkpt>
<trkpt lat="32.882846832" lon="35.250625610">
  <ele>105.166626</ele>
  <time>2011-07-22T04:20:04Z</time>
  <speed>3.370000</speed>
</trkpt>
<trkpt lat="32.882869720" lon="35.250568390">
  <ele>104.371704</ele>
  <time>2011-07-22T04:20:05Z</time>
  <speed>5.000000</speed>
</trkpt>
<trkpt lat="32.882896423" lon="35.250518799">
  <ele>103.988892</ele>
  <time>2011-07-22T04:20:06Z</time>
  <speed>4.920000</speed>
</trkpt>
<trkpt lat="32.882934570" lon="35.250450134">
  <ele>104.766235</ele>
  <time>2011-07-22T04:20:07Z</time>
  <speed>5.430000</speed>
</trkpt>
<trkpt lat="32.882961273" lon="35.250392914">
  <ele>104.510376</ele>
  <time>2011-07-22T04:20:08Z</time>
  <speed>5.710000</speed>
</trkpt>
<trkpt lat="32.882999420" lon="35.250324249">
  <ele>105.508423</ele>
  <time>2011-07-22T04:20:09Z</time>
  <speed>4.370000</speed>
</trkpt>
<trkpt lat="32.883007050" lon="35.250282288">
  <ele>104.852173</ele>
  <time>2011-07-22T04:20:10Z</time>
  <speed>3.730000</speed>
</trkpt>
<trkpt lat="32.883003235" lon="35.250244141">
  <ele>105.008423</ele>
  <time>2011-07-22T04:20:11Z</time>
  <speed>2.770000</speed>
</trkpt>
<trkpt lat="32.882995605" lon="35.250183105">
  <ele>104.858032</ele>
  <time>2011-07-22T04:20:13Z</time>
  <speed>2.200000</speed>
</trkpt>
<trkpt lat="32.882972717" lon="35.250129700">
  <ele>105.922485</ele>
  <time>2011-07-22T04:20:15Z</time>
  <speed>2.340000</speed>
</trkpt>
<trkpt lat="32.882953644" lon="35.250083923">
  <ele>105.613892</ele>
  <time>2011-07-22T04:20:17Z</time>
  <speed>1.950000</speed>
</trkpt>
<trkpt lat="32.882942200" lon="35.250045776">
  <ele>105.031860</ele>
  <time>2011-07-22T04:20:19Z</time>
  <speed>1.920000</speed>
</trkpt>
<trkpt lat="32.882919312" lon="35.250003815">
  <ele>106.229126</ele>
  <time>2011-07-22T04:20:21Z</time>
  <speed>1.640000</speed>
</trkpt>
<trkpt lat="32.882911682" lon="35.249969482">
  <ele>107.807251</ele>
  <time>2011-07-22T04:20:23Z</time>
  <speed>1.570000</speed>
</trkpt>
<trkpt lat="32.882892609" lon="35.249946594">
  <ele>107.531860</ele>
  <time>2011-07-22T04:20:25Z</time>
  <speed>1.420000</speed>
</trkpt>
<trkpt lat="32.882873535" lon="35.249923706">
  <ele>107.027954</ele>
  <time>2011-07-22T04:20:27Z</time>
  <speed>1.350000</speed>
</trkpt>
<trkpt lat="32.882854462" lon="35.249889374">
  <ele>107.432251</ele>
  <time>2011-07-22T04:20:30Z</time>
  <speed>1.160000</speed>
</trkpt>
<trkpt lat="32.882835388" lon="35.249862671">
  <ele>108.658813</ele>
  <time>2011-07-22T04:20:32Z</time>
  <speed>1.250000</speed>
</trkpt>
<trkpt lat="32.882808685" lon="35.249839783">
  <ele>109.096313</ele>
  <time>2011-07-22T04:20:35Z</time>
  <speed>1.450000</speed>
</trkpt>
<trkpt lat="32.882789612" lon="35.249805450">
  <ele>109.899048</ele>
  <time>2011-07-22T04:20:37Z</time>
  <speed>1.530000</speed>
</trkpt>
<trkpt lat="32.882774353" lon="35.249774933">
  <ele>109.813110</ele>
  <time>2011-07-22T04:20:40Z</time>
  <speed>1.000000</speed>
</trkpt>
<trkpt lat="32.882751465" lon="35.249736786">
  <ele>109.080688</ele>
  <time>2011-07-22T04:20:43Z</time>
  <speed>0.950000</speed>
</trkpt>
<trkpt lat="32.882724762" lon="35.249713898">
  <ele>109.815063</ele>
  <time>2011-07-22T04:20:46Z</time>
  <speed>0.630000</speed>
</trkpt>
<trkpt lat="32.882694244" lon="35.249694824">
  <ele>109.262329</ele>
  <time>2011-07-22T04:20:51Z</time>
  <speed>0.970000</speed>
</trkpt>
<trkpt lat="32.882671356" lon="35.249671936">
  <ele>108.686157</ele>
  <time>2011-07-22T04:20:56Z</time>
  <speed>0.150000</speed>
</trkpt>
<trkpt lat="32.882659912" lon="35.249645233">
  <ele>109.516235</ele>
  <time>2011-07-22T04:26:40Z</time>
  <speed>0.620000</speed>
</trkpt>
<trkpt lat="32.882652283" lon="35.249603271">
  <ele>110.080688</ele>
  <time>2011-07-22T04:26:43Z</time>
  <speed>2.030000</speed>
</trkpt>
<trkpt lat="32.882633209" lon="35.249565125">
  <ele>110.625610</ele>
  <time>2011-07-22T04:26:45Z</time>
  <speed>1.950000</speed>
</trkpt>
<trkpt lat="32.882617950" lon="35.249519348">
  <ele>110.635376</ele>
  <time>2011-07-22T04:26:47Z</time>
  <speed>2.110000</speed>
</trkpt>
<trkpt lat="32.882595062" lon="35.249469757">
  <ele>110.973267</ele>
  <time>2011-07-22T04:26:49Z</time>
  <speed>1.800000</speed>
</trkpt>
<trkpt lat="32.882568359" lon="35.249439240">
  <ele>110.776001</ele>
  <time>2011-07-22T04:26:51Z</time>
  <speed>1.990000</speed>
</trkpt>
<trkpt lat="32.882541656" lon="35.249397278">
  <ele>110.889282</ele>
  <time>2011-07-22T04:26:53Z</time>
  <speed>2.220000</speed>
</trkpt>
<trkpt lat="32.882514954" lon="35.249359131">
  <ele>110.561157</ele>
  <time>2011-07-22T04:26:55Z</time>
  <speed>1.840000</speed>
</trkpt>
<trkpt lat="32.882492065" lon="35.249324799">
  <ele>111.016235</ele>
  <time>2011-07-22T04:26:57Z</time>
  <speed>2.040000</speed>
</trkpt>
<trkpt lat="32.882465363" lon="35.249298096">
  <ele>111.541626</ele>
  <time>2011-07-22T04:26:59Z</time>
  <speed>1.920000</speed>
</trkpt>
<trkpt lat="32.882438660" lon="35.249267578">
  <ele>112.215454</ele>
  <time>2011-07-22T04:27:01Z</time>
  <speed>1.970000</speed>
</trkpt>
<trkpt lat="32.882408142" lon="35.249237061">
  <ele>113.498657</ele>
  <time>2011-07-22T04:27:03Z</time>
  <speed>2.030000</speed>
</trkpt>
<trkpt lat="32.882381439" lon="35.249214172">
  <ele>114.483032</ele>
  <time>2011-07-22T04:27:05Z</time>
  <speed>1.930000</speed>
</trkpt>
<trkpt lat="32.882350922" lon="35.249206543">
  <ele>115.533813</ele>
  <time>2011-07-22T04:27:07Z</time>
  <speed>1.830000</speed>
</trkpt>
<trkpt lat="32.882312775" lon="35.249187469">
  <ele>115.686157</ele>
  <time>2011-07-22T04:27:10Z</time>
  <speed>1.620000</speed>
</trkpt>
<trkpt lat="32.882278442" lon="35.249172211">
  <ele>115.527954</ele>
  <time>2011-07-22T04:27:13Z</time>
  <speed>1.430000</speed>
</trkpt>
<trkpt lat="32.882244110" lon="35.249156952">
  <ele>116.692017</ele>
  <time>2011-07-22T04:27:15Z</time>
  <speed>1.730000</speed>
</trkpt>
<trkpt lat="32.882209778" lon="35.249134064">
  <ele>116.428345</ele>
  <time>2011-07-22T04:27:18Z</time>
  <speed>1.360000</speed>
</trkpt>
<trkpt lat="32.882190704" lon="35.249111176">
  <ele>116.869751</ele>
  <time>2011-07-22T04:27:20Z</time>
  <speed>1.180000</speed>
</trkpt>
<trkpt lat="32.882171631" lon="35.249088287">
  <ele>116.537720</ele>
  <time>2011-07-22T04:27:22Z</time>
  <speed>1.350000</speed>
</trkpt>
<trkpt lat="32.882148743" lon="35.249057770">
  <ele>117.500610</ele>
  <time>2011-07-22T04:27:25Z</time>
  <speed>1.450000</speed>
</trkpt>
<trkpt lat="32.882125854" lon="35.249034882">
  <ele>117.522095</ele>
  <time>2011-07-22T04:27:27Z</time>
  <speed>1.620000</speed>
</trkpt>
<trkpt lat="32.882102966" lon="35.249015808">
  <ele>117.570923</ele>
  <time>2011-07-22T04:27:29Z</time>
  <speed>1.610000</speed>
</trkpt>
<trkpt lat="32.882072449" lon="35.248992920">
  <ele>117.781860</ele>
  <time>2011-07-22T04:27:31Z</time>
  <speed>1.900000</speed>
</trkpt>
<trkpt lat="32.882045746" lon="35.248985291">
  <ele>118.053345</ele>
  <time>2011-07-22T04:27:33Z</time>
  <speed>1.420000</speed>
</trkpt>
<trkpt lat="32.882019043" lon="35.248970032">
  <ele>118.520142</ele>
  <time>2011-07-22T04:27:35Z</time>
  <speed>1.300000</speed>
</trkpt>
<trkpt lat="32.881984711" lon="35.248943329">
  <ele>118.451782</ele>
  <time>2011-07-22T04:27:38Z</time>
  <speed>1.770000</speed>
</trkpt>
<trkpt lat="32.881954193" lon="35.248935699">
  <ele>118.899048</ele>
  <time>2011-07-22T04:27:40Z</time>
  <speed>1.810000</speed>
</trkpt>
<trkpt lat="32.881927490" lon="35.248920441">
  <ele>119.623657</ele>
  <time>2011-07-22T04:27:42Z</time>
  <speed>1.460000</speed>
</trkpt>
<trkpt lat="32.881908417" lon="35.248901367">
  <ele>119.996704</ele>
  <time>2011-07-22T04:27:44Z</time>
  <speed>1.330000</speed>
</trkpt>
<trkpt lat="32.881877899" lon="35.248874664">
  <ele>120.488892</ele>
  <time>2011-07-22T04:27:46Z</time>
  <speed>1.580000</speed>
</trkpt>
<trkpt lat="32.881851196" lon="35.248851776">
  <ele>120.479126</ele>
  <time>2011-07-22T04:27:48Z</time>
  <speed>1.340000</speed>
</trkpt>
<trkpt lat="32.881828308" lon="35.248832703">
  <ele>120.996704</ele>
  <time>2011-07-22T04:27:50Z</time>
  <speed>1.410000</speed>
</trkpt>
<trkpt lat="32.881809235" lon="35.248806000">
  <ele>121.092407</ele>
  <time>2011-07-22T04:27:52Z</time>
  <speed>1.440000</speed>
</trkpt>
<trkpt lat="32.881778717" lon="35.248779297">
  <ele>122.779907</ele>
  <time>2011-07-22T04:27:55Z</time>
  <speed>1.500000</speed>
</trkpt>
<trkpt lat="32.881767273" lon="35.248744965">
  <ele>123.713501</ele>
  <time>2011-07-22T04:27:57Z</time>
  <speed>1.390000</speed>
</trkpt>
<trkpt lat="32.881755829" lon="35.248714447">
  <ele>124.123657</ele>
  <time>2011-07-22T04:27:59Z</time>
  <speed>1.440000</speed>
</trkpt>
<trkpt lat="32.881744385" lon="35.248680115">
  <ele>125.565063</ele>
  <time>2011-07-22T04:28:02Z</time>
  <speed>1.080000</speed>
</trkpt>
<trkpt lat="32.881736755" lon="35.248645782">
  <ele>126.436157</ele>
  <time>2011-07-22T04:28:04Z</time>
  <speed>1.240000</speed>
</trkpt>
<trkpt lat="32.881732941" lon="35.248611450">
  <ele>127.281860</ele>
  <time>2011-07-22T04:28:07Z</time>
  <speed>1.300000</speed>
</trkpt>
<trkpt lat="32.881729126" lon="35.248580933">
  <ele>128.430908</ele>
  <time>2011-07-22T04:28:11Z</time>
  <speed>0.650000</speed>
</trkpt>
<trkpt lat="32.881736755" lon="35.248542786">
  <ele>130.005127</ele>
  <time>2011-07-22T04:28:14Z</time>
  <speed>0.260000</speed>
</trkpt>
<trkpt lat="32.881736755" lon="35.248508453">
  <ele>130.055908</ele>
  <time>2011-07-22T04:28:24Z</time>
  <speed>0.090000</speed>
</trkpt>
<trkpt lat="32.881740570" lon="35.248474121">
  <ele>130.852783</ele>
  <time>2011-07-22T04:28:26Z</time>
  <speed>0.090000</speed>
</trkpt>
<trkpt lat="32.881740570" lon="35.248443604">
  <ele>131.333252</ele>
  <time>2011-07-22T04:28:30Z</time>
  <speed>0.020000</speed>
</trkpt>
<trkpt lat="32.881713867" lon="35.248435974">
  <ele>131.079346</ele>
  <time>2011-07-22T04:28:51Z</time>
</trkpt>
<trkpt lat="32.881694794" lon="35.248432159">
  <ele>133.302002</ele>
  <time>2011-07-22T04:29:02Z</time>
</trkpt>
<trkpt lat="32.881694794" lon="35.248424530">
  <ele>136.368408</ele>
  <time>2011-07-22T04:29:09Z</time>
</trkpt>
<trkpt lat="32.881687164" lon="35.248443604">
  <ele>138.430908</ele>
  <time>2011-07-22T04:29:18Z</time>
  <speed>0.070000</speed>
</trkpt>
<trkpt lat="32.881683350" lon="35.248462677">
  <ele>135.856689</ele>
  <time>2011-07-22T04:29:22Z</time>
  <speed>0.100000</speed>
</trkpt>
<trkpt lat="32.881687164" lon="35.248458862">
  <ele>132.485596</ele>
  <time>2011-07-22T04:29:25Z</time>
  <speed>0.040000</speed>
</trkpt>
<trkpt lat="32.881687164" lon="35.248474121">
  <ele>129.024658</ele>
  <time>2011-07-22T04:29:28Z</time>
  <speed>0.060000</speed>
</trkpt>
<trkpt lat="32.881683350" lon="35.248458862">
  <ele>126.172485</ele>
  <time>2011-07-22T04:29:32Z</time>
  <speed>0.020000</speed>
</trkpt>
<trkpt lat="32.881710052" lon="35.248439789">
  <ele>126.270142</ele>
  <time>2011-07-22T04:29:49Z</time>
  <speed>0.080000</speed>
</trkpt>
<trkpt lat="32.881725311" lon="35.248447418">
  <ele>130.587158</ele>
  <time>2011-07-22T04:30:22Z</time>
  <speed>0.050000</speed>
</trkpt>
<trkpt lat="32.881729126" lon="35.248443604">
  <ele>133.927002</ele>
  <time>2011-07-22T04:30:26Z</time>
  <speed>0.030000</speed>
</trkpt>
<trkpt lat="32.881732941" lon="35.248470306">
  <ele>131.368408</ele>
  <time>2011-07-22T04:30:41Z</time>
  <speed>0.020000</speed>
</trkpt>
<trkpt lat="32.881710052" lon="35.248470306">
  <ele>129.094971</ele>
  <time>2011-07-22T04:30:46Z</time>
  <speed>0.070000</speed>
</trkpt>
<trkpt lat="32.881687164" lon="35.248470306">
  <ele>127.359985</ele>
  <time>2011-07-22T04:30:53Z</time>
  <speed>0.100000</speed>
</trkpt>
<trkpt lat="32.881675720" lon="35.248493195">
  <ele>125.688110</ele>
  <time>2011-07-22T04:30:57Z</time>
  <speed>0.170000</speed>
</trkpt>
<trkpt lat="32.881710052" lon="35.248470306">
  <ele>126.152954</ele>
  <time>2011-07-22T04:31:03Z</time>
  <speed>0.140000</speed>
</trkpt>
<trkpt lat="32.881740570" lon="35.248455048">
  <ele>127.707642</ele>
  <time>2011-07-22T04:31:06Z</time>
  <speed>1.750000</speed>
</trkpt>
<trkpt lat="32.881774902" lon="35.248451233">
  <ele>128.012939</ele>
  <time>2011-07-22T04:31:08Z</time>
  <speed>2.090000</speed>
</trkpt>
<trkpt lat="32.881816864" lon="35.248432159">
  <ele>128.177002</ele>
  <time>2011-07-22T04:31:10Z</time>
  <speed>2.150000</speed>
</trkpt>
<trkpt lat="32.881862640" lon="35.248443604">
  <ele>127.647095</ele>
  <time>2011-07-22T04:31:12Z</time>
  <speed>2.110000</speed>
</trkpt>
<trkpt lat="32.881908417" lon="35.248447418">
  <ele>127.092407</ele>
  <time>2011-07-22T04:31:14Z</time>
  <speed>2.130000</speed>
</trkpt>
<trkpt lat="32.881950378" lon="35.248458862">
  <ele>127.527954</ele>
  <time>2011-07-22T04:31:16Z</time>
  <speed>1.850000</speed>
</trkpt>
<trkpt lat="32.881988525" lon="35.248458862">
  <ele>128.247314</ele>
  <time>2011-07-22T04:31:18Z</time>
  <speed>1.670000</speed>
</trkpt>
<trkpt lat="32.882022858" lon="35.248447418">
  <ele>128.274658</ele>
  <time>2011-07-22T04:31:20Z</time>
  <speed>1.980000</speed>
</trkpt>
<trkpt lat="32.882064819" lon="35.248435974">
  <ele>129.122314</ele>
  <time>2011-07-22T04:31:22Z</time>
  <speed>2.110000</speed>
</trkpt>
<trkpt lat="32.882099152" lon="35.248432159">
  <ele>129.137939</ele>
  <time>2011-07-22T04:31:24Z</time>
  <speed>1.940000</speed>
</trkpt>
<trkpt lat="32.882133484" lon="35.248424530">
  <ele>129.747314</ele>
  <time>2011-07-22T04:31:26Z</time>
  <speed>1.700000</speed>
</trkpt>
<trkpt lat="32.882167816" lon="35.248409271">
  <ele>129.805908</ele>
  <time>2011-07-22T04:31:28Z</time>
  <speed>1.890000</speed>
</trkpt>
<trkpt lat="32.882209778" lon="35.248394012">
  <ele>130.614502</ele>
  <time>2011-07-22T04:31:30Z</time>
  <speed>1.980000</speed>
</trkpt>
<trkpt lat="32.882228851" lon="35.248382568">
  <ele>132.208252</ele>
  <time>2011-07-22T04:31:31Z</time>
  <speed>1.860000</speed>
</trkpt>
<trkpt lat="32.882263184" lon="35.248367310">
  <ele>132.930908</ele>
  <time>2011-07-22T04:31:33Z</time>
  <speed>1.870000</speed>
</trkpt>
<trkpt lat="32.882289886" lon="35.248359680">
  <ele>133.434814</ele>
  <time>2011-07-22T04:31:35Z</time>
  <speed>1.550000</speed>
</trkpt>
<trkpt lat="32.882324219" lon="35.248359680">
  <ele>134.329346</ele>
  <time>2011-07-22T04:31:38Z</time>
  <speed>1.300000</speed>
</trkpt>
<trkpt lat="32.882350922" lon="35.248352051">
  <ele>134.317627</ele>
  <time>2011-07-22T04:31:40Z</time>
  <speed>1.810000</speed>
</trkpt>
<trkpt lat="32.882381439" lon="35.248340607">
  <ele>134.165283</ele>
  <time>2011-07-22T04:31:42Z</time>
  <speed>1.660000</speed>
</trkpt>
<trkpt lat="32.882411957" lon="35.248325348">
  <ele>134.247314</ele>
  <time>2011-07-22T04:31:44Z</time>
  <speed>1.710000</speed>
</trkpt>
<trkpt lat="32.882453918" lon="35.248321533">
  <ele>134.856689</ele>
  <time>2011-07-22T04:31:47Z</time>
  <speed>1.460000</speed>
</trkpt>
<trkpt lat="32.882480621" lon="35.248313904">
  <ele>136.137939</ele>
  <time>2011-07-22T04:31:49Z</time>
  <speed>1.550000</speed>
</trkpt>
<trkpt lat="32.882511139" lon="35.248313904">
  <ele>136.302002</ele>
  <time>2011-07-22T04:31:51Z</time>
  <speed>1.530000</speed>
</trkpt>
<trkpt lat="32.882549286" lon="35.248317719">
  <ele>136.876221</ele>
  <time>2011-07-22T04:31:54Z</time>
  <speed>1.440000</speed>
</trkpt>
<trkpt lat="32.882591248" lon="35.248325348">
  <ele>137.493408</ele>
  <time>2011-07-22T04:31:57Z</time>
  <speed>1.470000</speed>
</trkpt>
<trkpt lat="32.882621765" lon="35.248321533">
  <ele>137.696533</ele>
  <time>2011-07-22T04:31:59Z</time>
  <speed>1.110000</speed>
</trkpt>
<trkpt lat="32.882659912" lon="35.248310089">
  <ele>137.337158</ele>
  <time>2011-07-22T04:32:02Z</time>
  <speed>1.390000</speed>
</trkpt>
<trkpt lat="32.882694244" lon="35.248298645">
  <ele>137.731689</ele>
  <time>2011-07-22T04:32:05Z</time>
  <speed>1.590000</speed>
</trkpt>
<trkpt lat="32.882736206" lon="35.248291016">
  <ele>137.962158</ele>
  <time>2011-07-22T04:32:08Z</time>
  <speed>1.440000</speed>
</trkpt>
<trkpt lat="32.882766724" lon="35.248283386">
  <ele>137.337158</ele>
  <time>2011-07-22T04:32:10Z</time>
  <speed>1.750000</speed>
</trkpt>
<trkpt lat="32.882801056" lon="35.248264313">
  <ele>137.438721</ele>
  <time>2011-07-22T04:32:12Z</time>
  <speed>1.730000</speed>
</trkpt>
<trkpt lat="32.882831573" lon="35.248252869">
  <ele>137.751221</ele>
  <time>2011-07-22T04:32:14Z</time>
  <speed>1.740000</speed>
</trkpt>
<trkpt lat="32.882865906" lon="35.248241425">
  <ele>139.094971</ele>
  <time>2011-07-22T04:32:16Z</time>
  <speed>1.760000</speed>
</trkpt>
<trkpt lat="32.882896423" lon="35.248226166">
  <ele>137.860596</ele>
  <time>2011-07-22T04:32:18Z</time>
  <speed>1.680000</speed>
</trkpt>
<trkpt lat="32.882930756" lon="35.248199463">
  <ele>139.567627</ele>
  <time>2011-07-22T04:32:21Z</time>
  <speed>1.420000</speed>
</trkpt>
<trkpt lat="32.882957458" lon="35.248168945">
  <ele>140.544189</ele>
  <time>2011-07-22T04:32:24Z</time>
  <speed>1.710000</speed>
</trkpt>
<trkpt lat="32.882987976" lon="35.248157501">
  <ele>140.696533</ele>
  <time>2011-07-22T04:32:26Z</time>
  <speed>1.460000</speed>
</trkpt>
<trkpt lat="32.883014679" lon="35.248142242">
  <ele>140.071533</ele>
  <time>2011-07-22T04:32:28Z</time>
  <speed>1.570000</speed>
</trkpt>
<trkpt lat="32.883045197" lon="35.248123169">
  <ele>140.696533</ele>
  <time>2011-07-22T04:32:30Z</time>
  <speed>1.490000</speed>
</trkpt>
<trkpt lat="32.883071899" lon="35.248115540">
  <ele>140.805908</ele>
  <time>2011-07-22T04:32:32Z</time>
  <speed>1.600000</speed>
</trkpt>
<trkpt lat="32.883102417" lon="35.248104095">
  <ele>140.637939</ele>
  <time>2011-07-22T04:32:34Z</time>
  <speed>1.590000</speed>
</trkpt>
<trkpt lat="32.883129120" lon="35.248085022">
  <ele>140.993408</ele>
  <time>2011-07-22T04:32:36Z</time>
  <speed>1.510000</speed>
</trkpt>
<trkpt lat="32.883163452" lon="35.248077393">
  <ele>141.294189</ele>
  <time>2011-07-22T04:32:38Z</time>
  <speed>1.750000</speed>
</trkpt>
<trkpt lat="32.883190155" lon="35.248058319">
  <ele>142.598877</ele>
  <time>2011-07-22T04:32:40Z</time>
  <speed>1.630000</speed>
</trkpt>
<trkpt lat="32.883216858" lon="35.248043060">
  <ele>142.606689</ele>
  <time>2011-07-22T04:32:42Z</time>
  <speed>1.770000</speed>
</trkpt>
<trkpt lat="32.883239746" lon="35.248020172">
  <ele>142.981689</ele>
  <time>2011-07-22T04:32:44Z</time>
  <speed>2.030000</speed>
</trkpt>
<trkpt lat="32.883266449" lon="35.247993469">
  <ele>143.204346</ele>
  <time>2011-07-22T04:32:46Z</time>
  <speed>1.710000</speed>
</trkpt>
<trkpt lat="32.883281708" lon="35.247966766">
  <ele>143.739502</ele>
  <time>2011-07-22T04:32:48Z</time>
  <speed>1.680000</speed>
</trkpt>
<trkpt lat="32.883304596" lon="35.247936249">
  <ele>144.052002</ele>
  <time>2011-07-22T04:32:50Z</time>
  <speed>1.640000</speed>
</trkpt>
<trkpt lat="32.883316040" lon="35.247894287">
  <ele>144.719971</ele>
  <time>2011-07-22T04:32:52Z</time>
  <speed>1.650000</speed>
</trkpt>
<trkpt lat="32.883319855" lon="35.247856140">
  <ele>145.766846</ele>
  <time>2011-07-22T04:32:54Z</time>
  <speed>1.450000</speed>
</trkpt>
<trkpt lat="32.883327484" lon="35.247817993">
  <ele>145.790283</ele>
  <time>2011-07-22T04:32:56Z</time>
  <speed>1.520000</speed>
</trkpt>
<trkpt lat="32.883327484" lon="35.247783661">
  <ele>146.438721</ele>
  <time>2011-07-22T04:32:58Z</time>
  <speed>1.520000</speed>
</trkpt>
<trkpt lat="32.883323669" lon="35.247745514">
  <ele>146.528564</ele>
  <time>2011-07-22T04:33:00Z</time>
  <speed>1.330000</speed>
</trkpt>
<trkpt lat="32.883308411" lon="35.247718811">
  <ele>147.219971</ele>
  <time>2011-07-22T04:33:02Z</time>
  <speed>1.360000</speed>
</trkpt>
<trkpt lat="32.883300781" lon="35.247676849">
  <ele>147.739502</ele>
  <time>2011-07-22T04:33:05Z</time>
  <speed>1.640000</speed>
</trkpt>
<trkpt lat="32.883300781" lon="35.247627258">
  <ele>147.052002</ele>
  <time>2011-07-22T04:33:08Z</time>
  <speed>1.520000</speed>
</trkpt>
<trkpt lat="32.883296967" lon="35.247585297">
  <ele>147.344971</ele>
  <time>2011-07-22T04:33:11Z</time>
  <speed>1.270000</speed>
</trkpt>
<trkpt lat="32.883296967" lon="35.247539520">
  <ele>147.469971</ele>
  <time>2011-07-22T04:33:14Z</time>
  <speed>1.370000</speed>
</trkpt>
<trkpt lat="32.883293152" lon="35.247509003">
  <ele>148.341064</ele>
  <time>2011-07-22T04:33:16Z</time>
  <speed>1.560000</speed>
</trkpt>
<trkpt lat="32.883277893" lon="35.247482300">
  <ele>148.661377</ele>
  <time>2011-07-22T04:33:18Z</time>
  <speed>1.490000</speed>
</trkpt>
<trkpt lat="32.883262634" lon="35.247440338">
  <ele>148.782471</ele>
  <time>2011-07-22T04:33:20Z</time>
  <speed>1.450000</speed>
</trkpt>
<trkpt lat="32.883255005" lon="35.247406006">
  <ele>148.423096</ele>
  <time>2011-07-22T04:33:22Z</time>
  <speed>1.110000</speed>
</trkpt>
<trkpt lat="32.883235931" lon="35.247367859">
  <ele>148.969971</ele>
  <time>2011-07-22T04:33:25Z</time>
  <speed>1.360000</speed>
</trkpt>
<trkpt lat="32.883216858" lon="35.247325897">
  <ele>149.591064</ele>
  <time>2011-07-22T04:33:28Z</time>
  <speed>1.750000</speed>
</trkpt>
<trkpt lat="32.883197784" lon="35.247295380">
  <ele>150.587158</ele>
  <time>2011-07-22T04:33:30Z</time>
  <speed>1.560000</speed>
</trkpt>
<trkpt lat="32.883167267" lon="35.247268677">
  <ele>150.368408</ele>
  <time>2011-07-22T04:33:33Z</time>
  <speed>1.690000</speed>
</trkpt>
<trkpt lat="32.883152008" lon="35.247234344">
  <ele>150.747314</ele>
  <time>2011-07-22T04:33:35Z</time>
  <speed>1.460000</speed>
</trkpt>
<trkpt lat="32.883129120" lon="35.247215271">
  <ele>150.317627</ele>
  <time>2011-07-22T04:33:37Z</time>
  <speed>1.160000</speed>
</trkpt>
<trkpt lat="32.883117676" lon="35.247177124">
  <ele>150.219971</ele>
  <time>2011-07-22T04:33:40Z</time>
  <speed>1.480000</speed>
</trkpt>
<trkpt lat="32.883090973" lon="35.247146606">
  <ele>150.958252</ele>
  <time>2011-07-22T04:33:43Z</time>
  <speed>1.420000</speed>
</trkpt>
<trkpt lat="32.883068085" lon="35.247119904">
  <ele>152.290283</ele>
  <time>2011-07-22T04:33:45Z</time>
  <speed>1.580000</speed>
</trkpt>
<trkpt lat="32.883045197" lon="35.247104645">
  <ele>152.981689</ele>
  <time>2011-07-22T04:33:47Z</time>
  <speed>1.710000</speed>
</trkpt>
<trkpt lat="32.883033752" lon="35.247062683">
  <ele>152.809814</ele>
  <time>2011-07-22T04:33:50Z</time>
  <speed>1.600000</speed>
</trkpt>
<trkpt lat="32.883014679" lon="35.247032166">
  <ele>152.692627</ele>
  <time>2011-07-22T04:33:52Z</time>
  <speed>1.690000</speed>
</trkpt>
<trkpt lat="32.882999420" lon="35.246994019">
  <ele>152.755127</ele>
  <time>2011-07-22T04:33:55Z</time>
  <speed>1.440000</speed>
</trkpt>
<trkpt lat="32.882984161" lon="35.246967316">
  <ele>153.677002</ele>
  <time>2011-07-22T04:33:57Z</time>
  <speed>1.680000</speed>
</trkpt>
<trkpt lat="32.882976532" lon="35.246929169">
  <ele>153.481689</ele>
  <time>2011-07-22T04:33:59Z</time>
  <speed>1.490000</speed>
</trkpt>
<trkpt lat="32.882965088" lon="35.246898651">
  <ele>153.282471</ele>
  <time>2011-07-22T04:34:01Z</time>
  <speed>1.590000</speed>
</trkpt>
<trkpt lat="32.882946014" lon="35.246868134">
  <ele>153.352783</ele>
  <time>2011-07-22T04:34:03Z</time>
  <speed>1.710000</speed>
</trkpt>
<trkpt lat="32.882926941" lon="35.246829987">
  <ele>153.255127</ele>
  <time>2011-07-22T04:34:05Z</time>
  <speed>2.200000</speed>
</trkpt>
<trkpt lat="32.882900238" lon="35.246788025">
  <ele>153.321533</ele>
  <time>2011-07-22T04:34:07Z</time>
  <speed>2.380000</speed>
</trkpt>
<trkpt lat="32.882873535" lon="35.246746063">
  <ele>154.286377</ele>
  <time>2011-07-22T04:34:09Z</time>
  <speed>2.580000</speed>
</trkpt>
<trkpt lat="32.882858276" lon="35.246719360">
  <ele>154.567627</ele>
  <time>2011-07-22T04:34:10Z</time>
  <speed>2.590000</speed>
</trkpt>
<trkpt lat="32.882827759" lon="35.246669769">
  <ele>154.637939</ele>
  <time>2011-07-22T04:34:12Z</time>
  <speed>2.650000</speed>
</trkpt>
<trkpt lat="32.882804871" lon="35.246620178">
  <ele>154.809814</ele>
  <time>2011-07-22T04:34:14Z</time>
  <speed>2.980000</speed>
</trkpt>
<trkpt lat="32.882789612" lon="35.246593475">
  <ele>154.829346</ele>
  <time>2011-07-22T04:34:15Z</time>
  <speed>3.340000</speed>
</trkpt>
<trkpt lat="32.882774353" lon="35.246566772">
  <ele>154.114502</ele>
  <time>2011-07-22T04:34:16Z</time>
  <speed>3.700000</speed>
</trkpt>
<trkpt lat="32.882747650" lon="35.246536255">
  <ele>154.040283</ele>
  <time>2011-07-22T04:34:17Z</time>
  <speed>4.040000</speed>
</trkpt>
<trkpt lat="32.882720947" lon="35.246501923">
  <ele>154.774658</ele>
  <time>2011-07-22T04:34:18Z</time>
  <speed>4.290000</speed>
</trkpt>
<trkpt lat="32.882690430" lon="35.246463776">
  <ele>154.645752</ele>
  <time>2011-07-22T04:34:19Z</time>
  <speed>4.460000</speed>
</trkpt>
<trkpt lat="32.882663727" lon="35.246429443">
  <ele>153.735596</ele>
  <time>2011-07-22T04:34:20Z</time>
  <speed>4.090000</speed>
</trkpt>
<trkpt lat="32.882637024" lon="35.246398926">
  <ele>153.313721</ele>
  <time>2011-07-22T04:34:21Z</time>
  <speed>3.320000</speed>
</trkpt>
<trkpt lat="32.882614136" lon="35.246364594">
  <ele>153.192627</ele>
  <time>2011-07-22T04:34:22Z</time>
  <speed>2.740000</speed>
</trkpt>
<trkpt lat="32.882583618" lon="35.246334076">
  <ele>152.114502</ele>
  <time>2011-07-22T04:34:24Z</time>
  <speed>1.830000</speed>
</trkpt>
<trkpt lat="32.882556915" lon="35.246303558">
  <ele>150.153564</ele>
  <time>2011-07-22T04:34:26Z</time>
  <speed>1.870000</speed>
</trkpt>
<trkpt lat="32.882534027" lon="35.246273041">
  <ele>150.415283</ele>
  <time>2011-07-22T04:34:28Z</time>
  <speed>1.850000</speed>
</trkpt>
<trkpt lat="32.882507324" lon="35.246253967">
  <ele>149.204346</ele>
  <time>2011-07-22T04:34:30Z</time>
  <speed>1.760000</speed>
</trkpt>
<trkpt lat="32.882484436" lon="35.246227264">
  <ele>149.548096</ele>
  <time>2011-07-22T04:34:32Z</time>
  <speed>1.800000</speed>
</trkpt>
<trkpt lat="32.882453918" lon="35.246208191">
  <ele>151.184814</ele>
  <time>2011-07-22T04:34:34Z</time>
  <speed>2.020000</speed>
</trkpt>
<trkpt lat="32.882427216" lon="35.246185303">
  <ele>151.055908</ele>
  <time>2011-07-22T04:34:36Z</time>
  <speed>1.710000</speed>
</trkpt>
<trkpt lat="32.882404327" lon="35.246166229">
  <ele>152.481689</ele>
  <time>2011-07-22T04:34:38Z</time>
  <speed>1.890000</speed>
</trkpt>
<trkpt lat="32.882381439" lon="35.246139526">
  <ele>153.001221</ele>
  <time>2011-07-22T04:34:40Z</time>
  <speed>1.720000</speed>
</trkpt>
<trkpt lat="32.882347107" lon="35.246112823">
  <ele>153.579346</ele>
  <time>2011-07-22T04:34:42Z</time>
  <speed>1.710000</speed>
</trkpt>
<trkpt lat="32.882324219" lon="35.246082306">
  <ele>154.247314</ele>
  <time>2011-07-22T04:34:44Z</time>
  <speed>1.580000</speed>
</trkpt>
<trkpt lat="32.882301331" lon="35.246055603">
  <ele>154.430908</ele>
  <time>2011-07-22T04:34:46Z</time>
  <speed>1.610000</speed>
</trkpt>
<trkpt lat="32.882286072" lon="35.246021271">
  <ele>154.942627</ele>
  <time>2011-07-22T04:34:48Z</time>
  <speed>1.540000</speed>
</trkpt>
<trkpt lat="32.882259369" lon="35.246002197">
  <ele>155.509033</ele>
  <time>2011-07-22T04:34:50Z</time>
  <speed>1.390000</speed>
</trkpt>
<trkpt lat="32.882240295" lon="35.245971680">
  <ele>157.219971</ele>
  <time>2011-07-22T04:34:52Z</time>
  <speed>1.480000</speed>
</trkpt>
<trkpt lat="32.882232666" lon="35.245937347">
  <ele>157.661377</ele>
  <time>2011-07-22T04:34:54Z</time>
  <speed>1.820000</speed>
</trkpt>
<trkpt lat="32.882217407" lon="35.245903015">
  <ele>157.915283</ele>
  <time>2011-07-22T04:34:56Z</time>
  <speed>1.820000</speed>
</trkpt>
<trkpt lat="32.882198334" lon="35.245876312">
  <ele>158.973877</ele>
  <time>2011-07-22T04:34:58Z</time>
  <speed>1.580000</speed>
</trkpt>
<trkpt lat="32.882175446" lon="35.245849609">
  <ele>158.860596</ele>
  <time>2011-07-22T04:35:00Z</time>
  <speed>1.680000</speed>
</trkpt>
<trkpt lat="32.882148743" lon="35.245819092">
  <ele>159.762939</ele>
  <time>2011-07-22T04:35:02Z</time>
  <speed>1.720000</speed>
</trkpt>
<trkpt lat="32.882129669" lon="35.245796204">
  <ele>160.794189</ele>
  <time>2011-07-22T04:35:04Z</time>
  <speed>1.660000</speed>
</trkpt>
<trkpt lat="32.882110596" lon="35.245780945">
  <ele>163.337158</ele>
  <time>2011-07-22T04:35:07Z</time>
  <speed>1.590000</speed>
</trkpt>
<trkpt lat="32.882087708" lon="35.245746613">
  <ele>164.266846</ele>
  <time>2011-07-22T04:35:10Z</time>
  <speed>1.880000</speed>
</trkpt>
<trkpt lat="32.882068634" lon="35.245716095">
  <ele>164.231689</ele>
  <time>2011-07-22T04:35:12Z</time>
  <speed>1.500000</speed>
</trkpt>
<trkpt lat="32.882049561" lon="35.245689392">
  <ele>164.665283</ele>
  <time>2011-07-22T04:35:14Z</time>
  <speed>1.270000</speed>
</trkpt>
<trkpt lat="32.882030487" lon="35.245662689">
  <ele>164.387939</ele>
  <time>2011-07-22T04:35:16Z</time>
  <speed>1.740000</speed>
</trkpt>
<trkpt lat="32.882015228" lon="35.245635986">
  <ele>163.938721</ele>
  <time>2011-07-22T04:35:18Z</time>
  <speed>1.530000</speed>
</trkpt>
<trkpt lat="32.881984711" lon="35.245620728">
  <ele>164.274658</ele>
  <time>2011-07-22T04:35:20Z</time>
  <speed>1.460000</speed>
</trkpt>
<trkpt lat="32.881958008" lon="35.245597839">
  <ele>165.243408</ele>
  <time>2011-07-22T04:35:22Z</time>
  <speed>1.730000</speed>
</trkpt>
<trkpt lat="32.881938934" lon="35.245571136">
  <ele>166.141846</ele>
  <time>2011-07-22T04:35:24Z</time>
  <speed>1.520000</speed>
</trkpt>
<trkpt lat="32.881908417" lon="35.245555878">
  <ele>165.583252</ele>
  <time>2011-07-22T04:35:26Z</time>
  <speed>1.770000</speed>
</trkpt>
<trkpt lat="32.881893158" lon="35.245529175">
  <ele>165.403564</ele>
  <time>2011-07-22T04:35:28Z</time>
  <speed>1.290000</speed>
</trkpt>
<trkpt lat="32.881870270" lon="35.245498657">
  <ele>165.614502</ele>
  <time>2011-07-22T04:35:31Z</time>
  <speed>1.310000</speed>
</trkpt>
<trkpt lat="32.881858826" lon="35.245471954">
  <ele>166.844971</ele>
  <time>2011-07-22T04:35:33Z</time>
  <speed>1.270000</speed>
</trkpt>
<trkpt lat="32.881855011" lon="35.245433807">
  <ele>167.497314</ele>
  <time>2011-07-22T04:35:36Z</time>
  <speed>1.220000</speed>
</trkpt>
<trkpt lat="32.881835938" lon="35.245399475">
  <ele>167.641846</ele>
  <time>2011-07-22T04:35:39Z</time>
  <speed>1.480000</speed>
</trkpt>
<trkpt lat="32.881828308" lon="35.245368958">
  <ele>167.325439</ele>
  <time>2011-07-22T04:35:41Z</time>
  <speed>1.480000</speed>
</trkpt>
<trkpt lat="32.881816864" lon="35.245330811">
  <ele>168.262939</ele>
  <time>2011-07-22T04:35:43Z</time>
  <speed>1.360000</speed>
</trkpt>
<trkpt lat="32.881805420" lon="35.245285034">
  <ele>168.516846</ele>
  <time>2011-07-22T04:35:46Z</time>
  <speed>1.210000</speed>
</trkpt>
<trkpt lat="32.881805420" lon="35.245243073">
  <ele>169.759033</ele>
  <time>2011-07-22T04:35:49Z</time>
  <speed>1.140000</speed>
</trkpt>
<trkpt lat="32.881797791" lon="35.245212555">
  <ele>170.157471</ele>
  <time>2011-07-22T04:35:51Z</time>
  <speed>1.350000</speed>
</trkpt>
<trkpt lat="32.881782532" lon="35.245174408">
  <ele>170.235596</ele>
  <time>2011-07-22T04:35:54Z</time>
  <speed>0.920000</speed>
</trkpt>
<trkpt lat="32.881759644" lon="35.245128632">
  <ele>169.712158</ele>
  <time>2011-07-22T04:35:57Z</time>
  <speed>1.330000</speed>
</trkpt>
<trkpt lat="32.881752014" lon="35.245090485">
  <ele>169.602783</ele>
  <time>2011-07-22T04:35:59Z</time>
  <speed>1.390000</speed>
</trkpt>
<trkpt lat="32.881748199" lon="35.245048523">
  <ele>169.833252</ele>
  <time>2011-07-22T04:36:02Z</time>
  <speed>0.990000</speed>
</trkpt>
<trkpt lat="32.881729126" lon="35.245021820">
  <ele>169.712158</ele>
  <time>2011-07-22T04:36:04Z</time>
  <speed>1.260000</speed>
</trkpt>
<trkpt lat="32.881725311" lon="35.244979858">
  <ele>170.395752</ele>
  <time>2011-07-22T04:36:07Z</time>
  <speed>1.330000</speed>
</trkpt>
<trkpt lat="32.881725311" lon="35.244941711">
  <ele>170.837158</ele>
  <time>2011-07-22T04:36:10Z</time>
  <speed>0.990000</speed>
</trkpt>
<trkpt lat="32.881736755" lon="35.244895935">
  <ele>169.755127</ele>
  <time>2011-07-22T04:36:12Z</time>
  <speed>1.360000</speed>
</trkpt>
<trkpt lat="32.881740570" lon="35.244865417">
  <ele>170.782471</ele>
  <time>2011-07-22T04:36:14Z</time>
  <speed>0.940000</speed>
</trkpt>
<trkpt lat="32.881744385" lon="35.244827271">
  <ele>171.169189</ele>
  <time>2011-07-22T04:36:16Z</time>
  <speed>1.280000</speed>
</trkpt>
<trkpt lat="32.881748199" lon="35.244792938">
  <ele>170.450439</ele>
  <time>2011-07-22T04:36:18Z</time>
  <speed>1.230000</speed>
</trkpt>
<trkpt lat="32.881736755" lon="35.244747162">
  <ele>170.630127</ele>
  <time>2011-07-22T04:36:21Z</time>
  <speed>1.300000</speed>
</trkpt>
<trkpt lat="32.881736755" lon="35.244697571">
  <ele>171.958252</ele>
  <time>2011-07-22T04:36:24Z</time>
  <speed>1.290000</speed>
</trkpt>
<trkpt lat="32.881732941" lon="35.244663239">
  <ele>172.661377</ele>
  <time>2011-07-22T04:36:26Z</time>
  <speed>1.290000</speed>
</trkpt>
<trkpt lat="32.881729126" lon="35.244628906">
  <ele>173.723877</ele>
  <time>2011-07-22T04:36:28Z</time>
  <speed>1.070000</speed>
</trkpt>
<trkpt lat="32.881721497" lon="35.244583130">
  <ele>174.372314</ele>
  <time>2011-07-22T04:36:31Z</time>
  <speed>1.070000</speed>
</trkpt>
<trkpt lat="32.881721497" lon="35.244544983">
  <ele>175.137939</ele>
  <time>2011-07-22T04:36:33Z</time>
  <speed>1.100000</speed>
</trkpt>
<trkpt lat="32.881721497" lon="35.244514465">
  <ele>176.278564</ele>
  <time>2011-07-22T04:36:35Z</time>
  <speed>1.180000</speed>
</trkpt>
<trkpt lat="32.881725311" lon="35.244476318">
  <ele>177.180908</ele>
  <time>2011-07-22T04:36:37Z</time>
  <speed>1.670000</speed>
</trkpt>
<trkpt lat="32.881725311" lon="35.244434357">
  <ele>176.759033</ele>
  <time>2011-07-22T04:36:40Z</time>
  <speed>1.230000</speed>
</trkpt>
<trkpt lat="32.881717682" lon="35.244396210">
  <ele>177.344971</ele>
  <time>2011-07-22T04:36:42Z</time>
  <speed>1.520000</speed>
</trkpt>
<trkpt lat="32.881729126" lon="35.244361877">
  <ele>177.458252</ele>
  <time>2011-07-22T04:36:44Z</time>
  <speed>1.470000</speed>
</trkpt>
<trkpt lat="32.881729126" lon="35.244323730">
  <ele>177.438721</ele>
  <time>2011-07-22T04:36:46Z</time>
  <speed>1.340000</speed>
</trkpt>
<trkpt lat="32.881729126" lon="35.244289398">
  <ele>177.024658</ele>
  <time>2011-07-22T04:36:48Z</time>
  <speed>1.660000</speed>
</trkpt>
<trkpt lat="32.881725311" lon="35.244251251">
  <ele>177.282471</ele>
  <time>2011-07-22T04:36:50Z</time>
  <speed>1.940000</speed>
</trkpt>
<trkpt lat="32.881732941" lon="35.244205475">
  <ele>176.989502</ele>
  <time>2011-07-22T04:36:52Z</time>
  <speed>2.140000</speed>
</trkpt>
<trkpt lat="32.881732941" lon="35.244144440">
  <ele>177.141846</ele>
  <time>2011-07-22T04:36:54Z</time>
  <speed>2.220000</speed>
</trkpt>
<trkpt lat="32.881725311" lon="35.244106293">
  <ele>177.165283</ele>
  <time>2011-07-22T04:36:56Z</time>
  <speed>1.440000</speed>
</trkpt>
<trkpt lat="32.881721497" lon="35.244068146">
  <ele>176.774658</ele>
  <time>2011-07-22T04:36:58Z</time>
  <speed>1.400000</speed>
</trkpt>
<trkpt lat="32.881713867" lon="35.244037628">
  <ele>177.368408</ele>
  <time>2011-07-22T04:37:00Z</time>
  <speed>1.510000</speed>
</trkpt>
<trkpt lat="32.881702423" lon="35.243995667">
  <ele>177.829346</ele>
  <time>2011-07-22T04:37:03Z</time>
  <speed>1.230000</speed>
</trkpt>
<trkpt lat="32.881698608" lon="35.243965149">
  <ele>179.286377</ele>
  <time>2011-07-22T04:37:06Z</time>
  <speed>0.700000</speed>
</trkpt>
<trkpt lat="32.881668091" lon="35.243942261">
  <ele>180.016846</ele>
  <time>2011-07-22T04:37:08Z</time>
  <speed>1.050000</speed>
</trkpt>
<trkpt lat="32.881633759" lon="35.243957520">
  <ele>179.165283</ele>
  <time>2011-07-22T04:37:11Z</time>
  <speed>1.050000</speed>
</trkpt>
<trkpt lat="32.881633759" lon="35.243995667">
  <ele>180.489502</ele>
  <time>2011-07-22T04:37:14Z</time>
  <speed>1.380000</speed>
</trkpt>
<trkpt lat="32.881629944" lon="35.244049072">
  <ele>181.196533</ele>
  <time>2011-07-22T04:37:17Z</time>
  <speed>1.570000</speed>
</trkpt>
<trkpt lat="32.881633759" lon="35.244087219">
  <ele>180.954346</ele>
  <time>2011-07-22T04:37:19Z</time>
  <speed>1.510000</speed>
</trkpt>
<trkpt lat="32.881629944" lon="35.244129181">
  <ele>181.442627</ele>
  <time>2011-07-22T04:37:20Z</time>
  <speed>1.780000</speed>
</trkpt>
<trkpt lat="32.881622314" lon="35.244174957">
  <ele>182.122314</ele>
  <time>2011-07-22T04:37:22Z</time>
  <speed>1.830000</speed>
</trkpt>
<trkpt lat="32.881614685" lon="35.244216919">
  <ele>182.700439</ele>
  <time>2011-07-22T04:37:24Z</time>
  <speed>1.680000</speed>
</trkpt>
<trkpt lat="32.881610870" lon="35.244251251">
  <ele>183.083252</ele>
  <time>2011-07-22T04:37:26Z</time>
  <speed>1.300000</speed>
</trkpt>
<trkpt lat="32.881595612" lon="35.244274139">
  <ele>183.134033</ele>
  <time>2011-07-22T04:37:28Z</time>
  <speed>1.380000</speed>
</trkpt>
<trkpt lat="32.881584167" lon="35.244308472">
  <ele>183.212158</ele>
  <time>2011-07-22T04:37:31Z</time>
  <speed>1.340000</speed>
</trkpt>
<trkpt lat="32.881576538" lon="35.244342804">
  <ele>180.559814</ele>
  <time>2011-07-22T04:37:35Z</time>
  <speed>1.180000</speed>
</trkpt>
<trkpt lat="32.881572723" lon="35.244373322">
  <ele>180.126221</ele>
  <time>2011-07-22T04:37:37Z</time>
  <speed>1.460000</speed>
</trkpt>
<trkpt lat="32.881561279" lon="35.244400024">
  <ele>178.438721</ele>
  <time>2011-07-22T04:37:40Z</time>
  <speed>1.020000</speed>
</trkpt>
<trkpt lat="32.881561279" lon="35.244434357">
  <ele>178.505127</ele>
  <time>2011-07-22T04:37:43Z</time>
  <speed>0.850000</speed>
</trkpt>
<trkpt lat="32.881553650" lon="35.244468689">
  <ele>178.298096</ele>
  <time>2011-07-22T04:37:45Z</time>
  <speed>1.100000</speed>
</trkpt>
<trkpt lat="32.881553650" lon="35.244506836">
  <ele>178.622314</ele>
  <time>2011-07-22T04:37:47Z</time>
  <speed>1.160000</speed>
</trkpt>
<trkpt lat="32.881553650" lon="35.244541168">
  <ele>178.563721</ele>
  <time>2011-07-22T04:37:49Z</time>
  <speed>1.420000</speed>
</trkpt>
<trkpt lat="32.881553650" lon="35.244575500">
  <ele>178.192627</ele>
  <time>2011-07-22T04:37:51Z</time>
  <speed>1.360000</speed>
</trkpt>
<trkpt lat="32.881557465" lon="35.244636536">
  <ele>178.380127</ele>
  <time>2011-07-22T04:37:53Z</time>
  <speed>1.480000</speed>
</trkpt>
<trkpt lat="32.881553650" lon="35.244689941">
  <ele>178.384033</ele>
  <time>2011-07-22T04:37:55Z</time>
  <speed>2.170000</speed>
</trkpt>
<trkpt lat="32.881546021" lon="35.244743347">
  <ele>178.712158</ele>
  <time>2011-07-22T04:37:57Z</time>
  <speed>2.490000</speed>
</trkpt>
<trkpt lat="32.881534576" lon="35.244796753">
  <ele>178.637939</ele>
  <time>2011-07-22T04:37:59Z</time>
  <speed>2.790000</speed>
</trkpt>
<trkpt lat="32.881526947" lon="35.244850159">
  <ele>178.001221</ele>
  <time>2011-07-22T04:38:01Z</time>
  <speed>2.030000</speed>
</trkpt>
<trkpt lat="32.881515503" lon="35.244899750">
  <ele>178.028564</ele>
  <time>2011-07-22T04:38:04Z</time>
  <speed>1.500000</speed>
</trkpt>
<trkpt lat="32.881500244" lon="35.244934082">
  <ele>177.860596</ele>
  <time>2011-07-22T04:38:06Z</time>
  <speed>1.670000</speed>
</trkpt>
<trkpt lat="32.881473541" lon="35.244964600">
  <ele>177.692627</ele>
  <time>2011-07-22T04:38:08Z</time>
  <speed>1.190000</speed>
</trkpt>
<trkpt lat="32.881465912" lon="35.245010376">
  <ele>176.872314</ele>
  <time>2011-07-22T04:38:11Z</time>
  <speed>1.190000</speed>
</trkpt>
<trkpt lat="32.881458282" lon="35.245059967">
  <ele>176.079346</ele>
  <time>2011-07-22T04:38:13Z</time>
  <speed>1.590000</speed>
</trkpt>
<trkpt lat="32.881439209" lon="35.245098114">
  <ele>176.657471</ele>
  <time>2011-07-22T04:38:15Z</time>
  <speed>1.540000</speed>
</trkpt>
<trkpt lat="32.881435394" lon="35.245136261">
  <ele>176.634033</ele>
  <time>2011-07-22T04:38:17Z</time>
  <speed>1.330000</speed>
</trkpt>
<trkpt lat="32.881427765" lon="35.245166779">
  <ele>176.434814</ele>
  <time>2011-07-22T04:38:19Z</time>
  <speed>1.300000</speed>
</trkpt>
<trkpt lat="32.881412506" lon="35.245204926">
  <ele>176.204346</ele>
  <time>2011-07-22T04:38:21Z</time>
  <speed>1.540000</speed>
</trkpt>
<trkpt lat="32.881408691" lon="35.245254517">
  <ele>176.903564</ele>
  <time>2011-07-22T04:38:24Z</time>
  <speed>1.270000</speed>
</trkpt>
<trkpt lat="32.881401062" lon="35.245288849">
  <ele>177.684814</ele>
  <time>2011-07-22T04:38:26Z</time>
  <speed>1.580000</speed>
</trkpt>
<trkpt lat="32.881401062" lon="35.245319366">
  <ele>178.153564</ele>
  <time>2011-07-22T04:38:28Z</time>
  <speed>1.540000</speed>
</trkpt>
<trkpt lat="32.881389618" lon="35.245372772">
  <ele>178.731689</ele>
  <time>2011-07-22T04:38:30Z</time>
  <speed>1.720000</speed>
</trkpt>
<trkpt lat="32.881366730" lon="35.245422363">
  <ele>179.981689</ele>
  <time>2011-07-22T04:38:32Z</time>
  <speed>1.690000</speed>
</trkpt>
<trkpt lat="32.881366730" lon="35.245464325">
  <ele>181.825439</ele>
  <time>2011-07-22T04:38:34Z</time>
  <speed>1.550000</speed>
</trkpt>
<trkpt lat="32.881355286" lon="35.245494843">
  <ele>183.376221</ele>
  <time>2011-07-22T04:38:36Z</time>
  <speed>1.500000</speed>
</trkpt>
<trkpt lat="32.881347656" lon="35.245525360">
  <ele>184.759033</ele>
  <time>2011-07-22T04:38:38Z</time>
  <speed>1.440000</speed>
</trkpt>
<trkpt lat="32.881332397" lon="35.245563507">
  <ele>186.384033</ele>
  <time>2011-07-22T04:38:40Z</time>
  <speed>1.580000</speed>
</trkpt>
<trkpt lat="32.881313324" lon="35.245590210">
  <ele>187.126221</ele>
  <time>2011-07-22T04:38:43Z</time>
  <speed>1.380000</speed>
</trkpt>
<trkpt lat="32.881294250" lon="35.245616913">
  <ele>188.231689</ele>
  <time>2011-07-22T04:38:45Z</time>
  <speed>1.370000</speed>
</trkpt>
<trkpt lat="32.881259918" lon="35.245643616">
  <ele>189.524658</ele>
  <time>2011-07-22T04:38:47Z</time>
  <speed>1.290000</speed>
</trkpt>
<trkpt lat="32.881240845" lon="35.245670319">
  <ele>189.356689</ele>
  <time>2011-07-22T04:38:50Z</time>
  <speed>1.110000</speed>
</trkpt>
<trkpt lat="32.881217957" lon="35.245700836">
  <ele>188.122314</ele>
  <time>2011-07-22T04:38:53Z</time>
  <speed>1.070000</speed>
</trkpt>
<trkpt lat="32.881198883" lon="35.245712280">
  <ele>189.790283</ele>
  <time>2011-07-22T04:38:56Z</time>
  <speed>1.360000</speed>
</trkpt>
<trkpt lat="32.881179810" lon="35.245738983">
  <ele>189.782471</ele>
  <time>2011-07-22T04:38:59Z</time>
  <speed>0.890000</speed>
</trkpt>
<trkpt lat="32.881160736" lon="35.245780945">
  <ele>191.630127</ele>
  <time>2011-07-22T04:39:02Z</time>
  <speed>1.090000</speed>
</trkpt>
<trkpt lat="32.881149292" lon="35.245819092">
  <ele>191.829346</ele>
  <time>2011-07-22T04:39:05Z</time>
  <speed>1.080000</speed>
</trkpt>
<trkpt lat="32.881126404" lon="35.245841980">
  <ele>192.208252</ele>
  <time>2011-07-22T04:39:07Z</time>
  <speed>0.840000</speed>
</trkpt>
<trkpt lat="32.881118774" lon="35.245880127">
  <ele>192.563721</ele>
  <time>2011-07-22T04:39:10Z</time>
  <speed>1.370000</speed>
</trkpt>
<trkpt lat="32.881103516" lon="35.245922089">
  <ele>193.149658</ele>
  <time>2011-07-22T04:39:13Z</time>
  <speed>1.260000</speed>
</trkpt>
<trkpt lat="32.881095886" lon="35.245952606">
  <ele>193.516846</ele>
  <time>2011-07-22T04:39:15Z</time>
  <speed>1.260000</speed>
</trkpt>
<trkpt lat="32.881084442" lon="35.245986938">
  <ele>193.481689</ele>
  <time>2011-07-22T04:39:17Z</time>
  <speed>1.330000</speed>
</trkpt>
<trkpt lat="32.881065369" lon="35.246028900">
  <ele>194.575439</ele>
  <time>2011-07-22T04:39:20Z</time>
  <speed>1.220000</speed>
</trkpt>
<trkpt lat="32.881053925" lon="35.246063232">
  <ele>195.669189</ele>
  <time>2011-07-22T04:39:22Z</time>
  <speed>1.200000</speed>
</trkpt>
<trkpt lat="32.881034851" lon="35.246089935">
  <ele>196.571533</ele>
  <time>2011-07-22T04:39:24Z</time>
  <speed>1.340000</speed>
</trkpt>
<trkpt lat="32.881008148" lon="35.246116638">
  <ele>197.450439</ele>
  <time>2011-07-22T04:39:26Z</time>
  <speed>1.330000</speed>
</trkpt>
<trkpt lat="32.880981445" lon="35.246139526">
  <ele>197.739502</ele>
  <time>2011-07-22T04:39:29Z</time>
  <speed>1.150000</speed>
</trkpt>
<trkpt lat="32.880954742" lon="35.246162415">
  <ele>198.149658</ele>
  <time>2011-07-22T04:39:32Z</time>
  <speed>1.230000</speed>
</trkpt>
<trkpt lat="32.880931854" lon="35.246189117">
  <ele>197.934814</ele>
  <time>2011-07-22T04:39:35Z</time>
  <speed>1.210000</speed>
</trkpt>
<trkpt lat="32.880908966" lon="35.246212006">
  <ele>198.309814</ele>
  <time>2011-07-22T04:39:38Z</time>
  <speed>1.030000</speed>
</trkpt>
<trkpt lat="32.880870819" lon="35.246200562">
  <ele>198.868408</ele>
  <time>2011-07-22T04:39:41Z</time>
  <speed>1.020000</speed>
</trkpt>
<trkpt lat="32.880847931" lon="35.246177673">
  <ele>199.395752</ele>
  <time>2011-07-22T04:39:42Z</time>
  <speed>1.010000</speed>
</trkpt>
<trkpt lat="32.880840302" lon="35.246147156">
  <ele>197.774658</ele>
  <time>2011-07-22T04:39:45Z</time>
  <speed>1.210000</speed>
</trkpt>
<trkpt lat="32.880809784" lon="35.246143341">
  <ele>198.950439</ele>
  <time>2011-07-22T04:39:50Z</time>
  <speed>1.020000</speed>
</trkpt>
<trkpt lat="32.880805969" lon="35.246189117">
  <ele>198.981689</ele>
  <time>2011-07-22T04:39:53Z</time>
  <speed>1.280000</speed>
</trkpt>
<trkpt lat="32.880809784" lon="35.246227264">
  <ele>199.321533</ele>
  <time>2011-07-22T04:39:55Z</time>
  <speed>1.860000</speed>
</trkpt>
<trkpt lat="32.880794525" lon="35.246269226">
  <ele>199.618408</ele>
  <time>2011-07-22T04:39:57Z</time>
  <speed>1.520000</speed>
</trkpt>
<trkpt lat="32.880802155" lon="35.246307373">
  <ele>199.548096</ele>
  <time>2011-07-22T04:39:59Z</time>
  <speed>1.280000</speed>
</trkpt>
<trkpt lat="32.880821228" lon="35.246330261">
  <ele>199.048096</ele>
  <time>2011-07-22T04:40:10Z</time>
  <speed>0.050000</speed>
</trkpt>
<trkpt lat="32.880847931" lon="35.246326447">
  <ele>199.216064</ele>
  <time>2011-07-22T04:40:20Z</time>
  <speed>0.070000</speed>
</trkpt>
<trkpt lat="32.880870819" lon="35.246326447">
  <ele>201.528564</ele>
  <time>2011-07-22T04:40:50Z</time>
  <speed>0.020000</speed>
</trkpt>
<trkpt lat="32.880863190" lon="35.246303558">
  <ele>199.571533</ele>
  <time>2011-07-22T04:41:20Z</time>
</trkpt>
<trkpt lat="32.880851746" lon="35.246318817">
  <ele>196.696533</ele>
  <time>2011-07-22T04:41:24Z</time>
</trkpt>
<trkpt lat="32.880828857" lon="35.246337891">
  <ele>198.766846</ele>
  <time>2011-07-22T04:41:40Z</time>
  <speed>0.020000</speed>
</trkpt>
<trkpt lat="32.880798340" lon="35.246353149">
  <ele>198.079346</ele>
  <time>2011-07-22T04:41:48Z</time>
  <speed>2.150000</speed>
</trkpt>
<trkpt lat="32.880744934" lon="35.246364594">
  <ele>197.466064</ele>
  <time>2011-07-22T04:41:50Z</time>
  <speed>2.730000</speed>
</trkpt>
<trkpt lat="32.880710602" lon="35.246376038">
  <ele>197.235596</ele>
  <time>2011-07-22T04:41:51Z</time>
  <speed>2.870000</speed>
</trkpt>
<trkpt lat="32.880680084" lon="35.246395111">
  <ele>197.223877</ele>
  <time>2011-07-22T04:41:52Z</time>
  <speed>3.330000</speed>
</trkpt>
<trkpt lat="32.880653381" lon="35.246417999">
  <ele>197.497314</ele>
  <time>2011-07-22T04:41:53Z</time>
  <speed>3.630000</speed>
</trkpt>
<trkpt lat="32.880619049" lon="35.246440887">
  <ele>197.337158</ele>
  <time>2011-07-22T04:41:54Z</time>
  <speed>4.180000</speed>
</trkpt>
<trkpt lat="32.880584717" lon="35.246467590">
  <ele>197.134033</ele>
  <time>2011-07-22T04:41:55Z</time>
  <speed>4.080000</speed>
</trkpt>
<trkpt lat="32.880554199" lon="35.246494293">
  <ele>197.165283</ele>
  <time>2011-07-22T04:41:56Z</time>
  <speed>4.000000</speed>
</trkpt>
<trkpt lat="32.880519867" lon="35.246517181">
  <ele>196.872314</ele>
  <time>2011-07-22T04:41:57Z</time>
  <speed>4.320000</speed>
</trkpt>
<trkpt lat="32.880481720" lon="35.246540070">
  <ele>196.802002</ele>
  <time>2011-07-22T04:41:58Z</time>
  <speed>4.520000</speed>
</trkpt>
<trkpt lat="32.880439758" lon="35.246555328">
  <ele>196.223877</ele>
  <time>2011-07-22T04:41:59Z</time>
  <speed>4.920000</speed>
</trkpt>
<trkpt lat="32.880401611" lon="35.246582031">
  <ele>195.735596</ele>
  <time>2011-07-22T04:42:00Z</time>
  <speed>4.200000</speed>
</trkpt>
<trkpt lat="32.880363464" lon="35.246612549">
  <ele>194.735596</ele>
  <time>2011-07-22T04:42:01Z</time>
  <speed>4.550000</speed>
</trkpt>
<trkpt lat="32.880317688" lon="35.246639252">
  <ele>193.927002</ele>
  <time>2011-07-22T04:42:02Z</time>
  <speed>5.030000</speed>
</trkpt>
<trkpt lat="32.880271912" lon="35.246662140">
  <ele>193.372314</ele>
  <time>2011-07-22T04:42:03Z</time>
  <speed>5.310000</speed>
</trkpt>
<trkpt lat="32.880226135" lon="35.246688843">
  <ele>193.255127</ele>
  <time>2011-07-22T04:42:04Z</time>
  <speed>5.660000</speed>
</trkpt>
<trkpt lat="32.880180359" lon="35.246711731">
  <ele>193.180908</ele>
  <time>2011-07-22T04:42:05Z</time>
  <speed>5.260000</speed>
</trkpt>
<trkpt lat="32.880130768" lon="35.246723175">
  <ele>193.055908</ele>
  <time>2011-07-22T04:42:06Z</time>
  <speed>5.420000</speed>
</trkpt>
<trkpt lat="32.880077362" lon="35.246734619">
  <ele>192.735596</ele>
  <time>2011-07-22T04:42:07Z</time>
  <speed>6.000000</speed>
</trkpt>
<trkpt lat="32.880023956" lon="35.246749878">
  <ele>192.286377</ele>
  <time>2011-07-22T04:42:08Z</time>
  <speed>6.280000</speed>
</trkpt>
<trkpt lat="32.879966736" lon="35.246761322">
  <ele>191.571533</ele>
  <time>2011-07-22T04:42:09Z</time>
  <speed>6.770000</speed>
</trkpt>
<trkpt lat="32.879905701" lon="35.246765137">
  <ele>190.782471</ele>
  <time>2011-07-22T04:42:10Z</time>
  <speed>7.130000</speed>
</trkpt>
<trkpt lat="32.879833221" lon="35.246772766">
  <ele>189.962158</ele>
  <time>2011-07-22T04:42:11Z</time>
  <speed>7.730000</speed>
</trkpt>
<trkpt lat="32.879764557" lon="35.246776581">
  <ele>189.692627</ele>
  <time>2011-07-22T04:42:12Z</time>
  <speed>7.650000</speed>
</trkpt>
<trkpt lat="32.879692078" lon="35.246776581">
  <ele>189.091064</ele>
  <time>2011-07-22T04:42:13Z</time>
  <speed>7.510000</speed>
</trkpt>
<trkpt lat="32.879627228" lon="35.246772766">
  <ele>188.450439</ele>
  <time>2011-07-22T04:42:14Z</time>
  <speed>7.160000</speed>
</trkpt>
<trkpt lat="32.879562378" lon="35.246772766">
  <ele>187.805908</ele>
  <time>2011-07-22T04:42:15Z</time>
  <speed>6.620000</speed>
</trkpt>
<trkpt lat="32.879505157" lon="35.246765137">
  <ele>187.497314</ele>
  <time>2011-07-22T04:42:16Z</time>
  <speed>5.860000</speed>
</trkpt>
<trkpt lat="32.879455566" lon="35.246757507">
  <ele>186.942627</ele>
  <time>2011-07-22T04:42:17Z</time>
  <speed>5.300000</speed>
</trkpt>
<trkpt lat="32.879409790" lon="35.246742249">
  <ele>186.415283</ele>
  <time>2011-07-22T04:42:18Z</time>
  <speed>4.430000</speed>
</trkpt>
<trkpt lat="32.879375458" lon="35.246730804">
  <ele>186.087158</ele>
  <time>2011-07-22T04:42:19Z</time>
  <speed>3.800000</speed>
</trkpt>
<trkpt lat="32.879318237" lon="35.246715546">
  <ele>184.981689</ele>
  <time>2011-07-22T04:42:21Z</time>
  <speed>2.590000</speed>
</trkpt>
<trkpt lat="32.879280090" lon="35.246711731">
  <ele>183.985596</ele>
  <time>2011-07-22T04:42:23Z</time>
  <speed>1.990000</speed>
</trkpt>
<trkpt lat="32.879253387" lon="35.246700287">
  <ele>182.337158</ele>
  <time>2011-07-22T04:42:25Z</time>
  <speed>2.090000</speed>
</trkpt>
<trkpt lat="32.879203796" lon="35.246677399">
  <ele>184.188721</ele>
  <time>2011-07-22T04:42:27Z</time>
  <speed>1.860000</speed>
</trkpt>
<trkpt lat="32.879169464" lon="35.246665955">
  <ele>184.028564</ele>
  <time>2011-07-22T04:42:29Z</time>
  <speed>2.080000</speed>
</trkpt>
<trkpt lat="32.879135132" lon="35.246658325">
  <ele>183.645752</ele>
  <time>2011-07-22T04:42:31Z</time>
  <speed>1.960000</speed>
</trkpt>
<trkpt lat="32.879104614" lon="35.246643066">
  <ele>183.376221</ele>
  <time>2011-07-22T04:42:33Z</time>
  <speed>1.950000</speed>
</trkpt>
<trkpt lat="32.879074097" lon="35.246639252">
  <ele>183.919189</ele>
  <time>2011-07-22T04:42:35Z</time>
  <speed>1.750000</speed>
</trkpt>
<trkpt lat="32.879039764" lon="35.246631622">
  <ele>184.677002</ele>
  <time>2011-07-22T04:42:37Z</time>
  <speed>1.860000</speed>
</trkpt>
<trkpt lat="32.879001617" lon="35.246627808">
  <ele>185.466064</ele>
  <time>2011-07-22T04:42:39Z</time>
  <speed>1.890000</speed>
</trkpt>
<trkpt lat="32.878963470" lon="35.246627808">
  <ele>185.704346</ele>
  <time>2011-07-22T04:42:41Z</time>
  <speed>1.770000</speed>
</trkpt>
<trkpt lat="32.878929138" lon="35.246643066">
  <ele>186.208252</ele>
  <time>2011-07-22T04:42:43Z</time>
  <speed>1.700000</speed>
</trkpt>
<trkpt lat="32.878910065" lon="35.246650696">
  <ele>188.177002</ele>
  <time>2011-07-22T04:42:44Z</time>
  <speed>1.660000</speed>
</trkpt>
<trkpt lat="32.878887177" lon="35.246681213">
  <ele>189.270752</ele>
  <time>2011-07-22T04:42:46Z</time>
  <speed>1.460000</speed>
</trkpt>
<trkpt lat="32.878856659" lon="35.246707916">
  <ele>189.161377</ele>
  <time>2011-07-22T04:42:48Z</time>
  <speed>1.650000</speed>
</trkpt>
<trkpt lat="32.878826141" lon="35.246730804">
  <ele>189.637939</ele>
  <time>2011-07-22T04:42:50Z</time>
  <speed>1.290000</speed>
</trkpt>
<trkpt lat="32.878807068" lon="35.246761322">
  <ele>189.380127</ele>
  <time>2011-07-22T04:42:52Z</time>
  <speed>1.540000</speed>
</trkpt>
<trkpt lat="32.878795624" lon="35.246803284">
  <ele>190.680908</ele>
  <time>2011-07-22T04:42:54Z</time>
  <speed>1.850000</speed>
</trkpt>
<trkpt lat="32.878784180" lon="35.246829987">
  <ele>192.180908</ele>
  <time>2011-07-22T04:42:55Z</time>
  <speed>1.690000</speed>
</trkpt>
<trkpt lat="32.878765106" lon="35.246868134">
  <ele>193.727783</ele>
  <time>2011-07-22T04:42:57Z</time>
  <speed>1.900000</speed>
</trkpt>
<trkpt lat="32.878757477" lon="35.246917725">
  <ele>195.067627</ele>
  <time>2011-07-22T04:42:59Z</time>
  <speed>1.890000</speed>
</trkpt>
<trkpt lat="32.878753662" lon="35.246959686">
  <ele>194.637939</ele>
  <time>2011-07-22T04:43:01Z</time>
  <speed>1.750000</speed>
</trkpt>
<trkpt lat="32.878761292" lon="35.246997833">
  <ele>194.602783</ele>
  <time>2011-07-22T04:43:03Z</time>
  <speed>1.830000</speed>
</trkpt>
<trkpt lat="32.878768921" lon="35.247043610">
  <ele>192.704346</ele>
  <time>2011-07-22T04:43:06Z</time>
  <speed>2.130000</speed>
</trkpt>
<trkpt lat="32.878768921" lon="35.247089386">
  <ele>192.286377</ele>
  <time>2011-07-22T04:43:08Z</time>
  <speed>2.440000</speed>
</trkpt>
<trkpt lat="32.878795624" lon="35.247135162">
  <ele>192.497314</ele>
  <time>2011-07-22T04:43:10Z</time>
  <speed>2.230000</speed>
</trkpt>
<trkpt lat="32.878810883" lon="35.247180939">
  <ele>192.368408</ele>
  <time>2011-07-22T04:43:12Z</time>
  <speed>2.140000</speed>
</trkpt>
<trkpt lat="32.878814697" lon="35.247219086">
  <ele>192.852783</ele>
  <time>2011-07-22T04:43:14Z</time>
  <speed>1.750000</speed>
</trkpt>
<trkpt lat="32.878826141" lon="35.247261047">
  <ele>193.024658</ele>
  <time>2011-07-22T04:43:16Z</time>
  <speed>2.110000</speed>
</trkpt>
<trkpt lat="32.878833771" lon="35.247303009">
  <ele>192.844971</ele>
  <time>2011-07-22T04:43:18Z</time>
  <speed>1.850000</speed>
</trkpt>
<trkpt lat="32.878837585" lon="35.247348785">
  <ele>193.106689</ele>
  <time>2011-07-22T04:43:20Z</time>
  <speed>1.990000</speed>
</trkpt>
<trkpt lat="32.878852844" lon="35.247386932">
  <ele>193.618408</ele>
  <time>2011-07-22T04:43:22Z</time>
  <speed>1.800000</speed>
</trkpt>
<trkpt lat="32.878860474" lon="35.247425079">
  <ele>192.907471</ele>
  <time>2011-07-22T04:43:24Z</time>
  <speed>1.560000</speed>
</trkpt>
<trkpt lat="32.878871918" lon="35.247463226">
  <ele>192.774658</ele>
  <time>2011-07-22T04:43:26Z</time>
  <speed>1.790000</speed>
</trkpt>
<trkpt lat="32.878871918" lon="35.247497559">
  <ele>192.973877</ele>
  <time>2011-07-22T04:43:28Z</time>
  <speed>1.790000</speed>
</trkpt>
<trkpt lat="32.878875732" lon="35.247543335">
  <ele>191.559814</ele>
  <time>2011-07-22T04:43:30Z</time>
  <speed>1.560000</speed>
</trkpt>
<trkpt lat="32.878871918" lon="35.247581482">
  <ele>191.696533</ele>
  <time>2011-07-22T04:43:32Z</time>
  <speed>1.480000</speed>
</trkpt>
<trkpt lat="32.878890991" lon="35.247615814">
  <ele>191.950439</ele>
  <time>2011-07-22T04:43:34Z</time>
  <speed>1.810000</speed>
</trkpt>
<trkpt lat="32.878906250" lon="35.247650146">
  <ele>193.055908</ele>
  <time>2011-07-22T04:43:36Z</time>
  <speed>1.550000</speed>
</trkpt>
<trkpt lat="32.878913879" lon="35.247692108">
  <ele>192.833252</ele>
  <time>2011-07-22T04:43:38Z</time>
  <speed>2.180000</speed>
</trkpt>
<trkpt lat="32.878917694" lon="35.247737885">
  <ele>193.302002</ele>
  <time>2011-07-22T04:43:40Z</time>
  <speed>1.800000</speed>
</trkpt>
<trkpt lat="32.878921509" lon="35.247776031">
  <ele>194.516846</ele>
  <time>2011-07-22T04:43:42Z</time>
  <speed>1.900000</speed>
</trkpt>
<trkpt lat="32.878932953" lon="35.247825623">
  <ele>194.399658</ele>
  <time>2011-07-22T04:43:44Z</time>
  <speed>1.980000</speed>
</trkpt>
<trkpt lat="32.878948212" lon="35.247871399">
  <ele>194.540283</ele>
  <time>2011-07-22T04:43:46Z</time>
  <speed>2.040000</speed>
</trkpt>
<trkpt lat="32.878959656" lon="35.247909546">
  <ele>195.473877</ele>
  <time>2011-07-22T04:43:48Z</time>
  <speed>1.720000</speed>
</trkpt>
<trkpt lat="32.878955841" lon="35.247955322">
  <ele>195.395752</ele>
  <time>2011-07-22T04:43:50Z</time>
  <speed>1.740000</speed>
</trkpt>
<trkpt lat="32.878967285" lon="35.247997284">
  <ele>195.891846</ele>
  <time>2011-07-22T04:43:52Z</time>
  <speed>1.800000</speed>
</trkpt>
<trkpt lat="32.878978729" lon="35.248039246">
  <ele>196.520752</ele>
  <time>2011-07-22T04:43:54Z</time>
  <speed>1.820000</speed>
</trkpt>
<trkpt lat="32.878990173" lon="35.248081207">
  <ele>196.930908</ele>
  <time>2011-07-22T04:43:56Z</time>
  <speed>1.990000</speed>
</trkpt>
<trkpt lat="32.879005432" lon="35.248123169">
  <ele>198.438721</ele>
  <time>2011-07-22T04:43:58Z</time>
  <speed>1.830000</speed>
</trkpt>
<trkpt lat="32.879005432" lon="35.248161316">
  <ele>199.255127</ele>
  <time>2011-07-22T04:44:00Z</time>
  <speed>1.800000</speed>
</trkpt>
<trkpt lat="32.879005432" lon="35.248195648">
  <ele>201.169189</ele>
  <time>2011-07-22T04:44:01Z</time>
  <speed>1.830000</speed>
</trkpt>
<trkpt lat="32.879009247" lon="35.248233795">
  <ele>201.739502</ele>
  <time>2011-07-22T04:44:03Z</time>
  <speed>1.790000</speed>
</trkpt>
<trkpt lat="32.879009247" lon="35.248275757">
  <ele>202.180908</ele>
  <time>2011-07-22T04:44:05Z</time>
  <speed>1.680000</speed>
</trkpt>
<trkpt lat="32.879016876" lon="35.248313904">
  <ele>202.536377</ele>
  <time>2011-07-22T04:44:07Z</time>
  <speed>1.770000</speed>
</trkpt>
<trkpt lat="32.879020691" lon="35.248348236">
  <ele>202.891846</ele>
  <time>2011-07-22T04:44:09Z</time>
  <speed>1.570000</speed>
</trkpt>
<trkpt lat="32.879039764" lon="35.248378754">
  <ele>203.173096</ele>
  <time>2011-07-22T04:44:11Z</time>
  <speed>1.670000</speed>
</trkpt>
<trkpt lat="32.879035950" lon="35.248420715">
  <ele>203.919189</ele>
  <time>2011-07-22T04:44:13Z</time>
  <speed>1.870000</speed>
</trkpt>
<trkpt lat="32.879035950" lon="35.248451233">
  <ele>205.005127</ele>
  <time>2011-07-22T04:44:15Z</time>
  <speed>1.890000</speed>
</trkpt>
<trkpt lat="32.879055023" lon="35.248493195">
  <ele>205.598877</ele>
  <time>2011-07-22T04:44:17Z</time>
  <speed>1.950000</speed>
</trkpt>
<trkpt lat="32.879081726" lon="35.248527527">
  <ele>206.512939</ele>
  <time>2011-07-22T04:44:19Z</time>
  <speed>2.000000</speed>
</trkpt>
<trkpt lat="32.879100800" lon="35.248561859">
  <ele>205.719971</ele>
  <time>2011-07-22T04:44:21Z</time>
  <speed>1.870000</speed>
</trkpt>
<trkpt lat="32.879116058" lon="35.248596191">
  <ele>205.411377</ele>
  <time>2011-07-22T04:44:23Z</time>
  <speed>1.760000</speed>
</trkpt>
<trkpt lat="32.879138947" lon="35.248615265">
  <ele>204.821533</ele>
  <time>2011-07-22T04:44:25Z</time>
  <speed>1.700000</speed>
</trkpt>
<trkpt lat="32.879165649" lon="35.248653412">
  <ele>205.747314</ele>
  <time>2011-07-22T04:44:28Z</time>
  <speed>1.880000</speed>
</trkpt>
<trkpt lat="32.879196167" lon="35.248676300">
  <ele>205.141846</ele>
  <time>2011-07-22T04:44:30Z</time>
  <speed>1.670000</speed>
</trkpt>
<trkpt lat="32.879219055" lon="35.248710632">
  <ele>205.938721</ele>
  <time>2011-07-22T04:44:32Z</time>
  <speed>1.690000</speed>
</trkpt>
<trkpt lat="32.879245758" lon="35.248737335">
  <ele>206.083252</ele>
  <time>2011-07-22T04:44:34Z</time>
  <speed>1.500000</speed>
</trkpt>
<trkpt lat="32.879264832" lon="35.248775482">
  <ele>205.688721</ele>
  <time>2011-07-22T04:44:36Z</time>
  <speed>1.490000</speed>
</trkpt>
<trkpt lat="32.879287720" lon="35.248806000">
  <ele>205.485596</ele>
  <time>2011-07-22T04:44:38Z</time>
  <speed>1.610000</speed>
</trkpt>
<trkpt lat="32.879280090" lon="35.248847961">
  <ele>205.716064</ele>
  <time>2011-07-22T04:44:41Z</time>
  <speed>1.710000</speed>
</trkpt>
<trkpt lat="32.879310608" lon="35.248870850">
  <ele>206.438721</ele>
  <time>2011-07-22T04:44:43Z</time>
  <speed>1.590000</speed>
</trkpt>
<trkpt lat="32.879341125" lon="35.248897552">
  <ele>206.048096</ele>
  <time>2011-07-22T04:44:45Z</time>
  <speed>1.560000</speed>
</trkpt>
<trkpt lat="32.879348755" lon="35.248928070">
  <ele>206.313721</ele>
  <time>2011-07-22T04:44:47Z</time>
  <speed>1.540000</speed>
</trkpt>
<trkpt lat="32.879360199" lon="35.248958588">
  <ele>207.255127</ele>
  <time>2011-07-22T04:44:49Z</time>
  <speed>1.650000</speed>
</trkpt>
<trkpt lat="32.879367828" lon="35.249000549">
  <ele>207.774658</ele>
  <time>2011-07-22T04:44:51Z</time>
  <speed>1.720000</speed>
</trkpt>
<trkpt lat="32.879375458" lon="35.249038696">
  <ele>209.462158</ele>
  <time>2011-07-22T04:44:53Z</time>
  <speed>1.490000</speed>
</trkpt>
<trkpt lat="32.879394531" lon="35.249073029">
  <ele>209.423096</ele>
  <time>2011-07-22T04:44:55Z</time>
  <speed>1.650000</speed>
</trkpt>
<trkpt lat="32.879425049" lon="35.249088287">
  <ele>209.098877</ele>
  <time>2011-07-22T04:44:56Z</time>
  <speed>2.060000</speed>
</trkpt>
<trkpt lat="32.879444122" lon="35.249122620">
  <ele>207.805908</ele>
  <time>2011-07-22T04:44:58Z</time>
  <speed>2.050000</speed>
</trkpt>
<trkpt lat="32.879455566" lon="35.249160767">
  <ele>207.481689</ele>
  <time>2011-07-22T04:45:00Z</time>
  <speed>1.610000</speed>
</trkpt>
<trkpt lat="32.879463196" lon="35.249206543">
  <ele>207.075439</ele>
  <time>2011-07-22T04:45:03Z</time>
  <speed>1.640000</speed>
</trkpt>
<trkpt lat="32.879474640" lon="35.249244690">
  <ele>207.735596</ele>
  <time>2011-07-22T04:45:06Z</time>
  <speed>1.860000</speed>
</trkpt>
<trkpt lat="32.879497528" lon="35.249279022">
  <ele>208.235596</ele>
  <time>2011-07-22T04:45:08Z</time>
  <speed>1.820000</speed>
</trkpt>
<trkpt lat="32.879505157" lon="35.249317169">
  <ele>210.016846</ele>
  <time>2011-07-22T04:45:10Z</time>
  <speed>1.920000</speed>
</trkpt>
<trkpt lat="32.879516602" lon="35.249351501">
  <ele>210.856689</ele>
  <time>2011-07-22T04:45:12Z</time>
  <speed>1.700000</speed>
</trkpt>
<trkpt lat="32.879524231" lon="35.249385834">
  <ele>212.165283</ele>
  <time>2011-07-22T04:45:15Z</time>
  <speed>1.170000</speed>
</trkpt>
<trkpt lat="32.879516602" lon="35.249427795">
  <ele>212.977783</ele>
  <time>2011-07-22T04:45:17Z</time>
  <speed>1.110000</speed>
</trkpt>
<trkpt lat="32.879535675" lon="35.249446869">
  <ele>215.235596</ele>
  <time>2011-07-22T04:45:19Z</time>
  <speed>1.570000</speed>
</trkpt>
<trkpt lat="32.879547119" lon="35.249481201">
  <ele>215.454346</ele>
  <time>2011-07-22T04:45:21Z</time>
  <speed>1.460000</speed>
</trkpt>
<trkpt lat="32.879562378" lon="35.249507904">
  <ele>216.509033</ele>
  <time>2011-07-22T04:45:23Z</time>
  <speed>1.510000</speed>
</trkpt>
<trkpt lat="32.879581451" lon="35.249534607">
  <ele>216.829346</ele>
  <time>2011-07-22T04:45:25Z</time>
  <speed>1.470000</speed>
</trkpt>
<trkpt lat="32.879600525" lon="35.249576569">
  <ele>217.251221</ele>
  <time>2011-07-22T04:45:28Z</time>
  <speed>1.650000</speed>
</trkpt>
<trkpt lat="32.879611969" lon="35.249610901">
  <ele>217.106689</ele>
  <time>2011-07-22T04:45:30Z</time>
  <speed>1.690000</speed>
</trkpt>
<trkpt lat="32.879623413" lon="35.249641418">
  <ele>217.177002</ele>
  <time>2011-07-22T04:45:32Z</time>
  <speed>1.320000</speed>
</trkpt>
<trkpt lat="32.879623413" lon="35.249683380">
  <ele>218.145752</ele>
  <time>2011-07-22T04:45:34Z</time>
  <speed>1.430000</speed>
</trkpt>
<trkpt lat="32.879638672" lon="35.249717712">
  <ele>218.227783</ele>
  <time>2011-07-22T04:45:36Z</time>
  <speed>1.700000</speed>
</trkpt>
<trkpt lat="32.879653931" lon="35.249755859">
  <ele>218.348877</ele>
  <time>2011-07-22T04:45:38Z</time>
  <speed>1.680000</speed>
</trkpt>
<trkpt lat="32.879676819" lon="35.249786377">
  <ele>217.868408</ele>
  <time>2011-07-22T04:45:40Z</time>
  <speed>1.740000</speed>
</trkpt>
<trkpt lat="32.879688263" lon="35.249832153">
  <ele>217.899658</ele>
  <time>2011-07-22T04:45:43Z</time>
  <speed>1.510000</speed>
</trkpt>
<trkpt lat="32.879695892" lon="35.249862671">
  <ele>217.825439</ele>
  <time>2011-07-22T04:45:45Z</time>
  <speed>1.540000</speed>
</trkpt>
<trkpt lat="32.879692078" lon="35.249908447">
  <ele>217.848877</ele>
  <time>2011-07-22T04:45:48Z</time>
  <speed>1.070000</speed>
</trkpt>
<trkpt lat="32.879673004" lon="35.249935150">
  <ele>217.657471</ele>
  <time>2011-07-22T04:45:50Z</time>
  <speed>1.290000</speed>
</trkpt>
<trkpt lat="32.879650116" lon="35.249973297">
  <ele>218.141846</ele>
  <time>2011-07-22T04:45:53Z</time>
  <speed>1.420000</speed>
</trkpt>
<trkpt lat="32.879638672" lon="35.250003815">
  <ele>218.434814</ele>
  <time>2011-07-22T04:45:55Z</time>
  <speed>1.710000</speed>
</trkpt>
<trkpt lat="32.879623413" lon="35.250041962">
  <ele>218.395752</ele>
  <time>2011-07-22T04:45:57Z</time>
  <speed>1.790000</speed>
</trkpt>
<trkpt lat="32.879604340" lon="35.250076294">
  <ele>218.298096</ele>
  <time>2011-07-22T04:45:59Z</time>
  <speed>1.030000</speed>
</trkpt>
<trkpt lat="32.879577637" lon="35.250106812">
  <ele>217.700439</ele>
  <time>2011-07-22T04:46:02Z</time>
  <speed>1.530000</speed>
</trkpt>
<trkpt lat="32.879547119" lon="35.250110626">
  <ele>215.192627</ele>
  <time>2011-07-22T04:46:05Z</time>
  <speed>1.140000</speed>
</trkpt>
<trkpt lat="32.879516602" lon="35.250125885">
  <ele>215.286377</ele>
  <time>2011-07-22T04:46:08Z</time>
  <speed>1.300000</speed>
</trkpt>
<trkpt lat="32.879489899" lon="35.250129700">
  <ele>214.571533</ele>
  <time>2011-07-22T04:46:10Z</time>
  <speed>1.450000</speed>
</trkpt>
<trkpt lat="32.879451752" lon="35.250137329">
  <ele>214.032471</ele>
  <time>2011-07-22T04:46:13Z</time>
  <speed>1.380000</speed>
</trkpt>
<trkpt lat="32.879425049" lon="35.250160217">
  <ele>213.759033</ele>
  <time>2011-07-22T04:46:16Z</time>
  <speed>1.410000</speed>
</trkpt>
<trkpt lat="32.879402161" lon="35.250167847">
  <ele>214.786377</ele>
  <time>2011-07-22T04:46:18Z</time>
  <speed>1.360000</speed>
</trkpt>
<trkpt lat="32.879360199" lon="35.250171661">
  <ele>215.665283</ele>
  <time>2011-07-22T04:46:21Z</time>
  <speed>1.350000</speed>
</trkpt>
<trkpt lat="32.879333496" lon="35.250164032">
  <ele>216.821533</ele>
  <time>2011-07-22T04:46:23Z</time>
  <speed>1.240000</speed>
</trkpt>
<trkpt lat="32.879302979" lon="35.250167847">
  <ele>217.208252</ele>
  <time>2011-07-22T04:46:26Z</time>
  <speed>1.120000</speed>
</trkpt>
<trkpt lat="32.879272461" lon="35.250175476">
  <ele>218.048096</ele>
  <time>2011-07-22T04:46:28Z</time>
  <speed>1.280000</speed>
</trkpt>
<trkpt lat="32.879249573" lon="35.250164032">
  <ele>219.415283</ele>
  <time>2011-07-22T04:46:30Z</time>
  <speed>1.180000</speed>
</trkpt>
<trkpt lat="32.879226685" lon="35.250156403">
  <ele>221.184814</ele>
  <time>2011-07-22T04:46:32Z</time>
  <speed>1.440000</speed>
</trkpt>
<trkpt lat="32.879199982" lon="35.250144958">
  <ele>222.204346</ele>
  <time>2011-07-22T04:46:34Z</time>
  <speed>1.260000</speed>
</trkpt>
<trkpt lat="32.879169464" lon="35.250141144">
  <ele>223.005127</ele>
  <time>2011-07-22T04:46:36Z</time>
  <speed>1.510000</speed>
</trkpt>
<trkpt lat="32.879138947" lon="35.250125885">
  <ele>223.384033</ele>
  <time>2011-07-22T04:46:38Z</time>
  <speed>1.420000</speed>
</trkpt>
<trkpt lat="32.879100800" lon="35.250114441">
  <ele>224.454346</ele>
  <time>2011-07-22T04:46:41Z</time>
  <speed>1.340000</speed>
</trkpt>
<trkpt lat="32.879074097" lon="35.250099182">
  <ele>225.309814</ele>
  <time>2011-07-22T04:46:44Z</time>
  <speed>1.230000</speed>
</trkpt>
<trkpt lat="32.879051208" lon="35.250080109">
  <ele>225.887939</ele>
  <time>2011-07-22T04:46:46Z</time>
  <speed>1.510000</speed>
</trkpt>
<trkpt lat="32.879020691" lon="35.250080109">
  <ele>226.102783</ele>
  <time>2011-07-22T04:46:49Z</time>
  <speed>1.290000</speed>
</trkpt>
<trkpt lat="32.878990173" lon="35.250061035">
  <ele>227.087158</ele>
  <time>2011-07-22T04:46:52Z</time>
  <speed>1.420000</speed>
</trkpt>
<trkpt lat="32.878952026" lon="35.250057220">
  <ele>227.610596</ele>
  <time>2011-07-22T04:46:55Z</time>
  <speed>1.560000</speed>
</trkpt>
<trkpt lat="32.878917694" lon="35.250061035">
  <ele>227.927002</ele>
  <time>2011-07-22T04:46:57Z</time>
  <speed>1.330000</speed>
</trkpt>
<trkpt lat="32.878883362" lon="35.250053406">
  <ele>227.469971</ele>
  <time>2011-07-22T04:47:00Z</time>
  <speed>1.410000</speed>
</trkpt>
<trkpt lat="32.878860474" lon="35.250057220">
  <ele>228.458252</ele>
  <time>2011-07-22T04:47:02Z</time>
  <speed>1.460000</speed>
</trkpt>
<trkpt lat="32.878822327" lon="35.250049591">
  <ele>229.028564</ele>
  <time>2011-07-22T04:47:05Z</time>
  <speed>1.480000</speed>
</trkpt>
<trkpt lat="32.878776550" lon="35.250049591">
  <ele>229.376221</ele>
  <time>2011-07-22T04:47:08Z</time>
  <speed>1.550000</speed>
</trkpt>
<trkpt lat="32.878738403" lon="35.250049591">
  <ele>229.563721</ele>
  <time>2011-07-22T04:47:11Z</time>
  <speed>1.330000</speed>
</trkpt>
<trkpt lat="32.878700256" lon="35.250049591">
  <ele>229.024658</ele>
  <time>2011-07-22T04:47:14Z</time>
  <speed>1.090000</speed>
</trkpt>
<trkpt lat="32.878669739" lon="35.250061035">
  <ele>230.079346</ele>
  <time>2011-07-22T04:47:17Z</time>
  <speed>1.070000</speed>
</trkpt>
<trkpt lat="32.878631592" lon="35.250053406">
  <ele>229.833252</ele>
  <time>2011-07-22T04:47:20Z</time>
  <speed>1.470000</speed>
</trkpt>
<trkpt lat="32.878597260" lon="35.250053406">
  <ele>229.794189</ele>
  <time>2011-07-22T04:47:23Z</time>
  <speed>1.110000</speed>
</trkpt>
<trkpt lat="32.878566742" lon="35.250057220">
  <ele>229.770752</ele>
  <time>2011-07-22T04:47:26Z</time>
  <speed>1.210000</speed>
</trkpt>
<trkpt lat="32.878528595" lon="35.250049591">
  <ele>229.837158</ele>
  <time>2011-07-22T04:47:29Z</time>
  <speed>1.080000</speed>
</trkpt>
<trkpt lat="32.878498077" lon="35.250045776">
  <ele>229.610596</ele>
  <time>2011-07-22T04:47:32Z</time>
  <speed>1.080000</speed>
</trkpt>
<trkpt lat="32.878467560" lon="35.250061035">
  <ele>229.598877</ele>
  <time>2011-07-22T04:47:35Z</time>
  <speed>1.480000</speed>
</trkpt>
<trkpt lat="32.878440857" lon="35.250041962">
  <ele>229.536377</ele>
  <time>2011-07-22T04:47:37Z</time>
  <speed>1.050000</speed>
</trkpt>
<trkpt lat="32.878406525" lon="35.250038147">
  <ele>229.872314</ele>
  <time>2011-07-22T04:47:40Z</time>
  <speed>1.120000</speed>
</trkpt>
<trkpt lat="32.878372192" lon="35.250026703">
  <ele>230.423096</ele>
  <time>2011-07-22T04:47:42Z</time>
  <speed>1.150000</speed>
</trkpt>
<trkpt lat="32.878341675" lon="35.250011444">
  <ele>230.669189</ele>
  <time>2011-07-22T04:47:45Z</time>
  <speed>1.190000</speed>
</trkpt>
<trkpt lat="32.878307343" lon="35.249992371">
  <ele>230.212158</ele>
  <time>2011-07-22T04:47:47Z</time>
  <speed>1.020000</speed>
</trkpt>
<trkpt lat="32.878269196" lon="35.250000000">
  <ele>230.317627</ele>
  <time>2011-07-22T04:47:50Z</time>
  <speed>1.540000</speed>
</trkpt>
<trkpt lat="32.878238678" lon="35.250003815">
  <ele>229.950439</ele>
  <time>2011-07-22T04:47:52Z</time>
  <speed>1.500000</speed>
</trkpt>
<trkpt lat="32.878196716" lon="35.250000000">
  <ele>230.747314</ele>
  <time>2011-07-22T04:47:55Z</time>
  <speed>1.350000</speed>
</trkpt>
<trkpt lat="32.878170013" lon="35.250007629">
  <ele>230.219971</ele>
  <time>2011-07-22T04:47:57Z</time>
  <speed>1.490000</speed>
</trkpt>
<trkpt lat="32.878139496" lon="35.250015259">
  <ele>230.286377</ele>
  <time>2011-07-22T04:48:00Z</time>
  <speed>1.100000</speed>
</trkpt>
<trkpt lat="32.878112793" lon="35.250007629">
  <ele>230.637939</ele>
  <time>2011-07-22T04:48:02Z</time>
  <speed>1.590000</speed>
</trkpt>
<trkpt lat="32.878086090" lon="35.249996185">
  <ele>232.462158</ele>
  <time>2011-07-22T04:48:04Z</time>
  <speed>1.460000</speed>
</trkpt>
<trkpt lat="32.878055573" lon="35.249996185">
  <ele>234.473877</ele>
  <time>2011-07-22T04:48:06Z</time>
  <speed>1.310000</speed>
</trkpt>
<trkpt lat="32.878021240" lon="35.249984741">
  <ele>235.684814</ele>
  <time>2011-07-22T04:48:09Z</time>
  <speed>1.360000</speed>
</trkpt>
<trkpt lat="32.877986908" lon="35.249980927">
  <ele>235.567627</ele>
  <time>2011-07-22T04:48:12Z</time>
  <speed>1.320000</speed>
</trkpt>
<trkpt lat="32.877956390" lon="35.249969482">
  <ele>235.657471</ele>
  <time>2011-07-22T04:48:14Z</time>
  <speed>1.360000</speed>
</trkpt>
<trkpt lat="32.877918243" lon="35.249958038">
  <ele>235.583252</ele>
  <time>2011-07-22T04:48:17Z</time>
  <speed>1.420000</speed>
</trkpt>
<trkpt lat="32.877887726" lon="35.249946594">
  <ele>235.942627</ele>
  <time>2011-07-22T04:48:20Z</time>
  <speed>1.110000</speed>
</trkpt>
<trkpt lat="32.877841949" lon="35.249942780">
  <ele>236.555908</ele>
  <time>2011-07-22T04:48:23Z</time>
  <speed>1.560000</speed>
</trkpt>
<trkpt lat="32.877811432" lon="35.249950409">
  <ele>236.305908</ele>
  <time>2011-07-22T04:48:25Z</time>
  <speed>1.340000</speed>
</trkpt>
<trkpt lat="32.877784729" lon="35.249958038">
  <ele>235.985596</ele>
  <time>2011-07-22T04:48:27Z</time>
  <speed>1.200000</speed>
</trkpt>
<trkpt lat="32.877750397" lon="35.249946594">
  <ele>236.274658</ele>
  <time>2011-07-22T04:48:30Z</time>
  <speed>1.060000</speed>
</trkpt>
<trkpt lat="32.877723694" lon="35.249954224">
  <ele>238.009033</ele>
  <time>2011-07-22T04:48:33Z</time>
  <speed>1.090000</speed>
</trkpt>
<trkpt lat="32.877693176" lon="35.249965668">
  <ele>238.380127</ele>
  <time>2011-07-22T04:48:35Z</time>
  <speed>1.340000</speed>
</trkpt>
<trkpt lat="32.877662659" lon="35.249961853">
  <ele>238.637939</ele>
  <time>2011-07-22T04:48:37Z</time>
  <speed>1.110000</speed>
</trkpt>
<trkpt lat="32.877628326" lon="35.249954224">
  <ele>238.028564</ele>
  <time>2011-07-22T04:48:40Z</time>
  <speed>1.220000</speed>
</trkpt>
<trkpt lat="32.877590179" lon="35.249950409">
  <ele>237.618408</ele>
  <time>2011-07-22T04:48:43Z</time>
  <speed>1.210000</speed>
</trkpt>
<trkpt lat="32.877559662" lon="35.249927521">
  <ele>236.626221</ele>
  <time>2011-07-22T04:48:45Z</time>
  <speed>1.170000</speed>
</trkpt>
<trkpt lat="32.877529144" lon="35.249931335">
  <ele>237.317627</ele>
  <time>2011-07-22T04:48:47Z</time>
  <speed>1.250000</speed>
</trkpt>
<trkpt lat="32.877502441" lon="35.249923706">
  <ele>238.286377</ele>
  <time>2011-07-22T04:48:49Z</time>
  <speed>1.400000</speed>
</trkpt>
<trkpt lat="32.877479553" lon="35.249927521">
  <ele>239.606689</ele>
  <time>2011-07-22T04:48:51Z</time>
  <speed>1.420000</speed>
</trkpt>
<trkpt lat="32.877445221" lon="35.249919891">
  <ele>239.583252</ele>
  <time>2011-07-22T04:48:54Z</time>
  <speed>1.590000</speed>
</trkpt>
<trkpt lat="32.877407074" lon="35.249900818">
  <ele>240.966064</ele>
  <time>2011-07-22T04:48:56Z</time>
  <speed>1.620000</speed>
</trkpt>
<trkpt lat="32.877388000" lon="35.249874115">
  <ele>241.528564</ele>
  <time>2011-07-22T04:48:58Z</time>
  <speed>1.510000</speed>
</trkpt>
<trkpt lat="32.877395630" lon="35.249828339">
  <ele>241.309814</ele>
  <time>2011-07-22T04:49:01Z</time>
  <speed>1.650000</speed>
</trkpt>
<trkpt lat="32.877418518" lon="35.249797821">
  <ele>240.598877</ele>
  <time>2011-07-22T04:49:03Z</time>
  <speed>1.500000</speed>
</trkpt>
<trkpt lat="32.877445221" lon="35.249778748">
  <ele>241.251221</ele>
  <time>2011-07-22T04:49:05Z</time>
  <speed>1.800000</speed>
</trkpt>
<trkpt lat="32.877468109" lon="35.249755859">
  <ele>242.079346</ele>
  <time>2011-07-22T04:49:07Z</time>
  <speed>1.410000</speed>
</trkpt>
<trkpt lat="32.877494812" lon="35.249740601">
  <ele>242.673096</ele>
  <time>2011-07-22T04:49:09Z</time>
  <speed>1.560000</speed>
</trkpt>
<trkpt lat="32.877521515" lon="35.249717712">
  <ele>243.219971</ele>
  <time>2011-07-22T04:49:11Z</time>
  <speed>1.530000</speed>
</trkpt>
<trkpt lat="32.877544403" lon="35.249683380">
  <ele>243.594971</ele>
  <time>2011-07-22T04:49:14Z</time>
  <speed>1.580000</speed>
</trkpt>
<trkpt lat="32.877555847" lon="35.249649048">
  <ele>243.841064</ele>
  <time>2011-07-22T04:49:16Z</time>
  <speed>1.810000</speed>
</trkpt>
<trkpt lat="32.877567291" lon="35.249614716">
  <ele>245.243408</ele>
  <time>2011-07-22T04:49:18Z</time>
  <speed>1.510000</speed>
</trkpt>
<trkpt lat="32.877571106" lon="35.249584198">
  <ele>245.919189</ele>
  <time>2011-07-22T04:49:20Z</time>
  <speed>1.510000</speed>
</trkpt>
<trkpt lat="32.877563477" lon="35.249549866">
  <ele>246.110596</ele>
  <time>2011-07-22T04:49:22Z</time>
  <speed>1.510000</speed>
</trkpt>
<trkpt lat="32.877552032" lon="35.249511719">
  <ele>247.200439</ele>
  <time>2011-07-22T04:49:24Z</time>
  <speed>1.280000</speed>
</trkpt>
<trkpt lat="32.877540588" lon="35.249477386">
  <ele>247.317627</ele>
  <time>2011-07-22T04:49:26Z</time>
  <speed>1.270000</speed>
</trkpt>
<trkpt lat="32.877506256" lon="35.249439240">
  <ele>247.716064</ele>
  <time>2011-07-22T04:49:29Z</time>
  <speed>1.550000</speed>
</trkpt>
<trkpt lat="32.877490997" lon="35.249408722">
  <ele>248.094971</ele>
  <time>2011-07-22T04:49:31Z</time>
  <speed>1.340000</speed>
</trkpt>
<trkpt lat="32.877464294" lon="35.249385834">
  <ele>249.020752</ele>
  <time>2011-07-22T04:49:33Z</time>
  <speed>1.750000</speed>
</trkpt>
<trkpt lat="32.877441406" lon="35.249370575">
  <ele>250.462158</ele>
  <time>2011-07-22T04:49:35Z</time>
  <speed>1.120000</speed>
</trkpt>
<trkpt lat="32.877414703" lon="35.249359131">
  <ele>250.630127</ele>
  <time>2011-07-22T04:49:37Z</time>
  <speed>1.360000</speed>
</trkpt>
<trkpt lat="32.877388000" lon="35.249362946">
  <ele>250.723877</ele>
  <time>2011-07-22T04:49:39Z</time>
  <speed>1.510000</speed>
</trkpt>
<trkpt lat="32.877349854" lon="35.249378204">
  <ele>250.942627</ele>
  <time>2011-07-22T04:49:41Z</time>
  <speed>1.490000</speed>
</trkpt>
<trkpt lat="32.877323151" lon="35.249382019">
  <ele>250.852783</ele>
  <time>2011-07-22T04:49:43Z</time>
  <speed>1.330000</speed>
</trkpt>
<trkpt lat="32.877288818" lon="35.249374390">
  <ele>249.587158</ele>
  <time>2011-07-22T04:49:46Z</time>
  <speed>1.470000</speed>
</trkpt>
<trkpt lat="32.877262115" lon="35.249397278">
  <ele>249.934814</ele>
  <time>2011-07-22T04:49:48Z</time>
  <speed>1.260000</speed>
</trkpt>
<trkpt lat="32.877243042" lon="35.249420166">
  <ele>248.880127</ele>
  <time>2011-07-22T04:49:50Z</time>
  <speed>1.420000</speed>
</trkpt>
<trkpt lat="32.877208710" lon="35.249427795">
  <ele>248.317627</ele>
  <time>2011-07-22T04:49:53Z</time>
  <speed>1.530000</speed>
</trkpt>
<trkpt lat="32.877174377" lon="35.249427795">
  <ele>248.243408</ele>
  <time>2011-07-22T04:49:56Z</time>
  <speed>1.420000</speed>
</trkpt>
<trkpt lat="32.877143860" lon="35.249439240">
  <ele>247.876221</ele>
  <time>2011-07-22T04:49:58Z</time>
  <speed>1.320000</speed>
</trkpt>
<trkpt lat="32.877113342" lon="35.249450684">
  <ele>247.653564</ele>
  <time>2011-07-22T04:50:00Z</time>
  <speed>1.280000</speed>
</trkpt>
<trkpt lat="32.877075195" lon="35.249462128">
  <ele>248.466064</ele>
  <time>2011-07-22T04:50:03Z</time>
  <speed>1.360000</speed>
</trkpt>
<trkpt lat="32.877044678" lon="35.249477386">
  <ele>249.442627</ele>
  <time>2011-07-22T04:50:06Z</time>
  <speed>1.210000</speed>
</trkpt>
<trkpt lat="32.877017975" lon="35.249496460">
  <ele>249.864502</ele>
  <time>2011-07-22T04:50:08Z</time>
  <speed>1.120000</speed>
</trkpt>
<trkpt lat="32.876987457" lon="35.249504089">
  <ele>250.356689</ele>
  <time>2011-07-22T04:50:10Z</time>
  <speed>1.250000</speed>
</trkpt>
<trkpt lat="32.876964569" lon="35.249530792">
  <ele>250.169189</ele>
  <time>2011-07-22T04:50:13Z</time>
  <speed>1.120000</speed>
</trkpt>
<trkpt lat="32.876926422" lon="35.249526978">
  <ele>249.594971</ele>
  <time>2011-07-22T04:50:16Z</time>
  <speed>1.550000</speed>
</trkpt>
<trkpt lat="32.876895905" lon="35.249530792">
  <ele>250.149658</ele>
  <time>2011-07-22T04:50:18Z</time>
  <speed>1.440000</speed>
</trkpt>
<trkpt lat="32.876861572" lon="35.249538422">
  <ele>250.512939</ele>
  <time>2011-07-22T04:50:21Z</time>
  <speed>1.410000</speed>
</trkpt>
<trkpt lat="32.876827240" lon="35.249534607">
  <ele>250.141846</ele>
  <time>2011-07-22T04:50:24Z</time>
  <speed>1.390000</speed>
</trkpt>
<trkpt lat="32.876796722" lon="35.249530792">
  <ele>250.618408</ele>
  <time>2011-07-22T04:50:26Z</time>
  <speed>1.710000</speed>
</trkpt>
<trkpt lat="32.876770020" lon="35.249534607">
  <ele>250.969971</ele>
  <time>2011-07-22T04:50:28Z</time>
  <speed>1.280000</speed>
</trkpt>
<trkpt lat="32.876739502" lon="35.249546051">
  <ele>250.294189</ele>
  <time>2011-07-22T04:50:31Z</time>
  <speed>1.420000</speed>
</trkpt>
<trkpt lat="32.876708984" lon="35.249553680">
  <ele>249.962158</ele>
  <time>2011-07-22T04:50:33Z</time>
  <speed>1.470000</speed>
</trkpt>
<trkpt lat="32.876682281" lon="35.249553680">
  <ele>249.634033</ele>
  <time>2011-07-22T04:50:35Z</time>
  <speed>1.520000</speed>
</trkpt>
<trkpt lat="32.876644135" lon="35.249546051">
  <ele>251.137939</ele>
  <time>2011-07-22T04:50:38Z</time>
  <speed>1.440000</speed>
</trkpt>
<trkpt lat="32.876617432" lon="35.249542236">
  <ele>251.262939</ele>
  <time>2011-07-22T04:50:40Z</time>
  <speed>1.270000</speed>
</trkpt>
<trkpt lat="32.876586914" lon="35.249546051">
  <ele>251.794189</ele>
  <time>2011-07-22T04:50:42Z</time>
  <speed>1.390000</speed>
</trkpt>
<trkpt lat="32.876556396" lon="35.249534607">
  <ele>251.997314</ele>
  <time>2011-07-22T04:50:45Z</time>
  <speed>1.420000</speed>
</trkpt>
<trkpt lat="32.876529694" lon="35.249530792">
  <ele>251.368408</ele>
  <time>2011-07-22T04:50:47Z</time>
  <speed>1.270000</speed>
</trkpt>
<trkpt lat="32.876499176" lon="35.249542236">
  <ele>251.684814</ele>
  <time>2011-07-22T04:50:49Z</time>
  <speed>1.520000</speed>
</trkpt>
<trkpt lat="32.876464844" lon="35.249542236">
  <ele>251.317627</ele>
  <time>2011-07-22T04:50:52Z</time>
  <speed>1.390000</speed>
</trkpt>
<trkpt lat="32.876434326" lon="35.249561310">
  <ele>251.157471</ele>
  <time>2011-07-22T04:50:54Z</time>
  <speed>1.440000</speed>
</trkpt>
<trkpt lat="32.876392365" lon="35.249568939">
  <ele>251.262939</ele>
  <time>2011-07-22T04:50:57Z</time>
  <speed>1.500000</speed>
</trkpt>
<trkpt lat="32.876365662" lon="35.249553680">
  <ele>251.247314</ele>
  <time>2011-07-22T04:50:59Z</time>
  <speed>1.120000</speed>
</trkpt>
<trkpt lat="32.876335144" lon="35.249568939">
  <ele>252.130127</ele>
  <time>2011-07-22T04:51:02Z</time>
  <speed>0.900000</speed>
</trkpt>
<trkpt lat="32.876304626" lon="35.249584198">
  <ele>251.989502</ele>
  <time>2011-07-22T04:51:05Z</time>
  <speed>1.450000</speed>
</trkpt>
<trkpt lat="32.876274109" lon="35.249580383">
  <ele>252.036377</ele>
  <time>2011-07-22T04:51:07Z</time>
  <speed>1.420000</speed>
</trkpt>
<trkpt lat="32.876247406" lon="35.249599457">
  <ele>253.286377</ele>
  <time>2011-07-22T04:51:09Z</time>
  <speed>1.440000</speed>
</trkpt>
<trkpt lat="32.876213074" lon="35.249603271">
  <ele>253.610596</ele>
  <time>2011-07-22T04:51:11Z</time>
  <speed>1.470000</speed>
</trkpt>
<trkpt lat="32.876186371" lon="35.249622345">
  <ele>254.231689</ele>
  <time>2011-07-22T04:51:13Z</time>
  <speed>1.450000</speed>
</trkpt>
<trkpt lat="32.876155853" lon="35.249618530">
  <ele>254.337158</ele>
  <time>2011-07-22T04:51:15Z</time>
  <speed>1.480000</speed>
</trkpt>
<trkpt lat="32.876125336" lon="35.249618530">
  <ele>254.567627</ele>
  <time>2011-07-22T04:51:17Z</time>
  <speed>1.610000</speed>
</trkpt>
<trkpt lat="32.876091003" lon="35.249610901">
  <ele>255.528564</ele>
  <time>2011-07-22T04:51:19Z</time>
  <speed>1.560000</speed>
</trkpt>
<trkpt lat="32.876056671" lon="35.249584198">
  <ele>254.856689</ele>
  <time>2011-07-22T04:51:22Z</time>
  <speed>1.620000</speed>
</trkpt>
<trkpt lat="32.876029968" lon="35.249576569">
  <ele>255.012939</ele>
  <time>2011-07-22T04:51:24Z</time>
  <speed>1.640000</speed>
</trkpt>
<trkpt lat="32.876007080" lon="35.249546051">
  <ele>254.442627</ele>
  <time>2011-07-22T04:51:26Z</time>
  <speed>1.370000</speed>
</trkpt>
<trkpt lat="32.875972748" lon="35.249534607">
  <ele>255.450439</ele>
  <time>2011-07-22T04:51:29Z</time>
  <speed>1.530000</speed>
</trkpt>
<trkpt lat="32.875938416" lon="35.249530792">
  <ele>255.677002</ele>
  <time>2011-07-22T04:51:32Z</time>
  <speed>1.080000</speed>
</trkpt>
<trkpt lat="32.875907898" lon="35.249526978">
  <ele>256.025879</ele>
  <time>2011-07-22T04:51:35Z</time>
  <speed>1.320000</speed>
</trkpt>
<trkpt lat="32.875881195" lon="35.249523163">
  <ele>256.166504</ele>
  <time>2011-07-22T04:51:37Z</time>
  <speed>1.430000</speed>
</trkpt>
<trkpt lat="32.875850677" lon="35.249515533">
  <ele>257.221191</ele>
  <time>2011-07-22T04:51:39Z</time>
  <speed>1.450000</speed>
</trkpt>
<trkpt lat="32.875816345" lon="35.249515533">
  <ele>258.174316</ele>
  <time>2011-07-22T04:51:42Z</time>
  <speed>1.450000</speed>
</trkpt>
<trkpt lat="32.875782013" lon="35.249511719">
  <ele>259.697754</ele>
  <time>2011-07-22T04:51:45Z</time>
  <speed>1.230000</speed>
</trkpt>
<trkpt lat="32.875743866" lon="35.249496460">
  <ele>259.057129</ele>
  <time>2011-07-22T04:51:48Z</time>
  <speed>1.120000</speed>
</trkpt>
<trkpt lat="32.875709534" lon="35.249485016">
  <ele>259.814941</ele>
  <time>2011-07-22T04:51:51Z</time>
  <speed>1.380000</speed>
</trkpt>
<trkpt lat="32.875667572" lon="35.249492645">
  <ele>260.096191</ele>
  <time>2011-07-22T04:51:54Z</time>
  <speed>1.430000</speed>
</trkpt>
<trkpt lat="32.875633240" lon="35.249492645">
  <ele>259.674316</ele>
  <time>2011-07-22T04:51:57Z</time>
  <speed>1.520000</speed>
</trkpt>
<trkpt lat="32.875595093" lon="35.249504089">
  <ele>260.455566</ele>
  <time>2011-07-22T04:52:00Z</time>
  <speed>1.190000</speed>
</trkpt>
<trkpt lat="32.875560760" lon="35.249507904">
  <ele>260.455566</ele>
  <time>2011-07-22T04:52:03Z</time>
  <speed>1.380000</speed>
</trkpt>
<trkpt lat="32.875518799" lon="35.249507904">
  <ele>261.252441</ele>
  <time>2011-07-22T04:52:06Z</time>
  <speed>1.480000</speed>
</trkpt>
<trkpt lat="32.875488281" lon="35.249504089">
  <ele>261.994629</ele>
  <time>2011-07-22T04:52:08Z</time>
  <speed>1.550000</speed>
</trkpt>
<trkpt lat="32.875450134" lon="35.249507904">
  <ele>262.682129</ele>
  <time>2011-07-22T04:52:10Z</time>
  <speed>1.530000</speed>
</trkpt>
<trkpt lat="32.875423431" lon="35.249500275">
  <ele>262.760254</ele>
  <time>2011-07-22T04:52:12Z</time>
  <speed>1.740000</speed>
</trkpt>
<trkpt lat="32.875392914" lon="35.249515533">
  <ele>263.268066</ele>
  <time>2011-07-22T04:52:14Z</time>
  <speed>1.570000</speed>
</trkpt>
<trkpt lat="32.875354767" lon="35.249519348">
  <ele>262.971191</ele>
  <time>2011-07-22T04:52:17Z</time>
  <speed>1.470000</speed>
</trkpt>
<trkpt lat="32.875324249" lon="35.249515533">
  <ele>262.588379</ele>
  <time>2011-07-22T04:52:19Z</time>
  <speed>1.400000</speed>
</trkpt>
<trkpt lat="32.875286102" lon="35.249542236">
  <ele>262.111816</ele>
  <time>2011-07-22T04:52:22Z</time>
  <speed>1.460000</speed>
</trkpt>
<trkpt lat="32.875255585" lon="35.249553680">
  <ele>261.346191</ele>
  <time>2011-07-22T04:52:24Z</time>
  <speed>1.440000</speed>
</trkpt>
<trkpt lat="32.875232697" lon="35.249546051">
  <ele>259.986816</ele>
  <time>2011-07-22T04:52:26Z</time>
  <speed>1.230000</speed>
</trkpt>
<trkpt lat="32.875194550" lon="35.249553680">
  <ele>259.369629</ele>
  <time>2011-07-22T04:52:29Z</time>
  <speed>1.050000</speed>
</trkpt>
<trkpt lat="32.875156403" lon="35.249568939">
  <ele>258.979004</ele>
  <time>2011-07-22T04:52:32Z</time>
  <speed>1.370000</speed>
</trkpt>
<trkpt lat="32.875129700" lon="35.249588013">
  <ele>258.658691</ele>
  <time>2011-07-22T04:52:34Z</time>
  <speed>1.440000</speed>
</trkpt>
<trkpt lat="32.875095367" lon="35.249610901">
  <ele>258.104004</ele>
  <time>2011-07-22T04:52:37Z</time>
  <speed>1.390000</speed>
</trkpt>
<trkpt lat="32.875076294" lon="35.249629974">
  <ele>257.447754</ele>
  <time>2011-07-22T04:52:39Z</time>
  <speed>1.240000</speed>
</trkpt>
<trkpt lat="32.875045776" lon="35.249641418">
  <ele>257.166504</ele>
  <time>2011-07-22T04:52:41Z</time>
  <speed>1.550000</speed>
</trkpt>
<trkpt lat="32.875019073" lon="35.249652863">
  <ele>256.799316</ele>
  <time>2011-07-22T04:52:43Z</time>
  <speed>1.400000</speed>
</trkpt>
<trkpt lat="32.874988556" lon="35.249660492">
  <ele>256.275879</ele>
  <time>2011-07-22T04:52:45Z</time>
  <speed>1.540000</speed>
</trkpt>
<trkpt lat="32.874961853" lon="35.249671936">
  <ele>255.766846</ele>
  <time>2011-07-22T04:52:47Z</time>
  <speed>1.610000</speed>
</trkpt>
<trkpt lat="32.874935150" lon="35.249683380">
  <ele>255.637939</ele>
  <time>2011-07-22T04:52:49Z</time>
  <speed>1.440000</speed>
</trkpt>
<trkpt lat="32.874908447" lon="35.249698639">
  <ele>255.430908</ele>
  <time>2011-07-22T04:52:51Z</time>
  <speed>1.650000</speed>
</trkpt>
<trkpt lat="32.874874115" lon="35.249710083">
  <ele>255.661377</ele>
  <time>2011-07-22T04:52:53Z</time>
  <speed>1.640000</speed>
</trkpt>
<trkpt lat="32.874847412" lon="35.249710083">
  <ele>255.993408</ele>
  <time>2011-07-22T04:52:55Z</time>
  <speed>1.640000</speed>
</trkpt>
<trkpt lat="32.874805450" lon="35.249710083">
  <ele>255.575439</ele>
  <time>2011-07-22T04:52:57Z</time>
  <speed>2.300000</speed>
</trkpt>
<trkpt lat="32.874759674" lon="35.249717712">
  <ele>254.723877</ele>
  <time>2011-07-22T04:52:59Z</time>
  <speed>2.430000</speed>
</trkpt>
<trkpt lat="32.874721527" lon="35.249729156">
  <ele>254.094971</ele>
  <time>2011-07-22T04:53:01Z</time>
  <speed>1.810000</speed>
</trkpt>
<trkpt lat="32.874691010" lon="35.249740601">
  <ele>254.509033</ele>
  <time>2011-07-22T04:53:03Z</time>
  <speed>1.920000</speed>
</trkpt>
<trkpt lat="32.874652863" lon="35.249748230">
  <ele>254.286377</ele>
  <time>2011-07-22T04:53:05Z</time>
  <speed>1.950000</speed>
</trkpt>
<trkpt lat="32.874614716" lon="35.249763489">
  <ele>254.094971</ele>
  <time>2011-07-22T04:53:07Z</time>
  <speed>1.830000</speed>
</trkpt>
<trkpt lat="32.874572754" lon="35.249771118">
  <ele>255.302002</ele>
  <time>2011-07-22T04:53:09Z</time>
  <speed>2.210000</speed>
</trkpt>
<trkpt lat="32.874526978" lon="35.249771118">
  <ele>255.493408</ele>
  <time>2011-07-22T04:53:11Z</time>
  <speed>2.040000</speed>
</trkpt>
<trkpt lat="32.874488831" lon="35.249759674">
  <ele>255.692627</ele>
  <time>2011-07-22T04:53:13Z</time>
  <speed>2.360000</speed>
</trkpt>
<trkpt lat="32.874450684" lon="35.249755859">
  <ele>258.252441</ele>
  <time>2011-07-22T04:53:15Z</time>
  <speed>1.960000</speed>
</trkpt>
<trkpt lat="32.874412537" lon="35.249744415">
  <ele>260.564941</ele>
  <time>2011-07-22T04:53:17Z</time>
  <speed>1.910000</speed>
</trkpt>
<trkpt lat="32.874382019" lon="35.249729156">
  <ele>261.533691</ele>
  <time>2011-07-22T04:53:19Z</time>
  <speed>1.970000</speed>
</trkpt>
<trkpt lat="32.874343872" lon="35.249729156">
  <ele>262.119629</ele>
  <time>2011-07-22T04:53:21Z</time>
  <speed>2.040000</speed>
</trkpt>
<trkpt lat="32.874313354" lon="35.249710083">
  <ele>262.385254</ele>
  <time>2011-07-22T04:53:23Z</time>
  <speed>1.520000</speed>
</trkpt>
<trkpt lat="32.874275208" lon="35.249706268">
  <ele>264.768066</ele>
  <time>2011-07-22T04:53:25Z</time>
  <speed>1.650000</speed>
</trkpt>
<trkpt lat="32.874248505" lon="35.249687195">
  <ele>265.838379</ele>
  <time>2011-07-22T04:53:27Z</time>
  <speed>2.180000</speed>
</trkpt>
<trkpt lat="32.874217987" lon="35.249675751">
  <ele>266.346191</ele>
  <time>2011-07-22T04:53:29Z</time>
  <speed>1.770000</speed>
</trkpt>
<trkpt lat="32.874191284" lon="35.249664307">
  <ele>267.002441</ele>
  <time>2011-07-22T04:53:31Z</time>
  <speed>1.910000</speed>
</trkpt>
<trkpt lat="32.874164581" lon="35.249641418">
  <ele>267.197754</ele>
  <time>2011-07-22T04:53:33Z</time>
  <speed>1.860000</speed>
</trkpt>
<trkpt lat="32.874130249" lon="35.249614716">
  <ele>266.939941</ele>
  <time>2011-07-22T04:53:35Z</time>
  <speed>1.640000</speed>
</trkpt>
<trkpt lat="32.874095917" lon="35.249595642">
  <ele>267.330566</ele>
  <time>2011-07-22T04:53:37Z</time>
  <speed>1.550000</speed>
</trkpt>
<trkpt lat="32.874065399" lon="35.249588013">
  <ele>268.041504</ele>
  <time>2011-07-22T04:53:39Z</time>
  <speed>1.510000</speed>
</trkpt>
<trkpt lat="32.874046326" lon="35.249553680">
  <ele>268.174316</ele>
  <time>2011-07-22T04:53:42Z</time>
  <speed>1.770000</speed>
</trkpt>
<trkpt lat="32.874023438" lon="35.249546051">
  <ele>268.252441</ele>
  <time>2011-07-22T04:53:44Z</time>
  <speed>1.590000</speed>
</trkpt>
<trkpt lat="32.873992920" lon="35.249534607">
  <ele>267.486816</ele>
  <time>2011-07-22T04:53:46Z</time>
  <speed>1.910000</speed>
</trkpt>
<trkpt lat="32.873954773" lon="35.249519348">
  <ele>267.939941</ele>
  <time>2011-07-22T04:53:48Z</time>
  <speed>1.750000</speed>
</trkpt>
<trkpt lat="32.873924255" lon="35.249511719">
  <ele>268.705566</ele>
  <time>2011-07-22T04:53:50Z</time>
  <speed>1.790000</speed>
</trkpt>
<trkpt lat="32.873893738" lon="35.249511719">
  <ele>269.783691</ele>
  <time>2011-07-22T04:53:52Z</time>
  <speed>1.840000</speed>
</trkpt>
<trkpt lat="32.873859406" lon="35.249500275">
  <ele>270.236816</ele>
  <time>2011-07-22T04:53:54Z</time>
  <speed>1.770000</speed>
</trkpt>
<trkpt lat="32.873832703" lon="35.249492645">
  <ele>270.338379</ele>
  <time>2011-07-22T04:53:56Z</time>
  <speed>1.680000</speed>
</trkpt>
<trkpt lat="32.873798370" lon="35.249473572">
  <ele>269.971191</ele>
  <time>2011-07-22T04:53:58Z</time>
  <speed>1.730000</speed>
</trkpt>
<trkpt lat="32.873760223" lon="35.249454498">
  <ele>269.947754</ele>
  <time>2011-07-22T04:54:00Z</time>
  <speed>1.840000</speed>
</trkpt>
<trkpt lat="32.873737335" lon="35.249439240">
  <ele>271.346191</ele>
  <time>2011-07-22T04:54:02Z</time>
  <speed>1.940000</speed>
</trkpt>
<trkpt lat="32.873706818" lon="35.249420166">
  <ele>270.877441</ele>
  <time>2011-07-22T04:54:04Z</time>
  <speed>1.850000</speed>
</trkpt>
<trkpt lat="32.873683929" lon="35.249401093">
  <ele>270.283691</ele>
  <time>2011-07-22T04:54:06Z</time>
  <speed>1.710000</speed>
</trkpt>
<trkpt lat="32.873672485" lon="35.249370575">
  <ele>270.557129</ele>
  <time>2011-07-22T04:54:08Z</time>
  <speed>2.140000</speed>
</trkpt>
<trkpt lat="32.873687744" lon="35.249340057">
  <ele>270.314941</ele>
  <time>2011-07-22T04:54:10Z</time>
  <speed>0.970000</speed>
</trkpt>
<trkpt lat="32.873725891" lon="35.249347687">
  <ele>270.088379</ele>
  <time>2011-07-22T04:54:13Z</time>
  <speed>1.700000</speed>
</trkpt>
<trkpt lat="32.873748779" lon="35.249366760">
  <ele>270.096191</ele>
  <time>2011-07-22T04:54:14Z</time>
  <speed>1.690000</speed>
</trkpt>
<trkpt lat="32.873790741" lon="35.249382019">
  <ele>270.182129</ele>
  <time>2011-07-22T04:54:16Z</time>
  <speed>2.090000</speed>
</trkpt>
<trkpt lat="32.873832703" lon="35.249397278">
  <ele>270.666504</ele>
  <time>2011-07-22T04:54:18Z</time>
  <speed>2.140000</speed>
</trkpt>
<trkpt lat="32.873870850" lon="35.249404907">
  <ele>270.666504</ele>
  <time>2011-07-22T04:54:20Z</time>
  <speed>2.020000</speed>
</trkpt>
<trkpt lat="32.873908997" lon="35.249404907">
  <ele>268.588379</ele>
  <time>2011-07-22T04:54:22Z</time>
  <speed>1.730000</speed>
</trkpt>
<trkpt lat="32.873943329" lon="35.249408722">
  <ele>268.244629</ele>
  <time>2011-07-22T04:54:24Z</time>
  <speed>1.740000</speed>
</trkpt>
<trkpt lat="32.873981476" lon="35.249401093">
  <ele>267.096191</ele>
  <time>2011-07-22T04:54:26Z</time>
  <speed>2.320000</speed>
</trkpt>
<trkpt lat="32.874023438" lon="35.249404907">
  <ele>267.455566</ele>
  <time>2011-07-22T04:54:28Z</time>
  <speed>2.310000</speed>
</trkpt>
<trkpt lat="32.874069214" lon="35.249408722">
  <ele>267.393066</ele>
  <time>2011-07-22T04:54:30Z</time>
  <speed>2.470000</speed>
</trkpt>
<trkpt lat="32.874103546" lon="35.249420166">
  <ele>267.338379</ele>
  <time>2011-07-22T04:54:32Z</time>
  <speed>2.610000</speed>
</trkpt>
<trkpt lat="32.874145508" lon="35.249427795">
  <ele>266.400879</ele>
  <time>2011-07-22T04:54:34Z</time>
  <speed>1.880000</speed>
</trkpt>
<trkpt lat="32.874179840" lon="35.249431610">
  <ele>267.611816</ele>
  <time>2011-07-22T04:54:36Z</time>
  <speed>2.220000</speed>
</trkpt>
<trkpt lat="32.874214172" lon="35.249431610">
  <ele>267.291504</ele>
  <time>2011-07-22T04:54:38Z</time>
  <speed>2.120000</speed>
</trkpt>
<trkpt lat="32.874252319" lon="35.249446869">
  <ele>267.424316</ele>
  <time>2011-07-22T04:54:40Z</time>
  <speed>2.040000</speed>
</trkpt>
<trkpt lat="32.874298096" lon="35.249454498">
  <ele>267.541504</ele>
  <time>2011-07-22T04:54:42Z</time>
  <speed>2.160000</speed>
</trkpt>
<trkpt lat="32.874324799" lon="35.249446869">
  <ele>267.010254</ele>
  <time>2011-07-22T04:54:43Z</time>
  <speed>2.560000</speed>
</trkpt>
<trkpt lat="32.874374390" lon="35.249458313">
  <ele>265.939941</ele>
  <time>2011-07-22T04:54:45Z</time>
  <speed>2.250000</speed>
</trkpt>
<trkpt lat="32.874420166" lon="35.249473572">
  <ele>266.822754</ele>
  <time>2011-07-22T04:54:47Z</time>
  <speed>2.310000</speed>
</trkpt>
<trkpt lat="32.874473572" lon="35.249477386">
  <ele>267.166504</ele>
  <time>2011-07-22T04:54:49Z</time>
  <speed>3.010000</speed>
</trkpt>
<trkpt lat="32.874500275" lon="35.249477386">
  <ele>266.096191</ele>
  <time>2011-07-22T04:54:50Z</time>
  <speed>2.880000</speed>
</trkpt>
<trkpt lat="32.874542236" lon="35.249477386">
  <ele>266.275879</ele>
  <time>2011-07-22T04:54:52Z</time>
  <speed>2.110000</speed>
</trkpt>
<trkpt lat="32.874588013" lon="35.249465942">
  <ele>264.736816</ele>
  <time>2011-07-22T04:54:54Z</time>
  <speed>1.960000</speed>
</trkpt>
<trkpt lat="32.874614716" lon="35.249454498">
  <ele>264.807129</ele>
  <time>2011-07-22T04:54:55Z</time>
  <speed>1.250000</speed>
</trkpt>
<trkpt lat="32.874649048" lon="35.249443054">
  <ele>264.439941</ele>
  <time>2011-07-22T04:54:57Z</time>
  <speed>2.150000</speed>
</trkpt>
<trkpt lat="32.874691010" lon="35.249420166">
  <ele>265.393066</ele>
  <time>2011-07-22T04:54:59Z</time>
  <speed>1.830000</speed>
</trkpt>
<trkpt lat="32.874736786" lon="35.249401093">
  <ele>265.080566</ele>
  <time>2011-07-22T04:55:01Z</time>
  <speed>2.520000</speed>
</trkpt>
<trkpt lat="32.874763489" lon="35.249378204">
  <ele>265.822754</ele>
  <time>2011-07-22T04:55:02Z</time>
  <speed>2.360000</speed>
</trkpt>
<trkpt lat="32.874794006" lon="35.249370575">
  <ele>265.783691</ele>
  <time>2011-07-22T04:55:03Z</time>
  <speed>2.050000</speed>
</trkpt>
<trkpt lat="32.874843597" lon="35.249351501">
  <ele>265.510254</ele>
  <time>2011-07-22T04:55:05Z</time>
  <speed>2.490000</speed>
</trkpt>
<trkpt lat="32.874885559" lon="35.249313354">
  <ele>265.080566</ele>
  <time>2011-07-22T04:55:07Z</time>
  <speed>2.770000</speed>
</trkpt>
<trkpt lat="32.874931335" lon="35.249282837">
  <ele>265.439941</ele>
  <time>2011-07-22T04:55:09Z</time>
  <speed>3.220000</speed>
</trkpt>
<trkpt lat="32.874954224" lon="35.249271393">
  <ele>266.174316</ele>
  <time>2011-07-22T04:55:10Z</time>
  <speed>2.910000</speed>
</trkpt>
<trkpt lat="32.875003815" lon="35.249244690">
  <ele>267.322754</ele>
  <time>2011-07-22T04:55:12Z</time>
  <speed>3.090000</speed>
</trkpt>
<trkpt lat="32.875030518" lon="35.249233246">
  <ele>267.877441</ele>
  <time>2011-07-22T04:55:13Z</time>
  <speed>2.770000</speed>
</trkpt>
<trkpt lat="32.875057220" lon="35.249221802">
  <ele>268.424316</ele>
  <time>2011-07-22T04:55:14Z</time>
  <speed>2.740000</speed>
</trkpt>
<trkpt lat="32.875087738" lon="35.249210358">
  <ele>269.002441</ele>
  <time>2011-07-22T04:55:15Z</time>
  <speed>2.710000</speed>
</trkpt>
<trkpt lat="32.875133514" lon="35.249183655">
  <ele>270.924316</ele>
  <time>2011-07-22T04:55:17Z</time>
  <speed>2.850000</speed>
</trkpt>
<trkpt lat="32.875183105" lon="35.249164581">
  <ele>271.783691</ele>
  <time>2011-07-22T04:55:19Z</time>
  <speed>2.960000</speed>
</trkpt>
<trkpt lat="32.875228882" lon="35.249134064">
  <ele>272.854004</ele>
  <time>2011-07-22T04:55:21Z</time>
  <speed>2.910000</speed>
</trkpt>
<trkpt lat="32.875251770" lon="35.249114990">
  <ele>273.143066</ele>
  <time>2011-07-22T04:55:22Z</time>
  <speed>2.960000</speed>
</trkpt>
<trkpt lat="32.875278473" lon="35.249099731">
  <ele>273.088379</ele>
  <time>2011-07-22T04:55:23Z</time>
  <speed>3.010000</speed>
</trkpt>
<trkpt lat="32.875331879" lon="35.249073029">
  <ele>273.307129</ele>
  <time>2011-07-22T04:55:25Z</time>
  <speed>3.020000</speed>
</trkpt>
<trkpt lat="32.875362396" lon="35.249053955">
  <ele>272.283691</ele>
  <time>2011-07-22T04:55:26Z</time>
  <speed>2.850000</speed>
</trkpt>
<trkpt lat="32.875404358" lon="35.249038696">
  <ele>274.166504</ele>
  <time>2011-07-22T04:55:28Z</time>
  <speed>1.740000</speed>
</trkpt>
<trkpt lat="32.875453949" lon="35.249008179">
  <ele>274.768066</ele>
  <time>2011-07-22T04:55:30Z</time>
  <speed>2.450000</speed>
</trkpt>
<trkpt lat="32.875492096" lon="35.248981476">
  <ele>274.518066</ele>
  <time>2011-07-22T04:55:32Z</time>
  <speed>2.680000</speed>
</trkpt>
<trkpt lat="32.875530243" lon="35.248962402">
  <ele>273.213379</ele>
  <time>2011-07-22T04:55:34Z</time>
  <speed>2.230000</speed>
</trkpt>
<trkpt lat="32.875564575" lon="35.248935699">
  <ele>270.572754</ele>
  <time>2011-07-22T04:55:36Z</time>
  <speed>2.400000</speed>
</trkpt>
<trkpt lat="32.875614166" lon="35.248916626">
  <ele>269.533691</ele>
  <time>2011-07-22T04:55:38Z</time>
  <speed>2.730000</speed>
</trkpt>
<trkpt lat="32.875640869" lon="35.248912811">
  <ele>269.408691</ele>
  <time>2011-07-22T04:55:39Z</time>
  <speed>2.700000</speed>
</trkpt>
<trkpt lat="32.875671387" lon="35.248905182">
  <ele>268.518066</ele>
  <time>2011-07-22T04:55:40Z</time>
  <speed>2.690000</speed>
</trkpt>
<trkpt lat="32.875717163" lon="35.248882294">
  <ele>270.080566</ele>
  <time>2011-07-22T04:55:42Z</time>
  <speed>2.240000</speed>
</trkpt>
<trkpt lat="32.875759125" lon="35.248863220">
  <ele>269.947754</ele>
  <time>2011-07-22T04:55:44Z</time>
  <speed>2.290000</speed>
</trkpt>
<trkpt lat="32.875812531" lon="35.248844147">
  <ele>268.252441</ele>
  <time>2011-07-22T04:55:46Z</time>
  <speed>2.500000</speed>
</trkpt>
<trkpt lat="32.875862122" lon="35.248825073">
  <ele>267.744629</ele>
  <time>2011-07-22T04:55:48Z</time>
  <speed>2.670000</speed>
</trkpt>
<trkpt lat="32.875907898" lon="35.248794556">
  <ele>267.932129</ele>
  <time>2011-07-22T04:55:50Z</time>
  <speed>2.270000</speed>
</trkpt>
<trkpt lat="32.875938416" lon="35.248786926">
  <ele>267.604004</ele>
  <time>2011-07-22T04:55:51Z</time>
  <speed>2.600000</speed>
</trkpt>
<trkpt lat="32.875988007" lon="35.248760223">
  <ele>268.064941</ele>
  <time>2011-07-22T04:55:53Z</time>
  <speed>2.460000</speed>
</trkpt>
<trkpt lat="32.876033783" lon="35.248729706">
  <ele>268.674316</ele>
  <time>2011-07-22T04:55:55Z</time>
  <speed>2.480000</speed>
</trkpt>
<trkpt lat="32.876079559" lon="35.248710632">
  <ele>270.916504</ele>
  <time>2011-07-22T04:55:57Z</time>
  <speed>2.430000</speed>
</trkpt>
<trkpt lat="32.876125336" lon="35.248691559">
  <ele>270.854004</ele>
  <time>2011-07-22T04:55:59Z</time>
  <speed>2.410000</speed>
</trkpt>
<trkpt lat="32.876167297" lon="35.248668671">
  <ele>270.768066</ele>
  <time>2011-07-22T04:56:01Z</time>
  <speed>2.420000</speed>
</trkpt>
<trkpt lat="32.876213074" lon="35.248649597">
  <ele>271.064941</ele>
  <time>2011-07-22T04:56:03Z</time>
  <speed>2.500000</speed>
</trkpt>
<trkpt lat="32.876255035" lon="35.248634338">
  <ele>271.244629</ele>
  <time>2011-07-22T04:56:05Z</time>
  <speed>2.610000</speed>
</trkpt>
<trkpt lat="32.876274109" lon="35.248615265">
  <ele>272.111816</ele>
  <time>2011-07-22T04:56:06Z</time>
  <speed>2.460000</speed>
</trkpt>
<trkpt lat="32.876312256" lon="35.248588562">
  <ele>271.533691</ele>
  <time>2011-07-22T04:56:08Z</time>
  <speed>2.670000</speed>
</trkpt>
<trkpt lat="32.876350403" lon="35.248561859">
  <ele>271.908691</ele>
  <time>2011-07-22T04:56:10Z</time>
  <speed>2.580000</speed>
</trkpt>
<trkpt lat="32.876396179" lon="35.248538971">
  <ele>272.033691</ele>
  <time>2011-07-22T04:56:12Z</time>
  <speed>2.370000</speed>
</trkpt>
<trkpt lat="32.876434326" lon="35.248512268">
  <ele>272.385254</ele>
  <time>2011-07-22T04:56:14Z</time>
  <speed>2.360000</speed>
</trkpt>
<trkpt lat="32.876476288" lon="35.248489380">
  <ele>272.252441</ele>
  <time>2011-07-22T04:56:16Z</time>
  <speed>2.250000</speed>
</trkpt>
<trkpt lat="32.876518250" lon="35.248474121">
  <ele>272.174316</ele>
  <time>2011-07-22T04:56:18Z</time>
  <speed>2.160000</speed>
</trkpt>
<trkpt lat="32.876548767" lon="35.248462677">
  <ele>272.018066</ele>
  <time>2011-07-22T04:56:20Z</time>
  <speed>2.110000</speed>
</trkpt>
<trkpt lat="32.876579285" lon="35.248432159">
  <ele>271.369629</ele>
  <time>2011-07-22T04:56:22Z</time>
  <speed>2.010000</speed>
</trkpt>
<trkpt lat="32.876609802" lon="35.248394012">
  <ele>271.338379</ele>
  <time>2011-07-22T04:56:24Z</time>
  <speed>1.970000</speed>
</trkpt>
<trkpt lat="32.876628876" lon="35.248363495">
  <ele>271.119629</ele>
  <time>2011-07-22T04:56:26Z</time>
  <speed>1.640000</speed>
</trkpt>
<trkpt lat="32.876663208" lon="35.248336792">
  <ele>271.635254</ele>
  <time>2011-07-22T04:56:29Z</time>
  <speed>1.780000</speed>
</trkpt>
<trkpt lat="32.876682281" lon="35.248302460">
  <ele>272.182129</ele>
  <time>2011-07-22T04:56:31Z</time>
  <speed>1.820000</speed>
</trkpt>
<trkpt lat="32.876693726" lon="35.248264313">
  <ele>273.369629</ele>
  <time>2011-07-22T04:56:33Z</time>
  <speed>0.960000</speed>
</trkpt>
<trkpt lat="32.876693726" lon="35.248229980">
  <ele>273.932129</ele>
  <time>2011-07-22T04:56:37Z</time>
  <speed>0.430000</speed>
</trkpt>
<trkpt lat="32.876670837" lon="35.248214722">
  <ele>273.385254</ele>
  <time>2011-07-22T04:59:35Z</time>
</trkpt>
<trkpt lat="32.876682281" lon="35.248172760">
  <ele>273.439941</ele>
  <time>2011-07-22T05:01:09Z</time>
  <speed>1.890000</speed>
</trkpt>
<trkpt lat="32.876712799" lon="35.248134613">
  <ele>273.604004</ele>
  <time>2011-07-22T05:01:11Z</time>
  <speed>2.320000</speed>
</trkpt>
<trkpt lat="32.876739502" lon="35.248085022">
  <ele>272.791504</ele>
  <time>2011-07-22T05:01:13Z</time>
  <speed>2.810000</speed>
</trkpt>
<trkpt lat="32.876750946" lon="35.248054504">
  <ele>272.744629</ele>
  <time>2011-07-22T05:01:14Z</time>
  <speed>2.970000</speed>
</trkpt>
<trkpt lat="32.876777649" lon="35.247997284">
  <ele>272.377441</ele>
  <time>2011-07-22T05:01:16Z</time>
  <speed>2.960000</speed>
</trkpt>
<trkpt lat="32.876789093" lon="35.247966766">
  <ele>272.416504</ele>
  <time>2011-07-22T05:01:17Z</time>
  <speed>2.900000</speed>
</trkpt>
<trkpt lat="32.876804352" lon="35.247905731">
  <ele>272.557129</ele>
  <time>2011-07-22T05:01:19Z</time>
  <speed>2.890000</speed>
</trkpt>
<trkpt lat="32.876819611" lon="35.247844696">
  <ele>272.979004</ele>
  <time>2011-07-22T05:01:21Z</time>
  <speed>2.790000</speed>
</trkpt>
<trkpt lat="32.876831055" lon="35.247787476">
  <ele>272.861816</ele>
  <time>2011-07-22T05:01:23Z</time>
  <speed>2.540000</speed>
</trkpt>
<trkpt lat="32.876846313" lon="35.247730255">
  <ele>272.330566</ele>
  <time>2011-07-22T05:01:25Z</time>
  <speed>2.720000</speed>
</trkpt>
<trkpt lat="32.876853943" lon="35.247673035">
  <ele>272.916504</ele>
  <time>2011-07-22T05:01:27Z</time>
  <speed>2.910000</speed>
</trkpt>
<trkpt lat="32.876853943" lon="35.247615814">
  <ele>273.463379</ele>
  <time>2011-07-22T05:01:29Z</time>
  <speed>3.030000</speed>
</trkpt>
<trkpt lat="32.876857758" lon="35.247550964">
  <ele>273.713379</ele>
  <time>2011-07-22T05:01:31Z</time>
  <speed>3.040000</speed>
</trkpt>
<trkpt lat="32.876857758" lon="35.247516632">
  <ele>273.666504</ele>
  <time>2011-07-22T05:01:32Z</time>
  <speed>3.330000</speed>
</trkpt>
<trkpt lat="32.876853943" lon="35.247482300">
  <ele>273.221191</ele>
  <time>2011-07-22T05:01:33Z</time>
  <speed>3.320000</speed>
</trkpt>
<trkpt lat="32.876842499" lon="35.247436523">
  <ele>272.689941</ele>
  <time>2011-07-22T05:01:34Z</time>
  <speed>3.290000</speed>
</trkpt>
<trkpt lat="32.876838684" lon="35.247394562">
  <ele>272.377441</ele>
  <time>2011-07-22T05:01:35Z</time>
  <speed>3.630000</speed>
</trkpt>
<trkpt lat="32.876831055" lon="35.247356415">
  <ele>272.838379</ele>
  <time>2011-07-22T05:01:36Z</time>
  <speed>3.500000</speed>
</trkpt>
<trkpt lat="32.876831055" lon="35.247314453">
  <ele>273.486816</ele>
  <time>2011-07-22T05:01:37Z</time>
  <speed>3.530000</speed>
</trkpt>
<trkpt lat="32.876827240" lon="35.247283936">
  <ele>273.947754</ele>
  <time>2011-07-22T05:01:38Z</time>
  <speed>3.590000</speed>
</trkpt>
<trkpt lat="32.876827240" lon="35.247249603">
  <ele>273.760254</ele>
  <time>2011-07-22T05:01:39Z</time>
  <speed>3.510000</speed>
</trkpt>
<trkpt lat="32.876819611" lon="35.247211456">
  <ele>273.674316</ele>
  <time>2011-07-22T05:01:40Z</time>
  <speed>3.080000</speed>
</trkpt>
<trkpt lat="32.876811981" lon="35.247146606">
  <ele>272.744629</ele>
  <time>2011-07-22T05:01:42Z</time>
  <speed>3.110000</speed>
</trkpt>
<trkpt lat="32.876808167" lon="35.247112274">
  <ele>271.963379</ele>
  <time>2011-07-22T05:01:43Z</time>
  <speed>2.930000</speed>
</trkpt>
<trkpt lat="32.876815796" lon="35.247077942">
  <ele>271.807129</ele>
  <time>2011-07-22T05:01:44Z</time>
  <speed>3.050000</speed>
</trkpt>
<trkpt lat="32.876811981" lon="35.247005463">
  <ele>272.049316</ele>
  <time>2011-07-22T05:01:46Z</time>
  <speed>3.140000</speed>
</trkpt>
<trkpt lat="32.876811981" lon="35.246967316">
  <ele>272.627441</ele>
  <time>2011-07-22T05:01:47Z</time>
  <speed>3.290000</speed>
</trkpt>
<trkpt lat="32.876811981" lon="35.246932983">
  <ele>272.502441</ele>
  <time>2011-07-22T05:01:48Z</time>
  <speed>3.460000</speed>
</trkpt>
<trkpt lat="32.876808167" lon="35.246898651">
  <ele>272.252441</ele>
  <time>2011-07-22T05:01:49Z</time>
  <speed>3.170000</speed>
</trkpt>
<trkpt lat="32.876808167" lon="35.246860504">
  <ele>272.377441</ele>
  <time>2011-07-22T05:01:50Z</time>
  <speed>3.290000</speed>
</trkpt>
<trkpt lat="32.876811981" lon="35.246822357">
  <ele>271.854004</ele>
  <time>2011-07-22T05:01:51Z</time>
  <speed>3.440000</speed>
</trkpt>
<trkpt lat="32.876819611" lon="35.246788025">
  <ele>272.158691</ele>
  <time>2011-07-22T05:01:52Z</time>
  <speed>3.590000</speed>
</trkpt>
<trkpt lat="32.876827240" lon="35.246749878">
  <ele>271.854004</ele>
  <time>2011-07-22T05:01:53Z</time>
  <speed>3.620000</speed>
</trkpt>
<trkpt lat="32.876838684" lon="35.246711731">
  <ele>271.361816</ele>
  <time>2011-07-22T05:01:54Z</time>
  <speed>3.590000</speed>
</trkpt>
<trkpt lat="32.876850128" lon="35.246673584">
  <ele>271.096191</ele>
  <time>2011-07-22T05:01:55Z</time>
  <speed>3.660000</speed>
</trkpt>
<trkpt lat="32.876853943" lon="35.246635437">
  <ele>271.119629</ele>
  <time>2011-07-22T05:01:56Z</time>
  <speed>3.810000</speed>
</trkpt>
<trkpt lat="32.876857758" lon="35.246593475">
  <ele>271.057129</ele>
  <time>2011-07-22T05:01:57Z</time>
  <speed>3.970000</speed>
</trkpt>
<trkpt lat="32.876869202" lon="35.246547699">
  <ele>271.158691</ele>
  <time>2011-07-22T05:01:58Z</time>
  <speed>3.890000</speed>
</trkpt>
<trkpt lat="32.876873016" lon="35.246505737">
  <ele>271.025879</ele>
  <time>2011-07-22T05:01:59Z</time>
  <speed>4.050000</speed>
</trkpt>
<trkpt lat="32.876880646" lon="35.246467590">
  <ele>271.002441</ele>
  <time>2011-07-22T05:02:00Z</time>
  <speed>4.060000</speed>
</trkpt>
<trkpt lat="32.876895905" lon="35.246425629">
  <ele>271.307129</ele>
  <time>2011-07-22T05:02:01Z</time>
  <speed>4.170000</speed>
</trkpt>
<trkpt lat="32.876911163" lon="35.246379852">
  <ele>271.502441</ele>
  <time>2011-07-22T05:02:02Z</time>
  <speed>4.060000</speed>
</trkpt>
<trkpt lat="32.876922607" lon="35.246337891">
  <ele>271.494629</ele>
  <time>2011-07-22T05:02:03Z</time>
  <speed>3.910000</speed>
</trkpt>
<trkpt lat="32.876934052" lon="35.246295929">
  <ele>271.135254</ele>
  <time>2011-07-22T05:02:04Z</time>
  <speed>4.120000</speed>
</trkpt>
<trkpt lat="32.876945496" lon="35.246253967">
  <ele>271.049316</ele>
  <time>2011-07-22T05:02:05Z</time>
  <speed>4.000000</speed>
</trkpt>
<trkpt lat="32.876953125" lon="35.246212006">
  <ele>270.854004</ele>
  <time>2011-07-22T05:02:06Z</time>
  <speed>4.060000</speed>
</trkpt>
<trkpt lat="32.876964569" lon="35.246173859">
  <ele>270.705566</ele>
  <time>2011-07-22T05:02:07Z</time>
  <speed>4.060000</speed>
</trkpt>
<trkpt lat="32.876976013" lon="35.246131897">
  <ele>271.096191</ele>
  <time>2011-07-22T05:02:08Z</time>
  <speed>4.230000</speed>
</trkpt>
<trkpt lat="32.876983643" lon="35.246082306">
  <ele>271.166504</ele>
  <time>2011-07-22T05:02:09Z</time>
  <speed>4.150000</speed>
</trkpt>
<trkpt lat="32.876995087" lon="35.246040344">
  <ele>270.893066</ele>
  <time>2011-07-22T05:02:10Z</time>
  <speed>4.290000</speed>
</trkpt>
<trkpt lat="32.877006531" lon="35.245990753">
  <ele>270.947754</ele>
  <time>2011-07-22T05:02:11Z</time>
  <speed>4.410000</speed>
</trkpt>
<trkpt lat="32.877017975" lon="35.245952606">
  <ele>271.268066</ele>
  <time>2011-07-22T05:02:12Z</time>
  <speed>3.870000</speed>
</trkpt>
<trkpt lat="32.877029419" lon="35.245910645">
  <ele>271.018066</ele>
  <time>2011-07-22T05:02:13Z</time>
  <speed>3.820000</speed>
</trkpt>
<trkpt lat="32.877037048" lon="35.245868683">
  <ele>270.408691</ele>
  <time>2011-07-22T05:02:14Z</time>
  <speed>3.900000</speed>
</trkpt>
<trkpt lat="32.877040863" lon="35.245830536">
  <ele>269.916504</ele>
  <time>2011-07-22T05:02:15Z</time>
  <speed>3.780000</speed>
</trkpt>
<trkpt lat="32.877037048" lon="35.245796204">
  <ele>269.947754</ele>
  <time>2011-07-22T05:02:16Z</time>
  <speed>3.500000</speed>
</trkpt>
<trkpt lat="32.877025604" lon="35.245738983">
  <ele>270.111816</ele>
  <time>2011-07-22T05:02:18Z</time>
  <speed>2.430000</speed>
</trkpt>
<trkpt lat="32.877044678" lon="35.245693207">
  <ele>269.135254</ele>
  <time>2011-07-22T05:02:20Z</time>
  <speed>2.960000</speed>
</trkpt>
<trkpt lat="32.877063751" lon="35.245662689">
  <ele>268.400879</ele>
  <time>2011-07-22T05:02:21Z</time>
  <speed>3.290000</speed>
</trkpt>
<trkpt lat="32.877079010" lon="35.245635986">
  <ele>267.736816</ele>
  <time>2011-07-22T05:02:22Z</time>
  <speed>3.130000</speed>
</trkpt>
<trkpt lat="32.877105713" lon="35.245620728">
  <ele>266.963379</ele>
  <time>2011-07-22T05:02:23Z</time>
  <speed>2.940000</speed>
</trkpt>
<trkpt lat="32.877128601" lon="35.245601654">
  <ele>266.814941</ele>
  <time>2011-07-22T05:02:24Z</time>
  <speed>4.020000</speed>
</trkpt>
<trkpt lat="32.877162933" lon="35.245578766">
  <ele>266.947754</ele>
  <time>2011-07-22T05:02:25Z</time>
  <speed>4.490000</speed>
</trkpt>
<trkpt lat="32.877197266" lon="35.245548248">
  <ele>266.799316</ele>
  <time>2011-07-22T05:02:26Z</time>
  <speed>4.090000</speed>
</trkpt>
<trkpt lat="32.877223969" lon="35.245510101">
  <ele>267.096191</ele>
  <time>2011-07-22T05:02:27Z</time>
  <speed>4.190000</speed>
</trkpt>
<trkpt lat="32.877246857" lon="35.245468140">
  <ele>267.033691</ele>
  <time>2011-07-22T05:02:28Z</time>
  <speed>4.600000</speed>
</trkpt>
<trkpt lat="32.877273560" lon="35.245422363">
  <ele>266.057129</ele>
  <time>2011-07-22T05:02:29Z</time>
  <speed>4.960000</speed>
</trkpt>
<trkpt lat="32.877296448" lon="35.245380402">
  <ele>266.135254</ele>
  <time>2011-07-22T05:02:30Z</time>
  <speed>4.470000</speed>
</trkpt>
<trkpt lat="32.877323151" lon="35.245338440">
  <ele>265.627441</ele>
  <time>2011-07-22T05:02:31Z</time>
  <speed>4.970000</speed>
</trkpt>
<trkpt lat="32.877349854" lon="35.245292664">
  <ele>264.963379</ele>
  <time>2011-07-22T05:02:32Z</time>
  <speed>5.130000</speed>
</trkpt>
<trkpt lat="32.877376556" lon="35.245246887">
  <ele>264.064941</ele>
  <time>2011-07-22T05:02:33Z</time>
  <speed>5.040000</speed>
</trkpt>
<trkpt lat="32.877403259" lon="35.245193481">
  <ele>263.549316</ele>
  <time>2011-07-22T05:02:34Z</time>
  <speed>5.530000</speed>
</trkpt>
<trkpt lat="32.877437592" lon="35.245147705">
  <ele>263.221191</ele>
  <time>2011-07-22T05:02:35Z</time>
  <speed>5.500000</speed>
</trkpt>
<trkpt lat="32.877471924" lon="35.245113373">
  <ele>262.236816</ele>
  <time>2011-07-22T05:02:36Z</time>
  <speed>5.080000</speed>
</trkpt>
<trkpt lat="32.877510071" lon="35.245086670">
  <ele>261.619629</ele>
  <time>2011-07-22T05:02:37Z</time>
  <speed>5.040000</speed>
</trkpt>
<trkpt lat="32.877548218" lon="35.245052338">
  <ele>262.018066</ele>
  <time>2011-07-22T05:02:38Z</time>
  <speed>5.470000</speed>
</trkpt>
<trkpt lat="32.877586365" lon="35.245021820">
  <ele>261.369629</ele>
  <time>2011-07-22T05:02:39Z</time>
  <speed>5.320000</speed>
</trkpt>
<trkpt lat="32.877624512" lon="35.244991302">
  <ele>260.908691</ele>
  <time>2011-07-22T05:02:40Z</time>
  <speed>4.630000</speed>
</trkpt>
<trkpt lat="32.877658844" lon="35.244964600">
  <ele>260.541504</ele>
  <time>2011-07-22T05:02:41Z</time>
  <speed>4.640000</speed>
</trkpt>
<trkpt lat="32.877696991" lon="35.244930267">
  <ele>260.314941</ele>
  <time>2011-07-22T05:02:42Z</time>
  <speed>5.440000</speed>
</trkpt>
<trkpt lat="32.877738953" lon="35.244892120">
  <ele>260.736816</ele>
  <time>2011-07-22T05:02:43Z</time>
  <speed>5.290000</speed>
</trkpt>
<trkpt lat="32.877777100" lon="35.244869232">
  <ele>260.143066</ele>
  <time>2011-07-22T05:02:44Z</time>
  <speed>4.530000</speed>
</trkpt>
<trkpt lat="32.877811432" lon="35.244850159">
  <ele>259.713379</ele>
  <time>2011-07-22T05:02:45Z</time>
  <speed>3.450000</speed>
</trkpt>
<trkpt lat="32.877838135" lon="35.244827271">
  <ele>258.643066</ele>
  <time>2011-07-22T05:02:46Z</time>
  <speed>2.630000</speed>
</trkpt>
<trkpt lat="32.877876282" lon="35.244812012">
  <ele>259.252441</ele>
  <time>2011-07-22T05:02:48Z</time>
  <speed>1.880000</speed>
</trkpt>
<trkpt lat="32.877902985" lon="35.244792938">
  <ele>259.182129</ele>
  <time>2011-07-22T05:02:50Z</time>
  <speed>2.030000</speed>
</trkpt>
<trkpt lat="32.877914429" lon="35.244762421">
  <ele>259.033691</ele>
  <time>2011-07-22T05:02:52Z</time>
  <speed>1.330000</speed>
</trkpt>
<trkpt lat="32.877891541" lon="35.244758606">
  <ele>257.502441</ele>
  <time>2011-07-22T05:02:55Z</time>
  <speed>0.760000</speed>
</trkpt>
<trkpt lat="32.877868652" lon="35.244781494">
  <ele>257.057129</ele>
  <time>2011-07-22T05:02:58Z</time>
  <speed>1.340000</speed>
</trkpt>
<trkpt lat="32.877849579" lon="35.244812012">
  <ele>256.674316</ele>
  <time>2011-07-22T05:03:00Z</time>
  <speed>1.470000</speed>
</trkpt>
<trkpt lat="32.877830505" lon="35.244842529">
  <ele>256.900879</ele>
  <time>2011-07-22T05:03:02Z</time>
  <speed>1.740000</speed>
</trkpt>
<trkpt lat="32.877799988" lon="35.244869232">
  <ele>256.479004</ele>
  <time>2011-07-22T05:03:04Z</time>
  <speed>2.070000</speed>
</trkpt>
<trkpt lat="32.877758026" lon="35.244880676">
  <ele>256.619629</ele>
  <time>2011-07-22T05:03:06Z</time>
  <speed>2.150000</speed>
</trkpt>
<trkpt lat="32.877719879" lon="35.244899750">
  <ele>256.650879</ele>
  <time>2011-07-22T05:03:08Z</time>
  <speed>2.330000</speed>
</trkpt>
<trkpt lat="32.877674103" lon="35.244915009">
  <ele>257.275879</ele>
  <time>2011-07-22T05:03:10Z</time>
  <speed>2.030000</speed>
</trkpt>
<trkpt lat="32.877643585" lon="35.244945526">
  <ele>257.533691</ele>
  <time>2011-07-22T05:03:12Z</time>
  <speed>1.960000</speed>
</trkpt>
<trkpt lat="32.877616882" lon="35.244976044">
  <ele>257.244629</ele>
  <time>2011-07-22T05:03:14Z</time>
  <speed>1.880000</speed>
</trkpt>
<trkpt lat="32.877578735" lon="35.244991302">
  <ele>257.861816</ele>
  <time>2011-07-22T05:03:16Z</time>
  <speed>2.070000</speed>
</trkpt>
<trkpt lat="32.877540588" lon="35.245014191">
  <ele>258.760254</ele>
  <time>2011-07-22T05:03:18Z</time>
  <speed>1.880000</speed>
</trkpt>
<trkpt lat="32.877502441" lon="35.245037079">
  <ele>258.572754</ele>
  <time>2011-07-22T05:03:20Z</time>
  <speed>2.080000</speed>
</trkpt>
<trkpt lat="32.877471924" lon="35.245063782">
  <ele>258.072754</ele>
  <time>2011-07-22T05:03:22Z</time>
  <speed>1.750000</speed>
</trkpt>
<trkpt lat="32.877433777" lon="35.245090485">
  <ele>257.830566</ele>
  <time>2011-07-22T05:03:24Z</time>
  <speed>2.130000</speed>
</trkpt>
<trkpt lat="32.877410889" lon="35.245113373">
  <ele>258.674316</ele>
  <time>2011-07-22T05:03:25Z</time>
  <speed>2.290000</speed>
</trkpt>
<trkpt lat="32.877388000" lon="35.245159149">
  <ele>259.205566</ele>
  <time>2011-07-22T05:03:27Z</time>
  <speed>2.430000</speed>
</trkpt>
<trkpt lat="32.877368927" lon="35.245185852">
  <ele>259.455566</ele>
  <time>2011-07-22T05:03:28Z</time>
  <speed>2.410000</speed>
</trkpt>
<trkpt lat="32.877338409" lon="35.245220184">
  <ele>259.580566</ele>
  <time>2011-07-22T05:03:30Z</time>
  <speed>2.230000</speed>
</trkpt>
<trkpt lat="32.877307892" lon="35.245262146">
  <ele>260.627441</ele>
  <time>2011-07-22T05:03:32Z</time>
  <speed>2.010000</speed>
</trkpt>
<trkpt lat="32.877288818" lon="35.245296478">
  <ele>260.932129</ele>
  <time>2011-07-22T05:03:34Z</time>
  <speed>1.740000</speed>
</trkpt>
<trkpt lat="32.877273560" lon="35.245326996">
  <ele>261.486816</ele>
  <time>2011-07-22T05:03:35Z</time>
  <speed>2.250000</speed>
</trkpt>
<trkpt lat="32.877250671" lon="35.245372772">
  <ele>262.338379</ele>
  <time>2011-07-22T05:03:37Z</time>
  <speed>2.130000</speed>
</trkpt>
<trkpt lat="32.877243042" lon="35.245403290">
  <ele>263.330566</ele>
  <time>2011-07-22T05:03:38Z</time>
  <speed>2.360000</speed>
</trkpt>
<trkpt lat="32.877227783" lon="35.245445251">
  <ele>264.018066</ele>
  <time>2011-07-22T05:03:40Z</time>
  <speed>2.070000</speed>
</trkpt>
<trkpt lat="32.877201080" lon="35.245483398">
  <ele>263.713379</ele>
  <time>2011-07-22T05:03:42Z</time>
  <speed>2.260000</speed>
</trkpt>
<trkpt lat="32.877174377" lon="35.245525360">
  <ele>264.143066</ele>
  <time>2011-07-22T05:03:44Z</time>
  <speed>2.260000</speed>
</trkpt>
<trkpt lat="32.877147675" lon="35.245563507">
  <ele>264.650879</ele>
  <time>2011-07-22T05:03:46Z</time>
  <speed>1.890000</speed>
</trkpt>
<trkpt lat="32.877128601" lon="35.245582581">
  <ele>264.885254</ele>
  <time>2011-07-22T05:03:48Z</time>
  <speed>1.840000</speed>
</trkpt>
<trkpt lat="32.877105713" lon="35.245616913">
  <ele>266.033691</ele>
  <time>2011-07-22T05:03:50Z</time>
  <speed>1.980000</speed>
</trkpt>
<trkpt lat="32.877090454" lon="35.245647430">
  <ele>266.791504</ele>
  <time>2011-07-22T05:03:52Z</time>
  <speed>1.930000</speed>
</trkpt>
<trkpt lat="32.877056122" lon="35.245658875">
  <ele>267.299316</ele>
  <time>2011-07-22T05:03:54Z</time>
  <speed>1.390000</speed>
</trkpt>
<trkpt lat="32.877040863" lon="35.245689392">
  <ele>267.049316</ele>
  <time>2011-07-22T05:03:56Z</time>
  <speed>1.150000</speed>
</trkpt>
<trkpt lat="32.877037048" lon="35.245731354">
  <ele>267.346191</ele>
  <time>2011-07-22T05:03:58Z</time>
  <speed>1.550000</speed>
</trkpt>
<trkpt lat="32.877017975" lon="35.245780945">
  <ele>266.822754</ele>
  <time>2011-07-22T05:04:00Z</time>
  <speed>1.870000</speed>
</trkpt>
<trkpt lat="32.877010345" lon="35.245838165">
  <ele>266.307129</ele>
  <time>2011-07-22T05:04:02Z</time>
  <speed>2.470000</speed>
</trkpt>
<trkpt lat="32.877014160" lon="35.245891571">
  <ele>266.768066</ele>
  <time>2011-07-22T05:04:04Z</time>
  <speed>2.530000</speed>
</trkpt>
<trkpt lat="32.876998901" lon="35.245948792">
  <ele>267.682129</ele>
  <time>2011-07-22T05:04:06Z</time>
  <speed>2.630000</speed>
</trkpt>
<trkpt lat="32.876983643" lon="35.246002197">
  <ele>268.994629</ele>
  <time>2011-07-22T05:04:08Z</time>
  <speed>2.590000</speed>
</trkpt>
<trkpt lat="32.876964569" lon="35.246051788">
  <ele>269.205566</ele>
  <time>2011-07-22T05:04:10Z</time>
  <speed>2.520000</speed>
</trkpt>
<trkpt lat="32.876949310" lon="35.246101379">
  <ele>269.783691</ele>
  <time>2011-07-22T05:04:12Z</time>
  <speed>2.680000</speed>
</trkpt>
<trkpt lat="32.876934052" lon="35.246158600">
  <ele>271.221191</ele>
  <time>2011-07-22T05:04:14Z</time>
  <speed>2.690000</speed>
</trkpt>
<trkpt lat="32.876918793" lon="35.246215820">
  <ele>271.432129</ele>
  <time>2011-07-22T05:04:16Z</time>
  <speed>2.860000</speed>
</trkpt>
<trkpt lat="32.876907349" lon="35.246280670">
  <ele>271.463379</ele>
  <time>2011-07-22T05:04:18Z</time>
  <speed>2.790000</speed>
</trkpt>
<trkpt lat="32.876888275" lon="35.246337891">
  <ele>272.572754</ele>
  <time>2011-07-22T05:04:20Z</time>
  <speed>2.820000</speed>
</trkpt>
<trkpt lat="32.876876831" lon="35.246372223">
  <ele>273.385254</ele>
  <time>2011-07-22T05:04:21Z</time>
  <speed>2.870000</speed>
</trkpt>
<trkpt lat="32.876865387" lon="35.246425629">
  <ele>273.572754</ele>
  <time>2011-07-22T05:04:23Z</time>
  <speed>2.670000</speed>
</trkpt>
<trkpt lat="32.876846313" lon="35.246475220">
  <ele>272.502441</ele>
  <time>2011-07-22T05:04:25Z</time>
  <speed>3.020000</speed>
</trkpt>
<trkpt lat="32.876834869" lon="35.246536255">
  <ele>272.604004</ele>
  <time>2011-07-22T05:04:27Z</time>
  <speed>2.900000</speed>
</trkpt>
<trkpt lat="32.876838684" lon="35.246597290">
  <ele>272.697754</ele>
  <time>2011-07-22T05:04:29Z</time>
  <speed>2.840000</speed>
</trkpt>
<trkpt lat="32.876831055" lon="35.246631622">
  <ele>272.979004</ele>
  <time>2011-07-22T05:04:30Z</time>
  <speed>2.820000</speed>
</trkpt>
<trkpt lat="32.876823425" lon="35.246662140">
  <ele>272.908691</ele>
  <time>2011-07-22T05:04:31Z</time>
  <speed>2.930000</speed>
</trkpt>
<trkpt lat="32.876808167" lon="35.246719360">
  <ele>273.143066</ele>
  <time>2011-07-22T05:04:33Z</time>
  <speed>2.920000</speed>
</trkpt>
<trkpt lat="32.876804352" lon="35.246761322">
  <ele>273.010254</ele>
  <time>2011-07-22T05:04:34Z</time>
  <speed>2.930000</speed>
</trkpt>
<trkpt lat="32.876796722" lon="35.246814728">
  <ele>271.697754</ele>
  <time>2011-07-22T05:04:36Z</time>
  <speed>2.860000</speed>
</trkpt>
<trkpt lat="32.876792908" lon="35.246849060">
  <ele>272.080566</ele>
  <time>2011-07-22T05:04:37Z</time>
  <speed>2.850000</speed>
</trkpt>
<trkpt lat="32.876781464" lon="35.246906281">
  <ele>272.189941</ele>
  <time>2011-07-22T05:04:39Z</time>
  <speed>2.780000</speed>
</trkpt>
<trkpt lat="32.876777649" lon="35.246944427">
  <ele>272.596191</ele>
  <time>2011-07-22T05:04:40Z</time>
  <speed>2.750000</speed>
</trkpt>
<trkpt lat="32.876766205" lon="35.247005463">
  <ele>272.596191</ele>
  <time>2011-07-22T05:04:42Z</time>
  <speed>3.020000</speed>
</trkpt>
<trkpt lat="32.876762390" lon="35.247039795">
  <ele>272.564941</ele>
  <time>2011-07-22T05:04:43Z</time>
  <speed>3.100000</speed>
</trkpt>
<trkpt lat="32.876758575" lon="35.247108459">
  <ele>272.666504</ele>
  <time>2011-07-22T05:04:45Z</time>
  <speed>2.790000</speed>
</trkpt>
<trkpt lat="32.876758575" lon="35.247169495">
  <ele>272.432129</ele>
  <time>2011-07-22T05:04:47Z</time>
  <speed>2.580000</speed>
</trkpt>
<trkpt lat="32.876754761" lon="35.247219086">
  <ele>272.385254</ele>
  <time>2011-07-22T05:04:49Z</time>
  <speed>2.590000</speed>
</trkpt>
<trkpt lat="32.876758575" lon="35.247257233">
  <ele>272.549316</ele>
  <time>2011-07-22T05:04:50Z</time>
  <speed>2.650000</speed>
</trkpt>
<trkpt lat="32.876766205" lon="35.247318268">
  <ele>272.963379</ele>
  <time>2011-07-22T05:04:52Z</time>
  <speed>3.140000</speed>
</trkpt>
<trkpt lat="32.876766205" lon="35.247356415">
  <ele>273.291504</ele>
  <time>2011-07-22T05:04:53Z</time>
  <speed>2.890000</speed>
</trkpt>
<trkpt lat="32.876770020" lon="35.247394562">
  <ele>272.861816</ele>
  <time>2011-07-22T05:04:54Z</time>
  <speed>2.820000</speed>
</trkpt>
<trkpt lat="32.876789093" lon="35.247467041">
  <ele>273.088379</ele>
  <time>2011-07-22T05:04:56Z</time>
  <speed>2.930000</speed>
</trkpt>
<trkpt lat="32.876800537" lon="35.247528076">
  <ele>272.908691</ele>
  <time>2011-07-22T05:04:58Z</time>
  <speed>2.900000</speed>
</trkpt>
<trkpt lat="32.876811981" lon="35.247592926">
  <ele>274.385254</ele>
  <time>2011-07-22T05:05:00Z</time>
  <speed>2.950000</speed>
</trkpt>
<trkpt lat="32.876815796" lon="35.247646332">
  <ele>275.111816</ele>
  <time>2011-07-22T05:05:02Z</time>
  <speed>2.720000</speed>
</trkpt>
<trkpt lat="32.876800537" lon="35.247676849">
  <ele>275.213379</ele>
  <time>2011-07-22T05:05:03Z</time>
  <speed>2.960000</speed>
</trkpt>
<trkpt lat="32.876800537" lon="35.247737885">
  <ele>275.721191</ele>
  <time>2011-07-22T05:05:05Z</time>
  <speed>2.710000</speed>
</trkpt>
<trkpt lat="32.876792908" lon="35.247783661">
  <ele>275.432129</ele>
  <time>2011-07-22T05:05:07Z</time>
  <speed>2.180000</speed>
</trkpt>
<trkpt lat="32.876785278" lon="35.247829437">
  <ele>275.221191</ele>
  <time>2011-07-22T05:05:09Z</time>
  <speed>2.460000</speed>
</trkpt>
<trkpt lat="32.876773834" lon="35.247886658">
  <ele>274.908691</ele>
  <time>2011-07-22T05:05:11Z</time>
  <speed>2.740000</speed>
</trkpt>
<trkpt lat="32.876758575" lon="35.247947693">
  <ele>274.604004</ele>
  <time>2011-07-22T05:05:13Z</time>
  <speed>2.440000</speed>
</trkpt>
<trkpt lat="32.876739502" lon="35.247997284">
  <ele>273.783691</ele>
  <time>2011-07-22T05:05:15Z</time>
  <speed>2.260000</speed>
</trkpt>
<trkpt lat="32.876720428" lon="35.248043060">
  <ele>273.064941</ele>
  <time>2011-07-22T05:05:17Z</time>
  <speed>2.020000</speed>
</trkpt>
<trkpt lat="32.876705170" lon="35.248088837">
  <ele>273.283691</ele>
  <time>2011-07-22T05:05:19Z</time>
  <speed>2.080000</speed>
</trkpt>
<trkpt lat="32.876693726" lon="35.248115540">
  <ele>274.463379</ele>
  <time>2011-07-22T05:05:20Z</time>
  <speed>2.070000</speed>
</trkpt>
<trkpt lat="32.876674652" lon="35.248153687">
  <ele>274.229004</ele>
  <time>2011-07-22T05:05:22Z</time>
  <speed>2.140000</speed>
</trkpt>
<trkpt lat="32.876655579" lon="35.248188019">
  <ele>275.104004</ele>
  <time>2011-07-22T05:05:24Z</time>
  <speed>1.720000</speed>
</trkpt>
<trkpt lat="32.876636505" lon="35.248226166">
  <ele>275.486816</ele>
  <time>2011-07-22T05:05:26Z</time>
  <speed>1.350000</speed>
</trkpt>
<trkpt lat="32.876628876" lon="35.248271942">
  <ele>275.080566</ele>
  <time>2011-07-22T05:05:29Z</time>
  <speed>1.190000</speed>
</trkpt>
<trkpt lat="32.876625061" lon="35.248302460">
  <ele>275.627441</ele>
  <time>2011-07-22T05:05:32Z</time>
  <speed>0.410000</speed>
</trkpt>
<trkpt lat="32.876609802" lon="35.248329163">
  <ele>275.963379</ele>
  <time>2011-07-22T05:06:10Z</time>
  <speed>0.040000</speed>
</trkpt>
<trkpt lat="32.876632690" lon="35.248317719">
  <ele>276.213379</ele>
  <time>2011-07-22T05:09:27Z</time>
</trkpt>
<trkpt lat="32.876667023" lon="35.248287201">
  <ele>276.822754</ele>
  <time>2011-07-22T05:10:28Z</time>
  <speed>2.800000</speed>
</trkpt>
<trkpt lat="32.876689911" lon="35.248268127">
  <ele>276.971191</ele>
  <time>2011-07-22T05:10:29Z</time>
  <speed>3.210000</speed>
</trkpt>
<trkpt lat="32.876728058" lon="35.248256683">
  <ele>277.002441</ele>
  <time>2011-07-22T05:10:31Z</time>
  <speed>2.390000</speed>
</trkpt>
<trkpt lat="32.876754761" lon="35.248306274">
  <ele>276.627441</ele>
  <time>2011-07-22T05:10:33Z</time>
  <speed>3.220000</speed>
</trkpt>
<trkpt lat="32.876777649" lon="35.248336792">
  <ele>276.096191</ele>
  <time>2011-07-22T05:10:34Z</time>
  <speed>2.760000</speed>
</trkpt>
<trkpt lat="32.876800537" lon="35.248367310">
  <ele>275.314941</ele>
  <time>2011-07-22T05:10:36Z</time>
  <speed>1.800000</speed>
</trkpt>
<trkpt lat="32.876842499" lon="35.248374939">
  <ele>274.643066</ele>
  <time>2011-07-22T05:10:38Z</time>
  <speed>1.940000</speed>
</trkpt>
<trkpt lat="32.876884460" lon="35.248352051">
  <ele>274.643066</ele>
  <time>2011-07-22T05:10:39Z</time>
  <speed>1.870000</speed>
</trkpt>
<trkpt lat="32.876907349" lon="35.248332977">
  <ele>274.463379</ele>
  <time>2011-07-22T05:10:40Z</time>
  <speed>1.630000</speed>
</trkpt>
<trkpt lat="32.876926422" lon="35.248302460">
  <ele>273.619629</ele>
  <time>2011-07-22T05:10:41Z</time>
  <speed>1.670000</speed>
</trkpt>
<trkpt lat="32.876941681" lon="35.248256683">
  <ele>272.182129</ele>
  <time>2011-07-22T05:10:43Z</time>
  <speed>1.520000</speed>
</trkpt>
<trkpt lat="32.876953125" lon="35.248229980">
  <ele>271.010254</ele>
  <time>2011-07-22T05:10:44Z</time>
  <speed>2.380000</speed>
</trkpt>
<trkpt lat="32.876964569" lon="35.248191833">
  <ele>269.158691</ele>
  <time>2011-07-22T05:10:46Z</time>
  <speed>0.930000</speed>
</trkpt>
<trkpt lat="32.876976013" lon="35.248241425">
  <ele>268.025879</ele>
  <time>2011-07-22T05:10:49Z</time>
  <speed>1.090000</speed>
</trkpt>
<trkpt lat="32.876983643" lon="35.248287201">
  <ele>266.455566</ele>
  <time>2011-07-22T05:10:52Z</time>
  <speed>1.490000</speed>
</trkpt>
<trkpt lat="32.876972198" lon="35.248317719">
  <ele>264.822754</ele>
  <time>2011-07-22T05:10:54Z</time>
  <speed>1.480000</speed>
</trkpt>
<trkpt lat="32.876964569" lon="35.248386383">
  <ele>263.627441</ele>
  <time>2011-07-22T05:10:56Z</time>
  <speed>4.250000</speed>
</trkpt>
<trkpt lat="32.876960754" lon="35.248428345">
  <ele>263.400879</ele>
  <time>2011-07-22T05:10:57Z</time>
  <speed>4.240000</speed>
</trkpt>
<trkpt lat="32.876964569" lon="35.248462677">
  <ele>262.635254</ele>
  <time>2011-07-22T05:10:58Z</time>
  <speed>3.270000</speed>
</trkpt>
<trkpt lat="32.876987457" lon="35.248497009">
  <ele>262.135254</ele>
  <time>2011-07-22T05:10:59Z</time>
  <speed>2.670000</speed>
</trkpt>
<trkpt lat="32.877014160" lon="35.248550415">
  <ele>262.666504</ele>
  <time>2011-07-22T05:11:00Z</time>
  <speed>3.470000</speed>
</trkpt>
<trkpt lat="32.877029419" lon="35.248596191">
  <ele>261.885254</ele>
  <time>2011-07-22T05:11:01Z</time>
  <speed>2.650000</speed>
</trkpt>
<trkpt lat="32.877059937" lon="35.248630524">
  <ele>260.908691</ele>
  <time>2011-07-22T05:11:03Z</time>
  <speed>1.840000</speed>
</trkpt>
<trkpt lat="32.877086639" lon="35.248645782">
  <ele>260.697754</ele>
  <time>2011-07-22T05:11:04Z</time>
  <speed>3.640000</speed>
</trkpt>
<trkpt lat="32.877128601" lon="35.248664856">
  <ele>258.752441</ele>
  <time>2011-07-22T05:11:05Z</time>
  <speed>3.410000</speed>
</trkpt>
<trkpt lat="32.877162933" lon="35.248680115">
  <ele>257.658691</ele>
  <time>2011-07-22T05:11:06Z</time>
  <speed>3.260000</speed>
</trkpt>
<trkpt lat="32.877204895" lon="35.248706818">
  <ele>256.713379</ele>
  <time>2011-07-22T05:11:08Z</time>
  <speed>2.310000</speed>
</trkpt>
<trkpt lat="32.877227783" lon="35.248741150">
  <ele>255.485596</ele>
  <time>2011-07-22T05:11:10Z</time>
  <speed>2.260000</speed>
</trkpt>
<trkpt lat="32.877265930" lon="35.248775482">
  <ele>254.200439</ele>
  <time>2011-07-22T05:11:12Z</time>
  <speed>2.280000</speed>
</trkpt>
<trkpt lat="32.877285004" lon="35.248813629">
  <ele>253.052002</ele>
  <time>2011-07-22T05:11:14Z</time>
  <speed>1.840000</speed>
</trkpt>
<trkpt lat="32.877315521" lon="35.248817444">
  <ele>252.122314</ele>
  <time>2011-07-22T05:11:15Z</time>
  <speed>2.300000</speed>
</trkpt>
<trkpt lat="32.877342224" lon="35.248813629">
  <ele>251.165283</ele>
  <time>2011-07-22T05:11:16Z</time>
  <speed>2.270000</speed>
</trkpt>
<trkpt lat="32.877380371" lon="35.248817444">
  <ele>249.602783</ele>
  <time>2011-07-22T05:11:18Z</time>
  <speed>1.700000</speed>
</trkpt>
<trkpt lat="32.877418518" lon="35.248790741">
  <ele>248.098877</ele>
  <time>2011-07-22T05:11:21Z</time>
  <speed>1.690000</speed>
</trkpt>
<trkpt lat="32.877460480" lon="35.248771667">
  <ele>247.118408</ele>
  <time>2011-07-22T05:11:22Z</time>
  <speed>3.360000</speed>
</trkpt>
<trkpt lat="32.877483368" lon="35.248752594">
  <ele>246.481689</ele>
  <time>2011-07-22T05:11:23Z</time>
  <speed>2.770000</speed>
</trkpt>
<trkpt lat="32.877521515" lon="35.248741150">
  <ele>245.688721</ele>
  <time>2011-07-22T05:11:24Z</time>
  <speed>1.910000</speed>
</trkpt>
<trkpt lat="32.877548218" lon="35.248729706">
  <ele>245.165283</ele>
  <time>2011-07-22T05:11:25Z</time>
  <speed>2.670000</speed>
</trkpt>
<trkpt lat="32.877597809" lon="35.248729706">
  <ele>243.317627</ele>
  <time>2011-07-22T05:11:27Z</time>
  <speed>2.090000</speed>
</trkpt>
<trkpt lat="32.877651215" lon="35.248718262">
  <ele>241.712158</ele>
  <time>2011-07-22T05:11:29Z</time>
  <speed>2.980000</speed>
</trkpt>
<trkpt lat="32.877677917" lon="35.248706818">
  <ele>240.969971</ele>
  <time>2011-07-22T05:11:30Z</time>
  <speed>2.600000</speed>
</trkpt>
<trkpt lat="32.877731323" lon="35.248691559">
  <ele>238.723877</ele>
  <time>2011-07-22T05:11:32Z</time>
  <speed>2.690000</speed>
</trkpt>
<trkpt lat="32.877761841" lon="35.248680115">
  <ele>237.876221</ele>
  <time>2011-07-22T05:11:33Z</time>
  <speed>2.820000</speed>
</trkpt>
<trkpt lat="32.877788544" lon="35.248664856">
  <ele>236.872314</ele>
  <time>2011-07-22T05:11:34Z</time>
  <speed>2.460000</speed>
</trkpt>
<trkpt lat="32.877819061" lon="35.248653412">
  <ele>235.723877</ele>
  <time>2011-07-22T05:11:35Z</time>
  <speed>2.840000</speed>
</trkpt>
<trkpt lat="32.877838135" lon="35.248630524">
  <ele>234.626221</ele>
  <time>2011-07-22T05:11:36Z</time>
  <speed>2.350000</speed>
</trkpt>
<trkpt lat="32.877861023" lon="35.248580933">
  <ele>231.864502</ele>
  <time>2011-07-22T05:11:38Z</time>
  <speed>2.650000</speed>
</trkpt>
<trkpt lat="32.877883911" lon="35.248523712">
  <ele>229.821533</ele>
  <time>2011-07-22T05:11:40Z</time>
  <speed>2.610000</speed>
</trkpt>
<trkpt lat="32.877899170" lon="35.248485565">
  <ele>228.805908</ele>
  <time>2011-07-22T05:11:41Z</time>
  <speed>2.460000</speed>
</trkpt>
<trkpt lat="32.877902985" lon="35.248447418">
  <ele>227.497314</ele>
  <time>2011-07-22T05:11:42Z</time>
  <speed>2.940000</speed>
</trkpt>
<trkpt lat="32.877902985" lon="35.248413086">
  <ele>226.903564</ele>
  <time>2011-07-22T05:11:43Z</time>
  <speed>2.870000</speed>
</trkpt>
<trkpt lat="32.877922058" lon="35.248355865">
  <ele>226.512939</ele>
  <time>2011-07-22T05:11:44Z</time>
  <speed>2.690000</speed>
</trkpt>
<trkpt lat="32.877944946" lon="35.248287201">
  <ele>226.591064</ele>
  <time>2011-07-22T05:11:45Z</time>
  <speed>3.410000</speed>
</trkpt>
<trkpt lat="32.877960205" lon="35.248264313">
  <ele>225.446533</ele>
  <time>2011-07-22T05:11:46Z</time>
  <speed>2.620000</speed>
</trkpt>
<trkpt lat="32.877979279" lon="35.248241425">
  <ele>224.364502</ele>
  <time>2011-07-22T05:11:47Z</time>
  <speed>2.750000</speed>
</trkpt>
<trkpt lat="32.877979279" lon="35.248176575">
  <ele>224.579346</ele>
  <time>2011-07-22T05:11:49Z</time>
  <speed>2.100000</speed>
</trkpt>
<trkpt lat="32.877960205" lon="35.248142242">
  <ele>224.716064</ele>
  <time>2011-07-22T05:11:51Z</time>
  <speed>1.080000</speed>
</trkpt>
<trkpt lat="32.877979279" lon="35.248081207">
  <ele>225.122314</ele>
  <time>2011-07-22T05:11:53Z</time>
  <speed>0.440000</speed>
</trkpt>
<trkpt lat="32.877933502" lon="35.248085022">
  <ele>224.591064</ele>
  <time>2011-07-22T05:11:55Z</time>
  <speed>0.470000</speed>
</trkpt>
<trkpt lat="32.877922058" lon="35.248100281">
  <ele>222.423096</ele>
  <time>2011-07-22T05:12:28Z</time>
  <speed>0.130000</speed>
</trkpt>
<trkpt lat="32.877948761" lon="35.248092651">
  <ele>222.227783</ele>
  <time>2011-07-22T05:13:49Z</time>
  <speed>0.170000</speed>
</trkpt>
<trkpt lat="32.877964020" lon="35.248058319">
  <ele>222.282471</ele>
  <time>2011-07-22T05:14:07Z</time>
  <speed>1.510000</speed>
</trkpt>
<trkpt lat="32.877983093" lon="35.248031616">
  <ele>223.395752</ele>
  <time>2011-07-22T05:14:08Z</time>
  <speed>2.620000</speed>
</trkpt>
<trkpt lat="32.878021240" lon="35.247997284">
  <ele>223.997314</ele>
  <time>2011-07-22T05:14:10Z</time>
  <speed>2.860000</speed>
</trkpt>
<trkpt lat="32.878067017" lon="35.247970581">
  <ele>223.950439</ele>
  <time>2011-07-22T05:14:12Z</time>
  <speed>2.330000</speed>
</trkpt>
<trkpt lat="32.878097534" lon="35.247951508">
  <ele>223.641846</ele>
  <time>2011-07-22T05:14:13Z</time>
  <speed>2.310000</speed>
</trkpt>
<trkpt lat="32.878135681" lon="35.247917175">
  <ele>223.270752</ele>
  <time>2011-07-22T05:14:14Z</time>
  <speed>2.540000</speed>
</trkpt>
<trkpt lat="32.878158569" lon="35.247894287">
  <ele>222.790283</ele>
  <time>2011-07-22T05:14:16Z</time>
  <speed>0.750000</speed>
</trkpt>
<trkpt lat="32.878177643" lon="35.247848511">
  <ele>222.048096</ele>
  <time>2011-07-22T05:14:31Z</time>
  <speed>0.060000</speed>
</trkpt>
<trkpt lat="32.878200531" lon="35.247829437">
  <ele>221.536377</ele>
  <time>2011-07-22T05:14:39Z</time>
  <speed>1.130000</speed>
</trkpt>
<trkpt lat="32.878246307" lon="35.247802734">
  <ele>221.040283</ele>
  <time>2011-07-22T05:14:41Z</time>
  <speed>3.070000</speed>
</trkpt>
<trkpt lat="32.878269196" lon="35.247787476">
  <ele>220.821533</ele>
  <time>2011-07-22T05:14:42Z</time>
  <speed>3.320000</speed>
</trkpt>
<trkpt lat="32.878311157" lon="35.247810364">
  <ele>219.012939</ele>
  <time>2011-07-22T05:14:45Z</time>
  <speed>2.630000</speed>
</trkpt>
<trkpt lat="32.878345490" lon="35.247837067">
  <ele>218.009033</ele>
  <time>2011-07-22T05:14:47Z</time>
  <speed>1.950000</speed>
</trkpt>
<trkpt lat="32.878379822" lon="35.247848511">
  <ele>217.637939</ele>
  <time>2011-07-22T05:14:48Z</time>
  <speed>3.950000</speed>
</trkpt>
<trkpt lat="32.878402710" lon="35.247875214">
  <ele>217.259033</ele>
  <time>2011-07-22T05:14:49Z</time>
  <speed>3.440000</speed>
</trkpt>
<trkpt lat="32.878437042" lon="35.247898102">
  <ele>216.856689</ele>
  <time>2011-07-22T05:14:50Z</time>
  <speed>3.520000</speed>
</trkpt>
<trkpt lat="32.878452301" lon="35.247932434">
  <ele>216.009033</ele>
  <time>2011-07-22T05:14:51Z</time>
  <speed>3.720000</speed>
</trkpt>
<trkpt lat="32.878467560" lon="35.247970581">
  <ele>215.259033</ele>
  <time>2011-07-22T05:14:52Z</time>
  <speed>3.260000</speed>
</trkpt>
<trkpt lat="32.878498077" lon="35.247997284">
  <ele>214.118408</ele>
  <time>2011-07-22T05:14:53Z</time>
  <speed>2.330000</speed>
</trkpt>
<trkpt lat="32.878551483" lon="35.248001099">
  <ele>212.364502</ele>
  <time>2011-07-22T05:14:54Z</time>
  <speed>2.090000</speed>
</trkpt>
<trkpt lat="32.878597260" lon="35.247989655">
  <ele>210.821533</ele>
  <time>2011-07-22T05:14:55Z</time>
  <speed>2.180000</speed>
</trkpt>
<trkpt lat="32.878620148" lon="35.247982025">
  <ele>209.266846</ele>
  <time>2011-07-22T05:14:56Z</time>
  <speed>1.110000</speed>
</trkpt>
<trkpt lat="32.878646851" lon="35.247955322">
  <ele>208.813721</ele>
  <time>2011-07-22T05:14:57Z</time>
  <speed>1.960000</speed>
</trkpt>
<trkpt lat="32.878684998" lon="35.247901917">
  <ele>206.012939</ele>
  <time>2011-07-22T05:14:59Z</time>
  <speed>3.360000</speed>
</trkpt>
<trkpt lat="32.878715515" lon="35.247856140">
  <ele>205.052002</ele>
  <time>2011-07-22T05:15:00Z</time>
  <speed>3.700000</speed>
</trkpt>
<trkpt lat="32.878738403" lon="35.247817993">
  <ele>203.329346</ele>
  <time>2011-07-22T05:15:01Z</time>
  <speed>3.230000</speed>
</trkpt>
<trkpt lat="32.878726959" lon="35.247787476">
  <ele>201.594971</ele>
  <time>2011-07-22T05:15:02Z</time>
  <speed>2.220000</speed>
</trkpt>
<trkpt lat="32.878746033" lon="35.247741699">
  <ele>200.884033</ele>
  <time>2011-07-22T05:15:04Z</time>
  <speed>1.500000</speed>
</trkpt>
<trkpt lat="32.878776550" lon="35.247680664">
  <ele>199.735596</ele>
  <time>2011-07-22T05:15:06Z</time>
  <speed>2.920000</speed>
</trkpt>
<trkpt lat="32.878784180" lon="35.247646332">
  <ele>198.802002</ele>
  <time>2011-07-22T05:15:07Z</time>
  <speed>2.670000</speed>
</trkpt>
<trkpt lat="32.878795624" lon="35.247615814">
  <ele>198.153564</ele>
  <time>2011-07-22T05:15:08Z</time>
  <speed>1.380000</speed>
</trkpt>
<trkpt lat="32.878833771" lon="35.247585297">
  <ele>195.587158</ele>
  <time>2011-07-22T05:15:10Z</time>
  <speed>3.280000</speed>
</trkpt>
<trkpt lat="32.878879547" lon="35.247573853">
  <ele>195.075439</ele>
  <time>2011-07-22T05:15:11Z</time>
  <speed>3.610000</speed>
</trkpt>
<trkpt lat="32.878906250" lon="35.247550964">
  <ele>194.415283</ele>
  <time>2011-07-22T05:15:12Z</time>
  <speed>3.020000</speed>
</trkpt>
<trkpt lat="32.878929138" lon="35.247543335">
  <ele>193.934814</ele>
  <time>2011-07-22T05:15:13Z</time>
  <speed>1.480000</speed>
</trkpt>
<trkpt lat="32.878978729" lon="35.247535706">
  <ele>193.641846</ele>
  <time>2011-07-22T05:15:15Z</time>
  <speed>1.670000</speed>
</trkpt>
<trkpt lat="32.878982544" lon="35.247566223">
  <ele>194.434814</ele>
  <time>2011-07-22T05:15:50Z</time>
  <speed>0.020000</speed>
</trkpt>
<trkpt lat="32.879005432" lon="35.247592926">
  <ele>194.247314</ele>
  <time>2011-07-22T05:15:57Z</time>
  <speed>0.070000</speed>
</trkpt>
<trkpt lat="32.879016876" lon="35.247612000">
  <ele>196.192627</ele>
  <time>2011-07-22T05:16:10Z</time>
  <speed>0.020000</speed>
</trkpt>
<trkpt lat="32.878990173" lon="35.247600555">
  <ele>197.790283</ele>
  <time>2011-07-22T05:16:20Z</time>
</trkpt>
<trkpt lat="32.878978729" lon="35.247604370">
  <ele>201.040283</ele>
  <time>2011-07-22T05:16:37Z</time>
</trkpt>
<trkpt lat="32.878955841" lon="35.247589111">
  <ele>202.505127</ele>
  <time>2011-07-22T05:16:44Z</time>
</trkpt>
<trkpt lat="32.878963470" lon="35.247627258">
  <ele>202.137939</ele>
  <time>2011-07-22T05:17:20Z</time>
  <speed>1.970000</speed>
</trkpt>
<trkpt lat="32.878982544" lon="35.247680664">
  <ele>202.040283</ele>
  <time>2011-07-22T05:17:22Z</time>
  <speed>2.130000</speed>
</trkpt>
<trkpt lat="32.879020691" lon="35.247718811">
  <ele>201.028564</ele>
  <time>2011-07-22T05:17:24Z</time>
  <speed>2.510000</speed>
</trkpt>
<trkpt lat="32.879058838" lon="35.247730255">
  <ele>200.403564</ele>
  <time>2011-07-22T05:17:25Z</time>
  <speed>3.130000</speed>
</trkpt>
<trkpt lat="32.879112244" lon="35.247737885">
  <ele>200.329346</ele>
  <time>2011-07-22T05:17:26Z</time>
  <speed>3.130000</speed>
</trkpt>
<trkpt lat="32.879138947" lon="35.247741699">
  <ele>198.930908</ele>
  <time>2011-07-22T05:17:27Z</time>
  <speed>3.020000</speed>
</trkpt>
<trkpt lat="32.879169464" lon="35.247741699">
  <ele>198.329346</ele>
  <time>2011-07-22T05:17:28Z</time>
  <speed>2.520000</speed>
</trkpt>
<trkpt lat="32.879203796" lon="35.247737885">
  <ele>195.794189</ele>
  <time>2011-07-22T05:17:30Z</time>
  <speed>0.950000</speed>
</trkpt>
<trkpt lat="32.879238129" lon="35.247734070">
  <ele>192.091064</ele>
  <time>2011-07-22T05:17:32Z</time>
  <speed>1.770000</speed>
</trkpt>
<trkpt lat="32.879276276" lon="35.247741699">
  <ele>188.618408</ele>
  <time>2011-07-22T05:17:34Z</time>
  <speed>1.440000</speed>
</trkpt>
<trkpt lat="32.879306793" lon="35.247745514">
  <ele>186.833252</ele>
  <time>2011-07-22T05:17:35Z</time>
  <speed>1.670000</speed>
</trkpt>
<trkpt lat="32.879322052" lon="35.247772217">
  <ele>184.532471</ele>
  <time>2011-07-22T05:17:37Z</time>
  <speed>1.900000</speed>
</trkpt>
<trkpt lat="32.879322052" lon="35.247825623">
  <ele>182.204346</ele>
  <time>2011-07-22T05:17:39Z</time>
  <speed>2.370000</speed>
</trkpt>
<trkpt lat="32.879341125" lon="35.247856140">
  <ele>180.969971</ele>
  <time>2011-07-22T05:17:40Z</time>
  <speed>2.660000</speed>
</trkpt>
<trkpt lat="32.879371643" lon="35.247879028">
  <ele>180.489502</ele>
  <time>2011-07-22T05:17:41Z</time>
  <speed>3.110000</speed>
</trkpt>
<trkpt lat="32.879409790" lon="35.247875214">
  <ele>177.454346</ele>
  <time>2011-07-22T05:17:42Z</time>
  <speed>3.120000</speed>
</trkpt>
<trkpt lat="32.879436493" lon="35.247867584">
  <ele>175.958252</ele>
  <time>2011-07-22T05:17:43Z</time>
  <speed>2.350000</speed>
</trkpt>
<trkpt lat="32.879467010" lon="35.247863770">
  <ele>175.137939</ele>
  <time>2011-07-22T05:17:44Z</time>
  <speed>2.820000</speed>
</trkpt>
<trkpt lat="32.879508972" lon="35.247859955">
  <ele>175.063721</ele>
  <time>2011-07-22T05:17:45Z</time>
  <speed>2.170000</speed>
</trkpt>
<trkpt lat="32.879535675" lon="35.247848511">
  <ele>175.634033</ele>
  <time>2011-07-22T05:17:46Z</time>
  <speed>1.980000</speed>
</trkpt>
<trkpt lat="32.879562378" lon="35.247814178">
  <ele>173.973877</ele>
  <time>2011-07-22T05:17:48Z</time>
  <speed>2.660000</speed>
</trkpt>
<trkpt lat="32.879570007" lon="35.247783661">
  <ele>171.735596</ele>
  <time>2011-07-22T05:17:50Z</time>
  <speed>1.240000</speed>
</trkpt>
<trkpt lat="32.879581451" lon="35.247741699">
  <ele>169.989502</ele>
  <time>2011-07-22T05:17:52Z</time>
  <speed>1.810000</speed>
</trkpt>
<trkpt lat="32.879604340" lon="35.247684479">
  <ele>168.423096</ele>
  <time>2011-07-22T05:17:54Z</time>
  <speed>2.920000</speed>
</trkpt>
<trkpt lat="32.879623413" lon="35.247646332">
  <ele>168.005127</ele>
  <time>2011-07-22T05:17:55Z</time>
  <speed>2.130000</speed>
</trkpt>
<trkpt lat="32.879661560" lon="35.247634888">
  <ele>167.454346</ele>
  <time>2011-07-22T05:17:56Z</time>
  <speed>3.590000</speed>
</trkpt>
<trkpt lat="32.879688263" lon="35.247631073">
  <ele>166.962158</ele>
  <time>2011-07-22T05:17:57Z</time>
  <speed>3.120000</speed>
</trkpt>
<trkpt lat="32.879734039" lon="35.247608185">
  <ele>166.735596</ele>
  <time>2011-07-22T05:17:58Z</time>
  <speed>3.860000</speed>
</trkpt>
<trkpt lat="32.879768372" lon="35.247570038">
  <ele>165.837158</ele>
  <time>2011-07-22T05:17:59Z</time>
  <speed>3.410000</speed>
</trkpt>
<trkpt lat="32.879810333" lon="35.247554779">
  <ele>164.614502</ele>
  <time>2011-07-22T05:18:01Z</time>
  <speed>1.850000</speed>
</trkpt>
<trkpt lat="32.879859924" lon="35.247539520">
  <ele>163.606689</ele>
  <time>2011-07-22T05:18:02Z</time>
  <speed>2.440000</speed>
</trkpt>
<trkpt lat="32.879890442" lon="35.247539520">
  <ele>161.981689</ele>
  <time>2011-07-22T05:18:03Z</time>
  <speed>2.380000</speed>
</trkpt>
<trkpt lat="32.879936218" lon="35.247547150">
  <ele>159.200439</ele>
  <time>2011-07-22T05:18:05Z</time>
  <speed>2.230000</speed>
</trkpt>
<trkpt lat="32.879978180" lon="35.247547150">
  <ele>158.665283</ele>
  <time>2011-07-22T05:18:06Z</time>
  <speed>2.950000</speed>
</trkpt>
<trkpt lat="32.880008698" lon="35.247596741">
  <ele>156.075439</ele>
  <time>2011-07-22T05:18:08Z</time>
  <speed>4.620000</speed>
</trkpt>
<trkpt lat="32.880039215" lon="35.247615814">
  <ele>156.048096</ele>
  <time>2011-07-22T05:18:09Z</time>
  <speed>3.170000</speed>
</trkpt>
<trkpt lat="32.880096436" lon="35.247638702">
  <ele>155.165283</ele>
  <time>2011-07-22T05:18:11Z</time>
  <speed>3.680000</speed>
</trkpt>
<trkpt lat="32.880157471" lon="35.247642517">
  <ele>154.602783</ele>
  <time>2011-07-22T05:18:12Z</time>
  <speed>4.510000</speed>
</trkpt>
<trkpt lat="32.880214691" lon="35.247661591">
  <ele>154.118408</ele>
  <time>2011-07-22T05:18:13Z</time>
  <speed>4.610000</speed>
</trkpt>
<trkpt lat="32.880271912" lon="35.247669220">
  <ele>153.552002</ele>
  <time>2011-07-22T05:18:14Z</time>
  <speed>4.930000</speed>
</trkpt>
<trkpt lat="32.880313873" lon="35.247688293">
  <ele>152.313721</ele>
  <time>2011-07-22T05:18:15Z</time>
  <speed>4.830000</speed>
</trkpt>
<trkpt lat="32.880355835" lon="35.247718811">
  <ele>151.356689</ele>
  <time>2011-07-22T05:18:16Z</time>
  <speed>4.860000</speed>
</trkpt>
<trkpt lat="32.880382538" lon="35.247741699">
  <ele>150.872314</ele>
  <time>2011-07-22T05:18:17Z</time>
  <speed>3.320000</speed>
</trkpt>
<trkpt lat="32.880393982" lon="35.247776031">
  <ele>149.614502</ele>
  <time>2011-07-22T05:18:19Z</time>
  <speed>0.740000</speed>
</trkpt>
<trkpt lat="32.880397797" lon="35.247802734">
  <ele>151.454346</ele>
  <time>2011-07-22T05:18:37Z</time>
  <speed>0.050000</speed>
</trkpt>
<trkpt lat="32.880432129" lon="35.247825623">
  <ele>151.497314</ele>
  <time>2011-07-22T05:18:55Z</time>
  <speed>1.890000</speed>
</trkpt>
<trkpt lat="32.880470276" lon="35.247863770">
  <ele>151.602783</ele>
  <time>2011-07-22T05:18:57Z</time>
  <speed>3.100000</speed>
</trkpt>
<trkpt lat="32.880496979" lon="35.247879028">
  <ele>151.532471</ele>
  <time>2011-07-22T05:18:58Z</time>
  <speed>2.760000</speed>
</trkpt>
<trkpt lat="32.880523682" lon="35.247886658">
  <ele>151.411377</ele>
  <time>2011-07-22T05:18:59Z</time>
  <speed>3.150000</speed>
</trkpt>
<trkpt lat="32.880554199" lon="35.247898102">
  <ele>151.020752</ele>
  <time>2011-07-22T05:19:00Z</time>
  <speed>3.190000</speed>
</trkpt>
<trkpt lat="32.880584717" lon="35.247909546">
  <ele>150.755127</ele>
  <time>2011-07-22T05:19:01Z</time>
  <speed>3.140000</speed>
</trkpt>
<trkpt lat="32.880641937" lon="35.247920990">
  <ele>150.454346</ele>
  <time>2011-07-22T05:19:03Z</time>
  <speed>3.530000</speed>
</trkpt>
<trkpt lat="32.880672455" lon="35.247928619">
  <ele>150.200439</ele>
  <time>2011-07-22T05:19:04Z</time>
  <speed>3.110000</speed>
</trkpt>
<trkpt lat="32.880725861" lon="35.247932434">
  <ele>149.821533</ele>
  <time>2011-07-22T05:19:05Z</time>
  <speed>3.710000</speed>
</trkpt>
<trkpt lat="32.880771637" lon="35.247928619">
  <ele>148.934814</ele>
  <time>2011-07-22T05:19:06Z</time>
  <speed>3.660000</speed>
</trkpt>
<trkpt lat="32.880813599" lon="35.247924805">
  <ele>148.071533</ele>
  <time>2011-07-22T05:19:07Z</time>
  <speed>3.460000</speed>
</trkpt>
<trkpt lat="32.880844116" lon="35.247940063">
  <ele>147.891846</ele>
  <time>2011-07-22T05:19:08Z</time>
  <speed>3.570000</speed>
</trkpt>
<trkpt lat="32.880870819" lon="35.247959137">
  <ele>147.212158</ele>
  <time>2011-07-22T05:19:09Z</time>
  <speed>4.170000</speed>
</trkpt>
<trkpt lat="32.880924225" lon="35.247982025">
  <ele>146.262939</ele>
  <time>2011-07-22T05:19:10Z</time>
  <speed>5.060000</speed>
</trkpt>
<trkpt lat="32.880977631" lon="35.248004913">
  <ele>145.145752</ele>
  <time>2011-07-22T05:19:11Z</time>
  <speed>6.540000</speed>
</trkpt>
<trkpt lat="32.881050110" lon="35.248031616">
  <ele>144.177002</ele>
  <time>2011-07-22T05:19:12Z</time>
  <speed>7.260000</speed>
</trkpt>
<trkpt lat="32.881103516" lon="35.248058319">
  <ele>143.399658</ele>
  <time>2011-07-22T05:19:13Z</time>
  <speed>6.540000</speed>
</trkpt>
<trkpt lat="32.881179810" lon="35.248069763">
  <ele>142.684814</ele>
  <time>2011-07-22T05:19:14Z</time>
  <speed>6.430000</speed>
</trkpt>
<trkpt lat="32.881233215" lon="35.248085022">
  <ele>141.680908</ele>
  <time>2011-07-22T05:19:15Z</time>
  <speed>6.010000</speed>
</trkpt>
<trkpt lat="32.881275177" lon="35.248096466">
  <ele>141.184814</ele>
  <time>2011-07-22T05:19:16Z</time>
  <speed>3.600000</speed>
</trkpt>
<trkpt lat="32.881298065" lon="35.248111725">
  <ele>140.462158</ele>
  <time>2011-07-22T05:19:17Z</time>
  <speed>2.470000</speed>
</trkpt>
<trkpt lat="32.881290436" lon="35.248161316">
  <ele>139.052002</ele>
  <time>2011-07-22T05:19:18Z</time>
  <speed>2.540000</speed>
</trkpt>
<trkpt lat="32.881332397" lon="35.248191833">
  <ele>137.423096</ele>
  <time>2011-07-22T05:19:20Z</time>
  <speed>2.470000</speed>
</trkpt>
<trkpt lat="32.881347656" lon="35.248226166">
  <ele>136.212158</ele>
  <time>2011-07-22T05:19:21Z</time>
  <speed>2.940000</speed>
</trkpt>
<trkpt lat="32.881366730" lon="35.248252869">
  <ele>134.895752</ele>
  <time>2011-07-22T05:19:22Z</time>
  <speed>3.220000</speed>
</trkpt>
<trkpt lat="32.881401062" lon="35.248260498">
  <ele>132.751221</ele>
  <time>2011-07-22T05:19:23Z</time>
  <speed>3.330000</speed>
</trkpt>
<trkpt lat="32.881408691" lon="35.248294830">
  <ele>131.575439</ele>
  <time>2011-07-22T05:19:24Z</time>
  <speed>3.350000</speed>
</trkpt>
<trkpt lat="32.881443024" lon="35.248317719">
  <ele>130.173096</ele>
  <time>2011-07-22T05:19:25Z</time>
  <speed>4.460000</speed>
</trkpt>
<trkpt lat="32.881458282" lon="35.248371124">
  <ele>128.977783</ele>
  <time>2011-07-22T05:19:26Z</time>
  <speed>5.290000</speed>
</trkpt>
<trkpt lat="32.881469727" lon="35.248428345">
  <ele>128.231689</ele>
  <time>2011-07-22T05:19:27Z</time>
  <speed>4.800000</speed>
</trkpt>
<trkpt lat="32.881465912" lon="35.248485565">
  <ele>127.391235</ele>
  <time>2011-07-22T05:19:28Z</time>
  <speed>4.830000</speed>
</trkpt>
<trkpt lat="32.881526947" lon="35.248531342">
  <ele>127.893188</ele>
  <time>2011-07-22T05:19:29Z</time>
  <speed>4.100000</speed>
</trkpt>
<trkpt lat="32.881553650" lon="35.248554230">
  <ele>126.822876</ele>
  <time>2011-07-22T05:19:30Z</time>
  <speed>3.870000</speed>
</trkpt>
<trkpt lat="32.881595612" lon="35.248580933">
  <ele>126.293579</ele>
  <time>2011-07-22T05:19:31Z</time>
  <speed>5.120000</speed>
</trkpt>
<trkpt lat="32.881629944" lon="35.248611450">
  <ele>125.777954</ele>
  <time>2011-07-22T05:19:32Z</time>
  <speed>5.230000</speed>
</trkpt>
<trkpt lat="32.881664276" lon="35.248638153">
  <ele>124.873657</ele>
  <time>2011-07-22T05:19:33Z</time>
  <speed>4.100000</speed>
</trkpt>
<trkpt lat="32.881706238" lon="35.248649597">
  <ele>124.397095</ele>
  <time>2011-07-22T05:19:34Z</time>
  <speed>2.700000</speed>
</trkpt>
<trkpt lat="32.881702423" lon="35.248683929">
  <ele>123.203735</ele>
  <time>2011-07-22T05:19:36Z</time>
  <speed>0.630000</speed>
</trkpt>
<trkpt lat="32.881690979" lon="35.248653412">
  <ele>123.848267</ele>
  <time>2011-07-22T05:19:55Z</time>
  <speed>0.140000</speed>
</trkpt>
<trkpt lat="32.881706238" lon="35.248630524">
  <ele>122.516235</ele>
  <time>2011-07-22T05:20:06Z</time>
  <speed>0.010000</speed>
</trkpt>
<trkpt lat="32.881732941" lon="35.248615265">
  <ele>122.221313</ele>
  <time>2011-07-22T05:20:13Z</time>
  <speed>0.010000</speed>
</trkpt>
<trkpt lat="32.881759644" lon="35.248596191">
  <ele>122.604126</ele>
  <time>2011-07-22T05:20:24Z</time>
  <speed>0.060000</speed>
</trkpt>
<trkpt lat="32.881763458" lon="35.248634338">
  <ele>122.537720</ele>
  <time>2011-07-22T05:20:36Z</time>
  <speed>0.020000</speed>
</trkpt>
<trkpt lat="32.881759644" lon="35.248668671">
  <ele>124.240845</ele>
  <time>2011-07-22T05:20:46Z</time>
</trkpt>
<trkpt lat="32.881778717" lon="35.248657227">
  <ele>125.897095</ele>
  <time>2011-07-22T05:21:01Z</time>
  <speed>0.020000</speed>
</trkpt>
<trkpt lat="32.881790161" lon="35.248638153">
  <ele>128.434814</ele>
  <time>2011-07-22T05:21:10Z</time>
  <speed>0.050000</speed>
</trkpt>
<trkpt lat="32.881767273" lon="35.248611450">
  <ele>128.157471</ele>
  <time>2011-07-22T05:21:23Z</time>
</trkpt>
<trkpt lat="32.881736755" lon="35.248596191">
  <ele>130.501221</ele>
  <time>2011-07-22T05:21:44Z</time>
  <speed>0.060000</speed>
</trkpt>
<trkpt lat="32.881725311" lon="35.248626709">
  <ele>131.153564</ele>
  <time>2011-07-22T05:21:54Z</time>
  <speed>0.060000</speed>
</trkpt>
<trkpt lat="32.881702423" lon="35.248657227">
  <ele>131.887939</ele>
  <time>2011-07-22T05:21:58Z</time>
  <speed>0.170000</speed>
</trkpt>
<trkpt lat="32.881713867" lon="35.248687744">
  <ele>132.009033</ele>
  <time>2011-07-22T05:22:08Z</time>
  <speed>0.160000</speed>
</trkpt>
<trkpt lat="32.881698608" lon="35.248710632">
  <ele>133.094971</ele>
  <time>2011-07-22T05:22:23Z</time>
  <speed>0.090000</speed>
</trkpt>
<trkpt lat="32.881668091" lon="35.248706818">
  <ele>132.083252</ele>
  <time>2011-07-22T05:22:27Z</time>
  <speed>0.170000</speed>
</trkpt>
<trkpt lat="32.881679535" lon="35.248710632">
  <ele>129.020752</ele>
  <time>2011-07-22T05:22:41Z</time>
  <speed>0.150000</speed>
</trkpt>
<trkpt lat="32.881690979" lon="35.248699188">
  <ele>131.454346</ele>
  <time>2011-07-22T05:23:10Z</time>
  <speed>0.130000</speed>
</trkpt>
<trkpt lat="32.881717682" lon="35.248691559">
  <ele>131.149658</ele>
  <time>2011-07-22T05:23:12Z</time>
  <speed>0.210000</speed>
</trkpt>
<trkpt lat="32.881744385" lon="35.248699188">
  <ele>129.579346</ele>
  <time>2011-07-22T05:23:17Z</time>
  <speed>0.210000</speed>
</trkpt>
<trkpt lat="32.881771088" lon="35.248706818">
  <ele>128.473877</ele>
  <time>2011-07-22T05:23:27Z</time>
  <speed>0.170000</speed>
</trkpt>
<trkpt lat="32.881797791" lon="35.248706818">
  <ele>129.141846</ele>
  <time>2011-07-22T05:23:33Z</time>
  <speed>0.200000</speed>
</trkpt>
<trkpt lat="32.881774902" lon="35.248725891">
  <ele>128.044189</ele>
  <time>2011-07-22T05:23:41Z</time>
  <speed>0.210000</speed>
</trkpt>
<trkpt lat="32.881778717" lon="35.248764038">
  <ele>127.838501</ele>
  <time>2011-07-22T05:23:43Z</time>
  <speed>2.560000</speed>
</trkpt>
<trkpt lat="32.881816864" lon="35.248783112">
  <ele>126.195923</ele>
  <time>2011-07-22T05:23:45Z</time>
  <speed>3.300000</speed>
</trkpt>
<trkpt lat="32.881843567" lon="35.248790741">
  <ele>125.932251</ele>
  <time>2011-07-22T05:23:46Z</time>
  <speed>2.990000</speed>
</trkpt>
<trkpt lat="32.881870270" lon="35.248802185">
  <ele>125.377563</ele>
  <time>2011-07-22T05:23:47Z</time>
  <speed>3.690000</speed>
</trkpt>
<trkpt lat="32.881931305" lon="35.248794556">
  <ele>124.742798</ele>
  <time>2011-07-22T05:23:48Z</time>
  <speed>5.190000</speed>
</trkpt>
<trkpt lat="32.881980896" lon="35.248806000">
  <ele>124.293579</ele>
  <time>2011-07-22T05:23:49Z</time>
  <speed>5.740000</speed>
</trkpt>
<trkpt lat="32.882019043" lon="35.248825073">
  <ele>123.848267</ele>
  <time>2011-07-22T05:23:50Z</time>
  <speed>4.330000</speed>
</trkpt>
<trkpt lat="32.882045746" lon="35.248847961">
  <ele>123.330688</ele>
  <time>2011-07-22T05:23:51Z</time>
  <speed>3.980000</speed>
</trkpt>
<trkpt lat="32.882087708" lon="35.248863220">
  <ele>122.442017</ele>
  <time>2011-07-22T05:23:52Z</time>
  <speed>4.520000</speed>
</trkpt>
<trkpt lat="32.882125854" lon="35.248893738">
  <ele>121.733032</ele>
  <time>2011-07-22T05:23:53Z</time>
  <speed>4.800000</speed>
</trkpt>
<trkpt lat="32.882160187" lon="35.248924255">
  <ele>121.178345</ele>
  <time>2011-07-22T05:23:54Z</time>
  <speed>5.140000</speed>
</trkpt>
<trkpt lat="32.882209778" lon="35.248958588">
  <ele>120.537720</ele>
  <time>2011-07-22T05:23:55Z</time>
  <speed>6.250000</speed>
</trkpt>
<trkpt lat="32.882259369" lon="35.248992920">
  <ele>119.957642</ele>
  <time>2011-07-22T05:23:56Z</time>
  <speed>6.630000</speed>
</trkpt>
<trkpt lat="32.882316589" lon="35.249027252">
  <ele>119.416626</ele>
  <time>2011-07-22T05:23:57Z</time>
  <speed>6.820000</speed>
</trkpt>
<trkpt lat="32.882358551" lon="35.249088287">
  <ele>118.500610</ele>
  <time>2011-07-22T05:23:58Z</time>
  <speed>6.710000</speed>
</trkpt>
<trkpt lat="32.882400513" lon="35.249137878">
  <ele>117.746704</ele>
  <time>2011-07-22T05:23:59Z</time>
  <speed>6.700000</speed>
</trkpt>
<trkpt lat="32.882431030" lon="35.249172211">
  <ele>116.996704</ele>
  <time>2011-07-22T05:24:00Z</time>
  <speed>3.960000</speed>
</trkpt>
<trkpt lat="32.882503510" lon="35.249168396">
  <ele>115.887329</ele>
  <time>2011-07-22T05:24:01Z</time>
  <speed>4.570000</speed>
</trkpt>
<trkpt lat="32.882545471" lon="35.249168396">
  <ele>114.908813</ele>
  <time>2011-07-22T05:24:02Z</time>
  <speed>3.340000</speed>
</trkpt>
<trkpt lat="32.882587433" lon="35.249176025">
  <ele>113.465454</ele>
  <time>2011-07-22T05:24:03Z</time>
  <speed>3.280000</speed>
</trkpt>
<trkpt lat="32.882617950" lon="35.249179840">
  <ele>112.285767</ele>
  <time>2011-07-22T05:24:04Z</time>
  <speed>3.210000</speed>
</trkpt>
<trkpt lat="32.882633209" lon="35.249210358">
  <ele>111.285767</ele>
  <time>2011-07-22T05:24:05Z</time>
  <speed>4.190000</speed>
</trkpt>
<trkpt lat="32.882694244" lon="35.249214172">
  <ele>109.617798</ele>
  <time>2011-07-22T05:24:06Z</time>
  <speed>5.620000</speed>
</trkpt>
<trkpt lat="32.882720947" lon="35.249248505">
  <ele>108.535767</ele>
  <time>2011-07-22T05:24:07Z</time>
  <speed>4.960000</speed>
</trkpt>
<trkpt lat="32.882759094" lon="35.249271393">
  <ele>106.996704</ele>
  <time>2011-07-22T05:24:08Z</time>
  <speed>4.400000</speed>
</trkpt>
<trkpt lat="32.882793427" lon="35.249286652">
  <ele>106.457642</ele>
  <time>2011-07-22T05:24:09Z</time>
  <speed>3.690000</speed>
</trkpt>
<trkpt lat="32.882835388" lon="35.249309540">
  <ele>107.381470</ele>
  <time>2011-07-22T05:24:10Z</time>
  <speed>4.470000</speed>
</trkpt>
<trkpt lat="32.882892609" lon="35.249332428">
  <ele>107.596313</ele>
  <time>2011-07-22T05:24:11Z</time>
  <speed>4.540000</speed>
</trkpt>
<trkpt lat="32.882923126" lon="35.249355316">
  <ele>105.936157</ele>
  <time>2011-07-22T05:24:12Z</time>
  <speed>4.000000</speed>
</trkpt>
<trkpt lat="32.882942200" lon="35.249389648">
  <ele>104.815063</ele>
  <time>2011-07-22T05:24:13Z</time>
  <speed>4.380000</speed>
</trkpt>
<trkpt lat="32.882953644" lon="35.249439240">
  <ele>103.649048</ele>
  <time>2011-07-22T05:24:14Z</time>
  <speed>4.880000</speed>
</trkpt>
<trkpt lat="32.882965088" lon="35.249496460">
  <ele>103.162720</ele>
  <time>2011-07-22T05:24:15Z</time>
  <speed>5.460000</speed>
</trkpt>
<trkpt lat="32.882976532" lon="35.249549866">
  <ele>102.674438</ele>
  <time>2011-07-22T05:24:16Z</time>
  <speed>4.740000</speed>
</trkpt>
<trkpt lat="32.882991791" lon="35.249588013">
  <ele>101.434204</ele>
  <time>2011-07-22T05:24:17Z</time>
  <speed>3.640000</speed>
</trkpt>
<trkpt lat="32.883026123" lon="35.249610901">
  <ele>99.692017</ele>
  <time>2011-07-22T05:24:18Z</time>
  <speed>4.110000</speed>
</trkpt>
<trkpt lat="32.883056641" lon="35.249637604">
  <ele>98.418579</ele>
  <time>2011-07-22T05:24:19Z</time>
  <speed>4.470000</speed>
</trkpt>
<trkpt lat="32.883083344" lon="35.249656677">
  <ele>96.104126</ele>
  <time>2011-07-22T05:24:20Z</time>
  <speed>4.810000</speed>
</trkpt>
<trkpt lat="32.883125305" lon="35.249694824">
  <ele>95.236938</ele>
  <time>2011-07-22T05:24:21Z</time>
  <speed>5.870000</speed>
</trkpt>
<trkpt lat="32.883159637" lon="35.249721527">
  <ele>94.389282</ele>
  <time>2011-07-22T05:24:22Z</time>
  <speed>3.470000</speed>
</trkpt>
<trkpt lat="32.883197784" lon="35.249729156">
  <ele>93.942017</ele>
  <time>2011-07-22T05:24:23Z</time>
  <speed>4.430000</speed>
</trkpt>
<trkpt lat="32.883251190" lon="35.249736786">
  <ele>93.336548</ele>
  <time>2011-07-22T05:24:24Z</time>
  <speed>4.920000</speed>
</trkpt>
<trkpt lat="32.883296967" lon="35.249740601">
  <ele>92.395142</ele>
  <time>2011-07-22T05:24:25Z</time>
  <speed>4.840000</speed>
</trkpt>
<trkpt lat="32.883342743" lon="35.249732971">
  <ele>92.649048</ele>
  <time>2011-07-22T05:24:26Z</time>
  <speed>4.340000</speed>
</trkpt>
<trkpt lat="32.883373260" lon="35.249732971">
  <ele>92.358032</ele>
  <time>2011-07-22T05:24:27Z</time>
  <speed>2.060000</speed>
</trkpt>
<trkpt lat="32.883411407" lon="35.249736786">
  <ele>92.274048</ele>
  <time>2011-07-22T05:24:29Z</time>
  <speed>2.250000</speed>
</trkpt>
<trkpt lat="32.883434296" lon="35.249748230">
  <ele>92.104126</ele>
  <time>2011-07-22T05:24:30Z</time>
  <speed>3.040000</speed>
</trkpt>
<trkpt lat="32.883457184" lon="35.249774933">
  <ele>91.684204</ele>
  <time>2011-07-22T05:24:31Z</time>
  <speed>3.960000</speed>
</trkpt>
<trkpt lat="32.883483887" lon="35.249805450">
  <ele>91.443970</ele>
  <time>2011-07-22T05:24:32Z</time>
  <speed>4.410000</speed>
</trkpt>
<trkpt lat="32.883502960" lon="35.249847412">
  <ele>91.190063</ele>
  <time>2011-07-22T05:24:33Z</time>
  <speed>4.420000</speed>
</trkpt>
<trkpt lat="32.883518219" lon="35.249885559">
  <ele>90.086548</ele>
  <time>2011-07-22T05:24:34Z</time>
  <speed>4.040000</speed>
</trkpt>
<trkpt lat="32.883529663" lon="35.249927521">
  <ele>89.713501</ele>
  <time>2011-07-22T05:24:35Z</time>
  <speed>4.040000</speed>
</trkpt>
<trkpt lat="32.883525848" lon="35.249980927">
  <ele>89.688110</ele>
  <time>2011-07-22T05:24:36Z</time>
  <speed>3.290000</speed>
</trkpt>
<trkpt lat="32.883533478" lon="35.250011444">
  <ele>89.098267</ele>
  <time>2011-07-22T05:24:37Z</time>
  <speed>3.280000</speed>
</trkpt>
<trkpt lat="32.883544922" lon="35.250045776">
  <ele>88.217407</ele>
  <time>2011-07-22T05:24:38Z</time>
  <speed>3.650000</speed>
</trkpt>
<trkpt lat="32.883567810" lon="35.250083923">
  <ele>88.391235</ele>
  <time>2011-07-22T05:24:39Z</time>
  <speed>4.410000</speed>
</trkpt>
<trkpt lat="32.883579254" lon="35.250133514">
  <ele>88.602173</ele>
  <time>2011-07-22T05:24:40Z</time>
  <speed>4.140000</speed>
</trkpt>
<trkpt lat="32.883602142" lon="35.250171661">
  <ele>88.537720</ele>
  <time>2011-07-22T05:24:41Z</time>
  <speed>3.990000</speed>
</trkpt>
<trkpt lat="32.883621216" lon="35.250209808">
  <ele>87.746704</ele>
  <time>2011-07-22T05:24:42Z</time>
  <speed>4.300000</speed>
</trkpt>
<trkpt lat="32.883644104" lon="35.250240326">
  <ele>87.367798</ele>
  <time>2011-07-22T05:24:43Z</time>
  <speed>4.150000</speed>
</trkpt>
<trkpt lat="32.883674622" lon="35.250278473">
  <ele>87.193970</ele>
  <time>2011-07-22T05:24:44Z</time>
  <speed>4.220000</speed>
</trkpt>
<trkpt lat="32.883693695" lon="35.250312805">
  <ele>86.873657</ele>
  <time>2011-07-22T05:24:45Z</time>
  <speed>4.270000</speed>
</trkpt>
<trkpt lat="32.883724213" lon="35.250343323">
  <ele>85.885376</ele>
  <time>2011-07-22T05:24:46Z</time>
  <speed>4.140000</speed>
</trkpt>
<trkpt lat="32.883743286" lon="35.250381470">
  <ele>85.377563</ele>
  <time>2011-07-22T05:24:47Z</time>
  <speed>4.640000</speed>
</trkpt>
<trkpt lat="32.883769989" lon="35.250423431">
  <ele>84.049438</ele>
  <time>2011-07-22T05:24:48Z</time>
  <speed>5.050000</speed>
</trkpt>
<trkpt lat="32.883804321" lon="35.250469208">
  <ele>83.541626</ele>
  <time>2011-07-22T05:24:49Z</time>
  <speed>5.870000</speed>
</trkpt>
<trkpt lat="32.883842468" lon="35.250518799">
  <ele>83.172485</ele>
  <time>2011-07-22T05:24:50Z</time>
  <speed>6.200000</speed>
</trkpt>
<trkpt lat="32.883872986" lon="35.250568390">
  <ele>82.713501</ele>
  <time>2011-07-22T05:24:51Z</time>
  <speed>6.560000</speed>
</trkpt>
<trkpt lat="32.883907318" lon="35.250625610">
  <ele>81.906860</ele>
  <time>2011-07-22T05:24:52Z</time>
  <speed>5.840000</speed>
</trkpt>
<trkpt lat="32.883941650" lon="35.250675201">
  <ele>81.361938</ele>
  <time>2011-07-22T05:24:53Z</time>
  <speed>5.480000</speed>
</trkpt>
<trkpt lat="32.883972168" lon="35.250720978">
  <ele>80.283813</ele>
  <time>2011-07-22T05:24:54Z</time>
  <speed>5.480000</speed>
</trkpt>
<trkpt lat="32.884002686" lon="35.250762939">
  <ele>79.959595</ele>
  <time>2011-07-22T05:24:55Z</time>
  <speed>5.520000</speed>
</trkpt>
<trkpt lat="32.884033203" lon="35.250812531">
  <ele>79.861938</ele>
  <time>2011-07-22T05:24:56Z</time>
  <speed>5.060000</speed>
</trkpt>
<trkpt lat="32.884056091" lon="35.250850677">
  <ele>80.572876</ele>
  <time>2011-07-22T05:24:57Z</time>
  <speed>3.800000</speed>
</trkpt>
<trkpt lat="32.884059906" lon="35.250885010">
  <ele>81.012329</ele>
  <time>2011-07-22T05:24:58Z</time>
  <speed>3.270000</speed>
</trkpt>
<trkpt lat="32.884067535" lon="35.250919342">
  <ele>81.119751</ele>
  <time>2011-07-22T05:24:59Z</time>
  <speed>2.880000</speed>
</trkpt>
<trkpt lat="32.884082794" lon="35.250957489">
  <ele>81.602173</ele>
  <time>2011-07-22T05:25:01Z</time>
  <speed>1.890000</speed>
</trkpt>
<trkpt lat="32.884094238" lon="35.250988007">
  <ele>82.504517</ele>
  <time>2011-07-22T05:25:03Z</time>
  <speed>1.910000</speed>
</trkpt>
<trkpt lat="32.884090424" lon="35.251022339">
  <ele>82.789673</ele>
  <time>2011-07-22T05:25:05Z</time>
  <speed>2.150000</speed>
</trkpt>
<trkpt lat="32.884067535" lon="35.251049042">
  <ele>83.961548</ele>
  <time>2011-07-22T05:25:07Z</time>
  <speed>2.460000</speed>
</trkpt>
<trkpt lat="32.884025574" lon="35.251060486">
  <ele>84.080688</ele>
  <time>2011-07-22T05:25:09Z</time>
  <speed>2.330000</speed>
</trkpt>
<trkpt lat="32.883987427" lon="35.251075745">
  <ele>84.090454</ele>
  <time>2011-07-22T05:25:11Z</time>
  <speed>1.830000</speed>
</trkpt>
<trkpt lat="32.883964539" lon="35.251106262">
  <ele>84.772095</ele>
  <time>2011-07-22T05:25:14Z</time>
  <speed>1.430000</speed>
</trkpt>
<trkpt lat="32.883937836" lon="35.251129150">
  <ele>84.412720</ele>
  <time>2011-07-22T05:25:17Z</time>
  <speed>1.530000</speed>
</trkpt>
<trkpt lat="32.883911133" lon="35.251152039">
  <ele>84.596313</ele>
  <time>2011-07-22T05:25:20Z</time>
  <speed>1.330000</speed>
</trkpt>
<trkpt lat="32.883884430" lon="35.251171112">
  <ele>84.490845</ele>
  <time>2011-07-22T05:25:23Z</time>
  <speed>1.180000</speed>
</trkpt>
<trkpt lat="32.883857727" lon="35.251201630">
  <ele>84.875610</ele>
  <time>2011-07-22T05:25:26Z</time>
  <speed>1.480000</speed>
</trkpt>
<trkpt lat="32.883846283" lon="35.251232147">
  <ele>85.158813</ele>
  <time>2011-07-22T05:25:28Z</time>
  <speed>1.340000</speed>
</trkpt>
<trkpt lat="32.883853912" lon="35.251270294">
  <ele>84.738892</ele>
  <time>2011-07-22T05:25:30Z</time>
  <speed>1.620000</speed>
</trkpt>
<trkpt lat="32.883869171" lon="35.251296997">
  <ele>85.664673</ele>
  <time>2011-07-22T05:25:32Z</time>
  <speed>1.180000</speed>
</trkpt>
<trkpt lat="32.883899689" lon="35.251285553">
  <ele>85.295532</ele>
  <time>2011-07-22T05:25:35Z</time>
  <speed>1.060000</speed>
</trkpt>
<trkpt lat="32.883907318" lon="35.251255035">
  <ele>85.822876</ele>
  <time>2011-07-22T05:26:25Z</time>
  <speed>0.020000</speed>
</trkpt>
<trkpt lat="32.883926392" lon="35.251220703">
  <ele>86.572876</ele>
  <time>2011-07-22T05:26:28Z</time>
  <speed>0.110000</speed>
</trkpt>
<trkpt lat="32.883945465" lon="35.251205444">
  <ele>84.916626</ele>
  <time>2011-07-22T05:26:45Z</time>
</trkpt>
<trkpt lat="32.883914948" lon="35.251247406">
  <ele>85.240845</ele>
  <time>2011-07-22T05:28:49Z</time>
  <speed>0.490000</speed>
</trkpt>
<trkpt lat="32.883876801" lon="35.251274109">
  <ele>85.131470</ele>
  <time>2011-07-22T05:28:51Z</time>
  <speed>2.250000</speed>
</trkpt>
<trkpt lat="32.883857727" lon="35.251296997">
  <ele>84.940063</ele>
  <time>2011-07-22T05:28:52Z</time>
  <speed>1.840000</speed>
</trkpt>
<trkpt lat="32.883838654" lon="35.251338959">
  <ele>85.570923</ele>
  <time>2011-07-22T05:28:54Z</time>
  <speed>1.590000</speed>
</trkpt>
<trkpt lat="32.883808136" lon="35.251380920">
  <ele>85.629517</ele>
  <time>2011-07-22T05:28:56Z</time>
  <speed>2.020000</speed>
</trkpt>
<trkpt lat="32.883792877" lon="35.251430511">
  <ele>86.076782</ele>
  <time>2011-07-22T05:28:58Z</time>
  <speed>2.130000</speed>
</trkpt>
<trkpt lat="32.883792877" lon="35.251480103">
  <ele>86.520142</ele>
  <time>2011-07-22T05:29:00Z</time>
  <speed>1.920000</speed>
</trkpt>
<trkpt lat="32.883789063" lon="35.251522064">
  <ele>86.516235</ele>
  <time>2011-07-22T05:29:02Z</time>
  <speed>1.640000</speed>
</trkpt>
<trkpt lat="32.883777618" lon="35.251567841">
  <ele>87.170532</ele>
  <time>2011-07-22T05:29:04Z</time>
  <speed>1.770000</speed>
</trkpt>
<trkpt lat="32.883777618" lon="35.251602173">
  <ele>87.434204</ele>
  <time>2011-07-22T05:29:06Z</time>
  <speed>1.890000</speed>
</trkpt>
<trkpt lat="32.883766174" lon="35.251644135">
  <ele>87.631470</ele>
  <time>2011-07-22T05:29:08Z</time>
  <speed>1.970000</speed>
</trkpt>
<trkpt lat="32.883762360" lon="35.251682281">
  <ele>88.190063</ele>
  <time>2011-07-22T05:29:10Z</time>
  <speed>1.700000</speed>
</trkpt>
<trkpt lat="32.883758545" lon="35.251716614">
  <ele>88.336548</ele>
  <time>2011-07-22T05:29:12Z</time>
  <speed>1.620000</speed>
</trkpt>
<trkpt lat="32.883747101" lon="35.251754761">
  <ele>88.326782</ele>
  <time>2011-07-22T05:29:14Z</time>
  <speed>1.670000</speed>
</trkpt>
<trkpt lat="32.883724213" lon="35.251785278">
  <ele>88.141235</ele>
  <time>2011-07-22T05:29:16Z</time>
  <speed>1.930000</speed>
</trkpt>
<trkpt lat="32.883705139" lon="35.251811981">
  <ele>87.654907</ele>
  <time>2011-07-22T05:29:18Z</time>
  <speed>2.090000</speed>
</trkpt>
<trkpt lat="32.883678436" lon="35.251850128">
  <ele>88.067017</ele>
  <time>2011-07-22T05:29:20Z</time>
  <speed>2.090000</speed>
</trkpt>
<trkpt lat="32.883655548" lon="35.251892090">
  <ele>88.277954</ele>
  <time>2011-07-22T05:29:22Z</time>
  <speed>2.140000</speed>
</trkpt>
<trkpt lat="32.883625031" lon="35.251937866">
  <ele>88.293579</ele>
  <time>2011-07-22T05:29:25Z</time>
  <speed>2.340000</speed>
</trkpt>
<trkpt lat="32.883609772" lon="35.251972198">
  <ele>88.094360</ele>
  <time>2011-07-22T05:29:27Z</time>
  <speed>2.130000</speed>
</trkpt>
<trkpt lat="32.883594513" lon="35.252002716">
  <ele>88.221313</ele>
  <time>2011-07-22T05:29:29Z</time>
  <speed>1.700000</speed>
</trkpt>
<trkpt lat="32.883563995" lon="35.252040863">
  <ele>88.508423</ele>
  <time>2011-07-22T05:29:31Z</time>
  <speed>1.800000</speed>
</trkpt>
<trkpt lat="32.883556366" lon="35.252082825">
  <ele>88.297485</ele>
  <time>2011-07-22T05:29:33Z</time>
  <speed>1.960000</speed>
</trkpt>
<trkpt lat="32.883525848" lon="35.252128601">
  <ele>88.193970</ele>
  <time>2011-07-22T05:29:35Z</time>
  <speed>1.900000</speed>
</trkpt>
<trkpt lat="32.883533478" lon="35.252162933">
  <ele>88.822876</ele>
  <time>2011-07-22T05:29:37Z</time>
  <speed>1.940000</speed>
</trkpt>
<trkpt lat="32.883514404" lon="35.252204895">
  <ele>88.660767</ele>
  <time>2011-07-22T05:29:39Z</time>
  <speed>1.680000</speed>
</trkpt>
<trkpt lat="32.883522034" lon="35.252235413">
  <ele>89.358032</ele>
  <time>2011-07-22T05:29:41Z</time>
  <speed>1.750000</speed>
</trkpt>
<trkpt lat="32.883518219" lon="35.252273560">
  <ele>89.762329</ele>
  <time>2011-07-22T05:29:43Z</time>
  <speed>1.730000</speed>
</trkpt>
<trkpt lat="32.883499146" lon="35.252307892">
  <ele>89.826782</ele>
  <time>2011-07-22T05:29:45Z</time>
  <speed>1.930000</speed>
</trkpt>
<trkpt lat="32.883495331" lon="35.252353668">
  <ele>89.973267</ele>
  <time>2011-07-22T05:29:47Z</time>
  <speed>1.700000</speed>
</trkpt>
<trkpt lat="32.883476257" lon="35.252391815">
  <ele>91.049438</ele>
  <time>2011-07-22T05:29:49Z</time>
  <speed>1.650000</speed>
</trkpt>
<trkpt lat="32.883468628" lon="35.252441406">
  <ele>91.340454</ele>
  <time>2011-07-22T05:29:52Z</time>
  <speed>1.810000</speed>
</trkpt>
<trkpt lat="32.883453369" lon="35.252479553">
  <ele>91.385376</ele>
  <time>2011-07-22T05:29:54Z</time>
  <speed>1.620000</speed>
</trkpt>
<trkpt lat="32.883426666" lon="35.252498627">
  <ele>92.219360</ele>
  <time>2011-07-22T05:29:56Z</time>
  <speed>1.650000</speed>
</trkpt>
<trkpt lat="32.883415222" lon="35.252540588">
  <ele>92.666626</ele>
  <time>2011-07-22T05:29:58Z</time>
  <speed>1.590000</speed>
</trkpt>
<trkpt lat="32.883415222" lon="35.252586365">
  <ele>93.014282</ele>
  <time>2011-07-22T05:30:01Z</time>
  <speed>1.480000</speed>
</trkpt>
<trkpt lat="32.883399963" lon="35.252613068">
  <ele>93.328735</ele>
  <time>2011-07-22T05:30:03Z</time>
  <speed>1.580000</speed>
</trkpt>
<trkpt lat="32.883419037" lon="35.252651215">
  <ele>93.402954</ele>
  <time>2011-07-22T05:30:05Z</time>
  <speed>1.660000</speed>
</trkpt>
<trkpt lat="32.883407593" lon="35.252685547">
  <ele>93.613892</ele>
  <time>2011-07-22T05:30:07Z</time>
  <speed>1.800000</speed>
</trkpt>
<trkpt lat="32.883396149" lon="35.252723694">
  <ele>94.709595</ele>
  <time>2011-07-22T05:30:10Z</time>
  <speed>1.550000</speed>
</trkpt>
<trkpt lat="32.883388519" lon="35.252754211">
  <ele>95.551392</ele>
  <time>2011-07-22T05:30:12Z</time>
  <speed>1.740000</speed>
</trkpt>
<trkpt lat="32.883377075" lon="35.252796173">
  <ele>96.193970</ele>
  <time>2011-07-22T05:30:14Z</time>
  <speed>1.590000</speed>
</trkpt>
<trkpt lat="32.883369446" lon="35.252830505">
  <ele>96.225220</ele>
  <time>2011-07-22T05:30:16Z</time>
  <speed>1.550000</speed>
</trkpt>
<trkpt lat="32.883338928" lon="35.252861023">
  <ele>97.328735</ele>
  <time>2011-07-22T05:30:18Z</time>
  <speed>1.800000</speed>
</trkpt>
<trkpt lat="32.883316040" lon="35.252899170">
  <ele>97.861938</ele>
  <time>2011-07-22T05:30:20Z</time>
  <speed>1.610000</speed>
</trkpt>
<trkpt lat="32.883304596" lon="35.252925873">
  <ele>98.580688</ele>
  <time>2011-07-22T05:30:22Z</time>
  <speed>1.540000</speed>
</trkpt>
<trkpt lat="32.883285522" lon="35.252948761">
  <ele>98.783813</ele>
  <time>2011-07-22T05:30:24Z</time>
  <speed>1.400000</speed>
</trkpt>
<trkpt lat="32.883255005" lon="35.252960205">
  <ele>99.246704</ele>
  <time>2011-07-22T05:30:27Z</time>
  <speed>2.030000</speed>
</trkpt>
<trkpt lat="32.883197784" lon="35.252948761">
  <ele>100.498657</ele>
  <time>2011-07-22T05:30:29Z</time>
  <speed>2.020000</speed>
</trkpt>
<trkpt lat="32.883155823" lon="35.252902985">
  <ele>100.746704</ele>
  <time>2011-07-22T05:30:31Z</time>
  <speed>3.040000</speed>
</trkpt>
<trkpt lat="32.883163452" lon="35.252853394">
  <ele>100.422485</ele>
  <time>2011-07-22T05:30:33Z</time>
  <speed>2.310000</speed>
</trkpt>
<trkpt lat="32.883167267" lon="35.252799988">
  <ele>100.557251</ele>
  <time>2011-07-22T05:30:35Z</time>
  <speed>2.580000</speed>
</trkpt>
<trkpt lat="32.883178711" lon="35.252738953">
  <ele>100.401001</ele>
  <time>2011-07-22T05:30:37Z</time>
  <speed>2.640000</speed>
</trkpt>
<trkpt lat="32.883186340" lon="35.252704620">
  <ele>100.022095</ele>
  <time>2011-07-22T05:30:38Z</time>
  <speed>2.440000</speed>
</trkpt>
<trkpt lat="32.883197784" lon="35.252662659">
  <ele>101.356079</ele>
  <time>2011-07-22T05:30:40Z</time>
  <speed>1.570000</speed>
</trkpt>
<trkpt lat="32.883201599" lon="35.252616882">
  <ele>102.346313</ele>
  <time>2011-07-22T05:30:42Z</time>
  <speed>2.240000</speed>
</trkpt>
<trkpt lat="32.883213043" lon="35.252574921">
  <ele>102.604126</ele>
  <time>2011-07-22T05:30:44Z</time>
  <speed>2.440000</speed>
</trkpt>
<trkpt lat="32.883228302" lon="35.252517700">
  <ele>102.656860</ele>
  <time>2011-07-22T05:30:46Z</time>
  <speed>2.260000</speed>
</trkpt>
<trkpt lat="32.883235931" lon="35.252468109">
  <ele>102.113892</ele>
  <time>2011-07-22T05:30:48Z</time>
  <speed>2.290000</speed>
</trkpt>
<trkpt lat="32.883243561" lon="35.252410889">
  <ele>102.289673</ele>
  <time>2011-07-22T05:30:50Z</time>
  <speed>2.330000</speed>
</trkpt>
<trkpt lat="32.883251190" lon="35.252346039">
  <ele>103.354126</ele>
  <time>2011-07-22T05:30:52Z</time>
  <speed>2.200000</speed>
</trkpt>
<trkpt lat="32.883255005" lon="35.252300262">
  <ele>103.367798</ele>
  <time>2011-07-22T05:30:54Z</time>
  <speed>2.160000</speed>
</trkpt>
<trkpt lat="32.883262634" lon="35.252243042">
  <ele>103.477173</ele>
  <time>2011-07-22T05:30:56Z</time>
  <speed>2.440000</speed>
</trkpt>
<trkpt lat="32.883255005" lon="35.252208710">
  <ele>103.336548</ele>
  <time>2011-07-22T05:30:57Z</time>
  <speed>2.270000</speed>
</trkpt>
<trkpt lat="32.883258820" lon="35.252159119">
  <ele>103.344360</ele>
  <time>2011-07-22T05:30:59Z</time>
  <speed>1.980000</speed>
</trkpt>
<trkpt lat="32.883243561" lon="35.252120972">
  <ele>102.916626</ele>
  <time>2011-07-22T05:31:01Z</time>
  <speed>2.350000</speed>
</trkpt>
<trkpt lat="32.883220673" lon="35.252094269">
  <ele>102.510376</ele>
  <time>2011-07-22T05:31:03Z</time>
  <speed>2.210000</speed>
</trkpt>
<trkpt lat="32.883216858" lon="35.252044678">
  <ele>102.627563</ele>
  <time>2011-07-22T05:31:05Z</time>
  <speed>2.170000</speed>
</trkpt>
<trkpt lat="32.883216858" lon="35.251998901">
  <ele>103.688110</ele>
  <time>2011-07-22T05:31:07Z</time>
  <speed>2.070000</speed>
</trkpt>
<trkpt lat="32.883216858" lon="35.251953125">
  <ele>104.777954</ele>
  <time>2011-07-22T05:31:09Z</time>
  <speed>2.160000</speed>
</trkpt>
<trkpt lat="32.883220673" lon="35.251903534">
  <ele>105.123657</ele>
  <time>2011-07-22T05:31:11Z</time>
  <speed>2.050000</speed>
</trkpt>
<trkpt lat="32.883216858" lon="35.251861572">
  <ele>105.092407</ele>
  <time>2011-07-22T05:31:13Z</time>
  <speed>2.200000</speed>
</trkpt>
<trkpt lat="32.883216858" lon="35.251823425">
  <ele>105.217407</ele>
  <time>2011-07-22T05:31:15Z</time>
  <speed>2.120000</speed>
</trkpt>
<trkpt lat="32.883213043" lon="35.251792908">
  <ele>106.090454</ele>
  <time>2011-07-22T05:31:16Z</time>
  <speed>2.270000</speed>
</trkpt>
<trkpt lat="32.883213043" lon="35.251747131">
  <ele>106.172485</ele>
  <time>2011-07-22T05:31:18Z</time>
  <speed>2.250000</speed>
</trkpt>
<trkpt lat="32.883220673" lon="35.251716614">
  <ele>106.717407</ele>
  <time>2011-07-22T05:31:19Z</time>
  <speed>2.100000</speed>
</trkpt>
<trkpt lat="32.883209229" lon="35.251670837">
  <ele>107.840454</ele>
  <time>2011-07-22T05:31:21Z</time>
  <speed>2.190000</speed>
</trkpt>
<trkpt lat="32.883205414" lon="35.251625061">
  <ele>107.504517</ele>
  <time>2011-07-22T05:31:23Z</time>
  <speed>2.140000</speed>
</trkpt>
<trkpt lat="32.883197784" lon="35.251590729">
  <ele>107.645142</ele>
  <time>2011-07-22T05:31:25Z</time>
  <speed>2.330000</speed>
</trkpt>
<trkpt lat="32.883197784" lon="35.251541138">
  <ele>106.969360</ele>
  <time>2011-07-22T05:31:27Z</time>
  <speed>1.930000</speed>
</trkpt>
<trkpt lat="32.883186340" lon="35.251487732">
  <ele>106.315063</ele>
  <time>2011-07-22T05:31:29Z</time>
  <speed>2.070000</speed>
</trkpt>
<trkpt lat="32.883182526" lon="35.251445770">
  <ele>105.402954</ele>
  <time>2011-07-22T05:31:31Z</time>
  <speed>2.080000</speed>
</trkpt>
<trkpt lat="32.883193970" lon="35.251399994">
  <ele>105.422485</ele>
  <time>2011-07-22T05:31:33Z</time>
  <speed>2.040000</speed>
</trkpt>
<trkpt lat="32.883201599" lon="35.251358032">
  <ele>105.526001</ele>
  <time>2011-07-22T05:31:35Z</time>
  <speed>2.010000</speed>
</trkpt>
<trkpt lat="32.883201599" lon="35.251308441">
  <ele>105.215454</ele>
  <time>2011-07-22T05:31:37Z</time>
  <speed>2.650000</speed>
</trkpt>
<trkpt lat="32.883197784" lon="35.251274109">
  <ele>104.531860</ele>
  <time>2011-07-22T05:31:38Z</time>
  <speed>3.170000</speed>
</trkpt>
<trkpt lat="32.883197784" lon="35.251235962">
  <ele>104.334595</ele>
  <time>2011-07-22T05:31:39Z</time>
  <speed>3.350000</speed>
</trkpt>
<trkpt lat="32.883197784" lon="35.251201630">
  <ele>103.832642</ele>
  <time>2011-07-22T05:31:40Z</time>
  <speed>2.830000</speed>
</trkpt>
<trkpt lat="32.883197784" lon="35.251163483">
  <ele>103.537720</ele>
  <time>2011-07-22T05:31:41Z</time>
  <speed>3.650000</speed>
</trkpt>
<trkpt lat="32.883201599" lon="35.251121521">
  <ele>103.828735</ele>
  <time>2011-07-22T05:31:42Z</time>
  <speed>3.570000</speed>
</trkpt>
<trkpt lat="32.883197784" lon="35.251083374">
  <ele>103.760376</ele>
  <time>2011-07-22T05:31:43Z</time>
  <speed>3.810000</speed>
</trkpt>
<trkpt lat="32.883197784" lon="35.251045227">
  <ele>103.856079</ele>
  <time>2011-07-22T05:31:44Z</time>
  <speed>3.570000</speed>
</trkpt>
<trkpt lat="32.883190155" lon="35.251003265">
  <ele>103.606079</ele>
  <time>2011-07-22T05:31:45Z</time>
  <speed>3.970000</speed>
</trkpt>
<trkpt lat="32.883178711" lon="35.250965118">
  <ele>103.043579</ele>
  <time>2011-07-22T05:31:46Z</time>
  <speed>4.030000</speed>
</trkpt>
<trkpt lat="32.883155823" lon="35.250926971">
  <ele>102.108032</ele>
  <time>2011-07-22T05:31:47Z</time>
  <speed>4.360000</speed>
</trkpt>
<trkpt lat="32.883129120" lon="35.250885010">
  <ele>101.920532</ele>
  <time>2011-07-22T05:31:48Z</time>
  <speed>4.210000</speed>
</trkpt>
<trkpt lat="32.883113861" lon="35.250843048">
  <ele>102.108032</ele>
  <time>2011-07-22T05:31:49Z</time>
  <speed>3.920000</speed>
</trkpt>
<trkpt lat="32.883090973" lon="35.250812531">
  <ele>101.727173</ele>
  <time>2011-07-22T05:31:50Z</time>
  <speed>3.270000</speed>
</trkpt>
<trkpt lat="32.883083344" lon="35.250782013">
  <ele>102.031860</ele>
  <time>2011-07-22T05:31:51Z</time>
  <speed>3.480000</speed>
</trkpt>
<trkpt lat="32.883071899" lon="35.250747681">
  <ele>101.846313</ele>
  <time>2011-07-22T05:31:52Z</time>
  <speed>3.820000</speed>
</trkpt>
<trkpt lat="32.883064270" lon="35.250713348">
  <ele>101.840454</ele>
  <time>2011-07-22T05:31:53Z</time>
  <speed>3.600000</speed>
</trkpt>
<trkpt lat="32.883052826" lon="35.250671387">
  <ele>101.586548</ele>
  <time>2011-07-22T05:31:54Z</time>
  <speed>3.600000</speed>
</trkpt>
<trkpt lat="32.883045197" lon="35.250633240">
  <ele>101.736938</ele>
  <time>2011-07-22T05:31:55Z</time>
  <speed>3.580000</speed>
</trkpt>
<trkpt lat="32.883041382" lon="35.250591278">
  <ele>101.473267</ele>
  <time>2011-07-22T05:31:56Z</time>
  <speed>3.760000</speed>
</trkpt>
<trkpt lat="32.883033752" lon="35.250553131">
  <ele>101.629517</ele>
  <time>2011-07-22T05:31:57Z</time>
  <speed>3.840000</speed>
</trkpt>
<trkpt lat="32.883029938" lon="35.250514984">
  <ele>101.963501</ele>
  <time>2011-07-22T05:31:58Z</time>
  <speed>3.140000</speed>
</trkpt>
<trkpt lat="32.883029938" lon="35.250476837">
  <ele>102.330688</ele>
  <time>2011-07-22T05:31:59Z</time>
  <speed>2.500000</speed>
</trkpt>
<trkpt lat="32.883018494" lon="35.250427246">
  <ele>102.479126</ele>
  <time>2011-07-22T05:32:01Z</time>
  <speed>2.160000</speed>
</trkpt>
<trkpt lat="32.883010864" lon="35.250366211">
  <ele>102.873657</ele>
  <time>2011-07-22T05:32:03Z</time>
  <speed>2.900000</speed>
</trkpt>
<trkpt lat="32.883014679" lon="35.250316620">
  <ele>103.783813</ele>
  <time>2011-07-22T05:32:04Z</time>
  <speed>3.020000</speed>
</trkpt>
<trkpt lat="32.883010864" lon="35.250286102">
  <ele>104.238892</ele>
  <time>2011-07-22T05:32:05Z</time>
  <speed>3.280000</speed>
</trkpt>
<trkpt lat="32.882991791" lon="35.250232697">
  <ele>104.279907</ele>
  <time>2011-07-22T05:32:07Z</time>
  <speed>2.820000</speed>
</trkpt>
<trkpt lat="32.882984161" lon="35.250198364">
  <ele>104.531860</ele>
  <time>2011-07-22T05:32:08Z</time>
  <speed>2.400000</speed>
</trkpt>
<trkpt lat="32.882965088" lon="35.250144958">
  <ele>104.418579</ele>
  <time>2011-07-22T05:32:10Z</time>
  <speed>2.760000</speed>
</trkpt>
<trkpt lat="32.882946014" lon="35.250087738">
  <ele>104.856079</ele>
  <time>2011-07-22T05:32:12Z</time>
  <speed>2.710000</speed>
</trkpt>
<trkpt lat="32.882926941" lon="35.250041962">
  <ele>105.192017</ele>
  <time>2011-07-22T05:32:14Z</time>
  <speed>2.140000</speed>
</trkpt>
<trkpt lat="32.882900238" lon="35.250003815">
  <ele>105.957642</ele>
  <time>2011-07-22T05:32:16Z</time>
  <speed>2.060000</speed>
</trkpt>
<trkpt lat="32.882865906" lon="35.249965668">
  <ele>107.004517</ele>
  <time>2011-07-22T05:32:18Z</time>
  <speed>2.020000</speed>
</trkpt>
<trkpt lat="32.882839203" lon="35.249931335">
  <ele>108.129517</ele>
  <time>2011-07-22T05:32:20Z</time>
  <speed>1.890000</speed>
</trkpt>
<trkpt lat="32.882804871" lon="35.249919891">
  <ele>107.850220</ele>
  <time>2011-07-22T05:32:21Z</time>
  <speed>2.130000</speed>
</trkpt>
<trkpt lat="32.882774353" lon="35.249881744">
  <ele>108.692017</ele>
  <time>2011-07-22T05:32:23Z</time>
  <speed>1.970000</speed>
</trkpt>
<trkpt lat="32.882759094" lon="35.249843597">
  <ele>108.918579</ele>
  <time>2011-07-22T05:32:25Z</time>
  <speed>2.130000</speed>
</trkpt>
<trkpt lat="32.882740021" lon="35.249801636">
  <ele>109.942017</ele>
  <time>2011-07-22T05:32:27Z</time>
  <speed>2.290000</speed>
</trkpt>
<trkpt lat="32.882717133" lon="35.249752045">
  <ele>109.711548</ele>
  <time>2011-07-22T05:32:29Z</time>
  <speed>2.060000</speed>
</trkpt>
<trkpt lat="32.882701874" lon="35.249702454">
  <ele>109.481079</ele>
  <time>2011-07-22T05:32:31Z</time>
  <speed>2.210000</speed>
</trkpt>
<trkpt lat="32.882682800" lon="35.249660492">
  <ele>109.373657</ele>
  <time>2011-07-22T05:32:33Z</time>
  <speed>1.990000</speed>
</trkpt>
<trkpt lat="32.882656097" lon="35.249618530">
  <ele>109.238892</ele>
  <time>2011-07-22T05:32:35Z</time>
  <speed>2.750000</speed>
</trkpt>
<trkpt lat="32.882633209" lon="35.249568939">
  <ele>109.293579</ele>
  <time>2011-07-22T05:32:37Z</time>
  <speed>2.340000</speed>
</trkpt>
<trkpt lat="32.882621765" lon="35.249523163">
  <ele>109.162720</ele>
  <time>2011-07-22T05:32:39Z</time>
  <speed>2.140000</speed>
</trkpt>
<trkpt lat="32.882606506" lon="35.249481201">
  <ele>109.205688</ele>
  <time>2011-07-22T05:32:41Z</time>
  <speed>2.100000</speed>
</trkpt>
<trkpt lat="32.882583618" lon="35.249443054">
  <ele>109.248657</ele>
  <time>2011-07-22T05:32:43Z</time>
  <speed>1.820000</speed>
</trkpt>
<trkpt lat="32.882564545" lon="35.249412537">
  <ele>109.668579</ele>
  <time>2011-07-22T05:32:45Z</time>
  <speed>1.920000</speed>
</trkpt>
<trkpt lat="32.882522583" lon="35.249404907">
  <ele>111.244751</ele>
  <time>2011-07-22T05:32:46Z</time>
  <speed>2.380000</speed>
</trkpt>
<trkpt lat="32.882499695" lon="35.249370575">
  <ele>111.803345</ele>
  <time>2011-07-22T05:32:48Z</time>
  <speed>2.060000</speed>
</trkpt>
<trkpt lat="32.882476807" lon="35.249340057">
  <ele>112.906860</ele>
  <time>2011-07-22T05:32:50Z</time>
  <speed>1.900000</speed>
</trkpt>
<trkpt lat="32.882442474" lon="35.249328613">
  <ele>112.902954</ele>
  <time>2011-07-22T05:32:52Z</time>
  <speed>1.780000</speed>
</trkpt>
<trkpt lat="32.882396698" lon="35.249317169">
  <ele>114.127563</ele>
  <time>2011-07-22T05:32:54Z</time>
  <speed>1.910000</speed>
</trkpt>
<trkpt lat="32.882369995" lon="35.249286652">
  <ele>113.893188</ele>
  <time>2011-07-22T05:32:56Z</time>
  <speed>1.880000</speed>
</trkpt>
<trkpt lat="32.882339478" lon="35.249267578">
  <ele>114.506470</ele>
  <time>2011-07-22T05:32:58Z</time>
  <speed>1.610000</speed>
</trkpt>
<trkpt lat="32.882305145" lon="35.249244690">
  <ele>114.225220</ele>
  <time>2011-07-22T05:33:00Z</time>
  <speed>1.720000</speed>
</trkpt>
<trkpt lat="32.882259369" lon="35.249217987">
  <ele>114.541626</ele>
  <time>2011-07-22T05:33:02Z</time>
  <speed>2.070000</speed>
</trkpt>
<trkpt lat="32.882240295" lon="35.249187469">
  <ele>114.492798</ele>
  <time>2011-07-22T05:33:04Z</time>
  <speed>1.790000</speed>
</trkpt>
<trkpt lat="32.882217407" lon="35.249156952">
  <ele>114.274048</ele>
  <time>2011-07-22T05:33:06Z</time>
  <speed>1.710000</speed>
</trkpt>
<trkpt lat="32.882194519" lon="35.249130249">
  <ele>114.797485</ele>
  <time>2011-07-22T05:33:08Z</time>
  <speed>1.750000</speed>
</trkpt>
<trkpt lat="32.882190704" lon="35.249092102">
  <ele>114.777954</ele>
  <time>2011-07-22T05:33:10Z</time>
  <speed>1.620000</speed>
</trkpt>
<trkpt lat="32.882175446" lon="35.249065399">
  <ele>115.311157</ele>
  <time>2011-07-22T05:33:12Z</time>
  <speed>1.780000</speed>
</trkpt>
<trkpt lat="32.882129669" lon="35.249050140">
  <ele>115.129517</ele>
  <time>2011-07-22T05:33:15Z</time>
  <speed>1.450000</speed>
</trkpt>
<trkpt lat="32.882102966" lon="35.249031067">
  <ele>115.182251</ele>
  <time>2011-07-22T05:33:17Z</time>
  <speed>1.450000</speed>
</trkpt>
<trkpt lat="32.882080078" lon="35.249008179">
  <ele>115.166626</ele>
  <time>2011-07-22T05:33:19Z</time>
  <speed>1.340000</speed>
</trkpt>
<trkpt lat="32.882064819" lon="35.248970032">
  <ele>116.115845</ele>
  <time>2011-07-22T05:33:22Z</time>
  <speed>1.340000</speed>
</trkpt>
<trkpt lat="32.882038116" lon="35.248962402">
  <ele>115.715454</ele>
  <time>2011-07-22T05:33:23Z</time>
  <speed>1.610000</speed>
</trkpt>
<trkpt lat="32.882007599" lon="35.248950958">
  <ele>115.270142</ele>
  <time>2011-07-22T05:33:24Z</time>
  <speed>1.670000</speed>
</trkpt>
<trkpt lat="32.881977081" lon="35.248958588">
  <ele>115.662720</ele>
  <time>2011-07-22T05:33:25Z</time>
  <speed>1.410000</speed>
</trkpt>
<trkpt lat="32.881950378" lon="35.248935699">
  <ele>116.246704</ele>
  <time>2011-07-22T05:33:27Z</time>
  <speed>1.460000</speed>
</trkpt>
<trkpt lat="32.881927490" lon="35.248920441">
  <ele>115.750610</ele>
  <time>2011-07-22T05:33:28Z</time>
  <speed>1.700000</speed>
</trkpt>
<trkpt lat="32.881896973" lon="35.248897552">
  <ele>117.123657</ele>
  <time>2011-07-22T05:33:30Z</time>
  <speed>1.810000</speed>
</trkpt>
<trkpt lat="32.881904602" lon="35.248867035">
  <ele>118.238892</ele>
  <time>2011-07-22T05:33:31Z</time>
  <speed>1.630000</speed>
</trkpt>
<trkpt lat="32.881893158" lon="35.248828888">
  <ele>119.477173</ele>
  <time>2011-07-22T05:33:33Z</time>
  <speed>1.430000</speed>
</trkpt>
<trkpt lat="32.881874084" lon="35.248806000">
  <ele>120.967407</ele>
  <time>2011-07-22T05:33:35Z</time>
  <speed>1.340000</speed>
</trkpt>
<trkpt lat="32.881862640" lon="35.248779297">
  <ele>121.658813</ele>
  <time>2011-07-22T05:33:37Z</time>
  <speed>1.560000</speed>
</trkpt>
<trkpt lat="32.881835938" lon="35.248760223">
  <ele>123.022095</ele>
  <time>2011-07-22T05:33:39Z</time>
  <speed>1.440000</speed>
</trkpt>
<trkpt lat="32.881797791" lon="35.248741150">
  <ele>124.568970</ele>
  <time>2011-07-22T05:33:41Z</time>
  <speed>1.920000</speed>
</trkpt>
<trkpt lat="32.881763458" lon="35.248725891">
  <ele>125.381470</ele>
  <time>2011-07-22T05:33:43Z</time>
  <speed>1.670000</speed>
</trkpt>
<trkpt lat="32.881740570" lon="35.248703003">
  <ele>126.084595</ele>
  <time>2011-07-22T05:33:45Z</time>
  <speed>1.460000</speed>
</trkpt>
<trkpt lat="32.881725311" lon="35.248672485">
  <ele>126.424438</ele>
  <time>2011-07-22T05:33:47Z</time>
  <speed>1.610000</speed>
</trkpt>
<trkpt lat="32.881706238" lon="35.248630524">
  <ele>126.924438</ele>
  <time>2011-07-22T05:33:50Z</time>
  <speed>1.270000</speed>
</trkpt>
<trkpt lat="32.881713867" lon="35.248600006">
  <ele>128.286377</ele>
  <time>2011-07-22T05:33:52Z</time>
  <speed>1.480000</speed>
</trkpt>
<trkpt lat="32.881717682" lon="35.248569489">
  <ele>128.583252</ele>
  <time>2011-07-22T05:33:53Z</time>
  <speed>1.560000</speed>
</trkpt>
<trkpt lat="32.881713867" lon="35.248538971">
  <ele>129.630127</ele>
  <time>2011-07-22T05:33:55Z</time>
  <speed>1.310000</speed>
</trkpt>
<trkpt lat="32.881736755" lon="35.248508453">
  <ele>129.469971</ele>
  <time>2011-07-22T05:33:58Z</time>
  <speed>1.750000</speed>
</trkpt>
<trkpt lat="32.881778717" lon="35.248489380">
  <ele>129.454346</ele>
  <time>2011-07-22T05:34:00Z</time>
  <speed>1.800000</speed>
</trkpt>
<trkpt lat="32.881809235" lon="35.248470306">
  <ele>129.930908</ele>
  <time>2011-07-22T05:34:02Z</time>
  <speed>1.520000</speed>
</trkpt>
<trkpt lat="32.881839752" lon="35.248466492">
  <ele>130.427002</ele>
  <time>2011-07-22T05:34:04Z</time>
  <speed>1.250000</speed>
</trkpt>
<trkpt lat="32.881874084" lon="35.248458862">
  <ele>130.719971</ele>
  <time>2011-07-22T05:34:07Z</time>
  <speed>1.490000</speed>
</trkpt>
<trkpt lat="32.881919861" lon="35.248455048">
  <ele>131.005127</ele>
  <time>2011-07-22T05:34:09Z</time>
  <speed>1.730000</speed>
</trkpt>
<trkpt lat="32.881954193" lon="35.248470306">
  <ele>130.880127</ele>
  <time>2011-07-22T05:34:11Z</time>
  <speed>1.510000</speed>
</trkpt>
<trkpt lat="32.881992340" lon="35.248474121">
  <ele>130.622314</ele>
  <time>2011-07-22T05:34:13Z</time>
  <speed>1.510000</speed>
</trkpt>
<trkpt lat="32.882026672" lon="35.248462677">
  <ele>130.239502</ele>
  <time>2011-07-22T05:34:15Z</time>
  <speed>1.720000</speed>
</trkpt>
<trkpt lat="32.882068634" lon="35.248462677">
  <ele>130.212158</ele>
  <time>2011-07-22T05:34:17Z</time>
  <speed>1.730000</speed>
</trkpt>
<trkpt lat="32.882095337" lon="35.248458862">
  <ele>130.790283</ele>
  <time>2011-07-22T05:34:19Z</time>
  <speed>1.610000</speed>
</trkpt>
<trkpt lat="32.882133484" lon="35.248451233">
  <ele>131.606689</ele>
  <time>2011-07-22T05:34:21Z</time>
  <speed>1.370000</speed>
</trkpt>
<trkpt lat="32.882164001" lon="35.248447418">
  <ele>133.587158</ele>
  <time>2011-07-22T05:34:24Z</time>
  <speed>1.620000</speed>
</trkpt>
<trkpt lat="32.882202148" lon="35.248443604">
  <ele>133.516846</ele>
  <time>2011-07-22T05:34:27Z</time>
  <speed>1.370000</speed>
</trkpt>
<trkpt lat="32.882240295" lon="35.248420715">
  <ele>133.427002</ele>
  <time>2011-07-22T05:34:30Z</time>
  <speed>1.880000</speed>
</trkpt>
<trkpt lat="32.882282257" lon="35.248413086">
  <ele>133.009033</ele>
  <time>2011-07-22T05:34:32Z</time>
  <speed>1.450000</speed>
</trkpt>
<trkpt lat="32.882320404" lon="35.248405457">
  <ele>133.774658</ele>
  <time>2011-07-22T05:34:34Z</time>
  <speed>1.510000</speed>
</trkpt>
<trkpt lat="32.882350922" lon="35.248409271">
  <ele>134.614502</ele>
  <time>2011-07-22T05:34:36Z</time>
  <speed>1.800000</speed>
</trkpt>
<trkpt lat="32.882381439" lon="35.248409271">
  <ele>134.548096</ele>
  <time>2011-07-22T05:34:38Z</time>
  <speed>1.520000</speed>
</trkpt>
<trkpt lat="32.882404327" lon="35.248394012">
  <ele>136.266846</ele>
  <time>2011-07-22T05:34:40Z</time>
  <speed>1.580000</speed>
</trkpt>
<trkpt lat="32.882434845" lon="35.248378754">
  <ele>136.899658</ele>
  <time>2011-07-22T05:34:42Z</time>
  <speed>1.600000</speed>
</trkpt>
<trkpt lat="32.882465363" lon="35.248374939">
  <ele>136.805908</ele>
  <time>2011-07-22T05:34:44Z</time>
  <speed>1.510000</speed>
</trkpt>
<trkpt lat="32.882503510" lon="35.248363495">
  <ele>136.177002</ele>
  <time>2011-07-22T05:34:46Z</time>
  <speed>1.680000</speed>
</trkpt>
<trkpt lat="32.882541656" lon="35.248359680">
  <ele>136.290283</ele>
  <time>2011-07-22T05:34:49Z</time>
  <speed>1.670000</speed>
</trkpt>
<trkpt lat="32.882568359" lon="35.248344421">
  <ele>135.755127</ele>
  <time>2011-07-22T05:34:51Z</time>
  <speed>1.590000</speed>
</trkpt>
<trkpt lat="32.882595062" lon="35.248336792">
  <ele>135.485596</ele>
  <time>2011-07-22T05:34:53Z</time>
  <speed>1.570000</speed>
</trkpt>
<trkpt lat="32.882637024" lon="35.248332977">
  <ele>135.524658</ele>
  <time>2011-07-22T05:34:56Z</time>
  <speed>1.510000</speed>
</trkpt>
<trkpt lat="32.882659912" lon="35.248317719">
  <ele>135.208252</ele>
  <time>2011-07-22T05:34:59Z</time>
  <speed>1.640000</speed>
</trkpt>
<trkpt lat="32.882686615" lon="35.248306274">
  <ele>135.009033</ele>
  <time>2011-07-22T05:35:01Z</time>
  <speed>1.360000</speed>
</trkpt>
<trkpt lat="32.882720947" lon="35.248302460">
  <ele>135.794189</ele>
  <time>2011-07-22T05:35:03Z</time>
  <speed>1.790000</speed>
</trkpt>
<trkpt lat="32.882766724" lon="35.248298645">
  <ele>136.091064</ele>
  <time>2011-07-22T05:35:06Z</time>
  <speed>1.750000</speed>
</trkpt>
<trkpt lat="32.882801056" lon="35.248287201">
  <ele>137.075439</ele>
  <time>2011-07-22T05:35:08Z</time>
  <speed>1.390000</speed>
</trkpt>
<trkpt lat="32.882839203" lon="35.248279572">
  <ele>137.641846</ele>
  <time>2011-07-22T05:35:11Z</time>
  <speed>1.430000</speed>
</trkpt>
<trkpt lat="32.882873535" lon="35.248283386">
  <ele>138.219971</ele>
  <time>2011-07-22T05:35:15Z</time>
  <speed>1.310000</speed>
</trkpt>
<trkpt lat="32.882911682" lon="35.248264313">
  <ele>138.844971</ele>
  <time>2011-07-22T05:35:17Z</time>
  <speed>1.830000</speed>
</trkpt>
<trkpt lat="32.882942200" lon="35.248241425">
  <ele>139.606689</ele>
  <time>2011-07-22T05:35:19Z</time>
  <speed>1.780000</speed>
</trkpt>
<trkpt lat="32.882976532" lon="35.248199463">
  <ele>140.372314</ele>
  <time>2011-07-22T05:35:22Z</time>
  <speed>1.660000</speed>
</trkpt>
<trkpt lat="32.883003235" lon="35.248176575">
  <ele>140.708252</ele>
  <time>2011-07-22T05:35:24Z</time>
  <speed>1.350000</speed>
</trkpt>
<trkpt lat="32.883029938" lon="35.248168945">
  <ele>141.473877</ele>
  <time>2011-07-22T05:35:26Z</time>
  <speed>1.560000</speed>
</trkpt>
<trkpt lat="32.883060455" lon="35.248134613">
  <ele>140.985596</ele>
  <time>2011-07-22T05:35:29Z</time>
  <speed>1.500000</speed>
</trkpt>
<trkpt lat="32.883090973" lon="35.248119354">
  <ele>140.036377</ele>
  <time>2011-07-22T05:35:32Z</time>
  <speed>1.510000</speed>
</trkpt>
<trkpt lat="32.883132935" lon="35.248115540">
  <ele>140.219971</ele>
  <time>2011-07-22T05:35:35Z</time>
  <speed>1.440000</speed>
</trkpt>
<trkpt lat="32.883159637" lon="35.248100281">
  <ele>140.290283</ele>
  <time>2011-07-22T05:35:37Z</time>
  <speed>1.500000</speed>
</trkpt>
<trkpt lat="32.883193970" lon="35.248081207">
  <ele>140.884033</ele>
  <time>2011-07-22T05:35:40Z</time>
  <speed>1.550000</speed>
</trkpt>
<trkpt lat="32.883220673" lon="35.248065948">
  <ele>140.739502</ele>
  <time>2011-07-22T05:35:42Z</time>
  <speed>1.440000</speed>
</trkpt>
<trkpt lat="32.883247375" lon="35.248043060">
  <ele>141.380127</ele>
  <time>2011-07-22T05:35:45Z</time>
  <speed>1.570000</speed>
</trkpt>
<trkpt lat="32.883266449" lon="35.248012543">
  <ele>141.665283</ele>
  <time>2011-07-22T05:35:47Z</time>
  <speed>1.900000</speed>
</trkpt>
<trkpt lat="32.883281708" lon="35.247974396">
  <ele>142.298096</ele>
  <time>2011-07-22T05:35:49Z</time>
  <speed>1.440000</speed>
</trkpt>
<trkpt lat="32.883304596" lon="35.247947693">
  <ele>141.966064</ele>
  <time>2011-07-22T05:35:52Z</time>
  <speed>1.530000</speed>
</trkpt>
<trkpt lat="32.883304596" lon="35.247905731">
  <ele>142.524658</ele>
  <time>2011-07-22T05:35:55Z</time>
  <speed>1.350000</speed>
</trkpt>
<trkpt lat="32.883304596" lon="35.247867584">
  <ele>142.442627</ele>
  <time>2011-07-22T05:35:57Z</time>
  <speed>1.640000</speed>
</trkpt>
<trkpt lat="32.883304596" lon="35.247829437">
  <ele>142.598877</ele>
  <time>2011-07-22T05:35:59Z</time>
  <speed>1.440000</speed>
</trkpt>
<trkpt lat="32.883293152" lon="35.247795105">
  <ele>143.305908</ele>
  <time>2011-07-22T05:36:02Z</time>
  <speed>1.400000</speed>
</trkpt>
<trkpt lat="32.883293152" lon="35.247753143">
  <ele>143.755127</ele>
  <time>2011-07-22T05:36:04Z</time>
  <speed>1.340000</speed>
</trkpt>
<trkpt lat="32.883285522" lon="35.247722626">
  <ele>143.719971</ele>
  <time>2011-07-22T05:36:06Z</time>
  <speed>1.500000</speed>
</trkpt>
<trkpt lat="32.883281708" lon="35.247684479">
  <ele>144.005127</ele>
  <time>2011-07-22T05:36:08Z</time>
  <speed>1.710000</speed>
</trkpt>
<trkpt lat="32.883281708" lon="35.247638702">
  <ele>144.114502</ele>
  <time>2011-07-22T05:36:11Z</time>
  <speed>1.620000</speed>
</trkpt>
<trkpt lat="32.883277893" lon="35.247596741">
  <ele>144.708252</ele>
  <time>2011-07-22T05:36:13Z</time>
  <speed>1.500000</speed>
</trkpt>
<trkpt lat="32.883285522" lon="35.247554779">
  <ele>145.016846</ele>
  <time>2011-07-22T05:36:16Z</time>
  <speed>1.460000</speed>
</trkpt>
<trkpt lat="32.883274078" lon="35.247512817">
  <ele>145.802002</ele>
  <time>2011-07-22T05:36:19Z</time>
  <speed>1.250000</speed>
</trkpt>
<trkpt lat="32.883270264" lon="35.247470856">
  <ele>146.024658</ele>
  <time>2011-07-22T05:36:22Z</time>
  <speed>1.660000</speed>
</trkpt>
<trkpt lat="32.883258820" lon="35.247432709">
  <ele>145.657471</ele>
  <time>2011-07-22T05:36:24Z</time>
  <speed>1.430000</speed>
</trkpt>
<trkpt lat="32.883235931" lon="35.247394562">
  <ele>146.278564</ele>
  <time>2011-07-22T05:36:27Z</time>
  <speed>1.550000</speed>
</trkpt>
<trkpt lat="32.883224487" lon="35.247348785">
  <ele>146.509033</ele>
  <time>2011-07-22T05:36:30Z</time>
  <speed>1.270000</speed>
</trkpt>
<trkpt lat="32.883201599" lon="35.247322083">
  <ele>146.434814</ele>
  <time>2011-07-22T05:36:33Z</time>
  <speed>1.350000</speed>
</trkpt>
<trkpt lat="32.883178711" lon="35.247291565">
  <ele>147.333252</ele>
  <time>2011-07-22T05:36:36Z</time>
  <speed>1.200000</speed>
</trkpt>
<trkpt lat="32.883171082" lon="35.247253418">
  <ele>147.575439</ele>
  <time>2011-07-22T05:36:39Z</time>
  <speed>1.370000</speed>
</trkpt>
<trkpt lat="32.883152008" lon="35.247230530">
  <ele>148.067627</ele>
  <time>2011-07-22T05:36:41Z</time>
  <speed>1.580000</speed>
</trkpt>
<trkpt lat="32.883129120" lon="35.247192383">
  <ele>148.247314</ele>
  <time>2011-07-22T05:36:44Z</time>
  <speed>1.460000</speed>
</trkpt>
<trkpt lat="32.883113861" lon="35.247169495">
  <ele>148.762939</ele>
  <time>2011-07-22T05:36:46Z</time>
  <speed>1.430000</speed>
</trkpt>
<trkpt lat="32.883087158" lon="35.247154236">
  <ele>148.946533</ele>
  <time>2011-07-22T05:36:48Z</time>
  <speed>1.440000</speed>
</trkpt>
<trkpt lat="32.883060455" lon="35.247119904">
  <ele>149.329346</ele>
  <time>2011-07-22T05:36:51Z</time>
  <speed>1.670000</speed>
</trkpt>
<trkpt lat="32.883045197" lon="35.247089386">
  <ele>149.739502</ele>
  <time>2011-07-22T05:36:53Z</time>
  <speed>1.860000</speed>
</trkpt>
<trkpt lat="32.883029938" lon="35.247051239">
  <ele>150.157471</ele>
  <time>2011-07-22T05:36:55Z</time>
  <speed>1.600000</speed>
</trkpt>
<trkpt lat="32.883010864" lon="35.247020721">
  <ele>150.509033</ele>
  <time>2011-07-22T05:36:57Z</time>
  <speed>1.520000</speed>
</trkpt>
<trkpt lat="32.882995605" lon="35.246990204">
  <ele>150.329346</ele>
  <time>2011-07-22T05:36:59Z</time>
  <speed>1.690000</speed>
</trkpt>
<trkpt lat="32.882980347" lon="35.246952057">
  <ele>150.544189</ele>
  <time>2011-07-22T05:37:01Z</time>
  <speed>1.650000</speed>
</trkpt>
<trkpt lat="32.882957458" lon="35.246921539">
  <ele>150.212158</ele>
  <time>2011-07-22T05:37:03Z</time>
  <speed>1.670000</speed>
</trkpt>
<trkpt lat="32.882942200" lon="35.246883392">
  <ele>150.048096</ele>
  <time>2011-07-22T05:37:05Z</time>
  <speed>2.010000</speed>
</trkpt>
<trkpt lat="32.882923126" lon="35.246849060">
  <ele>150.071533</ele>
  <time>2011-07-22T05:37:07Z</time>
  <speed>2.020000</speed>
</trkpt>
<trkpt lat="32.882900238" lon="35.246814728">
  <ele>149.790283</ele>
  <time>2011-07-22T05:37:09Z</time>
  <speed>2.230000</speed>
</trkpt>
<trkpt lat="32.882884979" lon="35.246772766">
  <ele>148.981689</ele>
  <time>2011-07-22T05:37:11Z</time>
  <speed>1.950000</speed>
</trkpt>
<trkpt lat="32.882858276" lon="35.246742249">
  <ele>149.669189</ele>
  <time>2011-07-22T05:37:13Z</time>
  <speed>2.180000</speed>
</trkpt>
<trkpt lat="32.882835388" lon="35.246692657">
  <ele>150.001221</ele>
  <time>2011-07-22T05:37:15Z</time>
  <speed>2.500000</speed>
</trkpt>
<trkpt lat="32.882808685" lon="35.246643066">
  <ele>150.333252</ele>
  <time>2011-07-22T05:37:17Z</time>
  <speed>2.720000</speed>
</trkpt>
<trkpt lat="32.882797241" lon="35.246616364">
  <ele>150.024658</ele>
  <time>2011-07-22T05:37:18Z</time>
  <speed>3.120000</speed>
</trkpt>
<trkpt lat="32.882781982" lon="35.246582031">
  <ele>150.012939</ele>
  <time>2011-07-22T05:37:19Z</time>
  <speed>3.380000</speed>
</trkpt>
<trkpt lat="32.882762909" lon="35.246551514">
  <ele>149.751221</ele>
  <time>2011-07-22T05:37:20Z</time>
  <speed>3.640000</speed>
</trkpt>
<trkpt lat="32.882740021" lon="35.246517181">
  <ele>149.055908</ele>
  <time>2011-07-22T05:37:21Z</time>
  <speed>4.010000</speed>
</trkpt>
<trkpt lat="32.882717133" lon="35.246482849">
  <ele>148.591064</ele>
  <time>2011-07-22T05:37:22Z</time>
  <speed>4.360000</speed>
</trkpt>
<trkpt lat="32.882690430" lon="35.246448517">
  <ele>148.575439</ele>
  <time>2011-07-22T05:37:23Z</time>
  <speed>4.230000</speed>
</trkpt>
<trkpt lat="32.882667542" lon="35.246421814">
  <ele>148.786377</ele>
  <time>2011-07-22T05:37:24Z</time>
  <speed>3.690000</speed>
</trkpt>
<trkpt lat="32.882648468" lon="35.246391296">
  <ele>148.645752</ele>
  <time>2011-07-22T05:37:25Z</time>
  <speed>3.140000</speed>
</trkpt>
<trkpt lat="32.882625580" lon="35.246356964">
  <ele>148.716064</ele>
  <time>2011-07-22T05:37:27Z</time>
  <speed>2.020000</speed>
</trkpt>
<trkpt lat="32.882598877" lon="35.246341705">
  <ele>148.255127</ele>
  <time>2011-07-22T05:37:29Z</time>
  <speed>1.770000</speed>
</trkpt>
<trkpt lat="32.882568359" lon="35.246326447">
  <ele>149.032471</ele>
  <time>2011-07-22T05:37:31Z</time>
  <speed>1.680000</speed>
</trkpt>
<trkpt lat="32.882537842" lon="35.246303558">
  <ele>150.149658</ele>
  <time>2011-07-22T05:37:33Z</time>
  <speed>1.770000</speed>
</trkpt>
<trkpt lat="32.882511139" lon="35.246280670">
  <ele>151.067627</ele>
  <time>2011-07-22T05:37:35Z</time>
  <speed>1.860000</speed>
</trkpt>
<trkpt lat="32.882472992" lon="35.246253967">
  <ele>152.387939</ele>
  <time>2011-07-22T05:37:37Z</time>
  <speed>1.610000</speed>
</trkpt>
<trkpt lat="32.882453918" lon="35.246231079">
  <ele>152.759033</ele>
  <time>2011-07-22T05:37:39Z</time>
  <speed>1.740000</speed>
</trkpt>
<trkpt lat="32.882423401" lon="35.246204376">
  <ele>153.341064</ele>
  <time>2011-07-22T05:37:41Z</time>
  <speed>1.640000</speed>
</trkpt>
<trkpt lat="32.882396698" lon="35.246181488">
  <ele>153.122314</ele>
  <time>2011-07-22T05:37:43Z</time>
  <speed>1.780000</speed>
</trkpt>
<trkpt lat="32.882381439" lon="35.246154785">
  <ele>153.692627</ele>
  <time>2011-07-22T05:37:45Z</time>
  <speed>1.700000</speed>
</trkpt>
<trkpt lat="32.882362366" lon="35.246124268">
  <ele>153.958252</ele>
  <time>2011-07-22T05:37:48Z</time>
  <speed>1.600000</speed>
</trkpt>
<trkpt lat="32.882339478" lon="35.246097565">
  <ele>153.887939</ele>
  <time>2011-07-22T05:37:50Z</time>
  <speed>1.490000</speed>
</trkpt>
<trkpt lat="32.882312775" lon="35.246067047">
  <ele>154.567627</ele>
  <time>2011-07-22T05:37:53Z</time>
  <speed>1.420000</speed>
</trkpt>
<trkpt lat="32.882293701" lon="35.246044159">
  <ele>154.966064</ele>
  <time>2011-07-22T05:37:55Z</time>
  <speed>1.710000</speed>
</trkpt>
<trkpt lat="32.882278442" lon="35.246009827">
  <ele>155.411377</ele>
  <time>2011-07-22T05:37:57Z</time>
  <speed>1.520000</speed>
</trkpt>
<trkpt lat="32.882251740" lon="35.245979309">
  <ele>156.786377</ele>
  <time>2011-07-22T05:38:00Z</time>
  <speed>1.310000</speed>
</trkpt>
<trkpt lat="32.882232666" lon="35.245948792">
  <ele>156.876221</ele>
  <time>2011-07-22T05:38:02Z</time>
  <speed>1.670000</speed>
</trkpt>
<trkpt lat="32.882217407" lon="35.245922089">
  <ele>156.930908</ele>
  <time>2011-07-22T05:38:04Z</time>
  <speed>1.710000</speed>
</trkpt>
<trkpt lat="32.882198334" lon="35.245891571">
  <ele>156.891846</ele>
  <time>2011-07-22T05:38:06Z</time>
  <speed>1.760000</speed>
</trkpt>
<trkpt lat="32.882179260" lon="35.245853424">
  <ele>157.887939</ele>
  <time>2011-07-22T05:38:08Z</time>
  <speed>1.740000</speed>
</trkpt>
<trkpt lat="32.882167816" lon="35.245822906">
  <ele>158.352783</ele>
  <time>2011-07-22T05:38:10Z</time>
  <speed>1.740000</speed>
</trkpt>
<trkpt lat="32.882148743" lon="35.245796204">
  <ele>158.462158</ele>
  <time>2011-07-22T05:38:12Z</time>
  <speed>1.340000</speed>
</trkpt>
<trkpt lat="32.882129669" lon="35.245769501">
  <ele>158.473877</ele>
  <time>2011-07-22T05:38:14Z</time>
  <speed>1.610000</speed>
</trkpt>
<trkpt lat="32.882106781" lon="35.245754242">
  <ele>158.329346</ele>
  <time>2011-07-22T05:38:16Z</time>
  <speed>1.860000</speed>
</trkpt>
<trkpt lat="32.882080078" lon="35.245738983">
  <ele>159.180908</ele>
  <time>2011-07-22T05:38:17Z</time>
  <speed>1.970000</speed>
</trkpt>
<trkpt lat="32.882053375" lon="35.245704651">
  <ele>159.161377</ele>
  <time>2011-07-22T05:38:20Z</time>
  <speed>1.800000</speed>
</trkpt>
<trkpt lat="32.882026672" lon="35.245681763">
  <ele>159.184814</ele>
  <time>2011-07-22T05:38:22Z</time>
  <speed>1.770000</speed>
</trkpt>
<trkpt lat="32.881999969" lon="35.245647430">
  <ele>159.548096</ele>
  <time>2011-07-22T05:38:25Z</time>
  <speed>1.580000</speed>
</trkpt>
<trkpt lat="32.881977081" lon="35.245620728">
  <ele>160.219971</ele>
  <time>2011-07-22T05:38:27Z</time>
  <speed>1.360000</speed>
</trkpt>
<trkpt lat="32.881958008" lon="35.245582581">
  <ele>160.216064</ele>
  <time>2011-07-22T05:38:30Z</time>
  <speed>1.730000</speed>
</trkpt>
<trkpt lat="32.881927490" lon="35.245567322">
  <ele>161.087158</ele>
  <time>2011-07-22T05:38:32Z</time>
  <speed>1.550000</speed>
</trkpt>
<trkpt lat="32.881923676" lon="35.245532990">
  <ele>161.524658</ele>
  <time>2011-07-22T05:38:34Z</time>
  <speed>1.500000</speed>
</trkpt>
<trkpt lat="32.881912231" lon="35.245502472">
  <ele>161.997314</ele>
  <time>2011-07-22T05:38:36Z</time>
  <speed>1.760000</speed>
</trkpt>
<trkpt lat="32.881874084" lon="35.245479584">
  <ele>162.481689</ele>
  <time>2011-07-22T05:38:38Z</time>
  <speed>1.620000</speed>
</trkpt>
<trkpt lat="32.881862640" lon="35.245437622">
  <ele>163.802002</ele>
  <time>2011-07-22T05:38:41Z</time>
  <speed>1.370000</speed>
</trkpt>
<trkpt lat="32.881839752" lon="35.245410919">
  <ele>163.981689</ele>
  <time>2011-07-22T05:38:43Z</time>
  <speed>1.550000</speed>
</trkpt>
<trkpt lat="32.881820679" lon="35.245380402">
  <ele>164.438721</ele>
  <time>2011-07-22T05:38:45Z</time>
  <speed>1.490000</speed>
</trkpt>
<trkpt lat="32.881816864" lon="35.245334625">
  <ele>164.841064</ele>
  <time>2011-07-22T05:38:48Z</time>
  <speed>1.280000</speed>
</trkpt>
<trkpt lat="32.881793976" lon="35.245304108">
  <ele>165.344971</ele>
  <time>2011-07-22T05:38:50Z</time>
  <speed>1.490000</speed>
</trkpt>
<trkpt lat="32.881790161" lon="35.245269775">
  <ele>165.782471</ele>
  <time>2011-07-22T05:38:52Z</time>
  <speed>1.580000</speed>
</trkpt>
<trkpt lat="32.881774902" lon="35.245227814">
  <ele>166.673096</ele>
  <time>2011-07-22T05:38:55Z</time>
  <speed>1.190000</speed>
</trkpt>
<trkpt lat="32.881771088" lon="35.245178223">
  <ele>166.462158</ele>
  <time>2011-07-22T05:38:58Z</time>
  <speed>1.740000</speed>
</trkpt>
<trkpt lat="32.881748199" lon="35.245151520">
  <ele>166.958252</ele>
  <time>2011-07-22T05:39:00Z</time>
  <speed>1.640000</speed>
</trkpt>
<trkpt lat="32.881755829" lon="35.245113373">
  <ele>167.024658</ele>
  <time>2011-07-22T05:39:02Z</time>
  <speed>1.680000</speed>
</trkpt>
<trkpt lat="32.881748199" lon="35.245071411">
  <ele>168.805908</ele>
  <time>2011-07-22T05:39:05Z</time>
  <speed>1.280000</speed>
</trkpt>
<trkpt lat="32.881736755" lon="35.245037079">
  <ele>169.688721</ele>
  <time>2011-07-22T05:39:07Z</time>
  <speed>1.070000</speed>
</trkpt>
<trkpt lat="32.881736755" lon="35.244991302">
  <ele>169.712158</ele>
  <time>2011-07-22T05:39:10Z</time>
  <speed>1.550000</speed>
</trkpt>
<trkpt lat="32.881740570" lon="35.244956970">
  <ele>170.302002</ele>
  <time>2011-07-22T05:39:12Z</time>
  <speed>1.330000</speed>
</trkpt>
<trkpt lat="32.881752014" lon="35.244911194">
  <ele>170.028564</ele>
  <time>2011-07-22T05:39:15Z</time>
  <speed>1.030000</speed>
</trkpt>
<trkpt lat="32.881752014" lon="35.244873047">
  <ele>170.481689</ele>
  <time>2011-07-22T05:39:17Z</time>
  <speed>1.400000</speed>
</trkpt>
<trkpt lat="32.881755829" lon="35.244827271">
  <ele>171.657471</ele>
  <time>2011-07-22T05:39:20Z</time>
  <speed>1.560000</speed>
</trkpt>
<trkpt lat="32.881763458" lon="35.244789124">
  <ele>172.723877</ele>
  <time>2011-07-22T05:39:22Z</time>
  <speed>1.260000</speed>
</trkpt>
<trkpt lat="32.881759644" lon="35.244747162">
  <ele>172.637939</ele>
  <time>2011-07-22T05:39:24Z</time>
  <speed>1.350000</speed>
</trkpt>
<trkpt lat="32.881752014" lon="35.244716644">
  <ele>172.743408</ele>
  <time>2011-07-22T05:39:26Z</time>
  <speed>1.550000</speed>
</trkpt>
<trkpt lat="32.881744385" lon="35.244678497">
  <ele>172.993408</ele>
  <time>2011-07-22T05:39:28Z</time>
  <speed>1.450000</speed>
</trkpt>
<trkpt lat="32.881732941" lon="35.244651794">
  <ele>173.184814</ele>
  <time>2011-07-22T05:39:30Z</time>
  <speed>1.440000</speed>
</trkpt>
<trkpt lat="32.881721497" lon="35.244617462">
  <ele>173.290283</ele>
  <time>2011-07-22T05:39:32Z</time>
  <speed>1.370000</speed>
</trkpt>
<trkpt lat="32.881713867" lon="35.244586945">
  <ele>172.704346</ele>
  <time>2011-07-22T05:39:34Z</time>
  <speed>1.660000</speed>
</trkpt>
<trkpt lat="32.881721497" lon="35.244552612">
  <ele>172.415283</ele>
  <time>2011-07-22T05:39:36Z</time>
  <speed>1.330000</speed>
</trkpt>
<trkpt lat="32.881725311" lon="35.244503021">
  <ele>172.630127</ele>
  <time>2011-07-22T05:39:38Z</time>
  <speed>1.760000</speed>
</trkpt>
<trkpt lat="32.881721497" lon="35.244464874">
  <ele>173.384033</ele>
  <time>2011-07-22T05:39:40Z</time>
  <speed>1.380000</speed>
</trkpt>
<trkpt lat="32.881713867" lon="35.244434357">
  <ele>174.247314</ele>
  <time>2011-07-22T05:39:42Z</time>
  <speed>1.470000</speed>
</trkpt>
<trkpt lat="32.881717682" lon="35.244403839">
  <ele>175.032471</ele>
  <time>2011-07-22T05:39:44Z</time>
  <speed>1.560000</speed>
</trkpt>
<trkpt lat="32.881710052" lon="35.244361877">
  <ele>176.344971</ele>
  <time>2011-07-22T05:39:47Z</time>
  <speed>1.660000</speed>
</trkpt>
<trkpt lat="32.881706238" lon="35.244323730">
  <ele>176.618408</ele>
  <time>2011-07-22T05:39:49Z</time>
  <speed>1.670000</speed>
</trkpt>
<trkpt lat="32.881717682" lon="35.244281769">
  <ele>176.618408</ele>
  <time>2011-07-22T05:39:51Z</time>
  <speed>1.730000</speed>
</trkpt>
<trkpt lat="32.881725311" lon="35.244239807">
  <ele>177.848877</ele>
  <time>2011-07-22T05:39:53Z</time>
  <speed>1.780000</speed>
</trkpt>
<trkpt lat="32.881713867" lon="35.244201660">
  <ele>178.829346</ele>
  <time>2011-07-22T05:39:55Z</time>
  <speed>2.090000</speed>
</trkpt>
<trkpt lat="32.881710052" lon="35.244155884">
  <ele>179.661377</ele>
  <time>2011-07-22T05:39:57Z</time>
  <speed>1.710000</speed>
</trkpt>
<trkpt lat="32.881706238" lon="35.244117737">
  <ele>180.473877</ele>
  <time>2011-07-22T05:39:59Z</time>
  <speed>1.560000</speed>
</trkpt>
<trkpt lat="32.881702423" lon="35.244075775">
  <ele>180.766846</ele>
  <time>2011-07-22T05:40:01Z</time>
  <speed>1.570000</speed>
</trkpt>
<trkpt lat="32.881706238" lon="35.244029999">
  <ele>181.161377</ele>
  <time>2011-07-22T05:40:03Z</time>
  <speed>1.590000</speed>
</trkpt>
<trkpt lat="32.881706238" lon="35.243995667">
  <ele>181.727783</ele>
  <time>2011-07-22T05:40:05Z</time>
  <speed>1.620000</speed>
</trkpt>
<trkpt lat="32.881706238" lon="35.243961334">
  <ele>182.641846</ele>
  <time>2011-07-22T05:40:07Z</time>
  <speed>1.240000</speed>
</trkpt>
<trkpt lat="32.881668091" lon="35.243980408">
  <ele>183.153564</ele>
  <time>2011-07-22T05:40:11Z</time>
  <speed>1.210000</speed>
</trkpt>
<trkpt lat="32.881645203" lon="35.243999481">
  <ele>182.712158</ele>
  <time>2011-07-22T05:40:12Z</time>
  <speed>1.610000</speed>
</trkpt>
<trkpt lat="32.881626129" lon="35.244064331">
  <ele>181.622314</ele>
  <time>2011-07-22T05:40:15Z</time>
  <speed>2.110000</speed>
</trkpt>
<trkpt lat="32.881618500" lon="35.244113922">
  <ele>180.204346</ele>
  <time>2011-07-22T05:40:17Z</time>
  <speed>1.810000</speed>
</trkpt>
<trkpt lat="32.881618500" lon="35.244152069">
  <ele>179.966064</ele>
  <time>2011-07-22T05:40:19Z</time>
  <speed>1.950000</speed>
</trkpt>
<trkpt lat="32.881618500" lon="35.244194031">
  <ele>179.868408</ele>
  <time>2011-07-22T05:40:21Z</time>
  <speed>1.660000</speed>
</trkpt>
<trkpt lat="32.881614685" lon="35.244228363">
  <ele>179.825439</ele>
  <time>2011-07-22T05:40:23Z</time>
  <speed>1.470000</speed>
</trkpt>
<trkpt lat="32.881603241" lon="35.244270325">
  <ele>181.387939</ele>
  <time>2011-07-22T05:40:25Z</time>
  <speed>1.390000</speed>
</trkpt>
<trkpt lat="32.881587982" lon="35.244316101">
  <ele>181.887939</ele>
  <time>2011-07-22T05:40:28Z</time>
  <speed>1.400000</speed>
</trkpt>
<trkpt lat="32.881576538" lon="35.244350433">
  <ele>182.169189</ele>
  <time>2011-07-22T05:40:30Z</time>
  <speed>1.670000</speed>
</trkpt>
<trkpt lat="32.881565094" lon="35.244384766">
  <ele>182.423096</ele>
  <time>2011-07-22T05:40:32Z</time>
  <speed>1.420000</speed>
</trkpt>
<trkpt lat="32.881553650" lon="35.244419098">
  <ele>182.278564</ele>
  <time>2011-07-22T05:40:34Z</time>
  <speed>1.370000</speed>
</trkpt>
<trkpt lat="32.881542206" lon="35.244461060">
  <ele>182.891846</ele>
  <time>2011-07-22T05:40:37Z</time>
  <speed>1.480000</speed>
</trkpt>
<trkpt lat="32.881511688" lon="35.244499207">
  <ele>182.735596</ele>
  <time>2011-07-22T05:40:39Z</time>
  <speed>1.330000</speed>
</trkpt>
<trkpt lat="32.881515503" lon="35.244548798">
  <ele>182.997314</ele>
  <time>2011-07-22T05:40:42Z</time>
  <speed>1.660000</speed>
</trkpt>
<trkpt lat="32.881496429" lon="35.244586945">
  <ele>182.837158</ele>
  <time>2011-07-22T05:40:44Z</time>
  <speed>1.720000</speed>
</trkpt>
<trkpt lat="32.881496429" lon="35.244628906">
  <ele>182.348877</ele>
  <time>2011-07-22T05:40:46Z</time>
  <speed>1.720000</speed>
</trkpt>
<trkpt lat="32.881484985" lon="35.244670868">
  <ele>181.637939</ele>
  <time>2011-07-22T05:40:48Z</time>
  <speed>1.820000</speed>
</trkpt>
<trkpt lat="32.881484985" lon="35.244724274">
  <ele>181.395752</ele>
  <time>2011-07-22T05:40:50Z</time>
  <speed>2.450000</speed>
</trkpt>
<trkpt lat="32.881488800" lon="35.244789124">
  <ele>180.938721</ele>
  <time>2011-07-22T05:40:52Z</time>
  <speed>2.830000</speed>
</trkpt>
<trkpt lat="32.881481171" lon="35.244838715">
  <ele>181.005127</ele>
  <time>2011-07-22T05:40:54Z</time>
  <speed>2.200000</speed>
</trkpt>
<trkpt lat="32.881477356" lon="35.244884491">
  <ele>180.973877</ele>
  <time>2011-07-22T05:40:56Z</time>
  <speed>1.950000</speed>
</trkpt>
<trkpt lat="32.881477356" lon="35.244922638">
  <ele>181.012939</ele>
  <time>2011-07-22T05:40:58Z</time>
  <speed>1.720000</speed>
</trkpt>
<trkpt lat="32.881473541" lon="35.244956970">
  <ele>180.673096</ele>
  <time>2011-07-22T05:41:00Z</time>
  <speed>1.240000</speed>
</trkpt>
<trkpt lat="32.881454468" lon="35.244983673">
  <ele>180.063721</ele>
  <time>2011-07-22T05:41:02Z</time>
  <speed>1.510000</speed>
</trkpt>
<trkpt lat="32.881454468" lon="35.245029449">
  <ele>179.716064</ele>
  <time>2011-07-22T05:41:05Z</time>
  <speed>1.140000</speed>
</trkpt>
<trkpt lat="32.881443024" lon="35.245067596">
  <ele>179.712158</ele>
  <time>2011-07-22T05:41:07Z</time>
  <speed>1.450000</speed>
</trkpt>
<trkpt lat="32.881439209" lon="35.245101929">
  <ele>179.555908</ele>
  <time>2011-07-22T05:41:09Z</time>
  <speed>1.120000</speed>
</trkpt>
<trkpt lat="32.881427765" lon="35.245140076">
  <ele>179.626221</ele>
  <time>2011-07-22T05:41:11Z</time>
  <speed>1.450000</speed>
</trkpt>
<trkpt lat="32.881416321" lon="35.245185852">
  <ele>179.762939</ele>
  <time>2011-07-22T05:41:13Z</time>
  <speed>1.700000</speed>
</trkpt>
<trkpt lat="32.881389618" lon="35.245204926">
  <ele>178.899658</ele>
  <time>2011-07-22T05:41:14Z</time>
  <speed>1.990000</speed>
</trkpt>
<trkpt lat="32.881370544" lon="35.245246887">
  <ele>179.462158</ele>
  <time>2011-07-22T05:41:16Z</time>
  <speed>1.690000</speed>
</trkpt>
<trkpt lat="32.881362915" lon="35.245281219">
  <ele>179.852783</ele>
  <time>2011-07-22T05:41:18Z</time>
  <speed>1.650000</speed>
</trkpt>
<trkpt lat="32.881347656" lon="35.245319366">
  <ele>179.802002</ele>
  <time>2011-07-22T05:41:20Z</time>
  <speed>1.770000</speed>
</trkpt>
<trkpt lat="32.881336212" lon="35.245357513">
  <ele>179.802002</ele>
  <time>2011-07-22T05:41:22Z</time>
  <speed>1.870000</speed>
</trkpt>
<trkpt lat="32.881328583" lon="35.245391846">
  <ele>180.294189</ele>
  <time>2011-07-22T05:41:24Z</time>
  <speed>2.100000</speed>
</trkpt>
<trkpt lat="32.881317139" lon="35.245433807">
  <ele>180.786377</ele>
  <time>2011-07-22T05:41:26Z</time>
  <speed>1.860000</speed>
</trkpt>
<trkpt lat="32.881305695" lon="35.245471954">
  <ele>180.895752</ele>
  <time>2011-07-22T05:41:28Z</time>
  <speed>1.900000</speed>
</trkpt>
<trkpt lat="32.881298065" lon="35.245510101">
  <ele>181.286377</ele>
  <time>2011-07-22T05:41:30Z</time>
  <speed>1.550000</speed>
</trkpt>
<trkpt lat="32.881282806" lon="35.245552063">
  <ele>181.145752</ele>
  <time>2011-07-22T05:41:33Z</time>
  <speed>1.750000</speed>
</trkpt>
<trkpt lat="32.881267548" lon="35.245582581">
  <ele>182.145752</ele>
  <time>2011-07-22T05:41:36Z</time>
  <speed>1.450000</speed>
</trkpt>
<trkpt lat="32.881244659" lon="35.245616913">
  <ele>183.126221</ele>
  <time>2011-07-22T05:41:39Z</time>
  <speed>0.750000</speed>
</trkpt>
<trkpt lat="32.881217957" lon="35.245643616">
  <ele>184.286377</ele>
  <time>2011-07-22T05:41:42Z</time>
  <speed>1.470000</speed>
</trkpt>
<trkpt lat="32.881202698" lon="35.245666504">
  <ele>184.833252</ele>
  <time>2011-07-22T05:41:44Z</time>
  <speed>1.270000</speed>
</trkpt>
<trkpt lat="32.881179810" lon="35.245700836">
  <ele>185.841064</ele>
  <time>2011-07-22T05:41:47Z</time>
  <speed>1.440000</speed>
</trkpt>
<trkpt lat="32.881160736" lon="35.245738983">
  <ele>186.434814</ele>
  <time>2011-07-22T05:41:50Z</time>
  <speed>1.490000</speed>
</trkpt>
<trkpt lat="32.881156921" lon="35.245777130">
  <ele>187.477783</ele>
  <time>2011-07-22T05:41:53Z</time>
  <speed>1.410000</speed>
</trkpt>
<trkpt lat="32.881130219" lon="35.245815277">
  <ele>187.575439</ele>
  <time>2011-07-22T05:41:55Z</time>
  <speed>1.190000</speed>
</trkpt>
<trkpt lat="32.881111145" lon="35.245849609">
  <ele>187.872314</ele>
  <time>2011-07-22T05:41:57Z</time>
  <speed>1.440000</speed>
</trkpt>
<trkpt lat="32.881099701" lon="35.245887756">
  <ele>188.001221</ele>
  <time>2011-07-22T05:41:59Z</time>
  <speed>1.510000</speed>
</trkpt>
<trkpt lat="32.881092072" lon="35.245922089">
  <ele>187.966064</ele>
  <time>2011-07-22T05:42:01Z</time>
  <speed>1.270000</speed>
</trkpt>
<trkpt lat="32.881072998" lon="35.245952606">
  <ele>188.473877</ele>
  <time>2011-07-22T05:42:03Z</time>
  <speed>1.430000</speed>
</trkpt>
<trkpt lat="32.881061554" lon="35.245986938">
  <ele>188.282471</ele>
  <time>2011-07-22T05:42:05Z</time>
  <speed>1.400000</speed>
</trkpt>
<trkpt lat="32.881053925" lon="35.246021271">
  <ele>188.177002</ele>
  <time>2011-07-22T05:42:07Z</time>
  <speed>1.590000</speed>
</trkpt>
<trkpt lat="32.881046295" lon="35.246047974">
  <ele>189.634033</ele>
  <time>2011-07-22T05:42:09Z</time>
  <speed>1.290000</speed>
</trkpt>
<trkpt lat="32.881031036" lon="35.246078491">
  <ele>189.180908</ele>
  <time>2011-07-22T05:42:12Z</time>
  <speed>1.280000</speed>
</trkpt>
<trkpt lat="32.881015778" lon="35.246116638">
  <ele>189.637939</ele>
  <time>2011-07-22T05:42:15Z</time>
  <speed>1.100000</speed>
</trkpt>
<trkpt lat="32.880992889" lon="35.246139526">
  <ele>190.302002</ele>
  <time>2011-07-22T05:42:17Z</time>
  <speed>1.200000</speed>
</trkpt>
<trkpt lat="32.880981445" lon="35.246166229">
  <ele>191.188721</ele>
  <time>2011-07-22T05:42:20Z</time>
  <speed>1.150000</speed>
</trkpt>
<trkpt lat="32.880943298" lon="35.246185303">
  <ele>191.184814</ele>
  <time>2011-07-22T05:42:23Z</time>
  <speed>1.310000</speed>
</trkpt>
<trkpt lat="32.880916595" lon="35.246204376">
  <ele>191.559814</ele>
  <time>2011-07-22T05:42:26Z</time>
  <speed>0.910000</speed>
</trkpt>
<trkpt lat="32.880901337" lon="35.246242523">
  <ele>192.059814</ele>
  <time>2011-07-22T05:42:29Z</time>
  <speed>1.190000</speed>
</trkpt>
<trkpt lat="32.880882263" lon="35.246273041">
  <ele>192.153564</ele>
  <time>2011-07-22T05:42:32Z</time>
  <speed>1.200000</speed>
</trkpt>
<trkpt lat="32.880851746" lon="35.246288300">
  <ele>192.321533</ele>
  <time>2011-07-22T05:42:34Z</time>
  <speed>1.620000</speed>
</trkpt>
<trkpt lat="32.880825043" lon="35.246307373">
  <ele>192.751221</ele>
  <time>2011-07-22T05:42:36Z</time>
  <speed>1.390000</speed>
</trkpt>
<trkpt lat="32.880798340" lon="35.246311188">
  <ele>194.567627</ele>
  <time>2011-07-22T05:42:40Z</time>
  <speed>0.070000</speed>
</trkpt>
<trkpt lat="32.880805969" lon="35.246265411">
  <ele>195.419189</ele>
  <time>2011-07-22T05:44:44Z</time>
  <speed>1.190000</speed>
</trkpt>
<trkpt lat="32.880809784" lon="35.246223450">
  <ele>194.856689</ele>
  <time>2011-07-22T05:44:46Z</time>
  <speed>1.340000</speed>
</trkpt>
<trkpt lat="32.880798340" lon="35.246189117">
  <ele>194.723877</ele>
  <time>2011-07-22T05:44:48Z</time>
  <speed>1.450000</speed>
</trkpt>
<trkpt lat="32.880775452" lon="35.246166229">
  <ele>195.360596</ele>
  <time>2011-07-22T05:44:51Z</time>
  <speed>0.680000</speed>
</trkpt>
<trkpt lat="32.880744934" lon="35.246173859">
  <ele>195.708252</ele>
  <time>2011-07-22T05:44:56Z</time>
  <speed>0.690000</speed>
</trkpt>
<trkpt lat="32.880714417" lon="35.246177673">
  <ele>195.555908</ele>
  <time>2011-07-22T05:44:59Z</time>
  <speed>1.160000</speed>
</trkpt>
<trkpt lat="32.880687714" lon="35.246166229">
  <ele>195.911377</ele>
  <time>2011-07-22T05:45:02Z</time>
  <speed>0.470000</speed>
</trkpt>
<trkpt lat="32.880657196" lon="35.246154785">
  <ele>196.028564</ele>
  <time>2011-07-22T05:45:05Z</time>
  <speed>0.800000</speed>
</trkpt>
<trkpt lat="32.880638123" lon="35.246124268">
  <ele>196.075439</ele>
  <time>2011-07-22T05:45:11Z</time>
  <speed>0.710000</speed>
</trkpt>
<trkpt lat="32.880619049" lon="35.246105194">
  <ele>195.669189</ele>
  <time>2011-07-22T05:45:14Z</time>
  <speed>1.030000</speed>
</trkpt>
<trkpt lat="32.880592346" lon="35.246086121">
  <ele>196.161377</ele>
  <time>2011-07-22T05:45:17Z</time>
  <speed>0.550000</speed>
</trkpt>
<trkpt lat="32.880565643" lon="35.246059418">
  <ele>196.255127</ele>
  <time>2011-07-22T05:45:21Z</time>
  <speed>0.720000</speed>
</trkpt>
<trkpt lat="32.880542755" lon="35.246036530">
  <ele>196.813721</ele>
  <time>2011-07-22T05:45:24Z</time>
  <speed>1.070000</speed>
</trkpt>
<trkpt lat="32.880519867" lon="35.246009827">
  <ele>196.231689</ele>
  <time>2011-07-22T05:45:28Z</time>
  <speed>0.750000</speed>
</trkpt>
<trkpt lat="32.880493164" lon="35.245998383">
  <ele>196.591064</ele>
  <time>2011-07-22T05:45:31Z</time>
  <speed>1.110000</speed>
</trkpt>
<trkpt lat="32.880477905" lon="35.245971680">
  <ele>197.505127</ele>
  <time>2011-07-22T05:45:35Z</time>
  <speed>0.560000</speed>
</trkpt>
<trkpt lat="32.880455017" lon="35.245952606">
  <ele>197.790283</ele>
  <time>2011-07-22T05:45:39Z</time>
  <speed>1.030000</speed>
</trkpt>
<trkpt lat="32.880428314" lon="35.245941162">
  <ele>199.251221</ele>
  <time>2011-07-22T05:45:43Z</time>
  <speed>0.540000</speed>
</trkpt>
<trkpt lat="32.880401611" lon="35.245941162">
  <ele>200.372314</ele>
  <time>2011-07-22T05:45:46Z</time>
  <speed>0.780000</speed>
</trkpt>
<trkpt lat="32.880374908" lon="35.245929718">
  <ele>199.544189</ele>
  <time>2011-07-22T05:45:50Z</time>
  <speed>0.630000</speed>
</trkpt>
<trkpt lat="32.880363464" lon="35.245895386">
  <ele>198.716064</ele>
  <time>2011-07-22T05:45:59Z</time>
  <speed>0.560000</speed>
</trkpt>
<trkpt lat="32.880348206" lon="35.245868683">
  <ele>200.223877</ele>
  <time>2011-07-22T05:46:04Z</time>
  <speed>0.590000</speed>
</trkpt>
<trkpt lat="32.880325317" lon="35.245872498">
  <ele>201.911377</ele>
  <time>2011-07-22T05:46:12Z</time>
  <speed>0.740000</speed>
</trkpt>
<trkpt lat="32.880294800" lon="35.245864868">
  <ele>203.126221</ele>
  <time>2011-07-22T05:46:19Z</time>
  <speed>0.540000</speed>
</trkpt>
<trkpt lat="32.880268097" lon="35.245845795">
  <ele>204.149658</ele>
  <time>2011-07-22T05:46:24Z</time>
  <speed>0.720000</speed>
</trkpt>
<trkpt lat="32.880260468" lon="35.245819092">
  <ele>205.434814</ele>
  <time>2011-07-22T05:46:29Z</time>
  <speed>0.250000</speed>
</trkpt>
<trkpt lat="32.880245209" lon="35.245788574">
  <ele>206.255127</ele>
  <time>2011-07-22T05:46:34Z</time>
  <speed>0.760000</speed>
</trkpt>
<trkpt lat="32.880249023" lon="35.245758057">
  <ele>205.532471</ele>
  <time>2011-07-22T05:47:23Z</time>
  <speed>0.180000</speed>
</trkpt>
<trkpt lat="32.880218506" lon="35.245750427">
  <ele>205.594971</ele>
  <time>2011-07-22T05:47:51Z</time>
  <speed>0.190000</speed>
</trkpt>
<trkpt lat="32.880226135" lon="35.245716095">
  <ele>205.106689</ele>
  <time>2011-07-22T05:48:03Z</time>
  <speed>0.060000</speed>
</trkpt>
<trkpt lat="32.880199432" lon="35.245735168">
  <ele>204.528564</ele>
  <time>2011-07-22T05:48:52Z</time>
  <speed>0.380000</speed>
</trkpt>
<trkpt lat="32.880172729" lon="35.245727539">
  <ele>204.434814</ele>
  <time>2011-07-22T05:49:03Z</time>
  <speed>0.200000</speed>
</trkpt>
<trkpt lat="32.880146027" lon="35.245735168">
  <ele>205.231689</ele>
  <time>2011-07-22T05:49:11Z</time>
  <speed>0.450000</speed>
</trkpt>
<trkpt lat="32.880119324" lon="35.245719910">
  <ele>205.798096</ele>
  <time>2011-07-22T05:49:16Z</time>
  <speed>0.240000</speed>
</trkpt>
<trkpt lat="32.880100250" lon="35.245689392">
  <ele>206.259033</ele>
  <time>2011-07-22T05:49:27Z</time>
  <speed>0.670000</speed>
</trkpt>
<trkpt lat="32.880073547" lon="35.245689392">
  <ele>207.739502</ele>
  <time>2011-07-22T05:49:30Z</time>
  <speed>0.780000</speed>
</trkpt>
<trkpt lat="32.880043030" lon="35.245697021">
  <ele>207.868408</ele>
  <time>2011-07-22T05:49:37Z</time>
  <speed>0.790000</speed>
</trkpt>
<trkpt lat="32.880023956" lon="35.245670319">
  <ele>208.477783</ele>
  <time>2011-07-22T05:49:41Z</time>
  <speed>0.540000</speed>
</trkpt>
<trkpt lat="32.879997253" lon="35.245651245">
  <ele>208.778564</ele>
  <time>2011-07-22T05:49:46Z</time>
  <speed>0.720000</speed>
</trkpt>
<trkpt lat="32.879970551" lon="35.245662689">
  <ele>208.415283</ele>
  <time>2011-07-22T05:49:51Z</time>
  <speed>0.260000</speed>
</trkpt>
<trkpt lat="32.879943848" lon="35.245674133">
  <ele>209.884033</ele>
  <time>2011-07-22T05:49:55Z</time>
  <speed>0.650000</speed>
</trkpt>
<trkpt lat="32.879920959" lon="35.245647430">
  <ele>210.188721</ele>
  <time>2011-07-22T05:50:03Z</time>
  <speed>0.490000</speed>
</trkpt>
<trkpt lat="32.879886627" lon="35.245651245">
  <ele>211.673096</ele>
  <time>2011-07-22T05:50:08Z</time>
  <speed>0.720000</speed>
</trkpt>
<trkpt lat="32.879859924" lon="35.245643616">
  <ele>212.098877</ele>
  <time>2011-07-22T05:50:12Z</time>
  <speed>0.340000</speed>
</trkpt>
<trkpt lat="32.879840851" lon="35.245616913">
  <ele>212.618408</ele>
  <time>2011-07-22T05:50:17Z</time>
  <speed>0.580000</speed>
</trkpt>
<trkpt lat="32.879810333" lon="35.245620728">
  <ele>213.634033</ele>
  <time>2011-07-22T05:50:34Z</time>
  <speed>0.560000</speed>
</trkpt>
<trkpt lat="32.879779816" lon="35.245609283">
  <ele>213.700439</ele>
  <time>2011-07-22T05:50:38Z</time>
  <speed>0.710000</speed>
</trkpt>
<trkpt lat="32.879753113" lon="35.245601654">
  <ele>214.200439</ele>
  <time>2011-07-22T05:50:42Z</time>
  <speed>0.850000</speed>
</trkpt>
<trkpt lat="32.879726410" lon="35.245601654">
  <ele>214.348877</ele>
  <time>2011-07-22T05:50:45Z</time>
  <speed>0.600000</speed>
</trkpt>
<trkpt lat="32.879695892" lon="35.245597839">
  <ele>214.630127</ele>
  <time>2011-07-22T05:50:50Z</time>
  <speed>0.750000</speed>
</trkpt>
<trkpt lat="32.879669189" lon="35.245582581">
  <ele>214.743408</ele>
  <time>2011-07-22T05:50:54Z</time>
  <speed>0.730000</speed>
</trkpt>
<trkpt lat="32.879653931" lon="35.245544434">
  <ele>214.356689</ele>
  <time>2011-07-22T05:51:01Z</time>
  <speed>0.660000</speed>
</trkpt>
<trkpt lat="32.879661560" lon="35.245529175">
  <ele>216.708252</ele>
  <time>2011-07-22T05:51:20Z</time>
  <speed>0.050000</speed>
</trkpt>
<trkpt lat="32.879665375" lon="35.245502472">
  <ele>218.442627</ele>
  <time>2011-07-22T05:51:28Z</time>
  <speed>0.460000</speed>
</trkpt>
<trkpt lat="32.879676819" lon="35.245475769">
  <ele>219.977783</ele>
  <time>2011-07-22T05:51:39Z</time>
  <speed>0.470000</speed>
</trkpt>
<trkpt lat="32.879695892" lon="35.245449066">
  <ele>220.614502</ele>
  <time>2011-07-22T05:51:44Z</time>
  <speed>0.430000</speed>
</trkpt>
<trkpt lat="32.879684448" lon="35.245414734">
  <ele>221.930908</ele>
  <time>2011-07-22T05:51:57Z</time>
  <speed>0.610000</speed>
</trkpt>
<trkpt lat="32.879657745" lon="35.245407104">
  <ele>223.341064</ele>
  <time>2011-07-22T05:52:02Z</time>
  <speed>0.390000</speed>
</trkpt>
<trkpt lat="32.879623413" lon="35.245399475">
  <ele>223.708252</ele>
  <time>2011-07-22T05:52:08Z</time>
  <speed>0.740000</speed>
</trkpt>
<trkpt lat="32.879596710" lon="35.245395660">
  <ele>223.958252</ele>
  <time>2011-07-22T05:52:11Z</time>
  <speed>1.270000</speed>
</trkpt>
<trkpt lat="32.879562378" lon="35.245395660">
  <ele>224.286377</ele>
  <time>2011-07-22T05:52:15Z</time>
  <speed>0.860000</speed>
</trkpt>
<trkpt lat="32.879531860" lon="35.245376587">
  <ele>224.290283</ele>
  <time>2011-07-22T05:52:19Z</time>
  <speed>1.330000</speed>
</trkpt>
<trkpt lat="32.879505157" lon="35.245357513">
  <ele>225.423096</ele>
  <time>2011-07-22T05:52:24Z</time>
  <speed>0.600000</speed>
</trkpt>
<trkpt lat="32.879478455" lon="35.245349884">
  <ele>225.802002</ele>
  <time>2011-07-22T05:52:38Z</time>
  <speed>0.280000</speed>
</trkpt>
<trkpt lat="32.879451752" lon="35.245349884">
  <ele>224.395752</ele>
  <time>2011-07-22T05:52:46Z</time>
  <speed>0.870000</speed>
</trkpt>
<trkpt lat="32.879432678" lon="35.245384216">
  <ele>224.005127</ele>
  <time>2011-07-22T05:52:49Z</time>
  <speed>0.670000</speed>
</trkpt>
<trkpt lat="32.879405975" lon="35.245410919">
  <ele>223.165283</ele>
  <time>2011-07-22T05:52:53Z</time>
  <speed>0.740000</speed>
</trkpt>
<trkpt lat="32.879383087" lon="35.245429993">
  <ele>223.161377</ele>
  <time>2011-07-22T05:52:56Z</time>
  <speed>0.850000</speed>
</trkpt>
<trkpt lat="32.879360199" lon="35.245441437">
  <ele>223.219971</ele>
  <time>2011-07-22T05:53:01Z</time>
  <speed>0.770000</speed>
</trkpt>
<trkpt lat="32.879325867" lon="35.245429993">
  <ele>222.739502</ele>
  <time>2011-07-22T05:53:05Z</time>
  <speed>0.890000</speed>
</trkpt>
<trkpt lat="32.879299164" lon="35.245414734">
  <ele>222.223877</ele>
  <time>2011-07-22T05:53:08Z</time>
  <speed>0.730000</speed>
</trkpt>
<trkpt lat="32.879268646" lon="35.245403290">
  <ele>222.313721</ele>
  <time>2011-07-22T05:53:12Z</time>
  <speed>1.050000</speed>
</trkpt>
<trkpt lat="32.879238129" lon="35.245403290">
  <ele>222.094971</ele>
  <time>2011-07-22T05:53:16Z</time>
  <speed>0.840000</speed>
</trkpt>
<trkpt lat="32.879207611" lon="35.245403290">
  <ele>220.868408</ele>
  <time>2011-07-22T05:53:20Z</time>
  <speed>0.840000</speed>
</trkpt>
<trkpt lat="32.879173279" lon="35.245418549">
  <ele>218.790283</ele>
  <time>2011-07-22T05:53:26Z</time>
  <speed>1.200000</speed>
</trkpt>
<trkpt lat="32.879138947" lon="35.245418549">
  <ele>218.469971</ele>
  <time>2011-07-22T05:53:29Z</time>
  <speed>1.070000</speed>
</trkpt>
<trkpt lat="32.879112244" lon="35.245403290">
  <ele>218.278564</ele>
  <time>2011-07-22T05:53:34Z</time>
  <speed>0.730000</speed>
</trkpt>
<trkpt lat="32.879077911" lon="35.245395660">
  <ele>218.770752</ele>
  <time>2011-07-22T05:53:39Z</time>
  <speed>0.970000</speed>
</trkpt>
<trkpt lat="32.879043579" lon="35.245395660">
  <ele>218.985596</ele>
  <time>2011-07-22T05:53:42Z</time>
  <speed>1.020000</speed>
</trkpt>
<trkpt lat="32.879013062" lon="35.245391846">
  <ele>218.309814</ele>
  <time>2011-07-22T05:53:45Z</time>
  <speed>1.080000</speed>
</trkpt>
<trkpt lat="32.878982544" lon="35.245388031">
  <ele>218.083252</ele>
  <time>2011-07-22T05:53:48Z</time>
  <speed>1.090000</speed>
</trkpt>
<trkpt lat="32.878952026" lon="35.245391846">
  <ele>219.087158</ele>
  <time>2011-07-22T05:53:52Z</time>
  <speed>0.810000</speed>
</trkpt>
<trkpt lat="32.878925323" lon="35.245376587">
  <ele>219.618408</ele>
  <time>2011-07-22T05:53:55Z</time>
  <speed>0.660000</speed>
</trkpt>
<trkpt lat="32.878917694" lon="35.245346069">
  <ele>219.884033</ele>
  <time>2011-07-22T05:53:59Z</time>
  <speed>0.500000</speed>
</trkpt>
<trkpt lat="32.878890991" lon="35.245334625">
  <ele>221.540283</ele>
  <time>2011-07-22T05:54:02Z</time>
  <speed>0.700000</speed>
</trkpt>
<trkpt lat="32.878860474" lon="35.245334625">
  <ele>222.118408</ele>
  <time>2011-07-22T05:54:05Z</time>
  <speed>0.880000</speed>
</trkpt>
<trkpt lat="32.878833771" lon="35.245338440">
  <ele>222.317627</ele>
  <time>2011-07-22T05:54:08Z</time>
  <speed>0.870000</speed>
</trkpt>
<trkpt lat="32.878799438" lon="35.245319366">
  <ele>222.251221</ele>
  <time>2011-07-22T05:54:11Z</time>
  <speed>1.060000</speed>
</trkpt>
<trkpt lat="32.878765106" lon="35.245319366">
  <ele>223.477783</ele>
  <time>2011-07-22T05:54:14Z</time>
  <speed>0.940000</speed>
</trkpt>
<trkpt lat="32.878738403" lon="35.245304108">
  <ele>224.227783</ele>
  <time>2011-07-22T05:54:17Z</time>
  <speed>0.900000</speed>
</trkpt>
<trkpt lat="32.878707886" lon="35.245315552">
  <ele>226.969971</ele>
  <time>2011-07-22T05:54:18Z</time>
  <speed>1.280000</speed>
</trkpt>
<trkpt lat="32.878669739" lon="35.245319366">
  <ele>228.016846</ele>
  <time>2011-07-22T05:54:22Z</time>
  <speed>1.160000</speed>
</trkpt>
<trkpt lat="32.878646851" lon="35.245315552">
  <ele>229.048096</ele>
  <time>2011-07-22T05:54:25Z</time>
  <speed>1.110000</speed>
</trkpt>
<trkpt lat="32.878616333" lon="35.245296478">
  <ele>229.305908</ele>
  <time>2011-07-22T05:54:28Z</time>
  <speed>1.020000</speed>
</trkpt>
<trkpt lat="32.878585815" lon="35.245300293">
  <ele>231.583252</ele>
  <time>2011-07-22T05:54:32Z</time>
  <speed>0.940000</speed>
</trkpt>
<trkpt lat="32.878555298" lon="35.245311737">
  <ele>231.841064</ele>
  <time>2011-07-22T05:54:35Z</time>
  <speed>0.900000</speed>
</trkpt>
<trkpt lat="32.878532410" lon="35.245315552">
  <ele>233.360596</ele>
  <time>2011-07-22T05:54:38Z</time>
  <speed>0.790000</speed>
</trkpt>
<trkpt lat="32.878501892" lon="35.245315552">
  <ele>233.485596</ele>
  <time>2011-07-22T05:54:41Z</time>
  <speed>0.880000</speed>
</trkpt>
<trkpt lat="32.878467560" lon="35.245330811">
  <ele>233.997314</ele>
  <time>2011-07-22T05:54:45Z</time>
  <speed>0.910000</speed>
</trkpt>
<trkpt lat="32.878437042" lon="35.245342255">
  <ele>234.645752</ele>
  <time>2011-07-22T05:54:49Z</time>
  <speed>0.930000</speed>
</trkpt>
<trkpt lat="32.878410339" lon="35.245353699">
  <ele>233.247314</ele>
  <time>2011-07-22T05:54:53Z</time>
  <speed>0.890000</speed>
</trkpt>
<trkpt lat="32.878387451" lon="35.245372772">
  <ele>232.723877</ele>
  <time>2011-07-22T05:54:56Z</time>
  <speed>0.580000</speed>
</trkpt>
<trkpt lat="32.878364563" lon="35.245407104">
  <ele>231.438721</ele>
  <time>2011-07-22T05:55:02Z</time>
  <speed>1.870000</speed>
</trkpt>
<trkpt lat="32.878337860" lon="35.245456696">
  <ele>231.321533</ele>
  <time>2011-07-22T05:55:04Z</time>
  <speed>2.940000</speed>
</trkpt>
<trkpt lat="32.878318787" lon="35.245491028">
  <ele>230.895752</ele>
  <time>2011-07-22T05:55:05Z</time>
  <speed>3.430000</speed>
</trkpt>
<trkpt lat="32.878303528" lon="35.245529175">
  <ele>230.251221</ele>
  <time>2011-07-22T05:55:06Z</time>
  <speed>4.050000</speed>
</trkpt>
<trkpt lat="32.878284454" lon="35.245574951">
  <ele>229.012939</ele>
  <time>2011-07-22T05:55:07Z</time>
  <speed>4.640000</speed>
</trkpt>
<trkpt lat="32.878261566" lon="35.245620728">
  <ele>227.872314</ele>
  <time>2011-07-22T05:55:08Z</time>
  <speed>4.970000</speed>
</trkpt>
<trkpt lat="32.878238678" lon="35.245666504">
  <ele>226.872314</ele>
  <time>2011-07-22T05:55:09Z</time>
  <speed>5.300000</speed>
</trkpt>
<trkpt lat="32.878208160" lon="35.245716095">
  <ele>225.540283</ele>
  <time>2011-07-22T05:55:10Z</time>
  <speed>4.720000</speed>
</trkpt>
<trkpt lat="32.878185272" lon="35.245754242">
  <ele>224.809814</ele>
  <time>2011-07-22T05:55:11Z</time>
  <speed>3.730000</speed>
</trkpt>
<trkpt lat="32.878162384" lon="35.245784760">
  <ele>224.770752</ele>
  <time>2011-07-22T05:55:12Z</time>
  <speed>2.980000</speed>
</trkpt>
<trkpt lat="32.878135681" lon="35.245803833">
  <ele>223.337158</ele>
  <time>2011-07-22T05:55:14Z</time>
  <speed>0.560000</speed>
</trkpt>
<trkpt lat="32.878158569" lon="35.245784760">
  <ele>223.259033</ele>
  <time>2011-07-22T05:56:11Z</time>
  <speed>0.430000</speed>
</trkpt>
<trkpt lat="32.878181458" lon="35.245765686">
  <ele>223.622314</ele>
  <time>2011-07-22T05:56:17Z</time>
  <speed>0.470000</speed>
</trkpt>
<trkpt lat="32.878173828" lon="35.245780945">
  <ele>226.012939</ele>
  <time>2011-07-22T05:56:56Z</time>
  <speed>0.140000</speed>
</trkpt>
<trkpt lat="32.878150940" lon="35.245792389">
  <ele>224.766846</ele>
  <time>2011-07-22T05:57:43Z</time>
  <speed>0.060000</speed>
</trkpt>
<trkpt lat="32.878147125" lon="35.245784760">
  <ele>221.848877</ele>
  <time>2011-07-22T05:58:03Z</time>
  <speed>0.230000</speed>
</trkpt>
<trkpt lat="32.878135681" lon="35.245754242">
  <ele>222.356689</ele>
  <time>2011-07-22T05:58:27Z</time>
  <speed>0.070000</speed>
</trkpt>
<trkpt lat="32.878154755" lon="35.245780945">
  <ele>222.969971</ele>
  <time>2011-07-22T05:58:49Z</time>
  <speed>0.240000</speed>
</trkpt>
<trkpt lat="32.878173828" lon="35.245803833">
  <ele>223.571533</ele>
  <time>2011-07-22T05:59:05Z</time>
  <speed>0.140000</speed>
</trkpt>
<trkpt lat="32.878158569" lon="35.245830536">
  <ele>224.708252</ele>
  <time>2011-07-22T05:59:41Z</time>
  <speed>0.480000</speed>
</trkpt>
<trkpt lat="32.878143311" lon="35.245872498">
  <ele>224.227783</ele>
  <time>2011-07-22T05:59:44Z</time>
  <speed>1.930000</speed>
</trkpt>
<trkpt lat="32.878120422" lon="35.245906830">
  <ele>223.239502</ele>
  <time>2011-07-22T05:59:46Z</time>
  <speed>1.570000</speed>
</trkpt>
<trkpt lat="32.878101349" lon="35.245937347">
  <ele>222.407471</ele>
  <time>2011-07-22T05:59:48Z</time>
  <speed>1.670000</speed>
</trkpt>
<trkpt lat="32.878074646" lon="35.245960236">
  <ele>221.954346</ele>
  <time>2011-07-22T05:59:50Z</time>
  <speed>1.440000</speed>
</trkpt>
<trkpt lat="32.878051758" lon="35.245979309">
  <ele>221.591064</ele>
  <time>2011-07-22T05:59:52Z</time>
  <speed>1.700000</speed>
</trkpt>
<trkpt lat="32.878028870" lon="35.246009827">
  <ele>221.259033</ele>
  <time>2011-07-22T05:59:54Z</time>
  <speed>1.710000</speed>
</trkpt>
<trkpt lat="32.878002167" lon="35.246040344">
  <ele>220.891846</ele>
  <time>2011-07-22T05:59:56Z</time>
  <speed>1.900000</speed>
</trkpt>
<trkpt lat="32.877975464" lon="35.246082306">
  <ele>220.548096</ele>
  <time>2011-07-22T05:59:58Z</time>
  <speed>1.710000</speed>
</trkpt>
<trkpt lat="32.877952576" lon="35.246109009">
  <ele>220.016846</ele>
  <time>2011-07-22T06:00:00Z</time>
  <speed>1.630000</speed>
</trkpt>
<trkpt lat="32.877929688" lon="35.246139526">
  <ele>219.735596</ele>
  <time>2011-07-22T06:00:02Z</time>
  <speed>1.530000</speed>
</trkpt>
<trkpt lat="32.877914429" lon="35.246173859">
  <ele>219.360596</ele>
  <time>2011-07-22T06:00:04Z</time>
  <speed>1.300000</speed>
</trkpt>
<trkpt lat="32.877906799" lon="35.246208191">
  <ele>219.649658</ele>
  <time>2011-07-22T06:00:05Z</time>
  <speed>1.650000</speed>
</trkpt>
<trkpt lat="32.877899170" lon="35.246246338">
  <ele>219.157471</ele>
  <time>2011-07-22T06:00:07Z</time>
  <speed>1.440000</speed>
</trkpt>
<trkpt lat="32.877880096" lon="35.246280670">
  <ele>218.829346</ele>
  <time>2011-07-22T06:00:10Z</time>
  <speed>1.030000</speed>
</trkpt>
<trkpt lat="32.877853394" lon="35.246337891">
  <ele>219.137939</ele>
  <time>2011-07-22T06:00:13Z</time>
  <speed>1.430000</speed>
</trkpt>
<trkpt lat="32.877834320" lon="35.246376038">
  <ele>220.337158</ele>
  <time>2011-07-22T06:00:15Z</time>
  <speed>1.230000</speed>
</trkpt>
<trkpt lat="32.877826691" lon="35.246414185">
  <ele>219.997314</ele>
  <time>2011-07-22T06:00:17Z</time>
  <speed>1.250000</speed>
</trkpt>
<trkpt lat="32.877788544" lon="35.246456146">
  <ele>221.477783</ele>
  <time>2011-07-22T06:00:19Z</time>
  <speed>1.290000</speed>
</trkpt>
<trkpt lat="32.877784729" lon="35.246490479">
  <ele>221.434814</ele>
  <time>2011-07-22T06:00:21Z</time>
  <speed>1.220000</speed>
</trkpt>
<trkpt lat="32.877777100" lon="35.246528625">
  <ele>220.727783</ele>
  <time>2011-07-22T06:00:24Z</time>
  <speed>0.930000</speed>
</trkpt>
<trkpt lat="32.877754211" lon="35.246559143">
  <ele>221.575439</ele>
  <time>2011-07-22T06:00:36Z</time>
  <speed>1.110000</speed>
</trkpt>
<trkpt lat="32.877750397" lon="35.246604919">
  <ele>221.712158</ele>
  <time>2011-07-22T06:00:39Z</time>
  <speed>1.410000</speed>
</trkpt>
<trkpt lat="32.877746582" lon="35.246654510">
  <ele>222.649658</ele>
  <time>2011-07-22T06:00:41Z</time>
  <speed>2.370000</speed>
</trkpt>
<trkpt lat="32.877727509" lon="35.246715546">
  <ele>223.032471</ele>
  <time>2011-07-22T06:00:43Z</time>
  <speed>3.000000</speed>
</trkpt>
<trkpt lat="32.877735138" lon="35.246749878">
  <ele>223.098877</ele>
  <time>2011-07-22T06:00:44Z</time>
  <speed>3.030000</speed>
</trkpt>
<trkpt lat="32.877712250" lon="35.246810913">
  <ele>222.532471</ele>
  <time>2011-07-22T06:00:46Z</time>
  <speed>2.820000</speed>
</trkpt>
<trkpt lat="32.877708435" lon="35.246860504">
  <ele>222.298096</ele>
  <time>2011-07-22T06:00:48Z</time>
  <speed>2.050000</speed>
</trkpt>
<trkpt lat="32.877696991" lon="35.246898651">
  <ele>222.094971</ele>
  <time>2011-07-22T06:00:50Z</time>
  <speed>1.860000</speed>
</trkpt>
<trkpt lat="32.877700806" lon="35.246936798">
  <ele>222.059814</ele>
  <time>2011-07-22T06:00:52Z</time>
  <speed>1.710000</speed>
</trkpt>
<trkpt lat="32.877708435" lon="35.246982574">
  <ele>222.180908</ele>
  <time>2011-07-22T06:00:54Z</time>
  <speed>2.150000</speed>
</trkpt>
<trkpt lat="32.877708435" lon="35.247032166">
  <ele>222.384033</ele>
  <time>2011-07-22T06:00:56Z</time>
  <speed>2.320000</speed>
</trkpt>
<trkpt lat="32.877700806" lon="35.247081757">
  <ele>221.735596</ele>
  <time>2011-07-22T06:00:58Z</time>
  <speed>2.350000</speed>
</trkpt>
<trkpt lat="32.877712250" lon="35.247135162">
  <ele>221.868408</ele>
  <time>2011-07-22T06:01:00Z</time>
  <speed>2.400000</speed>
</trkpt>
<trkpt lat="32.877712250" lon="35.247200012">
  <ele>221.700439</ele>
  <time>2011-07-22T06:01:02Z</time>
  <speed>2.840000</speed>
</trkpt>
<trkpt lat="32.877723694" lon="35.247234344">
  <ele>221.712158</ele>
  <time>2011-07-22T06:01:03Z</time>
  <speed>3.270000</speed>
</trkpt>
<trkpt lat="32.877731323" lon="35.247264862">
  <ele>221.606689</ele>
  <time>2011-07-22T06:01:04Z</time>
  <speed>3.320000</speed>
</trkpt>
<trkpt lat="32.877742767" lon="35.247329712">
  <ele>221.360596</ele>
  <time>2011-07-22T06:01:06Z</time>
  <speed>3.310000</speed>
</trkpt>
<trkpt lat="32.877746582" lon="35.247390747">
  <ele>221.333252</ele>
  <time>2011-07-22T06:01:08Z</time>
  <speed>2.300000</speed>
</trkpt>
<trkpt lat="32.877758026" lon="35.247436523">
  <ele>221.106689</ele>
  <time>2011-07-22T06:01:10Z</time>
  <speed>1.870000</speed>
</trkpt>
<trkpt lat="32.877750397" lon="35.247478485">
  <ele>220.989502</ele>
  <time>2011-07-22T06:01:12Z</time>
  <speed>1.670000</speed>
</trkpt>
<trkpt lat="32.877746582" lon="35.247528076">
  <ele>221.048096</ele>
  <time>2011-07-22T06:01:14Z</time>
  <speed>2.560000</speed>
</trkpt>
<trkpt lat="32.877754211" lon="35.247589111">
  <ele>220.653564</ele>
  <time>2011-07-22T06:01:16Z</time>
  <speed>3.180000</speed>
</trkpt>
<trkpt lat="32.877758026" lon="35.247650146">
  <ele>220.079346</ele>
  <time>2011-07-22T06:01:18Z</time>
  <speed>2.900000</speed>
</trkpt>
<trkpt lat="32.877761841" lon="35.247707367">
  <ele>220.110596</ele>
  <time>2011-07-22T06:01:20Z</time>
  <speed>2.660000</speed>
</trkpt>
<trkpt lat="32.877769470" lon="35.247764587">
  <ele>219.790283</ele>
  <time>2011-07-22T06:01:22Z</time>
  <speed>2.570000</speed>
</trkpt>
<trkpt lat="32.877784729" lon="35.247821808">
  <ele>219.634033</ele>
  <time>2011-07-22T06:01:24Z</time>
  <speed>2.740000</speed>
</trkpt>
<trkpt lat="32.877796173" lon="35.247852325">
  <ele>219.364502</ele>
  <time>2011-07-22T06:01:25Z</time>
  <speed>2.610000</speed>
</trkpt>
<trkpt lat="32.877811432" lon="35.247909546">
  <ele>219.161377</ele>
  <time>2011-07-22T06:01:27Z</time>
  <speed>3.010000</speed>
</trkpt>
<trkpt lat="32.877826691" lon="35.247943878">
  <ele>219.337158</ele>
  <time>2011-07-22T06:01:28Z</time>
  <speed>3.330000</speed>
</trkpt>
<trkpt lat="32.877845764" lon="35.247982025">
  <ele>219.298096</ele>
  <time>2011-07-22T06:01:29Z</time>
  <speed>3.850000</speed>
</trkpt>
<trkpt lat="32.877864838" lon="35.248016357">
  <ele>219.208252</ele>
  <time>2011-07-22T06:01:30Z</time>
  <speed>4.660000</speed>
</trkpt>
<trkpt lat="32.877895355" lon="35.248058319">
  <ele>218.856689</ele>
  <time>2011-07-22T06:01:31Z</time>
  <speed>4.780000</speed>
</trkpt>
<trkpt lat="32.877922058" lon="35.248100281">
  <ele>218.712158</ele>
  <time>2011-07-22T06:01:32Z</time>
  <speed>5.070000</speed>
</trkpt>
<trkpt lat="32.877952576" lon="35.248157501">
  <ele>218.321533</ele>
  <time>2011-07-22T06:01:33Z</time>
  <speed>6.000000</speed>
</trkpt>
<trkpt lat="32.877983093" lon="35.248218536">
  <ele>218.243408</ele>
  <time>2011-07-22T06:01:34Z</time>
  <speed>6.260000</speed>
</trkpt>
<trkpt lat="32.878017426" lon="35.248283386">
  <ele>218.063721</ele>
  <time>2011-07-22T06:01:35Z</time>
  <speed>6.460000</speed>
</trkpt>
<trkpt lat="32.878040314" lon="35.248344421">
  <ele>218.165283</ele>
  <time>2011-07-22T06:01:36Z</time>
  <speed>6.630000</speed>
</trkpt>
<trkpt lat="32.878051758" lon="35.248405457">
  <ele>217.692627</ele>
  <time>2011-07-22T06:01:37Z</time>
  <speed>6.160000</speed>
</trkpt>
<trkpt lat="32.878063202" lon="35.248466492">
  <ele>217.442627</ele>
  <time>2011-07-22T06:01:38Z</time>
  <speed>6.040000</speed>
</trkpt>
<trkpt lat="32.878055573" lon="35.248535156">
  <ele>217.126221</ele>
  <time>2011-07-22T06:01:39Z</time>
  <speed>5.540000</speed>
</trkpt>
<trkpt lat="32.878055573" lon="35.248592377">
  <ele>216.927002</ele>
  <time>2011-07-22T06:01:40Z</time>
  <speed>4.940000</speed>
</trkpt>
<trkpt lat="32.878051758" lon="35.248638153">
  <ele>216.755127</ele>
  <time>2011-07-22T06:01:41Z</time>
  <speed>4.300000</speed>
</trkpt>
<trkpt lat="32.878032684" lon="35.248680115">
  <ele>216.954346</ele>
  <time>2011-07-22T06:01:42Z</time>
  <speed>3.440000</speed>
</trkpt>
<trkpt lat="32.878032684" lon="35.248718262">
  <ele>217.048096</ele>
  <time>2011-07-22T06:01:43Z</time>
  <speed>3.280000</speed>
</trkpt>
<trkpt lat="32.878028870" lon="35.248775482">
  <ele>217.177002</ele>
  <time>2011-07-22T06:01:45Z</time>
  <speed>2.010000</speed>
</trkpt>
<trkpt lat="32.878009796" lon="35.248825073">
  <ele>218.427002</ele>
  <time>2011-07-22T06:01:47Z</time>
  <speed>1.630000</speed>
</trkpt>
<trkpt lat="32.877998352" lon="35.248855591">
  <ele>218.434814</ele>
  <time>2011-07-22T06:01:49Z</time>
  <speed>1.480000</speed>
</trkpt>
<trkpt lat="32.878013611" lon="35.248889923">
  <ele>218.653564</ele>
  <time>2011-07-22T06:01:51Z</time>
  <speed>1.520000</speed>
</trkpt>
<trkpt lat="32.878044128" lon="35.248920441">
  <ele>219.552002</ele>
  <time>2011-07-22T06:01:52Z</time>
  <speed>1.780000</speed>
</trkpt>
<trkpt lat="32.878070831" lon="35.248962402">
  <ele>219.915283</ele>
  <time>2011-07-22T06:01:54Z</time>
  <speed>1.650000</speed>
</trkpt>
<trkpt lat="32.878097534" lon="35.249004364">
  <ele>220.723877</ele>
  <time>2011-07-22T06:01:57Z</time>
  <speed>1.680000</speed>
</trkpt>
<trkpt lat="32.878105164" lon="35.249038696">
  <ele>220.661377</ele>
  <time>2011-07-22T06:01:59Z</time>
  <speed>1.380000</speed>
</trkpt>
<trkpt lat="32.878120422" lon="35.249069214">
  <ele>220.735596</ele>
  <time>2011-07-22T06:02:01Z</time>
  <speed>1.730000</speed>
</trkpt>
<trkpt lat="32.878135681" lon="35.249103546">
  <ele>221.337158</ele>
  <time>2011-07-22T06:02:03Z</time>
  <speed>1.710000</speed>
</trkpt>
<trkpt lat="32.878154755" lon="35.249137878">
  <ele>221.497314</ele>
  <time>2011-07-22T06:02:05Z</time>
  <speed>1.720000</speed>
</trkpt>
<trkpt lat="32.878166199" lon="35.249172211">
  <ele>221.427002</ele>
  <time>2011-07-22T06:02:07Z</time>
  <speed>1.680000</speed>
</trkpt>
<trkpt lat="32.878204346" lon="35.249206543">
  <ele>222.227783</ele>
  <time>2011-07-22T06:02:09Z</time>
  <speed>2.110000</speed>
</trkpt>
<trkpt lat="32.878215790" lon="35.249240875">
  <ele>221.977783</ele>
  <time>2011-07-22T06:02:11Z</time>
  <speed>1.870000</speed>
</trkpt>
<trkpt lat="32.878242493" lon="35.249282837">
  <ele>222.012939</ele>
  <time>2011-07-22T06:02:13Z</time>
  <speed>2.100000</speed>
</trkpt>
<trkpt lat="32.878261566" lon="35.249328613">
  <ele>222.259033</ele>
  <time>2011-07-22T06:02:15Z</time>
  <speed>1.980000</speed>
</trkpt>
<trkpt lat="32.878276825" lon="35.249366760">
  <ele>221.196533</ele>
  <time>2011-07-22T06:02:17Z</time>
  <speed>1.790000</speed>
</trkpt>
<trkpt lat="32.878276825" lon="35.249404907">
  <ele>221.083252</ele>
  <time>2011-07-22T06:02:19Z</time>
  <speed>1.760000</speed>
</trkpt>
<trkpt lat="32.878273010" lon="35.249439240">
  <ele>221.052002</ele>
  <time>2011-07-22T06:02:21Z</time>
  <speed>1.650000</speed>
</trkpt>
<trkpt lat="32.878269196" lon="35.249469757">
  <ele>221.341064</ele>
  <time>2011-07-22T06:02:23Z</time>
  <speed>1.940000</speed>
</trkpt>
<trkpt lat="32.878261566" lon="35.249523163">
  <ele>222.177002</ele>
  <time>2011-07-22T06:02:25Z</time>
  <speed>1.850000</speed>
</trkpt>
<trkpt lat="32.878242493" lon="35.249549866">
  <ele>223.134033</ele>
  <time>2011-07-22T06:02:27Z</time>
  <speed>1.630000</speed>
</trkpt>
<trkpt lat="32.878219604" lon="35.249572754">
  <ele>222.950439</ele>
  <time>2011-07-22T06:02:29Z</time>
  <speed>1.560000</speed>
</trkpt>
<trkpt lat="32.878204346" lon="35.249614716">
  <ele>222.923096</ele>
  <time>2011-07-22T06:02:31Z</time>
  <speed>1.570000</speed>
</trkpt>
<trkpt lat="32.878189087" lon="35.249656677">
  <ele>222.532471</ele>
  <time>2011-07-22T06:02:34Z</time>
  <speed>1.710000</speed>
</trkpt>
<trkpt lat="32.878177643" lon="35.249691010">
  <ele>222.091064</ele>
  <time>2011-07-22T06:02:36Z</time>
  <speed>1.620000</speed>
</trkpt>
<trkpt lat="32.878162384" lon="35.249725342">
  <ele>221.712158</ele>
  <time>2011-07-22T06:02:38Z</time>
  <speed>1.430000</speed>
</trkpt>
<trkpt lat="32.878147125" lon="35.249752045">
  <ele>221.559814</ele>
  <time>2011-07-22T06:02:40Z</time>
  <speed>1.440000</speed>
</trkpt>
<trkpt lat="32.878135681" lon="35.249794006">
  <ele>220.989502</ele>
  <time>2011-07-22T06:02:42Z</time>
  <speed>1.800000</speed>
</trkpt>
<trkpt lat="32.878112793" lon="35.249835968">
  <ele>220.130127</ele>
  <time>2011-07-22T06:02:44Z</time>
  <speed>1.940000</speed>
</trkpt>
<trkpt lat="32.878086090" lon="35.249858856">
  <ele>219.212158</ele>
  <time>2011-07-22T06:02:45Z</time>
  <speed>2.080000</speed>
</trkpt>
<trkpt lat="32.878055573" lon="35.249900818">
  <ele>218.344971</ele>
  <time>2011-07-22T06:02:47Z</time>
  <speed>2.740000</speed>
</trkpt>
<trkpt lat="32.878013611" lon="35.249927521">
  <ele>217.567627</ele>
  <time>2011-07-22T06:02:49Z</time>
  <speed>2.070000</speed>
</trkpt>
<trkpt lat="32.877979279" lon="35.249931335">
  <ele>217.294189</ele>
  <time>2011-07-22T06:02:50Z</time>
  <speed>1.850000</speed>
</trkpt>
<trkpt lat="32.877925873" lon="35.249931335">
  <ele>216.669189</ele>
  <time>2011-07-22T06:02:52Z</time>
  <speed>1.220000</speed>
</trkpt>
<trkpt lat="32.877895355" lon="35.249931335">
  <ele>215.469971</ele>
  <time>2011-07-22T06:02:54Z</time>
  <speed>1.440000</speed>
</trkpt>
<trkpt lat="32.877864838" lon="35.249923706">
  <ele>215.247314</ele>
  <time>2011-07-22T06:02:56Z</time>
  <speed>1.680000</speed>
</trkpt>
<trkpt lat="32.877834320" lon="35.249923706">
  <ele>214.653564</ele>
  <time>2011-07-22T06:02:58Z</time>
  <speed>1.450000</speed>
</trkpt>
<trkpt lat="32.877799988" lon="35.249900818">
  <ele>214.114502</ele>
  <time>2011-07-22T06:03:01Z</time>
  <speed>1.610000</speed>
</trkpt>
<trkpt lat="32.877773285" lon="35.249900818">
  <ele>214.118408</ele>
  <time>2011-07-22T06:03:03Z</time>
  <speed>1.270000</speed>
</trkpt>
<trkpt lat="32.877742767" lon="35.249916077">
  <ele>213.450439</ele>
  <time>2011-07-22T06:03:05Z</time>
  <speed>1.330000</speed>
</trkpt>
<trkpt lat="32.877704620" lon="35.249923706">
  <ele>214.575439</ele>
  <time>2011-07-22T06:03:07Z</time>
  <speed>1.480000</speed>
</trkpt>
<trkpt lat="32.877670288" lon="35.249916077">
  <ele>215.403564</ele>
  <time>2011-07-22T06:03:09Z</time>
  <speed>1.690000</speed>
</trkpt>
<trkpt lat="32.877643585" lon="35.249904633">
  <ele>215.755127</ele>
  <time>2011-07-22T06:03:11Z</time>
  <speed>1.500000</speed>
</trkpt>
<trkpt lat="32.877609253" lon="35.249904633">
  <ele>216.575439</ele>
  <time>2011-07-22T06:03:13Z</time>
  <speed>1.580000</speed>
</trkpt>
<trkpt lat="32.877578735" lon="35.249900818">
  <ele>217.012939</ele>
  <time>2011-07-22T06:03:15Z</time>
  <speed>1.290000</speed>
</trkpt>
<trkpt lat="32.877548218" lon="35.249900818">
  <ele>217.719971</ele>
  <time>2011-07-22T06:03:17Z</time>
  <speed>1.430000</speed>
</trkpt>
<trkpt lat="32.877517700" lon="35.249897003">
  <ele>218.387939</ele>
  <time>2011-07-22T06:03:19Z</time>
  <speed>1.490000</speed>
</trkpt>
<trkpt lat="32.877487183" lon="35.249897003">
  <ele>219.098877</ele>
  <time>2011-07-22T06:03:21Z</time>
  <speed>1.600000</speed>
</trkpt>
<trkpt lat="32.877449036" lon="35.249893188">
  <ele>219.973877</ele>
  <time>2011-07-22T06:03:23Z</time>
  <speed>1.950000</speed>
</trkpt>
<trkpt lat="32.877422333" lon="35.249866486">
  <ele>220.829346</ele>
  <time>2011-07-22T06:03:25Z</time>
  <speed>1.510000</speed>
</trkpt>
<trkpt lat="32.877403259" lon="35.249835968">
  <ele>221.298096</ele>
  <time>2011-07-22T06:03:27Z</time>
  <speed>1.730000</speed>
</trkpt>
<trkpt lat="32.877395630" lon="35.249797821">
  <ele>222.587158</ele>
  <time>2011-07-22T06:03:29Z</time>
  <speed>1.600000</speed>
</trkpt>
<trkpt lat="32.877388000" lon="35.249782562">
  <ele>225.591064</ele>
  <time>2011-07-22T06:03:31Z</time>
  <speed>1.510000</speed>
</trkpt>
<trkpt lat="32.877410889" lon="35.249771118">
  <ele>226.790283</ele>
  <time>2011-07-22T06:03:33Z</time>
  <speed>1.330000</speed>
</trkpt>
<trkpt lat="32.877445221" lon="35.249744415">
  <ele>229.212158</ele>
  <time>2011-07-22T06:03:35Z</time>
  <speed>1.740000</speed>
</trkpt>
<trkpt lat="32.877471924" lon="35.249725342">
  <ele>230.446533</ele>
  <time>2011-07-22T06:03:37Z</time>
  <speed>1.650000</speed>
</trkpt>
<trkpt lat="32.877506256" lon="35.249710083">
  <ele>230.977783</ele>
  <time>2011-07-22T06:03:39Z</time>
  <speed>1.710000</speed>
</trkpt>
<trkpt lat="32.877536774" lon="35.249687195">
  <ele>231.251221</ele>
  <time>2011-07-22T06:03:41Z</time>
  <speed>1.510000</speed>
</trkpt>
<trkpt lat="32.877555847" lon="35.249660492">
  <ele>232.231689</ele>
  <time>2011-07-22T06:03:45Z</time>
  <speed>1.180000</speed>
</trkpt>
<trkpt lat="32.877567291" lon="35.249626160">
  <ele>232.837158</ele>
  <time>2011-07-22T06:03:48Z</time>
  <speed>1.270000</speed>
</trkpt>
<trkpt lat="32.877567291" lon="35.249591827">
  <ele>233.141846</ele>
  <time>2011-07-22T06:03:50Z</time>
  <speed>0.850000</speed>
</trkpt>
<trkpt lat="32.877555847" lon="35.249546051">
  <ele>233.489502</ele>
  <time>2011-07-22T06:03:53Z</time>
  <speed>1.330000</speed>
</trkpt>
<trkpt lat="32.877548218" lon="35.249511719">
  <ele>233.927002</ele>
  <time>2011-07-22T06:03:54Z</time>
  <speed>1.310000</speed>
</trkpt>
<trkpt lat="32.877532959" lon="35.249462128">
  <ele>234.719971</ele>
  <time>2011-07-22T06:03:56Z</time>
  <speed>1.630000</speed>
</trkpt>
<trkpt lat="32.877517700" lon="35.249420166">
  <ele>234.501221</ele>
  <time>2011-07-22T06:03:58Z</time>
  <speed>1.620000</speed>
</trkpt>
<trkpt lat="32.877487183" lon="35.249382019">
  <ele>235.122314</ele>
  <time>2011-07-22T06:04:00Z</time>
  <speed>1.600000</speed>
</trkpt>
<trkpt lat="32.877460480" lon="35.249362946">
  <ele>235.055908</ele>
  <time>2011-07-22T06:04:02Z</time>
  <speed>1.750000</speed>
</trkpt>
<trkpt lat="32.877429962" lon="35.249343872">
  <ele>235.227783</ele>
  <time>2011-07-22T06:04:04Z</time>
  <speed>1.620000</speed>
</trkpt>
<trkpt lat="32.877399445" lon="35.249351501">
  <ele>234.677002</ele>
  <time>2011-07-22T06:04:06Z</time>
  <speed>1.500000</speed>
</trkpt>
<trkpt lat="32.877372742" lon="35.249370575">
  <ele>234.196533</ele>
  <time>2011-07-22T06:04:09Z</time>
  <speed>0.890000</speed>
</trkpt>
<trkpt lat="32.877342224" lon="35.249378204">
  <ele>234.485596</ele>
  <time>2011-07-22T06:04:12Z</time>
  <speed>1.140000</speed>
</trkpt>
<trkpt lat="32.877304077" lon="35.249389648">
  <ele>233.907471</ele>
  <time>2011-07-22T06:04:14Z</time>
  <speed>1.690000</speed>
</trkpt>
<trkpt lat="32.877281189" lon="35.249404907">
  <ele>235.391846</ele>
  <time>2011-07-22T06:04:15Z</time>
  <speed>0.790000</speed>
</trkpt>
<trkpt lat="32.877258301" lon="35.249423981">
  <ele>236.286377</ele>
  <time>2011-07-22T06:04:17Z</time>
  <speed>1.190000</speed>
</trkpt>
<trkpt lat="32.877220154" lon="35.249431610">
  <ele>235.423096</ele>
  <time>2011-07-22T06:04:19Z</time>
  <speed>1.440000</speed>
</trkpt>
<trkpt lat="32.877193451" lon="35.249446869">
  <ele>235.497314</ele>
  <time>2011-07-22T06:04:21Z</time>
  <speed>1.540000</speed>
</trkpt>
<trkpt lat="32.877162933" lon="35.249454498">
  <ele>234.544189</ele>
  <time>2011-07-22T06:04:23Z</time>
  <speed>1.390000</speed>
</trkpt>
<trkpt lat="32.877132416" lon="35.249465942">
  <ele>234.677002</ele>
  <time>2011-07-22T06:04:25Z</time>
  <speed>1.140000</speed>
</trkpt>
<trkpt lat="32.877101898" lon="35.249477386">
  <ele>234.516846</ele>
  <time>2011-07-22T06:04:27Z</time>
  <speed>1.210000</speed>
</trkpt>
<trkpt lat="32.877059937" lon="35.249485016">
  <ele>234.477783</ele>
  <time>2011-07-22T06:04:30Z</time>
  <speed>1.460000</speed>
</trkpt>
<trkpt lat="32.877033234" lon="35.249492645">
  <ele>233.716064</ele>
  <time>2011-07-22T06:04:32Z</time>
  <speed>1.250000</speed>
</trkpt>
<trkpt lat="32.876998901" lon="35.249504089">
  <ele>233.719971</ele>
  <time>2011-07-22T06:04:34Z</time>
  <speed>1.350000</speed>
</trkpt>
<trkpt lat="32.876964569" lon="35.249511719">
  <ele>233.536377</ele>
  <time>2011-07-22T06:04:36Z</time>
  <speed>1.710000</speed>
</trkpt>
<trkpt lat="32.876930237" lon="35.249519348">
  <ele>232.649658</ele>
  <time>2011-07-22T06:04:38Z</time>
  <speed>1.590000</speed>
</trkpt>
<trkpt lat="32.876903534" lon="35.249511719">
  <ele>232.169189</ele>
  <time>2011-07-22T06:04:40Z</time>
  <speed>1.560000</speed>
</trkpt>
<trkpt lat="32.876865387" lon="35.249519348">
  <ele>232.587158</ele>
  <time>2011-07-22T06:04:42Z</time>
  <speed>1.920000</speed>
</trkpt>
<trkpt lat="32.876831055" lon="35.249523163">
  <ele>232.856689</ele>
  <time>2011-07-22T06:04:44Z</time>
  <speed>1.770000</speed>
</trkpt>
<trkpt lat="32.876792908" lon="35.249530792">
  <ele>232.860596</ele>
  <time>2011-07-22T06:04:46Z</time>
  <speed>1.540000</speed>
</trkpt>
<trkpt lat="32.876750946" lon="35.249530792">
  <ele>232.602783</ele>
  <time>2011-07-22T06:04:49Z</time>
  <speed>1.710000</speed>
</trkpt>
<trkpt lat="32.876720428" lon="35.249546051">
  <ele>232.286377</ele>
  <time>2011-07-22T06:04:51Z</time>
  <speed>1.790000</speed>
</trkpt>
<trkpt lat="32.876686096" lon="35.249549866">
  <ele>232.430908</ele>
  <time>2011-07-22T06:04:53Z</time>
  <speed>1.500000</speed>
</trkpt>
<trkpt lat="32.876659393" lon="35.249546051">
  <ele>232.423096</ele>
  <time>2011-07-22T06:04:55Z</time>
  <speed>1.530000</speed>
</trkpt>
<trkpt lat="32.876628876" lon="35.249557495">
  <ele>233.231689</ele>
  <time>2011-07-22T06:04:57Z</time>
  <speed>1.550000</speed>
</trkpt>
<trkpt lat="32.876594543" lon="35.249561310">
  <ele>233.415283</ele>
  <time>2011-07-22T06:04:59Z</time>
  <speed>1.650000</speed>
</trkpt>
<trkpt lat="32.876567841" lon="35.249568939">
  <ele>232.973877</ele>
  <time>2011-07-22T06:05:01Z</time>
  <speed>1.590000</speed>
</trkpt>
<trkpt lat="32.876525879" lon="35.249576569">
  <ele>232.677002</ele>
  <time>2011-07-22T06:05:04Z</time>
  <speed>1.670000</speed>
</trkpt>
<trkpt lat="32.876487732" lon="35.249572754">
  <ele>234.477783</ele>
  <time>2011-07-22T06:05:06Z</time>
  <speed>1.540000</speed>
</trkpt>
<trkpt lat="32.876457214" lon="35.249565125">
  <ele>234.380127</ele>
  <time>2011-07-22T06:05:08Z</time>
  <speed>1.460000</speed>
</trkpt>
<trkpt lat="32.876422882" lon="35.249568939">
  <ele>233.645752</ele>
  <time>2011-07-22T06:05:10Z</time>
  <speed>1.410000</speed>
</trkpt>
<trkpt lat="32.876396179" lon="35.249572754">
  <ele>233.524658</ele>
  <time>2011-07-22T06:05:12Z</time>
  <speed>1.470000</speed>
</trkpt>
<trkpt lat="32.876365662" lon="35.249572754">
  <ele>233.473877</ele>
  <time>2011-07-22T06:05:14Z</time>
  <speed>1.510000</speed>
</trkpt>
<trkpt lat="32.876335144" lon="35.249572754">
  <ele>232.930908</ele>
  <time>2011-07-22T06:05:16Z</time>
  <speed>1.450000</speed>
</trkpt>
<trkpt lat="32.876304626" lon="35.249580383">
  <ele>233.716064</ele>
  <time>2011-07-22T06:05:18Z</time>
  <speed>1.640000</speed>
</trkpt>
<trkpt lat="32.876270294" lon="35.249580383">
  <ele>234.083252</ele>
  <time>2011-07-22T06:05:20Z</time>
  <speed>1.650000</speed>
</trkpt>
<trkpt lat="32.876239777" lon="35.249576569">
  <ele>234.059814</ele>
  <time>2011-07-22T06:05:22Z</time>
  <speed>1.280000</speed>
</trkpt>
<trkpt lat="32.876209259" lon="35.249576569">
  <ele>233.618408</ele>
  <time>2011-07-22T06:05:24Z</time>
  <speed>1.520000</speed>
</trkpt>
<trkpt lat="32.876178741" lon="35.249580383">
  <ele>233.630127</ele>
  <time>2011-07-22T06:05:26Z</time>
  <speed>1.350000</speed>
</trkpt>
<trkpt lat="32.876152039" lon="35.249572754">
  <ele>233.446533</ele>
  <time>2011-07-22T06:05:28Z</time>
  <speed>1.730000</speed>
</trkpt>
<trkpt lat="32.876121521" lon="35.249565125">
  <ele>233.805908</ele>
  <time>2011-07-22T06:05:30Z</time>
  <speed>1.670000</speed>
</trkpt>
<trkpt lat="32.876087189" lon="35.249572754">
  <ele>234.032471</ele>
  <time>2011-07-22T06:05:32Z</time>
  <speed>1.570000</speed>
</trkpt>
<trkpt lat="32.876049042" lon="35.249568939">
  <ele>234.950439</ele>
  <time>2011-07-22T06:05:34Z</time>
  <speed>1.740000</speed>
</trkpt>
<trkpt lat="32.876018524" lon="35.249557495">
  <ele>234.872314</ele>
  <time>2011-07-22T06:05:36Z</time>
  <speed>1.720000</speed>
</trkpt>
<trkpt lat="32.875988007" lon="35.249546051">
  <ele>234.555908</ele>
  <time>2011-07-22T06:05:38Z</time>
  <speed>1.700000</speed>
</trkpt>
<trkpt lat="32.875961304" lon="35.249530792">
  <ele>234.380127</ele>
  <time>2011-07-22T06:05:40Z</time>
  <speed>1.830000</speed>
</trkpt>
<trkpt lat="32.875934601" lon="35.249515533">
  <ele>235.020752</ele>
  <time>2011-07-22T06:05:42Z</time>
  <speed>1.870000</speed>
</trkpt>
<trkpt lat="32.875900269" lon="35.249515533">
  <ele>236.333252</ele>
  <time>2011-07-22T06:05:44Z</time>
  <speed>1.650000</speed>
</trkpt>
<trkpt lat="32.875869751" lon="35.249507904">
  <ele>236.079346</ele>
  <time>2011-07-22T06:05:46Z</time>
  <speed>1.880000</speed>
</trkpt>
<trkpt lat="32.875839233" lon="35.249488831">
  <ele>236.356689</ele>
  <time>2011-07-22T06:05:48Z</time>
  <speed>1.870000</speed>
</trkpt>
<trkpt lat="32.875804901" lon="35.249477386">
  <ele>236.454346</ele>
  <time>2011-07-22T06:05:50Z</time>
  <speed>1.740000</speed>
</trkpt>
<trkpt lat="32.875770569" lon="35.249477386">
  <ele>237.559814</ele>
  <time>2011-07-22T06:05:52Z</time>
  <speed>1.550000</speed>
</trkpt>
<trkpt lat="32.875736237" lon="35.249473572">
  <ele>238.594971</ele>
  <time>2011-07-22T06:05:54Z</time>
  <speed>1.770000</speed>
</trkpt>
<trkpt lat="32.875705719" lon="35.249465942">
  <ele>238.430908</ele>
  <time>2011-07-22T06:05:56Z</time>
  <speed>1.560000</speed>
</trkpt>
<trkpt lat="32.875679016" lon="35.249465942">
  <ele>239.442627</ele>
  <time>2011-07-22T06:05:58Z</time>
  <speed>1.770000</speed>
</trkpt>
<trkpt lat="32.875644684" lon="35.249465942">
  <ele>239.829346</ele>
  <time>2011-07-22T06:06:00Z</time>
  <speed>1.640000</speed>
</trkpt>
<trkpt lat="32.875614166" lon="35.249458313">
  <ele>239.927002</ele>
  <time>2011-07-22T06:06:02Z</time>
  <speed>1.690000</speed>
</trkpt>
<trkpt lat="32.875579834" lon="35.249458313">
  <ele>240.493408</ele>
  <time>2011-07-22T06:06:04Z</time>
  <speed>1.630000</speed>
</trkpt>
<trkpt lat="32.875545502" lon="35.249465942">
  <ele>241.313721</ele>
  <time>2011-07-22T06:06:06Z</time>
  <speed>1.760000</speed>
</trkpt>
<trkpt lat="32.875511169" lon="35.249465942">
  <ele>242.259033</ele>
  <time>2011-07-22T06:06:08Z</time>
  <speed>1.850000</speed>
</trkpt>
<trkpt lat="32.875476837" lon="35.249469757">
  <ele>242.829346</ele>
  <time>2011-07-22T06:06:10Z</time>
  <speed>1.680000</speed>
</trkpt>
<trkpt lat="32.875438690" lon="35.249473572">
  <ele>242.907471</ele>
  <time>2011-07-22T06:06:12Z</time>
  <speed>1.740000</speed>
</trkpt>
<trkpt lat="32.875404358" lon="35.249481201">
  <ele>244.052002</ele>
  <time>2011-07-22T06:06:14Z</time>
  <speed>1.710000</speed>
</trkpt>
<trkpt lat="32.875370026" lon="35.249485016">
  <ele>244.376221</ele>
  <time>2011-07-22T06:06:16Z</time>
  <speed>1.640000</speed>
</trkpt>
<trkpt lat="32.875331879" lon="35.249485016">
  <ele>244.243408</ele>
  <time>2011-07-22T06:06:18Z</time>
  <speed>1.820000</speed>
</trkpt>
<trkpt lat="32.875297546" lon="35.249492645">
  <ele>244.548096</ele>
  <time>2011-07-22T06:06:20Z</time>
  <speed>1.850000</speed>
</trkpt>
<trkpt lat="32.875270844" lon="35.249507904">
  <ele>244.985596</ele>
  <time>2011-07-22T06:06:22Z</time>
  <speed>1.600000</speed>
</trkpt>
<trkpt lat="32.875244141" lon="35.249519348">
  <ele>245.305908</ele>
  <time>2011-07-22T06:06:24Z</time>
  <speed>1.470000</speed>
</trkpt>
<trkpt lat="32.875213623" lon="35.249523163">
  <ele>245.356689</ele>
  <time>2011-07-22T06:06:26Z</time>
  <speed>1.520000</speed>
</trkpt>
<trkpt lat="32.875186920" lon="35.249530792">
  <ele>245.079346</ele>
  <time>2011-07-22T06:06:28Z</time>
  <speed>1.670000</speed>
</trkpt>
<trkpt lat="32.875152588" lon="35.249542236">
  <ele>246.196533</ele>
  <time>2011-07-22T06:06:30Z</time>
  <speed>1.610000</speed>
</trkpt>
<trkpt lat="32.875125885" lon="35.249565125">
  <ele>246.716064</ele>
  <time>2011-07-22T06:06:32Z</time>
  <speed>1.660000</speed>
</trkpt>
<trkpt lat="32.875087738" lon="35.249576569">
  <ele>247.180908</ele>
  <time>2011-07-22T06:06:34Z</time>
  <speed>1.750000</speed>
</trkpt>
<trkpt lat="32.875049591" lon="35.249599457">
  <ele>246.743408</ele>
  <time>2011-07-22T06:06:36Z</time>
  <speed>2.080000</speed>
</trkpt>
<trkpt lat="32.875011444" lon="35.249614716">
  <ele>246.759033</ele>
  <time>2011-07-22T06:06:38Z</time>
  <speed>2.060000</speed>
</trkpt>
<trkpt lat="32.874984741" lon="35.249641418">
  <ele>246.204346</ele>
  <time>2011-07-22T06:06:40Z</time>
  <speed>1.790000</speed>
</trkpt>
<trkpt lat="32.874946594" lon="35.249652863">
  <ele>246.278564</ele>
  <time>2011-07-22T06:06:42Z</time>
  <speed>1.920000</speed>
</trkpt>
<trkpt lat="32.874916077" lon="35.249671936">
  <ele>245.575439</ele>
  <time>2011-07-22T06:06:44Z</time>
  <speed>1.660000</speed>
</trkpt>
<trkpt lat="32.874877930" lon="35.249683380">
  <ele>244.747314</ele>
  <time>2011-07-22T06:06:46Z</time>
  <speed>2.240000</speed>
</trkpt>
<trkpt lat="32.874839783" lon="35.249691010">
  <ele>243.915283</ele>
  <time>2011-07-22T06:06:48Z</time>
  <speed>2.160000</speed>
</trkpt>
<trkpt lat="32.874801636" lon="35.249694824">
  <ele>243.977783</ele>
  <time>2011-07-22T06:06:50Z</time>
  <speed>2.120000</speed>
</trkpt>
<trkpt lat="32.874763489" lon="35.249698639">
  <ele>243.333252</ele>
  <time>2011-07-22T06:06:52Z</time>
  <speed>2.440000</speed>
</trkpt>
<trkpt lat="32.874721527" lon="35.249702454">
  <ele>242.911377</ele>
  <time>2011-07-22T06:06:54Z</time>
  <speed>2.010000</speed>
</trkpt>
<trkpt lat="32.874683380" lon="35.249713898">
  <ele>242.548096</ele>
  <time>2011-07-22T06:06:56Z</time>
  <speed>2.090000</speed>
</trkpt>
<trkpt lat="32.874641418" lon="35.249717712">
  <ele>241.493408</ele>
  <time>2011-07-22T06:06:58Z</time>
  <speed>2.000000</speed>
</trkpt>
<trkpt lat="32.874599457" lon="35.249725342">
  <ele>241.860596</ele>
  <time>2011-07-22T06:07:00Z</time>
  <speed>2.050000</speed>
</trkpt>
<trkpt lat="32.874561310" lon="35.249732971">
  <ele>241.977783</ele>
  <time>2011-07-22T06:07:02Z</time>
  <speed>2.220000</speed>
</trkpt>
<trkpt lat="32.874515533" lon="35.249740601">
  <ele>242.837158</ele>
  <time>2011-07-22T06:07:04Z</time>
  <speed>1.960000</speed>
</trkpt>
<trkpt lat="32.874481201" lon="35.249740601">
  <ele>244.122314</ele>
  <time>2011-07-22T06:07:06Z</time>
  <speed>1.710000</speed>
</trkpt>
<trkpt lat="32.874454498" lon="35.249725342">
  <ele>244.192627</ele>
  <time>2011-07-22T06:07:08Z</time>
  <speed>1.960000</speed>
</trkpt>
<trkpt lat="32.874427795" lon="35.249706268">
  <ele>244.270752</ele>
  <time>2011-07-22T06:07:10Z</time>
  <speed>1.760000</speed>
</trkpt>
<trkpt lat="32.874397278" lon="35.249702454">
  <ele>244.954346</ele>
  <time>2011-07-22T06:07:12Z</time>
  <speed>1.860000</speed>
</trkpt>
<trkpt lat="32.874355316" lon="35.249698639">
  <ele>245.755127</ele>
  <time>2011-07-22T06:07:14Z</time>
  <speed>2.150000</speed>
</trkpt>
<trkpt lat="32.874332428" lon="35.249698639">
  <ele>247.059814</ele>
  <time>2011-07-22T06:07:15Z</time>
  <speed>1.990000</speed>
</trkpt>
<trkpt lat="32.874290466" lon="35.249713898">
  <ele>252.790283</ele>
  <time>2011-07-22T06:07:16Z</time>
  <speed>2.090000</speed>
</trkpt>
<trkpt lat="32.874267578" lon="35.249702454">
  <ele>254.141846</ele>
  <time>2011-07-22T06:07:17Z</time>
  <speed>2.130000</speed>
</trkpt>
<trkpt lat="32.874225616" lon="35.249694824">
  <ele>256.135254</ele>
  <time>2011-07-22T06:07:19Z</time>
  <speed>1.940000</speed>
</trkpt>
<trkpt lat="32.874191284" lon="35.249683380">
  <ele>255.895752</ele>
  <time>2011-07-22T06:07:21Z</time>
  <speed>1.690000</speed>
</trkpt>
<trkpt lat="32.874156952" lon="35.249668121">
  <ele>256.689941</ele>
  <time>2011-07-22T06:07:23Z</time>
  <speed>1.990000</speed>
</trkpt>
<trkpt lat="32.874126434" lon="35.249641418">
  <ele>257.557129</ele>
  <time>2011-07-22T06:07:25Z</time>
  <speed>1.990000</speed>
</trkpt>
<trkpt lat="32.874092102" lon="35.249629974">
  <ele>258.221191</ele>
  <time>2011-07-22T06:07:27Z</time>
  <speed>1.920000</speed>
</trkpt>
<trkpt lat="32.874057770" lon="35.249622345">
  <ele>258.713379</ele>
  <time>2011-07-22T06:07:30Z</time>
  <speed>1.480000</speed>
</trkpt>
<trkpt lat="32.874027252" lon="35.249610901">
  <ele>259.197754</ele>
  <time>2011-07-22T06:07:32Z</time>
  <speed>1.650000</speed>
</trkpt>
<trkpt lat="32.873996735" lon="35.249595642">
  <ele>259.166504</ele>
  <time>2011-07-22T06:07:34Z</time>
  <speed>1.470000</speed>
</trkpt>
<trkpt lat="32.873966217" lon="35.249568939">
  <ele>258.854004</ele>
  <time>2011-07-22T06:07:36Z</time>
  <speed>1.550000</speed>
</trkpt>
<trkpt lat="32.873931885" lon="35.249565125">
  <ele>258.861816</ele>
  <time>2011-07-22T06:07:39Z</time>
  <speed>1.610000</speed>
</trkpt>
<trkpt lat="32.873905182" lon="35.249546051">
  <ele>258.049316</ele>
  <time>2011-07-22T06:07:41Z</time>
  <speed>1.750000</speed>
</trkpt>
<trkpt lat="32.873878479" lon="35.249549866">
  <ele>258.916504</ele>
  <time>2011-07-22T06:07:43Z</time>
  <speed>1.630000</speed>
</trkpt>
<trkpt lat="32.873844147" lon="35.249546051">
  <ele>259.947754</ele>
  <time>2011-07-22T06:07:45Z</time>
  <speed>1.660000</speed>
</trkpt>
<trkpt lat="32.873813629" lon="35.249538422">
  <ele>260.479004</ele>
  <time>2011-07-22T06:07:47Z</time>
  <speed>1.630000</speed>
</trkpt>
<trkpt lat="32.873786926" lon="35.249530792">
  <ele>260.908691</ele>
  <time>2011-07-22T06:07:49Z</time>
  <speed>1.380000</speed>
</trkpt>
<trkpt lat="32.873752594" lon="35.249504089">
  <ele>260.799316</ele>
  <time>2011-07-22T06:07:52Z</time>
  <speed>1.600000</speed>
</trkpt>
<trkpt lat="32.873718262" lon="35.249500275">
  <ele>262.393066</ele>
  <time>2011-07-22T06:07:54Z</time>
  <speed>1.490000</speed>
</trkpt>
<trkpt lat="32.873687744" lon="35.249492645">
  <ele>263.338379</ele>
  <time>2011-07-22T06:07:56Z</time>
  <speed>1.520000</speed>
</trkpt>
<trkpt lat="32.873661041" lon="35.249465942">
  <ele>264.377441</ele>
  <time>2011-07-22T06:07:59Z</time>
  <speed>1.580000</speed>
</trkpt>
<trkpt lat="32.873638153" lon="35.249439240">
  <ele>265.143066</ele>
  <time>2011-07-22T06:08:01Z</time>
  <speed>1.410000</speed>
</trkpt>
<trkpt lat="32.873622894" lon="35.249397278">
  <ele>264.963379</ele>
  <time>2011-07-22T06:08:03Z</time>
  <speed>1.610000</speed>
</trkpt>
<trkpt lat="32.873600006" lon="35.249382019">
  <ele>265.291504</ele>
  <time>2011-07-22T06:08:05Z</time>
  <speed>1.680000</speed>
</trkpt>
<trkpt lat="32.873573303" lon="35.249347687">
  <ele>265.752441</ele>
  <time>2011-07-22T06:08:08Z</time>
  <speed>1.640000</speed>
</trkpt>
<trkpt lat="32.873558044" lon="35.249320984">
  <ele>265.510254</ele>
  <time>2011-07-22T06:08:10Z</time>
  <speed>1.690000</speed>
</trkpt>
<trkpt lat="32.873538971" lon="35.249282837">
  <ele>265.182129</ele>
  <time>2011-07-22T06:08:12Z</time>
  <speed>1.620000</speed>
</trkpt>
<trkpt lat="32.873523712" lon="35.249252319">
  <ele>264.846191</ele>
  <time>2011-07-22T06:08:14Z</time>
  <speed>1.310000</speed>
</trkpt>
<trkpt lat="32.873489380" lon="35.249259949">
  <ele>265.564941</ele>
  <time>2011-07-22T06:08:24Z</time>
  <speed>0.100000</speed>
</trkpt>
<trkpt lat="32.873481750" lon="35.249290466">
  <ele>265.908691</ele>
  <time>2011-07-22T06:08:36Z</time>
  <speed>0.090000</speed>
</trkpt>
<trkpt lat="32.873455048" lon="35.249290466">
  <ele>266.986816</ele>
  <time>2011-07-22T06:08:44Z</time>
  <speed>0.230000</speed>
</trkpt>
<trkpt lat="32.873466492" lon="35.249256134">
  <ele>265.877441</ele>
  <time>2011-07-22T06:08:48Z</time>
</trkpt>
<trkpt lat="32.873451233" lon="35.249240875">
  <ele>263.525879</ele>
  <time>2011-07-22T06:08:57Z</time>
</trkpt>
<trkpt lat="32.873432159" lon="35.249267578">
  <ele>264.564941</ele>
  <time>2011-07-22T06:09:27Z</time>
  <speed>0.040000</speed>
</trkpt>
<trkpt lat="32.873432159" lon="35.249298096">
  <ele>265.768066</ele>
  <time>2011-07-22T06:09:33Z</time>
  <speed>0.100000</speed>
</trkpt>
<trkpt lat="32.873420715" lon="35.249298096">
  <ele>269.080566</ele>
  <time>2011-07-22T06:09:47Z</time>
  <speed>0.050000</speed>
</trkpt>
<trkpt lat="32.873428345" lon="35.249263763">
  <ele>269.400879</ele>
  <time>2011-07-22T06:10:05Z</time>
  <speed>0.080000</speed>
</trkpt>
<trkpt lat="32.873435974" lon="35.249244690">
  <ele>271.814941</ele>
  <time>2011-07-22T06:10:15Z</time>
  <speed>0.060000</speed>
</trkpt>
<trkpt lat="32.873409271" lon="35.249214172">
  <ele>273.150879</ele>
  <time>2011-07-22T06:10:31Z</time>
  <speed>1.700000</speed>
</trkpt>
<trkpt lat="32.873374939" lon="35.249187469">
  <ele>271.744629</ele>
  <time>2011-07-22T06:10:34Z</time>
  <speed>1.890000</speed>
</trkpt>
<trkpt lat="32.873344421" lon="35.249168396">
  <ele>270.705566</ele>
  <time>2011-07-22T06:10:36Z</time>
  <speed>1.960000</speed>
</trkpt>
<trkpt lat="32.873313904" lon="35.249153137">
  <ele>269.564941</ele>
  <time>2011-07-22T06:10:38Z</time>
  <speed>2.150000</speed>
</trkpt>
<trkpt lat="32.873283386" lon="35.249126434">
  <ele>268.588379</ele>
  <time>2011-07-22T06:10:40Z</time>
  <speed>2.160000</speed>
</trkpt>
<trkpt lat="32.873245239" lon="35.249103546">
  <ele>267.471191</ele>
  <time>2011-07-22T06:10:42Z</time>
  <speed>2.570000</speed>
</trkpt>
<trkpt lat="32.873218536" lon="35.249092102">
  <ele>267.299316</ele>
  <time>2011-07-22T06:10:43Z</time>
  <speed>2.660000</speed>
</trkpt>
<trkpt lat="32.873168945" lon="35.249084473">
  <ele>266.564941</ele>
  <time>2011-07-22T06:10:45Z</time>
  <speed>2.570000</speed>
</trkpt>
<trkpt lat="32.873123169" lon="35.249073029">
  <ele>265.322754</ele>
  <time>2011-07-22T06:10:47Z</time>
  <speed>2.590000</speed>
</trkpt>
<trkpt lat="32.873077393" lon="35.249076843">
  <ele>265.932129</ele>
  <time>2011-07-22T06:10:49Z</time>
  <speed>2.300000</speed>
</trkpt>
<trkpt lat="32.873050690" lon="35.249095917">
  <ele>265.986816</ele>
  <time>2011-07-22T06:10:51Z</time>
  <speed>2.080000</speed>
</trkpt>
<trkpt lat="32.873016357" lon="35.249126434">
  <ele>265.033691</ele>
  <time>2011-07-22T06:10:53Z</time>
  <speed>1.920000</speed>
</trkpt>
<trkpt lat="32.872982025" lon="35.249168396">
  <ele>265.619629</ele>
  <time>2011-07-22T06:10:55Z</time>
  <speed>2.120000</speed>
</trkpt>
<trkpt lat="32.872951508" lon="35.249187469">
  <ele>266.166504</ele>
  <time>2011-07-22T06:10:56Z</time>
  <speed>2.750000</speed>
</trkpt>
<trkpt lat="32.872924805" lon="35.249202728">
  <ele>266.861816</ele>
  <time>2011-07-22T06:10:57Z</time>
  <speed>3.050000</speed>
</trkpt>
<trkpt lat="32.872894287" lon="35.249210358">
  <ele>267.525879</ele>
  <time>2011-07-22T06:10:58Z</time>
  <speed>3.170000</speed>
</trkpt>
<trkpt lat="32.872859955" lon="35.249217987">
  <ele>268.127441</ele>
  <time>2011-07-22T06:10:59Z</time>
  <speed>3.410000</speed>
</trkpt>
<trkpt lat="32.872825623" lon="35.249225616">
  <ele>269.002441</ele>
  <time>2011-07-22T06:11:00Z</time>
  <speed>3.590000</speed>
</trkpt>
<trkpt lat="32.872795105" lon="35.249233246">
  <ele>269.627441</ele>
  <time>2011-07-22T06:11:01Z</time>
  <speed>2.990000</speed>
</trkpt>
<trkpt lat="32.872749329" lon="35.249252319">
  <ele>270.143066</ele>
  <time>2011-07-22T06:11:03Z</time>
  <speed>2.570000</speed>
</trkpt>
<trkpt lat="32.872718811" lon="35.249271393">
  <ele>269.541504</ele>
  <time>2011-07-22T06:11:05Z</time>
  <speed>2.430000</speed>
</trkpt>
<trkpt lat="32.872684479" lon="35.249309540">
  <ele>269.650879</ele>
  <time>2011-07-22T06:11:07Z</time>
  <speed>1.880000</speed>
</trkpt>
<trkpt lat="32.872665405" lon="35.249347687">
  <ele>268.580566</ele>
  <time>2011-07-22T06:11:09Z</time>
  <speed>1.950000</speed>
</trkpt>
<trkpt lat="32.872642517" lon="35.249370575">
  <ele>267.736816</ele>
  <time>2011-07-22T06:11:11Z</time>
  <speed>1.880000</speed>
</trkpt>
<trkpt lat="32.872623444" lon="35.249412537">
  <ele>268.650879</ele>
  <time>2011-07-22T06:11:13Z</time>
  <speed>1.670000</speed>
</trkpt>
<trkpt lat="32.872600555" lon="35.249458313">
  <ele>267.752441</ele>
  <time>2011-07-22T06:11:16Z</time>
  <speed>1.680000</speed>
</trkpt>
<trkpt lat="32.872577667" lon="35.249488831">
  <ele>268.119629</ele>
  <time>2011-07-22T06:11:18Z</time>
  <speed>1.730000</speed>
</trkpt>
<trkpt lat="32.872554779" lon="35.249523163">
  <ele>268.924316</ele>
  <time>2011-07-22T06:11:20Z</time>
  <speed>1.750000</speed>
</trkpt>
<trkpt lat="32.872531891" lon="35.249557495">
  <ele>270.041504</ele>
  <time>2011-07-22T06:11:22Z</time>
  <speed>1.830000</speed>
</trkpt>
<trkpt lat="32.872509003" lon="35.249588013">
  <ele>270.033691</ele>
  <time>2011-07-22T06:11:24Z</time>
  <speed>1.720000</speed>
</trkpt>
<trkpt lat="32.872489929" lon="35.249618530">
  <ele>270.682129</ele>
  <time>2011-07-22T06:11:26Z</time>
  <speed>1.800000</speed>
</trkpt>
<trkpt lat="32.872478485" lon="35.249656677">
  <ele>271.471191</ele>
  <time>2011-07-22T06:11:28Z</time>
  <speed>1.910000</speed>
</trkpt>
<trkpt lat="32.872463226" lon="35.249694824">
  <ele>272.346191</ele>
  <time>2011-07-22T06:11:30Z</time>
  <speed>1.860000</speed>
</trkpt>
<trkpt lat="32.872451782" lon="35.249732971">
  <ele>273.979004</ele>
  <time>2011-07-22T06:11:32Z</time>
  <speed>1.760000</speed>
</trkpt>
<trkpt lat="32.872432709" lon="35.249759674">
  <ele>273.854004</ele>
  <time>2011-07-22T06:11:34Z</time>
  <speed>1.920000</speed>
</trkpt>
<trkpt lat="32.872413635" lon="35.249782562">
  <ele>273.791504</ele>
  <time>2011-07-22T06:11:36Z</time>
  <speed>1.700000</speed>
</trkpt>
<trkpt lat="32.872386932" lon="35.249820709">
  <ele>274.814941</ele>
  <time>2011-07-22T06:11:38Z</time>
  <speed>1.720000</speed>
</trkpt>
<trkpt lat="32.872364044" lon="35.249839783">
  <ele>275.025879</ele>
  <time>2011-07-22T06:11:40Z</time>
  <speed>1.790000</speed>
</trkpt>
<trkpt lat="32.872348785" lon="35.249866486">
  <ele>275.393066</ele>
  <time>2011-07-22T06:11:42Z</time>
  <speed>1.690000</speed>
</trkpt>
<trkpt lat="32.872329712" lon="35.249897003">
  <ele>275.588379</ele>
  <time>2011-07-22T06:11:44Z</time>
  <speed>1.730000</speed>
</trkpt>
<trkpt lat="32.872306824" lon="35.249927521">
  <ele>276.525879</ele>
  <time>2011-07-22T06:11:46Z</time>
  <speed>1.770000</speed>
</trkpt>
<trkpt lat="32.872283936" lon="35.249961853">
  <ele>276.861816</ele>
  <time>2011-07-22T06:11:48Z</time>
  <speed>1.750000</speed>
</trkpt>
<trkpt lat="32.872264862" lon="35.249988556">
  <ele>277.182129</ele>
  <time>2011-07-22T06:11:50Z</time>
  <speed>1.710000</speed>
</trkpt>
<trkpt lat="32.872238159" lon="35.250022888">
  <ele>277.697754</ele>
  <time>2011-07-22T06:11:53Z</time>
  <speed>1.620000</speed>
</trkpt>
<trkpt lat="32.872215271" lon="35.250053406">
  <ele>277.416504</ele>
  <time>2011-07-22T06:11:56Z</time>
  <speed>1.730000</speed>
</trkpt>
<trkpt lat="32.872196198" lon="35.250080109">
  <ele>277.096191</ele>
  <time>2011-07-22T06:11:58Z</time>
  <speed>1.710000</speed>
</trkpt>
<trkpt lat="32.872169495" lon="35.250099182">
  <ele>277.783691</ele>
  <time>2011-07-22T06:12:00Z</time>
  <speed>1.720000</speed>
</trkpt>
<trkpt lat="32.872142792" lon="35.250099182">
  <ele>278.736816</ele>
  <time>2011-07-22T06:12:02Z</time>
  <speed>1.430000</speed>
</trkpt>
<trkpt lat="32.872116089" lon="35.250072479">
  <ele>279.354004</ele>
  <time>2011-07-22T06:12:04Z</time>
  <speed>2.250000</speed>
</trkpt>
<trkpt lat="32.872085571" lon="35.250041962">
  <ele>278.986816</ele>
  <time>2011-07-22T06:12:06Z</time>
  <speed>2.010000</speed>
</trkpt>
<trkpt lat="32.872055054" lon="35.250019073">
  <ele>278.299316</ele>
  <time>2011-07-22T06:12:08Z</time>
  <speed>1.870000</speed>
</trkpt>
<trkpt lat="32.872028351" lon="35.249996185">
  <ele>277.775879</ele>
  <time>2011-07-22T06:12:10Z</time>
  <speed>1.830000</speed>
</trkpt>
<trkpt lat="32.872005463" lon="35.249977112">
  <ele>277.408691</ele>
  <time>2011-07-22T06:12:12Z</time>
  <speed>1.490000</speed>
</trkpt>
<trkpt lat="32.871974945" lon="35.249958038">
  <ele>277.502441</ele>
  <time>2011-07-22T06:12:14Z</time>
  <speed>1.750000</speed>
</trkpt>
<trkpt lat="32.871944427" lon="35.249935150">
  <ele>277.486816</ele>
  <time>2011-07-22T06:12:16Z</time>
  <speed>1.810000</speed>
</trkpt>
<trkpt lat="32.871925354" lon="35.249912262">
  <ele>276.025879</ele>
  <time>2011-07-22T06:12:18Z</time>
  <speed>1.670000</speed>
</trkpt>
<trkpt lat="32.871891022" lon="35.249889374">
  <ele>275.814941</ele>
  <time>2011-07-22T06:12:20Z</time>
  <speed>1.770000</speed>
</trkpt>
<trkpt lat="32.871860504" lon="35.249862671">
  <ele>275.799316</ele>
  <time>2011-07-22T06:12:22Z</time>
  <speed>1.740000</speed>
</trkpt>
<trkpt lat="32.871837616" lon="35.249839783">
  <ele>275.479004</ele>
  <time>2011-07-22T06:12:24Z</time>
  <speed>1.600000</speed>
</trkpt>
<trkpt lat="32.871810913" lon="35.249820709">
  <ele>274.963379</ele>
  <time>2011-07-22T06:12:26Z</time>
  <speed>1.660000</speed>
</trkpt>
<trkpt lat="32.871780396" lon="35.249801636">
  <ele>275.619629</ele>
  <time>2011-07-22T06:12:28Z</time>
  <speed>1.840000</speed>
</trkpt>
<trkpt lat="32.871746063" lon="35.249790192">
  <ele>275.830566</ele>
  <time>2011-07-22T06:12:30Z</time>
  <speed>1.700000</speed>
</trkpt>
<trkpt lat="32.871704102" lon="35.249771118">
  <ele>276.244629</ele>
  <time>2011-07-22T06:12:33Z</time>
  <speed>1.710000</speed>
</trkpt>
<trkpt lat="32.871669769" lon="35.249759674">
  <ele>276.760254</ele>
  <time>2011-07-22T06:12:35Z</time>
  <speed>1.620000</speed>
</trkpt>
<trkpt lat="32.871646881" lon="35.249744415">
  <ele>277.932129</ele>
  <time>2011-07-22T06:12:37Z</time>
  <speed>1.620000</speed>
</trkpt>
<trkpt lat="32.871627808" lon="35.249710083">
  <ele>278.814941</ele>
  <time>2011-07-22T06:12:39Z</time>
  <speed>1.640000</speed>
</trkpt>
<trkpt lat="32.871604919" lon="35.249679565">
  <ele>279.689941</ele>
  <time>2011-07-22T06:12:41Z</time>
  <speed>1.500000</speed>
</trkpt>
<trkpt lat="32.871601105" lon="35.249633789">
  <ele>280.822754</ele>
  <time>2011-07-22T06:12:44Z</time>
  <speed>1.360000</speed>
</trkpt>
<trkpt lat="32.871604919" lon="35.249595642">
  <ele>280.502441</ele>
  <time>2011-07-22T06:12:46Z</time>
  <speed>1.660000</speed>
</trkpt>
<trkpt lat="32.871608734" lon="35.249557495">
  <ele>279.650879</ele>
  <time>2011-07-22T06:12:48Z</time>
  <speed>2.000000</speed>
</trkpt>
<trkpt lat="32.871639252" lon="35.249507904">
  <ele>278.096191</ele>
  <time>2011-07-22T06:12:50Z</time>
  <speed>4.060000</speed>
</trkpt>
<trkpt lat="32.871662140" lon="35.249465942">
  <ele>277.221191</ele>
  <time>2011-07-22T06:12:51Z</time>
  <speed>4.650000</speed>
</trkpt>
<trkpt lat="32.871688843" lon="35.249416351">
  <ele>276.041504</ele>
  <time>2011-07-22T06:12:52Z</time>
  <speed>5.710000</speed>
</trkpt>
<trkpt lat="32.871711731" lon="35.249355316">
  <ele>275.221191</ele>
  <time>2011-07-22T06:12:53Z</time>
  <speed>6.410000</speed>
</trkpt>
<trkpt lat="32.871734619" lon="35.249290466">
  <ele>274.322754</ele>
  <time>2011-07-22T06:12:54Z</time>
  <speed>6.720000</speed>
</trkpt>
<trkpt lat="32.871753693" lon="35.249225616">
  <ele>274.775879</ele>
  <time>2011-07-22T06:12:55Z</time>
  <speed>7.060000</speed>
</trkpt>
<trkpt lat="32.871768951" lon="35.249156952">
  <ele>274.916504</ele>
  <time>2011-07-22T06:12:56Z</time>
  <speed>6.600000</speed>
</trkpt>
<trkpt lat="32.871776581" lon="35.249084473">
  <ele>274.354004</ele>
  <time>2011-07-22T06:12:57Z</time>
  <speed>6.300000</speed>
</trkpt>
<trkpt lat="32.871780396" lon="35.249019623">
  <ele>274.908691</ele>
  <time>2011-07-22T06:12:58Z</time>
  <speed>5.760000</speed>
</trkpt>
<trkpt lat="32.871780396" lon="35.248950958">
  <ele>274.877441</ele>
  <time>2011-07-22T06:12:59Z</time>
  <speed>5.560000</speed>
</trkpt>
<trkpt lat="32.871768951" lon="35.248893738">
  <ele>275.322754</ele>
  <time>2011-07-22T06:13:00Z</time>
  <speed>4.180000</speed>
</trkpt>
<trkpt lat="32.871765137" lon="35.248855591">
  <ele>275.932129</ele>
  <time>2011-07-22T06:13:01Z</time>
  <speed>2.960000</speed>
</trkpt>
<trkpt lat="32.871757507" lon="35.248798370">
  <ele>276.541504</ele>
  <time>2011-07-22T06:13:03Z</time>
  <speed>2.160000</speed>
</trkpt>
<trkpt lat="32.871749878" lon="35.248756409">
  <ele>276.299316</ele>
  <time>2011-07-22T06:13:05Z</time>
  <speed>1.850000</speed>
</trkpt>
<trkpt lat="32.871730804" lon="35.248714447">
  <ele>277.268066</ele>
  <time>2011-07-22T06:13:07Z</time>
  <speed>1.730000</speed>
</trkpt>
<trkpt lat="32.871719360" lon="35.248676300">
  <ele>277.502441</ele>
  <time>2011-07-22T06:13:10Z</time>
  <speed>1.490000</speed>
</trkpt>
<trkpt lat="32.871711731" lon="35.248626709">
  <ele>277.080566</ele>
  <time>2011-07-22T06:13:12Z</time>
  <speed>2.350000</speed>
</trkpt>
<trkpt lat="32.871711731" lon="35.248558044">
  <ele>276.494629</ele>
  <time>2011-07-22T06:13:14Z</time>
  <speed>4.490000</speed>
</trkpt>
<trkpt lat="32.871704102" lon="35.248504639">
  <ele>275.557129</ele>
  <time>2011-07-22T06:13:15Z</time>
  <speed>4.610000</speed>
</trkpt>
<trkpt lat="32.871685028" lon="35.248455048">
  <ele>275.697754</ele>
  <time>2011-07-22T06:13:16Z</time>
  <speed>4.790000</speed>
</trkpt>
<trkpt lat="32.871662140" lon="35.248405457">
  <ele>275.205566</ele>
  <time>2011-07-22T06:13:17Z</time>
  <speed>4.880000</speed>
</trkpt>
<trkpt lat="32.871635437" lon="35.248363495">
  <ele>275.408691</ele>
  <time>2011-07-22T06:13:18Z</time>
  <speed>4.400000</speed>
</trkpt>
<trkpt lat="32.871593475" lon="35.248336792">
  <ele>275.783691</ele>
  <time>2011-07-22T06:13:19Z</time>
  <speed>4.710000</speed>
</trkpt>
<trkpt lat="32.871555328" lon="35.248321533">
  <ele>276.150879</ele>
  <time>2011-07-22T06:13:20Z</time>
  <speed>4.190000</speed>
</trkpt>
<trkpt lat="32.871513367" lon="35.248302460">
  <ele>276.049316</ele>
  <time>2011-07-22T06:13:21Z</time>
  <speed>4.070000</speed>
</trkpt>
<trkpt lat="32.871479034" lon="35.248291016">
  <ele>275.619629</ele>
  <time>2011-07-22T06:13:22Z</time>
  <speed>3.720000</speed>
</trkpt>
<trkpt lat="32.871437073" lon="35.248283386">
  <ele>275.893066</ele>
  <time>2011-07-22T06:13:23Z</time>
  <speed>3.720000</speed>
</trkpt>
<trkpt lat="32.871398926" lon="35.248283386">
  <ele>276.369629</ele>
  <time>2011-07-22T06:13:24Z</time>
  <speed>3.350000</speed>
</trkpt>
<trkpt lat="32.871360779" lon="35.248291016">
  <ele>277.025879</ele>
  <time>2011-07-22T06:13:25Z</time>
  <speed>2.940000</speed>
</trkpt>
<trkpt lat="32.871330261" lon="35.248302460">
  <ele>276.932129</ele>
  <time>2011-07-22T06:13:26Z</time>
  <speed>2.780000</speed>
</trkpt>
<trkpt lat="32.871303558" lon="35.248310089">
  <ele>276.432129</ele>
  <time>2011-07-22T06:13:27Z</time>
  <speed>2.120000</speed>
</trkpt>
<trkpt lat="32.871269226" lon="35.248325348">
  <ele>276.674316</ele>
  <time>2011-07-22T06:13:29Z</time>
  <speed>1.630000</speed>
</trkpt>
<trkpt lat="32.871231079" lon="35.248340607">
  <ele>276.877441</ele>
  <time>2011-07-22T06:13:31Z</time>
  <speed>2.000000</speed>
</trkpt>
<trkpt lat="32.871185303" lon="35.248359680">
  <ele>277.275879</ele>
  <time>2011-07-22T06:13:33Z</time>
  <speed>2.530000</speed>
</trkpt>
<trkpt lat="32.871139526" lon="35.248378754">
  <ele>277.697754</ele>
  <time>2011-07-22T06:13:35Z</time>
  <speed>3.070000</speed>
</trkpt>
<trkpt lat="32.871112823" lon="35.248382568">
  <ele>278.275879</ele>
  <time>2011-07-22T06:13:36Z</time>
  <speed>3.400000</speed>
</trkpt>
<trkpt lat="32.871082306" lon="35.248394012">
  <ele>278.549316</ele>
  <time>2011-07-22T06:13:37Z</time>
  <speed>2.870000</speed>
</trkpt>
<trkpt lat="32.871055603" lon="35.248401642">
  <ele>278.260254</ele>
  <time>2011-07-22T06:13:38Z</time>
  <speed>3.220000</speed>
</trkpt>
<trkpt lat="32.871021271" lon="35.248401642">
  <ele>278.338379</ele>
  <time>2011-07-22T06:13:39Z</time>
  <speed>3.340000</speed>
</trkpt>
<trkpt lat="32.870986938" lon="35.248409271">
  <ele>277.830566</ele>
  <time>2011-07-22T06:13:40Z</time>
  <speed>3.670000</speed>
</trkpt>
<trkpt lat="32.870948792" lon="35.248420715">
  <ele>276.994629</ele>
  <time>2011-07-22T06:13:41Z</time>
  <speed>3.760000</speed>
</trkpt>
<trkpt lat="32.870914459" lon="35.248428345">
  <ele>276.627441</ele>
  <time>2011-07-22T06:13:42Z</time>
  <speed>4.120000</speed>
</trkpt>
<trkpt lat="32.870872498" lon="35.248443604">
  <ele>277.674316</ele>
  <time>2011-07-22T06:13:43Z</time>
  <speed>4.080000</speed>
</trkpt>
<trkpt lat="32.870838165" lon="35.248451233">
  <ele>278.088379</ele>
  <time>2011-07-22T06:13:44Z</time>
  <speed>4.030000</speed>
</trkpt>
<trkpt lat="32.870800018" lon="35.248462677">
  <ele>278.416504</ele>
  <time>2011-07-22T06:13:45Z</time>
  <speed>3.760000</speed>
</trkpt>
<trkpt lat="32.870765686" lon="35.248470306">
  <ele>278.455566</ele>
  <time>2011-07-22T06:13:46Z</time>
  <speed>3.230000</speed>
</trkpt>
<trkpt lat="32.870731354" lon="35.248481750">
  <ele>278.799316</ele>
  <time>2011-07-22T06:13:47Z</time>
  <speed>3.430000</speed>
</trkpt>
<trkpt lat="32.870674133" lon="35.248500824">
  <ele>279.705566</ele>
  <time>2011-07-22T06:13:49Z</time>
  <speed>3.030000</speed>
</trkpt>
<trkpt lat="32.870628357" lon="35.248508453">
  <ele>279.393066</ele>
  <time>2011-07-22T06:13:51Z</time>
  <speed>3.090000</speed>
</trkpt>
<trkpt lat="32.870594025" lon="35.248512268">
  <ele>279.900879</ele>
  <time>2011-07-22T06:13:52Z</time>
  <speed>3.030000</speed>
</trkpt>
<trkpt lat="32.870567322" lon="35.248519897">
  <ele>280.783691</ele>
  <time>2011-07-22T06:13:53Z</time>
  <speed>2.860000</speed>
</trkpt>
<trkpt lat="32.870536804" lon="35.248523712">
  <ele>280.502441</ele>
  <time>2011-07-22T06:13:54Z</time>
  <speed>3.190000</speed>
</trkpt>
<trkpt lat="32.870510101" lon="35.248538971">
  <ele>279.479004</ele>
  <time>2011-07-22T06:13:55Z</time>
  <speed>3.220000</speed>
</trkpt>
<trkpt lat="32.870479584" lon="35.248546600">
  <ele>279.502441</ele>
  <time>2011-07-22T06:13:56Z</time>
  <speed>3.250000</speed>
</trkpt>
<trkpt lat="32.870449066" lon="35.248558044">
  <ele>278.994629</ele>
  <time>2011-07-22T06:13:57Z</time>
  <speed>2.970000</speed>
</trkpt>
<trkpt lat="32.870422363" lon="35.248565674">
  <ele>278.947754</ele>
  <time>2011-07-22T06:13:58Z</time>
  <speed>3.060000</speed>
</trkpt>
<trkpt lat="32.870391846" lon="35.248569489">
  <ele>278.783691</ele>
  <time>2011-07-22T06:13:59Z</time>
  <speed>3.000000</speed>
</trkpt>
<trkpt lat="32.870365143" lon="35.248573303">
  <ele>278.619629</ele>
  <time>2011-07-22T06:14:00Z</time>
  <speed>2.720000</speed>
</trkpt>
<trkpt lat="32.870311737" lon="35.248584747">
  <ele>278.041504</ele>
  <time>2011-07-22T06:14:02Z</time>
  <speed>2.600000</speed>
</trkpt>
<trkpt lat="32.870262146" lon="35.248592377">
  <ele>277.291504</ele>
  <time>2011-07-22T06:14:04Z</time>
  <speed>2.560000</speed>
</trkpt>
<trkpt lat="32.870227814" lon="35.248580933">
  <ele>276.932129</ele>
  <time>2011-07-22T06:14:06Z</time>
  <speed>2.080000</speed>
</trkpt>
<trkpt lat="32.870182037" lon="35.248561859">
  <ele>276.846191</ele>
  <time>2011-07-22T06:14:08Z</time>
  <speed>2.660000</speed>
</trkpt>
<trkpt lat="32.870155334" lon="35.248519897">
  <ele>275.908691</ele>
  <time>2011-07-22T06:14:10Z</time>
  <speed>2.880000</speed>
</trkpt>
<trkpt lat="32.870128632" lon="35.248462677">
  <ele>275.385254</ele>
  <time>2011-07-22T06:14:12Z</time>
  <speed>2.310000</speed>
</trkpt>
<trkpt lat="32.870117188" lon="35.248424530">
  <ele>275.166504</ele>
  <time>2011-07-22T06:14:14Z</time>
  <speed>2.220000</speed>
</trkpt>
<trkpt lat="32.870105743" lon="35.248378754">
  <ele>276.455566</ele>
  <time>2011-07-22T06:14:16Z</time>
  <speed>2.370000</speed>
</trkpt>
<trkpt lat="32.870098114" lon="35.248325348">
  <ele>277.072754</ele>
  <time>2011-07-22T06:14:18Z</time>
  <speed>2.440000</speed>
</trkpt>
<trkpt lat="32.870098114" lon="35.248294830">
  <ele>277.346191</ele>
  <time>2011-07-22T06:14:19Z</time>
  <speed>2.420000</speed>
</trkpt>
<trkpt lat="32.870098114" lon="35.248237610">
  <ele>277.525879</ele>
  <time>2011-07-22T06:14:21Z</time>
  <speed>2.600000</speed>
</trkpt>
<trkpt lat="32.870105743" lon="35.248203278">
  <ele>276.885254</ele>
  <time>2011-07-22T06:14:22Z</time>
  <speed>3.110000</speed>
</trkpt>
<trkpt lat="32.870113373" lon="35.248142242">
  <ele>277.283691</ele>
  <time>2011-07-22T06:14:24Z</time>
  <speed>2.970000</speed>
</trkpt>
<trkpt lat="32.870113373" lon="35.248104095">
  <ele>277.838379</ele>
  <time>2011-07-22T06:14:25Z</time>
  <speed>2.820000</speed>
</trkpt>
<trkpt lat="32.870109558" lon="35.248073578">
  <ele>278.455566</ele>
  <time>2011-07-22T06:14:26Z</time>
  <speed>2.610000</speed>
</trkpt>
<trkpt lat="32.870105743" lon="35.248020172">
  <ele>278.502441</ele>
  <time>2011-07-22T06:14:28Z</time>
  <speed>2.290000</speed>
</trkpt>
<trkpt lat="32.870105743" lon="35.247962952">
  <ele>278.268066</ele>
  <time>2011-07-22T06:14:30Z</time>
  <speed>2.470000</speed>
</trkpt>
<trkpt lat="32.870101929" lon="35.247898102">
  <ele>278.189941</ele>
  <time>2011-07-22T06:14:32Z</time>
  <speed>2.770000</speed>
</trkpt>
<trkpt lat="32.870086670" lon="35.247840881">
  <ele>277.557129</ele>
  <time>2011-07-22T06:14:34Z</time>
  <speed>2.860000</speed>
</trkpt>
<trkpt lat="32.870075226" lon="35.247802734">
  <ele>278.135254</ele>
  <time>2011-07-22T06:14:35Z</time>
  <speed>3.340000</speed>
</trkpt>
<trkpt lat="32.870063782" lon="35.247745514">
  <ele>279.635254</ele>
  <time>2011-07-22T06:14:36Z</time>
  <speed>3.330000</speed>
</trkpt>
<trkpt lat="32.870048523" lon="35.247711182">
  <ele>279.682129</ele>
  <time>2011-07-22T06:14:37Z</time>
  <speed>3.180000</speed>
</trkpt>
<trkpt lat="32.870040894" lon="35.247673035">
  <ele>280.236816</ele>
  <time>2011-07-22T06:14:38Z</time>
  <speed>3.460000</speed>
</trkpt>
<trkpt lat="32.870021820" lon="35.247631073">
  <ele>279.939941</ele>
  <time>2011-07-22T06:14:39Z</time>
  <speed>4.000000</speed>
</trkpt>
<trkpt lat="32.870002747" lon="35.247573853">
  <ele>281.025879</ele>
  <time>2011-07-22T06:14:40Z</time>
  <speed>4.450000</speed>
</trkpt>
<trkpt lat="32.869983673" lon="35.247528076">
  <ele>281.143066</ele>
  <time>2011-07-22T06:14:41Z</time>
  <speed>4.720000</speed>
</trkpt>
<trkpt lat="32.869956970" lon="35.247489929">
  <ele>280.713379</ele>
  <time>2011-07-22T06:14:42Z</time>
  <speed>4.300000</speed>
</trkpt>
<trkpt lat="32.869934082" lon="35.247451782">
  <ele>280.604004</ele>
  <time>2011-07-22T06:14:43Z</time>
  <speed>3.950000</speed>
</trkpt>
<trkpt lat="32.869907379" lon="35.247417450">
  <ele>280.869629</ele>
  <time>2011-07-22T06:14:44Z</time>
  <speed>3.920000</speed>
</trkpt>
<trkpt lat="32.869888306" lon="35.247383118">
  <ele>280.643066</ele>
  <time>2011-07-22T06:14:45Z</time>
  <speed>3.660000</speed>
</trkpt>
<trkpt lat="32.869869232" lon="35.247344971">
  <ele>280.893066</ele>
  <time>2011-07-22T06:14:46Z</time>
  <speed>3.660000</speed>
</trkpt>
<trkpt lat="32.869842529" lon="35.247318268">
  <ele>280.471191</ele>
  <time>2011-07-22T06:14:47Z</time>
  <speed>3.600000</speed>
</trkpt>
<trkpt lat="32.869823456" lon="35.247287750">
  <ele>279.369629</ele>
  <time>2011-07-22T06:14:48Z</time>
  <speed>3.670000</speed>
</trkpt>
<trkpt lat="32.869800568" lon="35.247249603">
  <ele>279.189941</ele>
  <time>2011-07-22T06:14:49Z</time>
  <speed>4.620000</speed>
</trkpt>
<trkpt lat="32.869762421" lon="35.247207642">
  <ele>279.049316</ele>
  <time>2011-07-22T06:14:50Z</time>
  <speed>5.410000</speed>
</trkpt>
<trkpt lat="32.869728088" lon="35.247150421">
  <ele>278.252441</ele>
  <time>2011-07-22T06:14:51Z</time>
  <speed>7.170000</speed>
</trkpt>
<trkpt lat="32.869689941" lon="35.247085571">
  <ele>277.299316</ele>
  <time>2011-07-22T06:14:52Z</time>
  <speed>6.860000</speed>
</trkpt>
<trkpt lat="32.869659424" lon="35.247039795">
  <ele>276.604004</ele>
  <time>2011-07-22T06:14:53Z</time>
  <speed>4.570000</speed>
</trkpt>
<trkpt lat="32.869625092" lon="35.247024536">
  <ele>275.541504</ele>
  <time>2011-07-22T06:14:54Z</time>
  <speed>3.840000</speed>
</trkpt>
<trkpt lat="32.869586945" lon="35.247013092">
  <ele>275.861816</ele>
  <time>2011-07-22T06:14:55Z</time>
  <speed>2.960000</speed>
</trkpt>
<trkpt lat="32.869533539" lon="35.247005463">
  <ele>277.408691</ele>
  <time>2011-07-22T06:14:57Z</time>
  <speed>1.570000</speed>
</trkpt>
<trkpt lat="32.869506836" lon="35.247009277">
  <ele>277.986816</ele>
  <time>2011-07-22T06:14:59Z</time>
  <speed>1.360000</speed>
</trkpt>
<trkpt lat="32.869495392" lon="35.247035980">
  <ele>278.986816</ele>
  <time>2011-07-22T06:15:01Z</time>
  <speed>1.060000</speed>
</trkpt>
<trkpt lat="32.869476318" lon="35.247074127">
  <ele>279.354004</ele>
  <time>2011-07-22T06:15:04Z</time>
  <speed>1.500000</speed>
</trkpt>
<trkpt lat="32.869483948" lon="35.247123718">
  <ele>280.268066</ele>
  <time>2011-07-22T06:15:07Z</time>
  <speed>1.680000</speed>
</trkpt>
<trkpt lat="32.869487762" lon="35.247169495">
  <ele>280.189941</ele>
  <time>2011-07-22T06:15:09Z</time>
  <speed>2.330000</speed>
</trkpt>
<trkpt lat="32.869495392" lon="35.247200012">
  <ele>281.330566</ele>
  <time>2011-07-22T06:15:10Z</time>
  <speed>1.500000</speed>
</trkpt>
<trkpt lat="32.869510651" lon="35.247241974">
  <ele>280.783691</ele>
  <time>2011-07-22T06:15:12Z</time>
  <speed>1.660000</speed>
</trkpt>
<trkpt lat="32.869522095" lon="35.247283936">
  <ele>279.814941</ele>
  <time>2011-07-22T06:15:15Z</time>
  <speed>2.010000</speed>
</trkpt>
<trkpt lat="32.869529724" lon="35.247322083">
  <ele>279.471191</ele>
  <time>2011-07-22T06:15:17Z</time>
  <speed>1.950000</speed>
</trkpt>
<trkpt lat="32.869537354" lon="35.247356415">
  <ele>280.205566</ele>
  <time>2011-07-22T06:15:19Z</time>
  <speed>1.830000</speed>
</trkpt>
<trkpt lat="32.869537354" lon="35.247406006">
  <ele>281.182129</ele>
  <time>2011-07-22T06:15:21Z</time>
  <speed>1.820000</speed>
</trkpt>
<trkpt lat="32.869541168" lon="35.247440338">
  <ele>281.986816</ele>
  <time>2011-07-22T06:15:23Z</time>
  <speed>1.210000</speed>
</trkpt>
<trkpt lat="32.869533539" lon="35.247474670">
  <ele>283.174316</ele>
  <time>2011-07-22T06:15:26Z</time>
  <speed>1.520000</speed>
</trkpt>
<trkpt lat="32.869522095" lon="35.247520447">
  <ele>284.275879</ele>
  <time>2011-07-22T06:15:29Z</time>
  <speed>1.530000</speed>
</trkpt>
<trkpt lat="32.869525909" lon="35.247554779">
  <ele>285.299316</ele>
  <time>2011-07-22T06:15:31Z</time>
  <speed>1.360000</speed>
</trkpt>
<trkpt lat="32.869514465" lon="35.247585297">
  <ele>285.408691</ele>
  <time>2011-07-22T06:15:34Z</time>
  <speed>1.200000</speed>
</trkpt>
<trkpt lat="32.869499207" lon="35.247623444">
  <ele>285.229004</ele>
  <time>2011-07-22T06:15:38Z</time>
  <speed>0.990000</speed>
</trkpt>
<trkpt lat="32.869476318" lon="35.247642517">
  <ele>285.705566</ele>
  <time>2011-07-22T06:15:40Z</time>
  <speed>1.140000</speed>
</trkpt>
<trkpt lat="32.869461060" lon="35.247669220">
  <ele>286.658691</ele>
  <time>2011-07-22T06:15:42Z</time>
  <speed>1.270000</speed>
</trkpt>
<trkpt lat="32.869441986" lon="35.247692108">
  <ele>287.307129</ele>
  <time>2011-07-22T06:15:44Z</time>
  <speed>1.250000</speed>
</trkpt>
<trkpt lat="32.869403839" lon="35.247688293">
  <ele>287.643066</ele>
  <time>2011-07-22T06:15:47Z</time>
  <speed>1.230000</speed>
</trkpt>
<trkpt lat="32.869380951" lon="35.247692108">
  <ele>288.791504</ele>
  <time>2011-07-22T06:15:49Z</time>
  <speed>1.340000</speed>
</trkpt>
<trkpt lat="32.869350433" lon="35.247688293">
  <ele>290.127441</ele>
  <time>2011-07-22T06:15:51Z</time>
  <speed>1.350000</speed>
</trkpt>
<trkpt lat="32.869319916" lon="35.247684479">
  <ele>290.682129</ele>
  <time>2011-07-22T06:15:53Z</time>
  <speed>1.300000</speed>
</trkpt>
<trkpt lat="32.869285583" lon="35.247688293">
  <ele>291.111816</ele>
  <time>2011-07-22T06:15:56Z</time>
  <speed>1.240000</speed>
</trkpt>
<trkpt lat="32.869255066" lon="35.247692108">
  <ele>291.900879</ele>
  <time>2011-07-22T06:15:58Z</time>
  <speed>1.540000</speed>
</trkpt>
<trkpt lat="32.869213104" lon="35.247703552">
  <ele>292.002441</ele>
  <time>2011-07-22T06:16:01Z</time>
  <speed>1.300000</speed>
</trkpt>
<trkpt lat="32.869174957" lon="35.247718811">
  <ele>293.150879</ele>
  <time>2011-07-22T06:16:03Z</time>
  <speed>1.630000</speed>
</trkpt>
<trkpt lat="32.869144440" lon="35.247718811">
  <ele>293.830566</ele>
  <time>2011-07-22T06:16:05Z</time>
  <speed>1.100000</speed>
</trkpt>
<trkpt lat="32.869113922" lon="35.247730255">
  <ele>294.143066</ele>
  <time>2011-07-22T06:16:08Z</time>
  <speed>1.200000</speed>
</trkpt>
<trkpt lat="32.869079590" lon="35.247749329">
  <ele>294.291504</ele>
  <time>2011-07-22T06:16:11Z</time>
  <speed>1.720000</speed>
</trkpt>
<trkpt lat="32.869056702" lon="35.247760773">
  <ele>294.111816</ele>
  <time>2011-07-22T06:16:13Z</time>
  <speed>1.400000</speed>
</trkpt>
<trkpt lat="32.869026184" lon="35.247768402">
  <ele>294.838379</ele>
  <time>2011-07-22T06:16:15Z</time>
  <speed>1.310000</speed>
</trkpt>
<trkpt lat="32.868991852" lon="35.247787476">
  <ele>295.861816</ele>
  <time>2011-07-22T06:16:17Z</time>
  <speed>1.230000</speed>
</trkpt>
<trkpt lat="32.868968964" lon="35.247802734">
  <ele>295.572754</ele>
  <time>2011-07-22T06:16:19Z</time>
  <speed>1.510000</speed>
</trkpt>
<trkpt lat="32.868938446" lon="35.247798920">
  <ele>294.143066</ele>
  <time>2011-07-22T06:16:22Z</time>
  <speed>1.100000</speed>
</trkpt>
<trkpt lat="32.868907928" lon="35.247814178">
  <ele>294.291504</ele>
  <time>2011-07-22T06:16:25Z</time>
  <speed>1.400000</speed>
</trkpt>
<trkpt lat="32.868865967" lon="35.247817993">
  <ele>294.939941</ele>
  <time>2011-07-22T06:16:28Z</time>
  <speed>1.620000</speed>
</trkpt>
<trkpt lat="32.868843079" lon="35.247833252">
  <ele>295.479004</ele>
  <time>2011-07-22T06:16:30Z</time>
  <speed>1.320000</speed>
</trkpt>
<trkpt lat="32.868812561" lon="35.247844696">
  <ele>294.432129</ele>
  <time>2011-07-22T06:16:32Z</time>
  <speed>1.790000</speed>
</trkpt>
<trkpt lat="32.868782043" lon="35.247859955">
  <ele>294.994629</ele>
  <time>2011-07-22T06:16:34Z</time>
  <speed>1.650000</speed>
</trkpt>
<trkpt lat="32.868740082" lon="35.247882843">
  <ele>295.877441</ele>
  <time>2011-07-22T06:16:36Z</time>
  <speed>1.660000</speed>
</trkpt>
<trkpt lat="32.868713379" lon="35.247905731">
  <ele>295.174316</ele>
  <time>2011-07-22T06:16:38Z</time>
  <speed>1.640000</speed>
</trkpt>
<trkpt lat="32.868675232" lon="35.247932434">
  <ele>294.791504</ele>
  <time>2011-07-22T06:16:40Z</time>
  <speed>2.000000</speed>
</trkpt>
<trkpt lat="32.868656158" lon="35.247959137">
  <ele>295.252441</ele>
  <time>2011-07-22T06:16:41Z</time>
  <speed>2.490000</speed>
</trkpt>
<trkpt lat="32.868614197" lon="35.247978210">
  <ele>295.518066</ele>
  <time>2011-07-22T06:16:43Z</time>
  <speed>2.860000</speed>
</trkpt>
<trkpt lat="32.868564606" lon="35.247982025">
  <ele>295.463379</ele>
  <time>2011-07-22T06:16:45Z</time>
  <speed>2.650000</speed>
</trkpt>
<trkpt lat="32.868537903" lon="35.247985840">
  <ele>295.213379</ele>
  <time>2011-07-22T06:16:46Z</time>
  <speed>3.090000</speed>
</trkpt>
<trkpt lat="32.868495941" lon="35.247993469">
  <ele>295.307129</ele>
  <time>2011-07-22T06:16:47Z</time>
  <speed>3.770000</speed>
</trkpt>
<trkpt lat="32.868457794" lon="35.247997284">
  <ele>294.564941</ele>
  <time>2011-07-22T06:16:48Z</time>
  <speed>4.300000</speed>
</trkpt>
<trkpt lat="32.868419647" lon="35.248001099">
  <ele>294.205566</ele>
  <time>2011-07-22T06:16:49Z</time>
  <speed>4.070000</speed>
</trkpt>
<trkpt lat="32.868373871" lon="35.248004913">
  <ele>293.846191</ele>
  <time>2011-07-22T06:16:50Z</time>
  <speed>4.790000</speed>
</trkpt>
<trkpt lat="32.868328094" lon="35.248012543">
  <ele>293.307129</ele>
  <time>2011-07-22T06:16:51Z</time>
  <speed>5.170000</speed>
</trkpt>
<trkpt lat="32.868282318" lon="35.248020172">
  <ele>292.760254</ele>
  <time>2011-07-22T06:16:52Z</time>
  <speed>4.910000</speed>
</trkpt>
<trkpt lat="32.868228912" lon="35.248043060">
  <ele>292.900879</ele>
  <time>2011-07-22T06:16:53Z</time>
  <speed>4.580000</speed>
</trkpt>
<trkpt lat="32.868179321" lon="35.248069763">
  <ele>293.221191</ele>
  <time>2011-07-22T06:16:54Z</time>
  <speed>3.930000</speed>
</trkpt>
<trkpt lat="32.868133545" lon="35.248085022">
  <ele>292.869629</ele>
  <time>2011-07-22T06:16:55Z</time>
  <speed>3.970000</speed>
</trkpt>
<trkpt lat="32.868103027" lon="35.248096466">
  <ele>292.752441</ele>
  <time>2011-07-22T06:16:56Z</time>
  <speed>3.270000</speed>
</trkpt>
<trkpt lat="32.868072510" lon="35.248107910">
  <ele>292.814941</ele>
  <time>2011-07-22T06:16:57Z</time>
  <speed>2.850000</speed>
</trkpt>
<trkpt lat="32.868045807" lon="35.248115540">
  <ele>292.596191</ele>
  <time>2011-07-22T06:16:58Z</time>
  <speed>2.760000</speed>
</trkpt>
<trkpt lat="32.868015289" lon="35.248123169">
  <ele>292.377441</ele>
  <time>2011-07-22T06:16:59Z</time>
  <speed>3.060000</speed>
</trkpt>
<trkpt lat="32.867984772" lon="35.248126984">
  <ele>292.135254</ele>
  <time>2011-07-22T06:17:00Z</time>
  <speed>3.110000</speed>
</trkpt>
<trkpt lat="32.867950439" lon="35.248130798">
  <ele>291.822754</ele>
  <time>2011-07-22T06:17:01Z</time>
  <speed>3.680000</speed>
</trkpt>
<trkpt lat="32.867919922" lon="35.248130798">
  <ele>291.564941</ele>
  <time>2011-07-22T06:17:02Z</time>
  <speed>3.380000</speed>
</trkpt>
<trkpt lat="32.867885590" lon="35.248142242">
  <ele>291.260254</ele>
  <time>2011-07-22T06:17:03Z</time>
  <speed>4.180000</speed>
</trkpt>
<trkpt lat="32.867828369" lon="35.248157501">
  <ele>291.182129</ele>
  <time>2011-07-22T06:17:04Z</time>
  <speed>4.730000</speed>
</trkpt>
<trkpt lat="32.867778778" lon="35.248153687">
  <ele>291.197754</ele>
  <time>2011-07-22T06:17:05Z</time>
  <speed>4.670000</speed>
</trkpt>
<trkpt lat="32.867729187" lon="35.248161316">
  <ele>290.947754</ele>
  <time>2011-07-22T06:17:06Z</time>
  <speed>4.870000</speed>
</trkpt>
<trkpt lat="32.867691040" lon="35.248168945">
  <ele>291.182129</ele>
  <time>2011-07-22T06:17:07Z</time>
  <speed>3.440000</speed>
</trkpt>
<trkpt lat="32.867656708" lon="35.248180389">
  <ele>291.182129</ele>
  <time>2011-07-22T06:17:08Z</time>
  <speed>3.580000</speed>
</trkpt>
<trkpt lat="32.867618561" lon="35.248191833">
  <ele>290.822754</ele>
  <time>2011-07-22T06:17:09Z</time>
  <speed>3.110000</speed>
</trkpt>
<trkpt lat="32.867576599" lon="35.248203278">
  <ele>290.830566</ele>
  <time>2011-07-22T06:17:10Z</time>
  <speed>2.570000</speed>
</trkpt>
<trkpt lat="32.867542267" lon="35.248203278">
  <ele>291.018066</ele>
  <time>2011-07-22T06:17:11Z</time>
  <speed>2.360000</speed>
</trkpt>
<trkpt lat="32.867500305" lon="35.248210907">
  <ele>291.830566</ele>
  <time>2011-07-22T06:17:13Z</time>
  <speed>0.930000</speed>
</trkpt>
<trkpt lat="32.867469788" lon="35.248191833">
  <ele>292.479004</ele>
  <time>2011-07-22T06:17:14Z</time>
  <speed>1.460000</speed>
</trkpt>
<trkpt lat="32.867435455" lon="35.248195648">
  <ele>293.119629</ele>
  <time>2011-07-22T06:17:16Z</time>
  <speed>1.550000</speed>
</trkpt>
<trkpt lat="32.867401123" lon="35.248188019">
  <ele>293.979004</ele>
  <time>2011-07-22T06:17:18Z</time>
  <speed>1.380000</speed>
</trkpt>
<trkpt lat="32.867374420" lon="35.248176575">
  <ele>295.346191</ele>
  <time>2011-07-22T06:17:19Z</time>
  <speed>1.530000</speed>
</trkpt>
<trkpt lat="32.867351532" lon="35.248157501">
  <ele>296.268066</ele>
  <time>2011-07-22T06:17:20Z</time>
  <speed>1.420000</speed>
</trkpt>
<trkpt lat="32.867332458" lon="35.248134613">
  <ele>296.150879</ele>
  <time>2011-07-22T06:17:22Z</time>
  <speed>1.100000</speed>
</trkpt>
<trkpt lat="32.867309570" lon="35.248126984">
  <ele>297.830566</ele>
  <time>2011-07-22T06:17:24Z</time>
  <speed>1.520000</speed>
</trkpt>
<trkpt lat="32.867267609" lon="35.248126984">
  <ele>297.268066</ele>
  <time>2011-07-22T06:17:26Z</time>
  <speed>1.500000</speed>
</trkpt>
<trkpt lat="32.867237091" lon="35.248134613">
  <ele>297.963379</ele>
  <time>2011-07-22T06:17:27Z</time>
  <speed>1.980000</speed>
</trkpt>
<trkpt lat="32.867198944" lon="35.248134613">
  <ele>297.588379</ele>
  <time>2011-07-22T06:17:29Z</time>
  <speed>1.790000</speed>
</trkpt>
<trkpt lat="32.867172241" lon="35.248119354">
  <ele>298.424316</ele>
  <time>2011-07-22T06:17:30Z</time>
  <speed>1.880000</speed>
</trkpt>
<trkpt lat="32.867137909" lon="35.248126984">
  <ele>298.408691</ele>
  <time>2011-07-22T06:17:32Z</time>
  <speed>1.820000</speed>
</trkpt>
<trkpt lat="32.867095947" lon="35.248119354">
  <ele>299.416504</ele>
  <time>2011-07-22T06:17:35Z</time>
  <speed>1.810000</speed>
</trkpt>
<trkpt lat="32.867069244" lon="35.248119354">
  <ele>300.291504</ele>
  <time>2011-07-22T06:17:37Z</time>
  <speed>1.360000</speed>
</trkpt>
<trkpt lat="32.867038727" lon="35.248107910">
  <ele>301.354004</ele>
  <time>2011-07-22T06:17:40Z</time>
  <speed>1.220000</speed>
</trkpt>
<trkpt lat="32.867008209" lon="35.248100281">
  <ele>301.791504</ele>
  <time>2011-07-22T06:17:42Z</time>
  <speed>1.430000</speed>
</trkpt>
<trkpt lat="32.866973877" lon="35.248088837">
  <ele>301.650879</ele>
  <time>2011-07-22T06:17:45Z</time>
  <speed>1.360000</speed>
</trkpt>
<trkpt lat="32.866947174" lon="35.248065948">
  <ele>301.080566</ele>
  <time>2011-07-22T06:17:47Z</time>
  <speed>1.960000</speed>
</trkpt>
<trkpt lat="32.866920471" lon="35.248035431">
  <ele>300.322754</ele>
  <time>2011-07-22T06:17:49Z</time>
  <speed>1.130000</speed>
</trkpt>
<trkpt lat="32.866897583" lon="35.248016357">
  <ele>298.643066</ele>
  <time>2011-07-22T06:17:52Z</time>
  <speed>1.410000</speed>
</trkpt>
<trkpt lat="32.866867065" lon="35.248020172">
  <ele>299.174316</ele>
  <time>2011-07-22T06:17:55Z</time>
  <speed>0.590000</speed>
</trkpt>
<trkpt lat="32.866840363" lon="35.248035431">
  <ele>299.854004</ele>
  <time>2011-07-22T06:18:03Z</time>
  <speed>0.720000</speed>
</trkpt>
<trkpt lat="32.866794586" lon="35.248027802">
  <ele>299.939941</ele>
  <time>2011-07-22T06:18:07Z</time>
  <speed>1.290000</speed>
</trkpt>
<trkpt lat="32.866760254" lon="35.248039246">
  <ele>300.518066</ele>
  <time>2011-07-22T06:18:09Z</time>
  <speed>0.950000</speed>
</trkpt>
<trkpt lat="32.866729736" lon="35.248046875">
  <ele>301.846191</ele>
  <time>2011-07-22T06:18:11Z</time>
  <speed>1.200000</speed>
</trkpt>
<trkpt lat="32.866687775" lon="35.248062134">
  <ele>303.189941</ele>
  <time>2011-07-22T06:18:14Z</time>
  <speed>1.350000</speed>
</trkpt>
<trkpt lat="32.866641998" lon="35.248069763">
  <ele>304.986816</ele>
  <time>2011-07-22T06:18:16Z</time>
  <speed>1.380000</speed>
</trkpt>
<trkpt lat="32.866619110" lon="35.248065948">
  <ele>306.205566</ele>
  <time>2011-07-22T06:18:18Z</time>
  <speed>1.560000</speed>
</trkpt>
<trkpt lat="32.866592407" lon="35.248069763">
  <ele>305.869629</ele>
  <time>2011-07-22T06:18:20Z</time>
  <speed>1.650000</speed>
</trkpt>
<trkpt lat="32.866565704" lon="35.248088837">
  <ele>306.354004</ele>
  <time>2011-07-22T06:18:24Z</time>
  <speed>1.280000</speed>
</trkpt>
<trkpt lat="32.866539001" lon="35.248107910">
  <ele>304.580566</ele>
  <time>2011-07-22T06:18:27Z</time>
  <speed>1.250000</speed>
</trkpt>
<trkpt lat="32.866516113" lon="35.248134613">
  <ele>304.518066</ele>
  <time>2011-07-22T06:18:30Z</time>
  <speed>1.240000</speed>
</trkpt>
<trkpt lat="32.866497040" lon="35.248172760">
  <ele>304.119629</ele>
  <time>2011-07-22T06:18:32Z</time>
  <speed>1.130000</speed>
</trkpt>
<trkpt lat="32.866470337" lon="35.248191833">
  <ele>302.744629</ele>
  <time>2011-07-22T06:18:34Z</time>
  <speed>1.400000</speed>
</trkpt>
<trkpt lat="32.866432190" lon="35.248210907">
  <ele>301.971191</ele>
  <time>2011-07-22T06:18:36Z</time>
  <speed>1.430000</speed>
</trkpt>
<trkpt lat="32.866390228" lon="35.248222351">
  <ele>302.119629</ele>
  <time>2011-07-22T06:18:38Z</time>
  <speed>1.960000</speed>
</trkpt>
<trkpt lat="32.866344452" lon="35.248237610">
  <ele>301.119629</ele>
  <time>2011-07-22T06:18:40Z</time>
  <speed>2.370000</speed>
</trkpt>
<trkpt lat="32.866317749" lon="35.248252869">
  <ele>301.307129</ele>
  <time>2011-07-22T06:18:41Z</time>
  <speed>2.490000</speed>
</trkpt>
<trkpt lat="32.866291046" lon="35.248264313">
  <ele>300.955566</ele>
  <time>2011-07-22T06:18:42Z</time>
  <speed>3.430000</speed>
</trkpt>
<trkpt lat="32.866249084" lon="35.248279572">
  <ele>301.033691</ele>
  <time>2011-07-22T06:18:43Z</time>
  <speed>3.910000</speed>
</trkpt>
<trkpt lat="32.866218567" lon="35.248302460">
  <ele>300.236816</ele>
  <time>2011-07-22T06:18:44Z</time>
  <speed>3.200000</speed>
</trkpt>
<trkpt lat="32.866180420" lon="35.248321533">
  <ele>299.713379</ele>
  <time>2011-07-22T06:18:45Z</time>
  <speed>4.460000</speed>
</trkpt>
<trkpt lat="32.866142273" lon="35.248359680">
  <ele>298.674316</ele>
  <time>2011-07-22T06:18:46Z</time>
  <speed>4.500000</speed>
</trkpt>
<trkpt lat="32.866111755" lon="35.248394012">
  <ele>297.752441</ele>
  <time>2011-07-22T06:18:47Z</time>
  <speed>3.480000</speed>
</trkpt>
<trkpt lat="32.866100311" lon="35.248420715">
  <ele>296.775879</ele>
  <time>2011-07-22T06:18:48Z</time>
  <speed>2.840000</speed>
</trkpt>
<trkpt lat="32.866081238" lon="35.248462677">
  <ele>295.916504</ele>
  <time>2011-07-22T06:18:50Z</time>
  <speed>1.400000</speed>
</trkpt>
<trkpt lat="32.866065979" lon="35.248500824">
  <ele>296.111816</ele>
  <time>2011-07-22T06:18:53Z</time>
  <speed>1.050000</speed>
</trkpt>
<trkpt lat="32.866073608" lon="35.248542786">
  <ele>296.666504</ele>
  <time>2011-07-22T06:18:55Z</time>
  <speed>1.070000</speed>
</trkpt>
<trkpt lat="32.866062164" lon="35.248569489">
  <ele>296.119629</ele>
  <time>2011-07-22T06:18:57Z</time>
  <speed>1.400000</speed>
</trkpt>
<trkpt lat="32.866054535" lon="35.248607635">
  <ele>295.838379</ele>
  <time>2011-07-22T06:18:59Z</time>
  <speed>1.500000</speed>
</trkpt>
<trkpt lat="32.866043091" lon="35.248634338">
  <ele>297.057129</ele>
  <time>2011-07-22T06:19:01Z</time>
  <speed>0.850000</speed>
</trkpt>
<trkpt lat="32.866016388" lon="35.248668671">
  <ele>298.057129</ele>
  <time>2011-07-22T06:19:03Z</time>
  <speed>1.220000</speed>
</trkpt>
<trkpt lat="32.865989685" lon="35.248687744">
  <ele>298.736816</ele>
  <time>2011-07-22T06:19:05Z</time>
  <speed>1.160000</speed>
</trkpt>
<trkpt lat="32.865970612" lon="35.248710632">
  <ele>299.604004</ele>
  <time>2011-07-22T06:19:07Z</time>
  <speed>1.270000</speed>
</trkpt>
<trkpt lat="32.865943909" lon="35.248733521">
  <ele>300.143066</ele>
  <time>2011-07-22T06:19:09Z</time>
  <speed>1.280000</speed>
</trkpt>
<trkpt lat="32.865909576" lon="35.248744965">
  <ele>299.525879</ele>
  <time>2011-07-22T06:19:12Z</time>
  <speed>1.200000</speed>
</trkpt>
<trkpt lat="32.865875244" lon="35.248752594">
  <ele>299.916504</ele>
  <time>2011-07-22T06:19:14Z</time>
  <speed>1.290000</speed>
</trkpt>
<trkpt lat="32.865844727" lon="35.248752594">
  <ele>299.314941</ele>
  <time>2011-07-22T06:19:17Z</time>
  <speed>1.160000</speed>
</trkpt>
<trkpt lat="32.865810394" lon="35.248752594">
  <ele>300.018066</ele>
  <time>2011-07-22T06:19:20Z</time>
  <speed>1.240000</speed>
</trkpt>
<trkpt lat="32.865779877" lon="35.248760223">
  <ele>300.869629</ele>
  <time>2011-07-22T06:19:21Z</time>
  <speed>1.430000</speed>
</trkpt>
<trkpt lat="32.865756989" lon="35.248767853">
  <ele>303.814941</ele>
  <time>2011-07-22T06:19:23Z</time>
  <speed>1.130000</speed>
</trkpt>
<trkpt lat="32.865730286" lon="35.248779297">
  <ele>305.072754</ele>
  <time>2011-07-22T06:19:25Z</time>
  <speed>1.620000</speed>
</trkpt>
<trkpt lat="32.865695953" lon="35.248790741">
  <ele>305.111816</ele>
  <time>2011-07-22T06:19:27Z</time>
  <speed>1.290000</speed>
</trkpt>
<trkpt lat="32.865661621" lon="35.248798370">
  <ele>305.439941</ele>
  <time>2011-07-22T06:19:30Z</time>
  <speed>1.380000</speed>
</trkpt>
<trkpt lat="32.865627289" lon="35.248813629">
  <ele>306.838379</ele>
  <time>2011-07-22T06:19:33Z</time>
  <speed>1.340000</speed>
</trkpt>
<trkpt lat="32.865589142" lon="35.248825073">
  <ele>307.002441</ele>
  <time>2011-07-22T06:19:36Z</time>
  <speed>1.520000</speed>
</trkpt>
<trkpt lat="32.865550995" lon="35.248828888">
  <ele>308.158691</ele>
  <time>2011-07-22T06:19:39Z</time>
  <speed>1.090000</speed>
</trkpt>
<trkpt lat="32.865520477" lon="35.248836517">
  <ele>309.518066</ele>
  <time>2011-07-22T06:19:41Z</time>
  <speed>1.070000</speed>
</trkpt>
<trkpt lat="32.865486145" lon="35.248844147">
  <ele>310.252441</ele>
  <time>2011-07-22T06:19:45Z</time>
  <speed>1.060000</speed>
</trkpt>
<trkpt lat="32.865451813" lon="35.248859406">
  <ele>310.854004</ele>
  <time>2011-07-22T06:19:47Z</time>
  <speed>1.190000</speed>
</trkpt>
<trkpt lat="32.865421295" lon="35.248874664">
  <ele>311.205566</ele>
  <time>2011-07-22T06:19:50Z</time>
  <speed>1.180000</speed>
</trkpt>
<trkpt lat="32.865390778" lon="35.248870850">
  <ele>312.229004</ele>
  <time>2011-07-22T06:19:52Z</time>
  <speed>1.060000</speed>
</trkpt>
<trkpt lat="32.865360260" lon="35.248874664">
  <ele>313.314941</ele>
  <time>2011-07-22T06:19:54Z</time>
  <speed>1.390000</speed>
</trkpt>
<trkpt lat="32.865329742" lon="35.248886108">
  <ele>313.955566</ele>
  <time>2011-07-22T06:19:56Z</time>
  <speed>1.420000</speed>
</trkpt>
<trkpt lat="32.865303040" lon="35.248878479">
  <ele>313.463379</ele>
  <time>2011-07-22T06:19:59Z</time>
  <speed>1.250000</speed>
</trkpt>
<trkpt lat="32.865261078" lon="35.248867035">
  <ele>313.439941</ele>
  <time>2011-07-22T06:20:02Z</time>
  <speed>1.680000</speed>
</trkpt>
<trkpt lat="32.865226746" lon="35.248870850">
  <ele>313.244629</ele>
  <time>2011-07-22T06:20:05Z</time>
  <speed>1.180000</speed>
</trkpt>
<trkpt lat="32.865200043" lon="35.248863220">
  <ele>312.291504</ele>
  <time>2011-07-22T06:20:08Z</time>
  <speed>1.050000</speed>
</trkpt>
<trkpt lat="32.865165710" lon="35.248859406">
  <ele>313.002441</ele>
  <time>2011-07-22T06:20:11Z</time>
  <speed>1.460000</speed>
</trkpt>
<trkpt lat="32.865131378" lon="35.248847961">
  <ele>313.143066</ele>
  <time>2011-07-22T06:20:13Z</time>
  <speed>1.330000</speed>
</trkpt>
<trkpt lat="32.865097046" lon="35.248840332">
  <ele>313.486816</ele>
  <time>2011-07-22T06:20:16Z</time>
  <speed>1.270000</speed>
</trkpt>
<trkpt lat="32.865074158" lon="35.248851776">
  <ele>312.150879</ele>
  <time>2011-07-22T06:20:18Z</time>
  <speed>1.370000</speed>
</trkpt>
<trkpt lat="32.865036011" lon="35.248832703">
  <ele>311.744629</ele>
  <time>2011-07-22T06:20:21Z</time>
  <speed>1.120000</speed>
</trkpt>
<trkpt lat="32.865001678" lon="35.248840332">
  <ele>312.236816</ele>
  <time>2011-07-22T06:20:24Z</time>
  <speed>1.070000</speed>
</trkpt>
<trkpt lat="32.864974976" lon="35.248851776">
  <ele>312.447754</ele>
  <time>2011-07-22T06:20:26Z</time>
  <speed>1.260000</speed>
</trkpt>
<trkpt lat="32.864948273" lon="35.248863220">
  <ele>312.643066</ele>
  <time>2011-07-22T06:20:28Z</time>
  <speed>1.200000</speed>
</trkpt>
<trkpt lat="32.864906311" lon="35.248874664">
  <ele>312.947754</ele>
  <time>2011-07-22T06:20:31Z</time>
  <speed>1.350000</speed>
</trkpt>
<trkpt lat="32.864871979" lon="35.248882294">
  <ele>313.729004</ele>
  <time>2011-07-22T06:20:34Z</time>
  <speed>1.390000</speed>
</trkpt>
<trkpt lat="32.864845276" lon="35.248893738">
  <ele>313.455566</ele>
  <time>2011-07-22T06:20:37Z</time>
  <speed>1.360000</speed>
</trkpt>
<trkpt lat="32.864810944" lon="35.248908997">
  <ele>314.049316</ele>
  <time>2011-07-22T06:20:40Z</time>
  <speed>1.160000</speed>
</trkpt>
<trkpt lat="32.864780426" lon="35.248924255">
  <ele>313.814941</ele>
  <time>2011-07-22T06:20:43Z</time>
  <speed>1.040000</speed>
</trkpt>
<trkpt lat="32.864753723" lon="35.248939514">
  <ele>313.939941</ele>
  <time>2011-07-22T06:20:46Z</time>
  <speed>0.970000</speed>
</trkpt>
<trkpt lat="32.864719391" lon="35.248943329">
  <ele>314.658691</ele>
  <time>2011-07-22T06:20:48Z</time>
  <speed>1.520000</speed>
</trkpt>
<trkpt lat="32.864692688" lon="35.248947144">
  <ele>315.979004</ele>
  <time>2011-07-22T06:20:50Z</time>
  <speed>1.510000</speed>
</trkpt>
<trkpt lat="32.864669800" lon="35.248958588">
  <ele>315.479004</ele>
  <time>2011-07-22T06:20:52Z</time>
  <speed>1.350000</speed>
</trkpt>
<trkpt lat="32.864643097" lon="35.248989105">
  <ele>315.283691</ele>
  <time>2011-07-22T06:20:54Z</time>
  <speed>1.630000</speed>
</trkpt>
<trkpt lat="32.864608765" lon="35.248992920">
  <ele>315.658691</ele>
  <time>2011-07-22T06:20:56Z</time>
  <speed>1.390000</speed>
</trkpt>
<trkpt lat="32.864574432" lon="35.249000549">
  <ele>316.611816</ele>
  <time>2011-07-22T06:20:58Z</time>
  <speed>1.810000</speed>
</trkpt>
<trkpt lat="32.864543915" lon="35.249008179">
  <ele>316.744629</ele>
  <time>2011-07-22T06:21:00Z</time>
  <speed>1.750000</speed>
</trkpt>
<trkpt lat="32.864509583" lon="35.249027252">
  <ele>318.002441</ele>
  <time>2011-07-22T06:21:02Z</time>
  <speed>1.890000</speed>
</trkpt>
<trkpt lat="32.864471436" lon="35.249042511">
  <ele>318.479004</ele>
  <time>2011-07-22T06:21:04Z</time>
  <speed>1.940000</speed>
</trkpt>
<trkpt lat="32.864433289" lon="35.249053955">
  <ele>319.213379</ele>
  <time>2011-07-22T06:21:06Z</time>
  <speed>1.450000</speed>
</trkpt>
<trkpt lat="32.864406586" lon="35.249053955">
  <ele>318.697754</ele>
  <time>2011-07-22T06:21:08Z</time>
  <speed>1.790000</speed>
</trkpt>
<trkpt lat="32.864379883" lon="35.249065399">
  <ele>318.150879</ele>
  <time>2011-07-22T06:21:10Z</time>
  <speed>1.840000</speed>
</trkpt>
<trkpt lat="32.864356995" lon="35.249095917">
  <ele>316.729004</ele>
  <time>2011-07-22T06:21:12Z</time>
  <speed>1.480000</speed>
</trkpt>
<trkpt lat="32.864353180" lon="35.249118805">
  <ele>314.604004</ele>
  <time>2011-07-22T06:23:05Z</time>
</trkpt>
<trkpt lat="32.864379883" lon="35.249130249">
  <ele>314.502441</ele>
  <time>2011-07-22T06:36:03Z</time>
</trkpt>
<trkpt lat="32.864353180" lon="35.249126434">
  <ele>313.689941</ele>
  <time>2011-07-22T06:38:25Z</time>
  <speed>1.160000</speed>
</trkpt>
<trkpt lat="32.864318848" lon="35.249134064">
  <ele>313.643066</ele>
  <time>2011-07-22T06:38:27Z</time>
  <speed>1.680000</speed>
</trkpt>
<trkpt lat="32.864284515" lon="35.249130249">
  <ele>313.736816</ele>
  <time>2011-07-22T06:38:29Z</time>
  <speed>1.310000</speed>
</trkpt>
<trkpt lat="32.864253998" lon="35.249137878">
  <ele>313.963379</ele>
  <time>2011-07-22T06:38:31Z</time>
  <speed>1.580000</speed>
</trkpt>
<trkpt lat="32.864215851" lon="35.249145508">
  <ele>313.846191</ele>
  <time>2011-07-22T06:38:33Z</time>
  <speed>2.230000</speed>
</trkpt>
<trkpt lat="32.864170074" lon="35.249149323">
  <ele>314.096191</ele>
  <time>2011-07-22T06:38:35Z</time>
  <speed>2.590000</speed>
</trkpt>
<trkpt lat="32.864116669" lon="35.249168396">
  <ele>313.729004</ele>
  <time>2011-07-22T06:38:37Z</time>
  <speed>3.150000</speed>
</trkpt>
<trkpt lat="32.864089966" lon="35.249183655">
  <ele>313.385254</ele>
  <time>2011-07-22T06:38:38Z</time>
  <speed>3.320000</speed>
</trkpt>
<trkpt lat="32.864055634" lon="35.249191284">
  <ele>312.650879</ele>
  <time>2011-07-22T06:38:39Z</time>
  <speed>3.120000</speed>
</trkpt>
<trkpt lat="32.864025116" lon="35.249206543">
  <ele>312.471191</ele>
  <time>2011-07-22T06:38:40Z</time>
  <speed>3.890000</speed>
</trkpt>
<trkpt lat="32.863990784" lon="35.249233246">
  <ele>312.111816</ele>
  <time>2011-07-22T06:38:41Z</time>
  <speed>4.460000</speed>
</trkpt>
<trkpt lat="32.863948822" lon="35.249256134">
  <ele>311.877441</ele>
  <time>2011-07-22T06:38:42Z</time>
  <speed>5.140000</speed>
</trkpt>
<trkpt lat="32.863899231" lon="35.249279022">
  <ele>311.439941</ele>
  <time>2011-07-22T06:38:43Z</time>
  <speed>5.300000</speed>
</trkpt>
<trkpt lat="32.863853455" lon="35.249301910">
  <ele>311.064941</ele>
  <time>2011-07-22T06:38:44Z</time>
  <speed>5.490000</speed>
</trkpt>
<trkpt lat="32.863803864" lon="35.249320984">
  <ele>311.205566</ele>
  <time>2011-07-22T06:38:45Z</time>
  <speed>5.740000</speed>
</trkpt>
<trkpt lat="32.863758087" lon="35.249340057">
  <ele>310.338379</ele>
  <time>2011-07-22T06:38:46Z</time>
  <speed>5.940000</speed>
</trkpt>
<trkpt lat="32.863704681" lon="35.249351501">
  <ele>309.830566</ele>
  <time>2011-07-22T06:38:47Z</time>
  <speed>6.040000</speed>
</trkpt>
<trkpt lat="32.863647461" lon="35.249362946">
  <ele>309.455566</ele>
  <time>2011-07-22T06:38:48Z</time>
  <speed>6.100000</speed>
</trkpt>
<trkpt lat="32.863594055" lon="35.249370575">
  <ele>309.213379</ele>
  <time>2011-07-22T06:38:49Z</time>
  <speed>6.470000</speed>
</trkpt>
<trkpt lat="32.863536835" lon="35.249389648">
  <ele>308.791504</ele>
  <time>2011-07-22T06:38:50Z</time>
  <speed>6.190000</speed>
</trkpt>
<trkpt lat="32.863487244" lon="35.249431610">
  <ele>308.197754</ele>
  <time>2011-07-22T06:38:51Z</time>
  <speed>6.500000</speed>
</trkpt>
<trkpt lat="32.863456726" lon="35.249481201">
  <ele>308.314941</ele>
  <time>2011-07-22T06:38:52Z</time>
  <speed>4.420000</speed>
</trkpt>
<trkpt lat="32.863433838" lon="35.249526978">
  <ele>306.666504</ele>
  <time>2011-07-22T06:38:54Z</time>
  <speed>1.890000</speed>
</trkpt>
<trkpt lat="32.863414764" lon="35.249553680">
  <ele>306.408691</ele>
  <time>2011-07-22T06:38:56Z</time>
  <speed>1.310000</speed>
</trkpt>
<trkpt lat="32.863388062" lon="35.249561310">
  <ele>307.658691</ele>
  <time>2011-07-22T06:38:58Z</time>
  <speed>1.410000</speed>
</trkpt>
<trkpt lat="32.863365173" lon="35.249580383">
  <ele>307.213379</ele>
  <time>2011-07-22T06:39:00Z</time>
  <speed>1.730000</speed>
</trkpt>
<trkpt lat="32.863346100" lon="35.249610901">
  <ele>306.736816</ele>
  <time>2011-07-22T06:39:02Z</time>
  <speed>1.830000</speed>
</trkpt>
<trkpt lat="32.863357544" lon="35.249645233">
  <ele>307.916504</ele>
  <time>2011-07-22T06:39:05Z</time>
  <speed>0.580000</speed>
</trkpt>
<trkpt lat="32.863384247" lon="35.249626160">
  <ele>307.236816</ele>
  <time>2011-07-22T06:39:08Z</time>
  <speed>1.040000</speed>
</trkpt>
<trkpt lat="32.863391876" lon="35.249595642">
  <ele>306.955566</ele>
  <time>2011-07-22T06:39:10Z</time>
  <speed>1.200000</speed>
</trkpt>
<trkpt lat="32.863395691" lon="35.249549866">
  <ele>305.963379</ele>
  <time>2011-07-22T06:39:12Z</time>
  <speed>1.620000</speed>
</trkpt>
<trkpt lat="32.863418579" lon="35.249526978">
  <ele>306.189941</ele>
  <time>2011-07-22T06:39:14Z</time>
  <speed>1.590000</speed>
</trkpt>
<trkpt lat="32.863430023" lon="35.249496460">
  <ele>306.205566</ele>
  <time>2011-07-22T06:39:16Z</time>
  <speed>1.190000</speed>
</trkpt>
<trkpt lat="32.863449097" lon="35.249450684">
  <ele>307.064941</ele>
  <time>2011-07-22T06:39:19Z</time>
  <speed>1.370000</speed>
</trkpt>
<trkpt lat="32.863441467" lon="35.249389648">
  <ele>306.369629</ele>
  <time>2011-07-22T06:39:22Z</time>
  <speed>3.050000</speed>
</trkpt>
<trkpt lat="32.863437653" lon="35.249351501">
  <ele>305.783691</ele>
  <time>2011-07-22T06:39:23Z</time>
  <speed>3.840000</speed>
</trkpt>
<trkpt lat="32.863445282" lon="35.249317169">
  <ele>305.143066</ele>
  <time>2011-07-22T06:39:24Z</time>
  <speed>3.470000</speed>
</trkpt>
<trkpt lat="32.863437653" lon="35.249279022">
  <ele>304.861816</ele>
  <time>2011-07-22T06:39:25Z</time>
  <speed>3.170000</speed>
</trkpt>
<trkpt lat="32.863391876" lon="35.249237061">
  <ele>304.189941</ele>
  <time>2011-07-22T06:39:27Z</time>
  <speed>3.950000</speed>
</trkpt>
<trkpt lat="32.863349915" lon="35.249221802">
  <ele>304.049316</ele>
  <time>2011-07-22T06:39:28Z</time>
  <speed>3.520000</speed>
</trkpt>
<trkpt lat="32.863327026" lon="35.249202728">
  <ele>303.197754</ele>
  <time>2011-07-22T06:39:29Z</time>
  <speed>3.310000</speed>
</trkpt>
<trkpt lat="32.863307953" lon="35.249179840">
  <ele>302.502441</ele>
  <time>2011-07-22T06:39:30Z</time>
  <speed>2.990000</speed>
</trkpt>
<trkpt lat="32.863300323" lon="35.249149323">
  <ele>301.736816</ele>
  <time>2011-07-22T06:39:31Z</time>
  <speed>3.870000</speed>
</trkpt>
<trkpt lat="32.863304138" lon="35.249111176">
  <ele>300.939941</ele>
  <time>2011-07-22T06:39:32Z</time>
  <speed>4.060000</speed>
</trkpt>
<trkpt lat="32.863315582" lon="35.249057770">
  <ele>300.799316</ele>
  <time>2011-07-22T06:39:33Z</time>
  <speed>4.590000</speed>
</trkpt>
<trkpt lat="32.863330841" lon="35.249027252">
  <ele>300.346191</ele>
  <time>2011-07-22T06:39:34Z</time>
  <speed>3.270000</speed>
</trkpt>
<trkpt lat="32.863334656" lon="35.248989105">
  <ele>299.127441</ele>
  <time>2011-07-22T06:39:35Z</time>
  <speed>3.350000</speed>
</trkpt>
<trkpt lat="32.863357544" lon="35.248950958">
  <ele>298.596191</ele>
  <time>2011-07-22T06:39:36Z</time>
  <speed>3.130000</speed>
</trkpt>
<trkpt lat="32.863327026" lon="35.248889923">
  <ele>297.564941</ele>
  <time>2011-07-22T06:39:38Z</time>
  <speed>2.540000</speed>
</trkpt>
<trkpt lat="32.863265991" lon="35.248882294">
  <ele>295.705566</ele>
  <time>2011-07-22T06:39:40Z</time>
  <speed>2.540000</speed>
</trkpt>
<trkpt lat="32.863227844" lon="35.248870850">
  <ele>294.260254</ele>
  <time>2011-07-22T06:39:42Z</time>
  <speed>2.230000</speed>
</trkpt>
<trkpt lat="32.863182068" lon="35.248821259">
  <ele>292.236816</ele>
  <time>2011-07-22T06:39:44Z</time>
  <speed>2.720000</speed>
</trkpt>
<trkpt lat="32.863189697" lon="35.248783112">
  <ele>290.893066</ele>
  <time>2011-07-22T06:39:45Z</time>
  <speed>2.840000</speed>
</trkpt>
<trkpt lat="32.863197327" lon="35.248748779">
  <ele>289.541504</ele>
  <time>2011-07-22T06:39:46Z</time>
  <speed>1.960000</speed>
</trkpt>
<trkpt lat="32.863162994" lon="35.248729706">
  <ele>288.814941</ele>
  <time>2011-07-22T06:39:48Z</time>
  <speed>2.410000</speed>
</trkpt>
<trkpt lat="32.863113403" lon="35.248718262">
  <ele>287.635254</ele>
  <time>2011-07-22T06:39:50Z</time>
  <speed>2.670000</speed>
</trkpt>
<trkpt lat="32.863082886" lon="35.248714447">
  <ele>286.854004</ele>
  <time>2011-07-22T06:39:51Z</time>
  <speed>3.280000</speed>
</trkpt>
<trkpt lat="32.863033295" lon="35.248714447">
  <ele>285.025879</ele>
  <time>2011-07-22T06:39:52Z</time>
  <speed>3.650000</speed>
</trkpt>
<trkpt lat="32.863002777" lon="35.248695374">
  <ele>283.682129</ele>
  <time>2011-07-22T06:39:53Z</time>
  <speed>3.560000</speed>
</trkpt>
<trkpt lat="32.862979889" lon="35.248672485">
  <ele>283.361816</ele>
  <time>2011-07-22T06:39:54Z</time>
  <speed>2.830000</speed>
</trkpt>
<trkpt lat="32.862941742" lon="35.248619080">
  <ele>281.986816</ele>
  <time>2011-07-22T06:39:56Z</time>
  <speed>2.650000</speed>
</trkpt>
<trkpt lat="32.862918854" lon="35.248600006">
  <ele>281.010254</ele>
  <time>2011-07-22T06:39:57Z</time>
  <speed>2.710000</speed>
</trkpt>
<trkpt lat="32.862899780" lon="35.248558044">
  <ele>281.924316</ele>
  <time>2011-07-22T06:39:58Z</time>
  <speed>2.380000</speed>
</trkpt>
<trkpt lat="32.862884521" lon="35.248523712">
  <ele>281.002441</ele>
  <time>2011-07-22T06:39:59Z</time>
  <speed>2.300000</speed>
</trkpt>
<trkpt lat="32.862873077" lon="35.248455048">
  <ele>280.221191</ele>
  <time>2011-07-22T06:40:01Z</time>
  <speed>3.410000</speed>
</trkpt>
<trkpt lat="32.862884521" lon="35.248424530">
  <ele>279.869629</ele>
  <time>2011-07-22T06:40:02Z</time>
  <speed>3.360000</speed>
</trkpt>
<trkpt lat="32.862903595" lon="35.248394012">
  <ele>278.947754</ele>
  <time>2011-07-22T06:40:03Z</time>
  <speed>3.500000</speed>
</trkpt>
<trkpt lat="32.862922668" lon="35.248363495">
  <ele>278.338379</ele>
  <time>2011-07-22T06:40:04Z</time>
  <speed>3.200000</speed>
</trkpt>
<trkpt lat="32.862953186" lon="35.248344421">
  <ele>276.916504</ele>
  <time>2011-07-22T06:40:05Z</time>
  <speed>3.100000</speed>
</trkpt>
<trkpt lat="32.862968445" lon="35.248310089">
  <ele>275.979004</ele>
  <time>2011-07-22T06:40:06Z</time>
  <speed>3.660000</speed>
</trkpt>
<trkpt lat="32.862995148" lon="35.248268127">
  <ele>274.736816</ele>
  <time>2011-07-22T06:40:07Z</time>
  <speed>4.630000</speed>
</trkpt>
<trkpt lat="32.863025665" lon="35.248226166">
  <ele>273.666504</ele>
  <time>2011-07-22T06:40:08Z</time>
  <speed>5.150000</speed>
</trkpt>
<trkpt lat="32.863048553" lon="35.248176575">
  <ele>272.947754</ele>
  <time>2011-07-22T06:40:09Z</time>
  <speed>4.920000</speed>
</trkpt>
<trkpt lat="32.863086700" lon="35.248138428">
  <ele>272.604004</ele>
  <time>2011-07-22T06:40:10Z</time>
  <speed>4.490000</speed>
</trkpt>
<trkpt lat="32.863117218" lon="35.248096466">
  <ele>271.893066</ele>
  <time>2011-07-22T06:40:11Z</time>
  <speed>3.710000</speed>
</trkpt>
<trkpt lat="32.863136292" lon="35.248065948">
  <ele>271.932129</ele>
  <time>2011-07-22T06:40:12Z</time>
  <speed>2.530000</speed>
</trkpt>
<trkpt lat="32.863159180" lon="35.248050690">
  <ele>271.479004</ele>
  <time>2011-07-22T06:40:13Z</time>
  <speed>2.690000</speed>
</trkpt>
<trkpt lat="32.863178253" lon="35.247997284">
  <ele>270.713379</ele>
  <time>2011-07-22T06:40:15Z</time>
  <speed>2.220000</speed>
</trkpt>
<trkpt lat="32.863162994" lon="35.247947693">
  <ele>269.689941</ele>
  <time>2011-07-22T06:40:17Z</time>
  <speed>2.030000</speed>
</trkpt>
<trkpt lat="32.863143921" lon="35.247928619">
  <ele>269.002441</ele>
  <time>2011-07-22T06:40:18Z</time>
  <speed>2.690000</speed>
</trkpt>
<trkpt lat="32.863109589" lon="35.247909546">
  <ele>268.533691</ele>
  <time>2011-07-22T06:40:19Z</time>
  <speed>2.960000</speed>
</trkpt>
<trkpt lat="32.863079071" lon="35.247871399">
  <ele>266.869629</ele>
  <time>2011-07-22T06:40:20Z</time>
  <speed>2.600000</speed>
</trkpt>
<trkpt lat="32.863071442" lon="35.247840881">
  <ele>265.768066</ele>
  <time>2011-07-22T06:40:21Z</time>
  <speed>2.800000</speed>
</trkpt>
<trkpt lat="32.863075256" lon="35.247779846">
  <ele>264.119629</ele>
  <time>2011-07-22T06:40:23Z</time>
  <speed>2.960000</speed>
</trkpt>
<trkpt lat="32.863086700" lon="35.247741699">
  <ele>263.705566</ele>
  <time>2011-07-22T06:40:24Z</time>
  <speed>3.360000</speed>
</trkpt>
<trkpt lat="32.863101959" lon="35.247680664">
  <ele>263.041504</ele>
  <time>2011-07-22T06:40:25Z</time>
  <speed>4.130000</speed>
</trkpt>
<trkpt lat="32.863132477" lon="35.247642517">
  <ele>262.564941</ele>
  <time>2011-07-22T06:40:26Z</time>
  <speed>4.310000</speed>
</trkpt>
<trkpt lat="32.863155365" lon="35.247596741">
  <ele>261.807129</ele>
  <time>2011-07-22T06:40:27Z</time>
  <speed>5.340000</speed>
</trkpt>
<trkpt lat="32.863182068" lon="35.247535706">
  <ele>260.463379</ele>
  <time>2011-07-22T06:40:28Z</time>
  <speed>6.070000</speed>
</trkpt>
<trkpt lat="32.863204956" lon="35.247470856">
  <ele>259.557129</ele>
  <time>2011-07-22T06:40:29Z</time>
  <speed>6.120000</speed>
</trkpt>
<trkpt lat="32.863227844" lon="35.247417450">
  <ele>258.900879</ele>
  <time>2011-07-22T06:40:30Z</time>
  <speed>5.710000</speed>
</trkpt>
<trkpt lat="32.863250732" lon="35.247379303">
  <ele>258.689941</ele>
  <time>2011-07-22T06:40:31Z</time>
  <speed>4.130000</speed>
</trkpt>
<trkpt lat="32.863262177" lon="35.247344971">
  <ele>257.580566</ele>
  <time>2011-07-22T06:40:32Z</time>
  <speed>0.940000</speed>
</trkpt>
<trkpt lat="32.863254547" lon="35.247303009">
  <ele>258.221191</ele>
  <time>2011-07-22T06:40:34Z</time>
  <speed>1.340000</speed>
</trkpt>
<trkpt lat="32.863243103" lon="35.247253418">
  <ele>258.197754</ele>
  <time>2011-07-22T06:40:36Z</time>
  <speed>1.770000</speed>
</trkpt>
<trkpt lat="32.863235474" lon="35.247222900">
  <ele>258.002441</ele>
  <time>2011-07-22T06:40:38Z</time>
  <speed>1.180000</speed>
</trkpt>
<trkpt lat="32.863239288" lon="35.247188568">
  <ele>258.010254</ele>
  <time>2011-07-22T06:40:39Z</time>
  <speed>3.270000</speed>
</trkpt>
<trkpt lat="32.863254547" lon="35.247146606">
  <ele>257.721191</ele>
  <time>2011-07-22T06:40:40Z</time>
  <speed>3.230000</speed>
</trkpt>
<trkpt lat="32.863262177" lon="35.247108459">
  <ele>257.471191</ele>
  <time>2011-07-22T06:40:41Z</time>
  <speed>2.900000</speed>
</trkpt>
<trkpt lat="32.863262177" lon="35.247074127">
  <ele>257.260254</ele>
  <time>2011-07-22T06:40:42Z</time>
  <speed>2.960000</speed>
</trkpt>
<trkpt lat="32.863246918" lon="35.247032166">
  <ele>257.189941</ele>
  <time>2011-07-22T06:40:43Z</time>
  <speed>3.610000</speed>
</trkpt>
<trkpt lat="32.863212585" lon="35.246967316">
  <ele>258.400879</ele>
  <time>2011-07-22T06:40:44Z</time>
  <speed>2.770000</speed>
</trkpt>
<trkpt lat="32.863166809" lon="35.246921539">
  <ele>258.541504</ele>
  <time>2011-07-22T06:40:46Z</time>
  <speed>2.500000</speed>
</trkpt>
<trkpt lat="32.863151550" lon="35.246974945">
  <ele>258.135254</ele>
  <time>2011-07-22T06:40:48Z</time>
  <speed>3.110000</speed>
</trkpt>
<trkpt lat="32.863132477" lon="35.247024536">
  <ele>259.049316</ele>
  <time>2011-07-22T06:40:49Z</time>
  <speed>4.230000</speed>
</trkpt>
<trkpt lat="32.863109589" lon="35.247062683">
  <ele>258.518066</ele>
  <time>2011-07-22T06:40:50Z</time>
  <speed>4.750000</speed>
</trkpt>
<trkpt lat="32.863079071" lon="35.247093201">
  <ele>258.541504</ele>
  <time>2011-07-22T06:40:51Z</time>
  <speed>3.790000</speed>
</trkpt>
<trkpt lat="32.863048553" lon="35.247100830">
  <ele>258.275879</ele>
  <time>2011-07-22T06:40:52Z</time>
  <speed>3.160000</speed>
</trkpt>
<trkpt lat="32.863006592" lon="35.247066498">
  <ele>257.736816</ele>
  <time>2011-07-22T06:40:54Z</time>
  <speed>3.290000</speed>
</trkpt>
<trkpt lat="32.863002777" lon="35.247016907">
  <ele>257.932129</ele>
  <time>2011-07-22T06:40:55Z</time>
  <speed>4.030000</speed>
</trkpt>
<trkpt lat="32.863002777" lon="35.246978760">
  <ele>257.744629</ele>
  <time>2011-07-22T06:40:56Z</time>
  <speed>3.860000</speed>
</trkpt>
<trkpt lat="32.863002777" lon="35.246932983">
  <ele>257.072754</ele>
  <time>2011-07-22T06:40:57Z</time>
  <speed>4.280000</speed>
</trkpt>
<trkpt lat="32.863006592" lon="35.246887207">
  <ele>256.533691</ele>
  <time>2011-07-22T06:40:58Z</time>
  <speed>4.440000</speed>
</trkpt>
<trkpt lat="32.862995148" lon="35.246829987">
  <ele>256.244629</ele>
  <time>2011-07-22T06:40:59Z</time>
  <speed>3.140000</speed>
</trkpt>
<trkpt lat="32.862964630" lon="35.246826172">
  <ele>255.567627</ele>
  <time>2011-07-22T06:41:01Z</time>
  <speed>2.860000</speed>
</trkpt>
<trkpt lat="32.862930298" lon="35.246879578">
  <ele>255.380127</ele>
  <time>2011-07-22T06:41:03Z</time>
  <speed>3.860000</speed>
</trkpt>
<trkpt lat="32.862892151" lon="35.246910095">
  <ele>255.118408</ele>
  <time>2011-07-22T06:41:04Z</time>
  <speed>4.380000</speed>
</trkpt>
<trkpt lat="32.862850189" lon="35.246936798">
  <ele>254.411377</ele>
  <time>2011-07-22T06:41:05Z</time>
  <speed>5.160000</speed>
</trkpt>
<trkpt lat="32.862808228" lon="35.246944427">
  <ele>254.102783</ele>
  <time>2011-07-22T06:41:06Z</time>
  <speed>4.750000</speed>
</trkpt>
<trkpt lat="32.862766266" lon="35.246944427">
  <ele>253.348877</ele>
  <time>2011-07-22T06:41:07Z</time>
  <speed>4.170000</speed>
</trkpt>
<trkpt lat="32.862712860" lon="35.246936798">
  <ele>252.723877</ele>
  <time>2011-07-22T06:41:08Z</time>
  <speed>4.990000</speed>
</trkpt>
<trkpt lat="32.862636566" lon="35.246932983">
  <ele>252.512939</ele>
  <time>2011-07-22T06:41:09Z</time>
  <speed>5.080000</speed>
</trkpt>
<trkpt lat="32.862594604" lon="35.246910095">
  <ele>251.938721</ele>
  <time>2011-07-22T06:41:10Z</time>
  <speed>4.640000</speed>
</trkpt>
<trkpt lat="32.862560272" lon="35.246887207">
  <ele>251.559814</ele>
  <time>2011-07-22T06:41:11Z</time>
  <speed>4.080000</speed>
</trkpt>
<trkpt lat="32.862529755" lon="35.246864319">
  <ele>251.204346</ele>
  <time>2011-07-22T06:41:12Z</time>
  <speed>3.830000</speed>
</trkpt>
<trkpt lat="32.862503052" lon="35.246849060">
  <ele>250.966064</ele>
  <time>2011-07-22T06:41:13Z</time>
  <speed>2.910000</speed>
</trkpt>
<trkpt lat="32.862468719" lon="35.246803284">
  <ele>250.106689</ele>
  <time>2011-07-22T06:41:14Z</time>
  <speed>3.900000</speed>
</trkpt>
<trkpt lat="32.862434387" lon="35.246788025">
  <ele>249.200439</ele>
  <time>2011-07-22T06:41:15Z</time>
  <speed>3.440000</speed>
</trkpt>
<trkpt lat="32.862407684" lon="35.246776581">
  <ele>248.704346</ele>
  <time>2011-07-22T06:41:16Z</time>
  <speed>2.610000</speed>
</trkpt>
<trkpt lat="32.862369537" lon="35.246738434">
  <ele>247.743408</ele>
  <time>2011-07-22T06:41:18Z</time>
  <speed>2.650000</speed>
</trkpt>
<trkpt lat="32.862346649" lon="35.246711731">
  <ele>247.184814</ele>
  <time>2011-07-22T06:41:19Z</time>
  <speed>3.210000</speed>
</trkpt>
<trkpt lat="32.862319946" lon="35.246685028">
  <ele>246.528564</ele>
  <time>2011-07-22T06:41:20Z</time>
  <speed>3.750000</speed>
</trkpt>
<trkpt lat="32.862277985" lon="35.246658325">
  <ele>245.934814</ele>
  <time>2011-07-22T06:41:21Z</time>
  <speed>5.000000</speed>
</trkpt>
<trkpt lat="32.862224579" lon="35.246627808">
  <ele>245.364502</ele>
  <time>2011-07-22T06:41:22Z</time>
  <speed>4.160000</speed>
</trkpt>
<trkpt lat="32.862190247" lon="35.246597290">
  <ele>244.731689</ele>
  <time>2011-07-22T06:41:23Z</time>
  <speed>4.250000</speed>
</trkpt>
<trkpt lat="32.862144470" lon="35.246547699">
  <ele>243.653564</ele>
  <time>2011-07-22T06:41:24Z</time>
  <speed>4.530000</speed>
</trkpt>
<trkpt lat="32.862110138" lon="35.246513367">
  <ele>242.837158</ele>
  <time>2011-07-22T06:41:25Z</time>
  <speed>3.480000</speed>
</trkpt>
<trkpt lat="32.862087250" lon="35.246490479">
  <ele>242.372314</ele>
  <time>2011-07-22T06:41:26Z</time>
  <speed>2.920000</speed>
</trkpt>
<trkpt lat="32.862041473" lon="35.246456146">
  <ele>240.989502</ele>
  <time>2011-07-22T06:41:28Z</time>
  <speed>2.510000</speed>
</trkpt>
<trkpt lat="32.862022400" lon="35.246433258">
  <ele>239.680908</ele>
  <time>2011-07-22T06:41:30Z</time>
  <speed>0.870000</speed>
</trkpt>
<trkpt lat="32.862007141" lon="35.246410370">
  <ele>238.216064</ele>
  <time>2011-07-22T06:41:33Z</time>
  <speed>0.420000</speed>
</trkpt>
<trkpt lat="32.861991882" lon="35.246398926">
  <ele>235.829346</ele>
  <time>2011-07-22T06:41:38Z</time>
  <speed>0.830000</speed>
</trkpt>
<trkpt lat="32.861972809" lon="35.246368408">
  <ele>234.837158</ele>
  <time>2011-07-22T06:41:41Z</time>
  <speed>1.140000</speed>
</trkpt>
<trkpt lat="32.861934662" lon="35.246353149">
  <ele>234.251221</ele>
  <time>2011-07-22T06:41:42Z</time>
  <speed>1.850000</speed>
</trkpt>
<trkpt lat="32.861900330" lon="35.246326447">
  <ele>234.161377</ele>
  <time>2011-07-22T06:41:43Z</time>
  <speed>3.920000</speed>
</trkpt>
<trkpt lat="32.861846924" lon="35.246307373">
  <ele>233.317627</ele>
  <time>2011-07-22T06:41:44Z</time>
  <speed>4.230000</speed>
</trkpt>
<trkpt lat="32.861812592" lon="35.246276855">
  <ele>233.009033</ele>
  <time>2011-07-22T06:41:45Z</time>
  <speed>4.050000</speed>
</trkpt>
<trkpt lat="32.861797333" lon="35.246246338">
  <ele>232.610596</ele>
  <time>2011-07-22T06:41:46Z</time>
  <speed>3.270000</speed>
</trkpt>
<trkpt lat="32.861789703" lon="35.246208191">
  <ele>232.114502</ele>
  <time>2011-07-22T06:41:47Z</time>
  <speed>4.040000</speed>
</trkpt>
<trkpt lat="32.861782074" lon="35.246166229">
  <ele>231.743408</ele>
  <time>2011-07-22T06:41:48Z</time>
  <speed>3.900000</speed>
</trkpt>
<trkpt lat="32.861789703" lon="35.246124268">
  <ele>231.407471</ele>
  <time>2011-07-22T06:41:49Z</time>
  <speed>4.250000</speed>
</trkpt>
<trkpt lat="32.861801147" lon="35.246082306">
  <ele>230.981689</ele>
  <time>2011-07-22T06:41:50Z</time>
  <speed>3.460000</speed>
</trkpt>
<trkpt lat="32.861816406" lon="35.246051788">
  <ele>230.286377</ele>
  <time>2011-07-22T06:41:51Z</time>
  <speed>2.660000</speed>
</trkpt>
<trkpt lat="32.861831665" lon="35.246021271">
  <ele>229.856689</ele>
  <time>2011-07-22T06:41:52Z</time>
  <speed>2.310000</speed>
</trkpt>
<trkpt lat="32.861824036" lon="35.245986938">
  <ele>229.434814</ele>
  <time>2011-07-22T06:41:53Z</time>
  <speed>2.240000</speed>
</trkpt>
<trkpt lat="32.861801147" lon="35.245941162">
  <ele>229.110596</ele>
  <time>2011-07-22T06:41:54Z</time>
  <speed>4.790000</speed>
</trkpt>
<trkpt lat="32.861770630" lon="35.245891571">
  <ele>228.680908</ele>
  <time>2011-07-22T06:41:55Z</time>
  <speed>4.270000</speed>
</trkpt>
<trkpt lat="32.861747742" lon="35.245861053">
  <ele>228.106689</ele>
  <time>2011-07-22T06:41:56Z</time>
  <speed>3.320000</speed>
</trkpt>
<trkpt lat="32.861721039" lon="35.245841980">
  <ele>227.641846</ele>
  <time>2011-07-22T06:41:57Z</time>
  <speed>2.920000</speed>
</trkpt>
<trkpt lat="32.861682892" lon="35.245834351">
  <ele>227.063721</ele>
  <time>2011-07-22T06:41:58Z</time>
  <speed>3.210000</speed>
</trkpt>
<trkpt lat="32.861640930" lon="35.245815277">
  <ele>226.567627</ele>
  <time>2011-07-22T06:41:59Z</time>
  <speed>5.530000</speed>
</trkpt>
<trkpt lat="32.861591339" lon="35.245792389">
  <ele>226.137939</ele>
  <time>2011-07-22T06:42:00Z</time>
  <speed>5.310000</speed>
</trkpt>
<trkpt lat="32.861537933" lon="35.245708466">
  <ele>225.657471</ele>
  <time>2011-07-22T06:42:01Z</time>
  <speed>5.070000</speed>
</trkpt>
<trkpt lat="32.861499786" lon="35.245677948">
  <ele>225.274658</ele>
  <time>2011-07-22T06:42:02Z</time>
  <speed>3.990000</speed>
</trkpt>
<trkpt lat="32.861457825" lon="35.245662689">
  <ele>224.747314</ele>
  <time>2011-07-22T06:42:03Z</time>
  <speed>3.850000</speed>
</trkpt>
<trkpt lat="32.861419678" lon="35.245655060">
  <ele>224.403564</ele>
  <time>2011-07-22T06:42:04Z</time>
  <speed>3.740000</speed>
</trkpt>
<trkpt lat="32.861362457" lon="35.245616913">
  <ele>223.751221</ele>
  <time>2011-07-22T06:42:05Z</time>
  <speed>3.270000</speed>
</trkpt>
<trkpt lat="32.861331940" lon="35.245567322">
  <ele>223.387939</ele>
  <time>2011-07-22T06:42:06Z</time>
  <speed>2.610000</speed>
</trkpt>
<trkpt lat="32.861274719" lon="35.245563507">
  <ele>224.231689</ele>
  <time>2011-07-22T06:42:07Z</time>
  <speed>3.330000</speed>
</trkpt>
<trkpt lat="32.861228943" lon="35.245555878">
  <ele>224.380127</ele>
  <time>2011-07-22T06:42:08Z</time>
  <speed>3.640000</speed>
</trkpt>
<trkpt lat="32.861186981" lon="35.245532990">
  <ele>223.723877</ele>
  <time>2011-07-22T06:42:09Z</time>
  <speed>4.000000</speed>
</trkpt>
<trkpt lat="32.861152649" lon="35.245525360">
  <ele>223.161377</ele>
  <time>2011-07-22T06:42:10Z</time>
  <speed>3.070000</speed>
</trkpt>
<trkpt lat="32.861106873" lon="35.245513916">
  <ele>222.227783</ele>
  <time>2011-07-22T06:42:11Z</time>
  <speed>3.050000</speed>
</trkpt>
<trkpt lat="32.861049652" lon="35.245529175">
  <ele>220.282471</ele>
  <time>2011-07-22T06:42:12Z</time>
  <speed>2.890000</speed>
</trkpt>
<trkpt lat="32.861026764" lon="35.245544434">
  <ele>219.579346</ele>
  <time>2011-07-22T06:42:13Z</time>
  <speed>1.830000</speed>
</trkpt>
<trkpt lat="32.860984802" lon="35.245563507">
  <ele>217.805908</ele>
  <time>2011-07-22T06:42:15Z</time>
  <speed>0.370000</speed>
</trkpt>
<trkpt lat="32.860965729" lon="35.245582581">
  <ele>217.458252</ele>
  <time>2011-07-22T06:42:46Z</time>
  <speed>1.100000</speed>
</trkpt>
<trkpt lat="32.860961914" lon="35.245628357">
  <ele>217.973877</ele>
  <time>2011-07-22T06:42:48Z</time>
  <speed>2.000000</speed>
</trkpt>
<trkpt lat="32.860980988" lon="35.245677948">
  <ele>219.020752</ele>
  <time>2011-07-22T06:42:50Z</time>
  <speed>1.640000</speed>
</trkpt>
<trkpt lat="32.861003876" lon="35.245719910">
  <ele>219.833252</ele>
  <time>2011-07-22T06:42:52Z</time>
  <speed>2.010000</speed>
</trkpt>
<trkpt lat="32.861026764" lon="35.245750427">
  <ele>220.032471</ele>
  <time>2011-07-22T06:42:54Z</time>
  <speed>1.880000</speed>
</trkpt>
<trkpt lat="32.861049652" lon="35.245777130">
  <ele>220.255127</ele>
  <time>2011-07-22T06:42:56Z</time>
  <speed>2.020000</speed>
</trkpt>
<trkpt lat="32.861087799" lon="35.245803833">
  <ele>220.622314</ele>
  <time>2011-07-22T06:42:58Z</time>
  <speed>1.840000</speed>
</trkpt>
<trkpt lat="32.861110687" lon="35.245834351">
  <ele>220.540283</ele>
  <time>2011-07-22T06:43:00Z</time>
  <speed>1.730000</speed>
</trkpt>
<trkpt lat="32.861133575" lon="35.245861053">
  <ele>220.677002</ele>
  <time>2011-07-22T06:43:02Z</time>
  <speed>1.970000</speed>
</trkpt>
<trkpt lat="32.861145020" lon="35.245906830">
  <ele>221.212158</ele>
  <time>2011-07-22T06:43:04Z</time>
  <speed>1.610000</speed>
</trkpt>
<trkpt lat="32.861164093" lon="35.245941162">
  <ele>220.891846</ele>
  <time>2011-07-22T06:43:06Z</time>
  <speed>1.910000</speed>
</trkpt>
<trkpt lat="32.861183167" lon="35.245979309">
  <ele>221.192627</ele>
  <time>2011-07-22T06:43:08Z</time>
  <speed>1.780000</speed>
</trkpt>
<trkpt lat="32.861198425" lon="35.246009827">
  <ele>221.278564</ele>
  <time>2011-07-22T06:43:10Z</time>
  <speed>1.530000</speed>
</trkpt>
<trkpt lat="32.861225128" lon="35.246055603">
  <ele>221.118408</ele>
  <time>2011-07-22T06:43:12Z</time>
  <speed>1.550000</speed>
</trkpt>
<trkpt lat="32.861240387" lon="35.246093750">
  <ele>221.094971</ele>
  <time>2011-07-22T06:43:14Z</time>
  <speed>1.790000</speed>
</trkpt>
<trkpt lat="32.861255646" lon="35.246135712">
  <ele>221.387939</ele>
  <time>2011-07-22T06:43:17Z</time>
  <speed>2.090000</speed>
</trkpt>
<trkpt lat="32.861267090" lon="35.246173859">
  <ele>221.462158</ele>
  <time>2011-07-22T06:43:19Z</time>
  <speed>1.750000</speed>
</trkpt>
<trkpt lat="32.861278534" lon="35.246215820">
  <ele>221.348877</ele>
  <time>2011-07-22T06:43:22Z</time>
  <speed>1.690000</speed>
</trkpt>
<trkpt lat="32.861286163" lon="35.246246338">
  <ele>221.516846</ele>
  <time>2011-07-22T06:43:24Z</time>
  <speed>1.750000</speed>
</trkpt>
<trkpt lat="32.861305237" lon="35.246276855">
  <ele>221.606689</ele>
  <time>2011-07-22T06:43:26Z</time>
  <speed>1.550000</speed>
</trkpt>
<trkpt lat="32.861312866" lon="35.246322632">
  <ele>221.977783</ele>
  <time>2011-07-22T06:43:29Z</time>
  <speed>1.410000</speed>
</trkpt>
<trkpt lat="32.861324310" lon="35.246356964">
  <ele>222.219971</ele>
  <time>2011-07-22T06:43:31Z</time>
  <speed>1.690000</speed>
</trkpt>
<trkpt lat="32.861328125" lon="35.246391296">
  <ele>222.485596</ele>
  <time>2011-07-22T06:43:33Z</time>
  <speed>1.490000</speed>
</trkpt>
<trkpt lat="32.861343384" lon="35.246421814">
  <ele>222.497314</ele>
  <time>2011-07-22T06:43:35Z</time>
  <speed>1.920000</speed>
</trkpt>
<trkpt lat="32.861351013" lon="35.246456146">
  <ele>222.575439</ele>
  <time>2011-07-22T06:43:37Z</time>
  <speed>1.450000</speed>
</trkpt>
<trkpt lat="32.861358643" lon="35.246505737">
  <ele>222.766846</ele>
  <time>2011-07-22T06:43:40Z</time>
  <speed>1.260000</speed>
</trkpt>
<trkpt lat="32.861370087" lon="35.246536255">
  <ele>222.962158</ele>
  <time>2011-07-22T06:43:42Z</time>
  <speed>1.140000</speed>
</trkpt>
<trkpt lat="32.861389160" lon="35.246562958">
  <ele>222.977783</ele>
  <time>2011-07-22T06:43:44Z</time>
  <speed>1.400000</speed>
</trkpt>
<trkpt lat="32.861389160" lon="35.246616364">
  <ele>223.251221</ele>
  <time>2011-07-22T06:43:47Z</time>
  <speed>1.480000</speed>
</trkpt>
<trkpt lat="32.861404419" lon="35.246654510">
  <ele>223.141846</ele>
  <time>2011-07-22T06:43:50Z</time>
  <speed>1.590000</speed>
</trkpt>
<trkpt lat="32.861404419" lon="35.246688843">
  <ele>222.977783</ele>
  <time>2011-07-22T06:43:52Z</time>
  <speed>1.550000</speed>
</trkpt>
<trkpt lat="32.861408234" lon="35.246723175">
  <ele>223.098877</ele>
  <time>2011-07-22T06:43:54Z</time>
  <speed>1.630000</speed>
</trkpt>
<trkpt lat="32.861385345" lon="35.246765137">
  <ele>222.329346</ele>
  <time>2011-07-22T06:43:56Z</time>
  <speed>1.580000</speed>
</trkpt>
<trkpt lat="32.861385345" lon="35.246807098">
  <ele>222.118408</ele>
  <time>2011-07-22T06:43:58Z</time>
  <speed>1.740000</speed>
</trkpt>
<trkpt lat="32.861370087" lon="35.246860504">
  <ele>222.626221</ele>
  <time>2011-07-22T06:44:01Z</time>
  <speed>1.890000</speed>
</trkpt>
<trkpt lat="32.861366272" lon="35.246898651">
  <ele>222.985596</ele>
  <time>2011-07-22T06:44:03Z</time>
  <speed>1.440000</speed>
</trkpt>
<trkpt lat="32.861366272" lon="35.246948242">
  <ele>223.067627</ele>
  <time>2011-07-22T06:44:06Z</time>
  <speed>1.610000</speed>
</trkpt>
<trkpt lat="32.861358643" lon="35.246990204">
  <ele>223.161377</ele>
  <time>2011-07-22T06:44:09Z</time>
  <speed>1.130000</speed>
</trkpt>
<trkpt lat="32.861366272" lon="35.247028351">
  <ele>223.341064</ele>
  <time>2011-07-22T06:44:12Z</time>
  <speed>1.150000</speed>
</trkpt>
<trkpt lat="32.861366272" lon="35.247070313">
  <ele>223.235596</ele>
  <time>2011-07-22T06:44:15Z</time>
  <speed>1.130000</speed>
</trkpt>
<trkpt lat="32.861373901" lon="35.247112274">
  <ele>222.524658</ele>
  <time>2011-07-22T06:44:18Z</time>
  <speed>1.220000</speed>
</trkpt>
<trkpt lat="32.861377716" lon="35.247146606">
  <ele>222.497314</ele>
  <time>2011-07-22T06:44:21Z</time>
  <speed>1.090000</speed>
</trkpt>
<trkpt lat="32.861385345" lon="35.247192383">
  <ele>222.528564</ele>
  <time>2011-07-22T06:44:25Z</time>
  <speed>1.370000</speed>
</trkpt>
<trkpt lat="32.861381531" lon="35.247226715">
  <ele>222.735596</ele>
  <time>2011-07-22T06:44:27Z</time>
  <speed>1.280000</speed>
</trkpt>
<trkpt lat="32.861381531" lon="35.247272491">
  <ele>222.880127</ele>
  <time>2011-07-22T06:44:30Z</time>
  <speed>1.030000</speed>
</trkpt>
<trkpt lat="32.861377716" lon="35.247314453">
  <ele>223.571533</ele>
  <time>2011-07-22T06:44:33Z</time>
  <speed>0.890000</speed>
</trkpt>
<trkpt lat="32.861373901" lon="35.247344971">
  <ele>225.028564</ele>
  <time>2011-07-22T06:44:37Z</time>
  <speed>0.730000</speed>
</trkpt>
<trkpt lat="32.861385345" lon="35.247386932">
  <ele>224.489502</ele>
  <time>2011-07-22T06:44:41Z</time>
  <speed>0.720000</speed>
</trkpt>
<trkpt lat="32.861389160" lon="35.247421265">
  <ele>224.274658</ele>
  <time>2011-07-22T06:44:44Z</time>
  <speed>0.860000</speed>
</trkpt>
<trkpt lat="32.861412048" lon="35.247451782">
  <ele>224.509033</ele>
  <time>2011-07-22T06:44:47Z</time>
  <speed>1.330000</speed>
</trkpt>
<trkpt lat="32.861415863" lon="35.247489929">
  <ele>224.610596</ele>
  <time>2011-07-22T06:44:49Z</time>
  <speed>1.690000</speed>
</trkpt>
<trkpt lat="32.861419678" lon="35.247528076">
  <ele>224.794189</ele>
  <time>2011-07-22T06:44:52Z</time>
  <speed>1.110000</speed>
</trkpt>
<trkpt lat="32.861434937" lon="35.247570038">
  <ele>225.173096</ele>
  <time>2011-07-22T06:44:55Z</time>
  <speed>1.340000</speed>
</trkpt>
<trkpt lat="32.861450195" lon="35.247615814">
  <ele>225.798096</ele>
  <time>2011-07-22T06:44:58Z</time>
  <speed>1.120000</speed>
</trkpt>
<trkpt lat="32.861469269" lon="35.247646332">
  <ele>226.880127</ele>
  <time>2011-07-22T06:45:02Z</time>
  <speed>0.990000</speed>
</trkpt>
<trkpt lat="32.861480713" lon="35.247676849">
  <ele>227.532471</ele>
  <time>2011-07-22T06:45:05Z</time>
  <speed>0.830000</speed>
</trkpt>
<trkpt lat="32.861495972" lon="35.247703552">
  <ele>228.223877</ele>
  <time>2011-07-22T06:45:09Z</time>
  <speed>0.790000</speed>
</trkpt>
<trkpt lat="32.861503601" lon="35.247734070">
  <ele>229.364502</ele>
  <time>2011-07-22T06:45:19Z</time>
  <speed>0.340000</speed>
</trkpt>
<trkpt lat="32.861495972" lon="35.247768402">
  <ele>229.950439</ele>
  <time>2011-07-22T06:45:23Z</time>
  <speed>0.600000</speed>
</trkpt>
<trkpt lat="32.861503601" lon="35.247802734">
  <ele>230.606689</ele>
  <time>2011-07-22T06:45:28Z</time>
  <speed>0.330000</speed>
</trkpt>
<trkpt lat="32.861518860" lon="35.247840881">
  <ele>231.587158</ele>
  <time>2011-07-22T06:45:33Z</time>
  <speed>0.330000</speed>
</trkpt>
<trkpt lat="32.861534119" lon="35.247871399">
  <ele>232.868408</ele>
  <time>2011-07-22T06:45:35Z</time>
  <speed>0.660000</speed>
</trkpt>
<trkpt lat="32.861553192" lon="35.247890472">
  <ele>233.036377</ele>
  <time>2011-07-22T06:45:37Z</time>
  <speed>0.930000</speed>
</trkpt>
<trkpt lat="32.861560822" lon="35.247924805">
  <ele>233.743408</ele>
  <time>2011-07-22T06:45:41Z</time>
  <speed>0.900000</speed>
</trkpt>
<trkpt lat="32.861579895" lon="35.247955322">
  <ele>234.532471</ele>
  <time>2011-07-22T06:45:46Z</time>
  <speed>0.930000</speed>
</trkpt>
<trkpt lat="32.861591339" lon="35.247985840">
  <ele>235.434814</ele>
  <time>2011-07-22T06:45:48Z</time>
  <speed>0.950000</speed>
</trkpt>
<trkpt lat="32.861610413" lon="35.248012543">
  <ele>235.755127</ele>
  <time>2011-07-22T06:45:50Z</time>
  <speed>1.010000</speed>
</trkpt>
<trkpt lat="32.861644745" lon="35.248039246">
  <ele>236.161377</ele>
  <time>2011-07-22T06:45:53Z</time>
  <speed>1.720000</speed>
</trkpt>
<trkpt lat="32.861671448" lon="35.248062134">
  <ele>236.419189</ele>
  <time>2011-07-22T06:45:55Z</time>
  <speed>1.200000</speed>
</trkpt>
<trkpt lat="32.861698151" lon="35.248092651">
  <ele>236.688721</ele>
  <time>2011-07-22T06:46:00Z</time>
  <speed>1.010000</speed>
</trkpt>
<trkpt lat="32.861717224" lon="35.248119354">
  <ele>236.864502</ele>
  <time>2011-07-22T06:46:03Z</time>
  <speed>1.020000</speed>
</trkpt>
<trkpt lat="32.861736298" lon="35.248142242">
  <ele>237.380127</ele>
  <time>2011-07-22T06:46:06Z</time>
  <speed>0.920000</speed>
</trkpt>
<trkpt lat="32.861770630" lon="35.248157501">
  <ele>237.704346</ele>
  <time>2011-07-22T06:46:09Z</time>
  <speed>0.920000</speed>
</trkpt>
<trkpt lat="32.861793518" lon="35.248188019">
  <ele>239.583252</ele>
  <time>2011-07-22T06:46:12Z</time>
  <speed>1.090000</speed>
</trkpt>
<trkpt lat="32.861820221" lon="35.248168945">
  <ele>239.610596</ele>
  <time>2011-07-22T06:46:15Z</time>
  <speed>1.000000</speed>
</trkpt>
<trkpt lat="32.861816406" lon="35.248210907">
  <ele>239.591064</ele>
  <time>2011-07-22T06:46:19Z</time>
  <speed>1.160000</speed>
</trkpt>
<trkpt lat="32.861793518" lon="35.248237610">
  <ele>239.915283</ele>
  <time>2011-07-22T06:46:22Z</time>
  <speed>1.020000</speed>
</trkpt>
<trkpt lat="32.861763000" lon="35.248237610">
  <ele>239.938721</ele>
  <time>2011-07-22T06:46:31Z</time>
  <speed>0.270000</speed>
</trkpt>
<trkpt lat="32.861732483" lon="35.248245239">
  <ele>240.114502</ele>
  <time>2011-07-22T06:46:36Z</time>
  <speed>0.320000</speed>
</trkpt>
<trkpt lat="32.861690521" lon="35.248252869">
  <ele>240.411377</ele>
  <time>2011-07-22T06:46:39Z</time>
  <speed>0.360000</speed>
</trkpt>
<trkpt lat="32.861660004" lon="35.248264313">
  <ele>240.567627</ele>
  <time>2011-07-22T06:46:42Z</time>
  <speed>0.300000</speed>
</trkpt>
<trkpt lat="32.861682892" lon="35.248245239">
  <ele>239.887939</ele>
  <time>2011-07-22T06:47:43Z</time>
  <speed>0.130000</speed>
</trkpt>
<trkpt lat="32.861656189" lon="35.248256683">
  <ele>240.290283</ele>
  <time>2011-07-22T06:47:51Z</time>
  <speed>0.360000</speed>
</trkpt>
<trkpt lat="32.861568451" lon="35.248283386">
  <ele>240.649658</ele>
  <time>2011-07-22T06:47:52Z</time>
  <speed>0.330000</speed>
</trkpt>
<trkpt lat="32.861541748" lon="35.248302460">
  <ele>241.036377</ele>
  <time>2011-07-22T06:47:55Z</time>
  <speed>0.250000</speed>
</trkpt>
<trkpt lat="32.861568451" lon="35.248291016">
  <ele>241.786377</ele>
  <time>2011-07-22T06:48:11Z</time>
  <speed>0.920000</speed>
</trkpt>
<trkpt lat="32.861545563" lon="35.248260498">
  <ele>242.341064</ele>
  <time>2011-07-22T06:48:17Z</time>
  <speed>1.620000</speed>
</trkpt>
<trkpt lat="32.861518860" lon="35.248237610">
  <ele>242.204346</ele>
  <time>2011-07-22T06:48:20Z</time>
  <speed>1.580000</speed>
</trkpt>
<trkpt lat="32.861503601" lon="35.248203278">
  <ele>241.778564</ele>
  <time>2011-07-22T06:48:22Z</time>
  <speed>1.930000</speed>
</trkpt>
<trkpt lat="32.861476898" lon="35.248188019">
  <ele>241.540283</ele>
  <time>2011-07-22T06:48:24Z</time>
  <speed>1.850000</speed>
</trkpt>
<trkpt lat="32.861454010" lon="35.248168945">
  <ele>241.825439</ele>
  <time>2011-07-22T06:48:26Z</time>
  <speed>2.030000</speed>
</trkpt>
<trkpt lat="32.861434937" lon="35.248142242">
  <ele>242.173096</ele>
  <time>2011-07-22T06:48:28Z</time>
  <speed>2.110000</speed>
</trkpt>
<trkpt lat="32.861404419" lon="35.248119354">
  <ele>242.106689</ele>
  <time>2011-07-22T06:48:30Z</time>
  <speed>1.910000</speed>
</trkpt>
<trkpt lat="32.861377716" lon="35.248092651">
  <ele>242.266846</ele>
  <time>2011-07-22T06:48:32Z</time>
  <speed>1.800000</speed>
</trkpt>
<trkpt lat="32.861354828" lon="35.248069763">
  <ele>242.083252</ele>
  <time>2011-07-22T06:48:34Z</time>
  <speed>1.570000</speed>
</trkpt>
<trkpt lat="32.861328125" lon="35.248046875">
  <ele>242.118408</ele>
  <time>2011-07-22T06:48:36Z</time>
  <speed>2.010000</speed>
</trkpt>
<trkpt lat="32.861301422" lon="35.248012543">
  <ele>241.856689</ele>
  <time>2011-07-22T06:48:38Z</time>
  <speed>2.150000</speed>
</trkpt>
<trkpt lat="32.861270905" lon="35.247978210">
  <ele>241.239502</ele>
  <time>2011-07-22T06:48:40Z</time>
  <speed>2.250000</speed>
</trkpt>
<trkpt lat="32.861244202" lon="35.247940063">
  <ele>241.200439</ele>
  <time>2011-07-22T06:48:42Z</time>
  <speed>2.250000</speed>
</trkpt>
<trkpt lat="32.861209869" lon="35.247905731">
  <ele>240.575439</ele>
  <time>2011-07-22T06:48:44Z</time>
  <speed>2.290000</speed>
</trkpt>
<trkpt lat="32.861175537" lon="35.247875214">
  <ele>240.341064</ele>
  <time>2011-07-22T06:48:46Z</time>
  <speed>2.590000</speed>
</trkpt>
<trkpt lat="32.861145020" lon="35.247837067">
  <ele>239.993408</ele>
  <time>2011-07-22T06:48:48Z</time>
  <speed>2.350000</speed>
</trkpt>
<trkpt lat="32.861114502" lon="35.247795105">
  <ele>239.067627</ele>
  <time>2011-07-22T06:48:50Z</time>
  <speed>2.230000</speed>
</trkpt>
<trkpt lat="32.861083984" lon="35.247756958">
  <ele>237.844971</ele>
  <time>2011-07-22T06:48:52Z</time>
  <speed>2.410000</speed>
</trkpt>
<trkpt lat="32.861049652" lon="35.247714996">
  <ele>239.497314</ele>
  <time>2011-07-22T06:48:54Z</time>
  <speed>2.410000</speed>
</trkpt>
<trkpt lat="32.861026764" lon="35.247684479">
  <ele>241.364502</ele>
  <time>2011-07-22T06:48:55Z</time>
  <speed>2.470000</speed>
</trkpt>
<trkpt lat="32.861000061" lon="35.247638702">
  <ele>242.407471</ele>
  <time>2011-07-22T06:48:57Z</time>
  <speed>2.180000</speed>
</trkpt>
<trkpt lat="32.860973358" lon="35.247604370">
  <ele>243.079346</ele>
  <time>2011-07-22T06:48:59Z</time>
  <speed>2.180000</speed>
</trkpt>
<trkpt lat="32.860942841" lon="35.247570038">
  <ele>243.016846</ele>
  <time>2011-07-22T06:49:01Z</time>
  <speed>2.200000</speed>
</trkpt>
<trkpt lat="32.860919952" lon="35.247528076">
  <ele>242.923096</ele>
  <time>2011-07-22T06:49:03Z</time>
  <speed>2.370000</speed>
</trkpt>
<trkpt lat="32.860885620" lon="35.247493744">
  <ele>243.766846</ele>
  <time>2011-07-22T06:49:05Z</time>
  <speed>2.350000</speed>
</trkpt>
<trkpt lat="32.860851288" lon="35.247455597">
  <ele>244.063721</ele>
  <time>2011-07-22T06:49:07Z</time>
  <speed>2.420000</speed>
</trkpt>
<trkpt lat="32.860816956" lon="35.247425079">
  <ele>244.356689</ele>
  <time>2011-07-22T06:49:09Z</time>
  <speed>2.280000</speed>
</trkpt>
<trkpt lat="32.860790253" lon="35.247425079">
  <ele>244.973877</ele>
  <time>2011-07-22T06:49:10Z</time>
  <speed>2.640000</speed>
</trkpt>
<trkpt lat="32.860744476" lon="35.247398376">
  <ele>245.235596</ele>
  <time>2011-07-22T06:49:12Z</time>
  <speed>2.550000</speed>
</trkpt>
<trkpt lat="32.860706329" lon="35.247375488">
  <ele>245.184814</ele>
  <time>2011-07-22T06:49:14Z</time>
  <speed>2.510000</speed>
</trkpt>
<trkpt lat="32.860664368" lon="35.247356415">
  <ele>245.223877</ele>
  <time>2011-07-22T06:49:16Z</time>
  <speed>2.300000</speed>
</trkpt>
<trkpt lat="32.860614777" lon="35.247352600">
  <ele>246.075439</ele>
  <time>2011-07-22T06:49:18Z</time>
  <speed>2.400000</speed>
</trkpt>
<trkpt lat="32.860572815" lon="35.247341156">
  <ele>246.622314</ele>
  <time>2011-07-22T06:49:20Z</time>
  <speed>2.540000</speed>
</trkpt>
<trkpt lat="32.860542297" lon="35.247348785">
  <ele>248.329346</ele>
  <time>2011-07-22T06:49:21Z</time>
  <speed>2.450000</speed>
</trkpt>
<trkpt lat="32.860500336" lon="35.247337341">
  <ele>248.770752</ele>
  <time>2011-07-22T06:49:23Z</time>
  <speed>2.420000</speed>
</trkpt>
<trkpt lat="32.860458374" lon="35.247329712">
  <ele>249.899658</ele>
  <time>2011-07-22T06:49:25Z</time>
  <speed>2.370000</speed>
</trkpt>
<trkpt lat="32.860420227" lon="35.247318268">
  <ele>250.274658</ele>
  <time>2011-07-22T06:49:27Z</time>
  <speed>2.130000</speed>
</trkpt>
<trkpt lat="32.860378265" lon="35.247306824">
  <ele>251.552002</ele>
  <time>2011-07-22T06:49:29Z</time>
  <speed>2.210000</speed>
</trkpt>
<trkpt lat="32.860336304" lon="35.247303009">
  <ele>251.481689</ele>
  <time>2011-07-22T06:49:31Z</time>
  <speed>2.220000</speed>
</trkpt>
<trkpt lat="32.860286713" lon="35.247303009">
  <ele>251.833252</ele>
  <time>2011-07-22T06:49:33Z</time>
  <speed>2.230000</speed>
</trkpt>
<trkpt lat="32.860248566" lon="35.247291565">
  <ele>251.645752</ele>
  <time>2011-07-22T06:49:35Z</time>
  <speed>2.380000</speed>
</trkpt>
<trkpt lat="32.860206604" lon="35.247272491">
  <ele>251.919189</ele>
  <time>2011-07-22T06:49:37Z</time>
  <speed>2.220000</speed>
</trkpt>
<trkpt lat="32.860160828" lon="35.247268677">
  <ele>251.184814</ele>
  <time>2011-07-22T06:49:39Z</time>
  <speed>2.640000</speed>
</trkpt>
<trkpt lat="32.860134125" lon="35.247280121">
  <ele>251.907471</ele>
  <time>2011-07-22T06:49:40Z</time>
  <speed>2.680000</speed>
</trkpt>
<trkpt lat="32.860092163" lon="35.247276306">
  <ele>252.923096</ele>
  <time>2011-07-22T06:49:42Z</time>
  <speed>2.350000</speed>
</trkpt>
<trkpt lat="32.860054016" lon="35.247280121">
  <ele>252.505127</ele>
  <time>2011-07-22T06:49:44Z</time>
  <speed>2.000000</speed>
</trkpt>
<trkpt lat="32.860012054" lon="35.247283936">
  <ele>252.762939</ele>
  <time>2011-07-22T06:49:46Z</time>
  <speed>2.470000</speed>
</trkpt>
<trkpt lat="32.859966278" lon="35.247291565">
  <ele>253.091064</ele>
  <time>2011-07-22T06:49:48Z</time>
  <speed>2.630000</speed>
</trkpt>
<trkpt lat="32.859912872" lon="35.247291565">
  <ele>252.727783</ele>
  <time>2011-07-22T06:49:50Z</time>
  <speed>2.520000</speed>
</trkpt>
<trkpt lat="32.859867096" lon="35.247306824">
  <ele>252.169189</ele>
  <time>2011-07-22T06:49:52Z</time>
  <speed>2.430000</speed>
</trkpt>
<trkpt lat="32.859825134" lon="35.247310638">
  <ele>251.786377</ele>
  <time>2011-07-22T06:49:54Z</time>
  <speed>2.020000</speed>
</trkpt>
<trkpt lat="32.859775543" lon="35.247341156">
  <ele>253.036377</ele>
  <time>2011-07-22T06:49:56Z</time>
  <speed>2.090000</speed>
</trkpt>
<trkpt lat="32.859733582" lon="35.247348785">
  <ele>252.251221</ele>
  <time>2011-07-22T06:49:58Z</time>
  <speed>2.450000</speed>
</trkpt>
<trkpt lat="32.859680176" lon="35.247348785">
  <ele>251.880127</ele>
  <time>2011-07-22T06:50:00Z</time>
  <speed>2.680000</speed>
</trkpt>
<trkpt lat="32.859626770" lon="35.247352600">
  <ele>251.618408</ele>
  <time>2011-07-22T06:50:02Z</time>
  <speed>2.440000</speed>
</trkpt>
<trkpt lat="32.859596252" lon="35.247367859">
  <ele>251.122314</ele>
  <time>2011-07-22T06:50:03Z</time>
  <speed>2.360000</speed>
</trkpt>
<trkpt lat="32.859554291" lon="35.247367859">
  <ele>251.055908</ele>
  <time>2011-07-22T06:50:05Z</time>
  <speed>2.150000</speed>
</trkpt>
<trkpt lat="32.859519958" lon="35.247356415">
  <ele>250.809814</ele>
  <time>2011-07-22T06:50:07Z</time>
  <speed>2.000000</speed>
</trkpt>
<trkpt lat="32.859485626" lon="35.247352600">
  <ele>250.579346</ele>
  <time>2011-07-22T06:50:09Z</time>
  <speed>1.890000</speed>
</trkpt>
<trkpt lat="32.859455109" lon="35.247333527">
  <ele>250.110596</ele>
  <time>2011-07-22T06:50:11Z</time>
  <speed>1.900000</speed>
</trkpt>
<trkpt lat="32.859420776" lon="35.247306824">
  <ele>249.669189</ele>
  <time>2011-07-22T06:50:13Z</time>
  <speed>2.510000</speed>
</trkpt>
<trkpt lat="32.859390259" lon="35.247268677">
  <ele>249.637939</ele>
  <time>2011-07-22T06:50:15Z</time>
  <speed>2.560000</speed>
</trkpt>
<trkpt lat="32.859355927" lon="35.247226715">
  <ele>249.438721</ele>
  <time>2011-07-22T06:50:17Z</time>
  <speed>2.280000</speed>
</trkpt>
<trkpt lat="32.859321594" lon="35.247200012">
  <ele>249.555908</ele>
  <time>2011-07-22T06:50:19Z</time>
  <speed>2.240000</speed>
</trkpt>
<trkpt lat="32.859298706" lon="35.247146606">
  <ele>249.563721</ele>
  <time>2011-07-22T06:50:21Z</time>
  <speed>2.070000</speed>
</trkpt>
<trkpt lat="32.859272003" lon="35.247108459">
  <ele>249.348877</ele>
  <time>2011-07-22T06:50:23Z</time>
  <speed>1.850000</speed>
</trkpt>
<trkpt lat="32.859245300" lon="35.247066498">
  <ele>249.555908</ele>
  <time>2011-07-22T06:50:25Z</time>
  <speed>2.100000</speed>
</trkpt>
<trkpt lat="32.859214783" lon="35.247028351">
  <ele>249.325439</ele>
  <time>2011-07-22T06:50:27Z</time>
  <speed>2.190000</speed>
</trkpt>
<trkpt lat="32.859191895" lon="35.246974945">
  <ele>249.661377</ele>
  <time>2011-07-22T06:50:29Z</time>
  <speed>2.210000</speed>
</trkpt>
<trkpt lat="32.859161377" lon="35.246940613">
  <ele>249.520752</ele>
  <time>2011-07-22T06:50:31Z</time>
  <speed>1.930000</speed>
</trkpt>
<trkpt lat="32.859134674" lon="35.246917725">
  <ele>249.153564</ele>
  <time>2011-07-22T06:50:33Z</time>
  <speed>2.130000</speed>
</trkpt>
<trkpt lat="32.859100342" lon="35.246883392">
  <ele>248.805908</ele>
  <time>2011-07-22T06:50:35Z</time>
  <speed>2.250000</speed>
</trkpt>
<trkpt lat="32.859062195" lon="35.246849060">
  <ele>248.684814</ele>
  <time>2011-07-22T06:50:37Z</time>
  <speed>2.400000</speed>
</trkpt>
<trkpt lat="32.859035492" lon="35.246826172">
  <ele>249.208252</ele>
  <time>2011-07-22T06:50:39Z</time>
  <speed>2.630000</speed>
</trkpt>
<trkpt lat="32.858993530" lon="35.246807098">
  <ele>249.204346</ele>
  <time>2011-07-22T06:50:41Z</time>
  <speed>2.170000</speed>
</trkpt>
<trkpt lat="32.858955383" lon="35.246788025">
  <ele>249.009033</ele>
  <time>2011-07-22T06:50:43Z</time>
  <speed>2.340000</speed>
</trkpt>
<trkpt lat="32.858917236" lon="35.246768951">
  <ele>248.813721</ele>
  <time>2011-07-22T06:50:45Z</time>
  <speed>2.150000</speed>
</trkpt>
<trkpt lat="32.858875275" lon="35.246768951">
  <ele>249.001221</ele>
  <time>2011-07-22T06:50:47Z</time>
  <speed>2.170000</speed>
</trkpt>
<trkpt lat="32.858840942" lon="35.246768951">
  <ele>249.079346</ele>
  <time>2011-07-22T06:50:49Z</time>
  <speed>2.310000</speed>
</trkpt>
<trkpt lat="32.858802795" lon="35.246768951">
  <ele>249.266846</ele>
  <time>2011-07-22T06:50:51Z</time>
  <speed>1.990000</speed>
</trkpt>
<trkpt lat="32.858753204" lon="35.246761322">
  <ele>250.286377</ele>
  <time>2011-07-22T06:50:53Z</time>
  <speed>2.430000</speed>
</trkpt>
<trkpt lat="32.858707428" lon="35.246780396">
  <ele>250.505127</ele>
  <time>2011-07-22T06:50:55Z</time>
  <speed>2.390000</speed>
</trkpt>
<trkpt lat="32.858684540" lon="35.246807098">
  <ele>250.923096</ele>
  <time>2011-07-22T06:50:56Z</time>
  <speed>2.420000</speed>
</trkpt>
<trkpt lat="32.858642578" lon="35.246829987">
  <ele>251.759033</ele>
  <time>2011-07-22T06:50:58Z</time>
  <speed>2.490000</speed>
</trkpt>
<trkpt lat="32.858604431" lon="35.246871948">
  <ele>252.673096</ele>
  <time>2011-07-22T06:51:00Z</time>
  <speed>2.470000</speed>
</trkpt>
<trkpt lat="32.858581543" lon="35.246902466">
  <ele>252.630127</ele>
  <time>2011-07-22T06:51:02Z</time>
  <speed>2.520000</speed>
</trkpt>
<trkpt lat="32.858551025" lon="35.246948242">
  <ele>253.622314</ele>
  <time>2011-07-22T06:51:04Z</time>
  <speed>2.570000</speed>
</trkpt>
<trkpt lat="32.858524323" lon="35.246982574">
  <ele>254.403564</ele>
  <time>2011-07-22T06:51:06Z</time>
  <speed>2.270000</speed>
</trkpt>
<trkpt lat="32.858497620" lon="35.247024536">
  <ele>254.477783</ele>
  <time>2011-07-22T06:51:08Z</time>
  <speed>2.430000</speed>
</trkpt>
<trkpt lat="32.858478546" lon="35.247066498">
  <ele>255.743408</ele>
  <time>2011-07-22T06:51:10Z</time>
  <speed>2.410000</speed>
</trkpt>
<trkpt lat="32.858463287" lon="35.247097015">
  <ele>258.346191</ele>
  <time>2011-07-22T06:51:11Z</time>
  <speed>2.340000</speed>
</trkpt>
<trkpt lat="32.858436584" lon="35.247135162">
  <ele>260.291504</ele>
  <time>2011-07-22T06:51:13Z</time>
  <speed>2.410000</speed>
</trkpt>
<trkpt lat="32.858406067" lon="35.247177124">
  <ele>261.783691</ele>
  <time>2011-07-22T06:51:15Z</time>
  <speed>2.430000</speed>
</trkpt>
<trkpt lat="32.858394623" lon="35.247203827">
  <ele>264.064941</ele>
  <time>2011-07-22T06:51:16Z</time>
  <speed>2.640000</speed>
</trkpt>
<trkpt lat="32.858364105" lon="35.247257233">
  <ele>264.494629</ele>
  <time>2011-07-22T06:51:18Z</time>
  <speed>2.700000</speed>
</trkpt>
<trkpt lat="32.858348846" lon="35.247310638">
  <ele>265.869629</ele>
  <time>2011-07-22T06:51:20Z</time>
  <speed>2.390000</speed>
</trkpt>
<trkpt lat="32.858333588" lon="35.247356415">
  <ele>266.213379</ele>
  <time>2011-07-22T06:51:22Z</time>
  <speed>2.340000</speed>
</trkpt>
<trkpt lat="32.858314514" lon="35.247379303">
  <ele>266.893066</ele>
  <time>2011-07-22T06:51:23Z</time>
  <speed>2.500000</speed>
</trkpt>
<trkpt lat="32.858283997" lon="35.247421265">
  <ele>267.275879</ele>
  <time>2011-07-22T06:51:25Z</time>
  <speed>2.420000</speed>
</trkpt>
<trkpt lat="32.858261108" lon="35.247459412">
  <ele>267.510254</ele>
  <time>2011-07-22T06:51:27Z</time>
  <speed>2.430000</speed>
</trkpt>
<trkpt lat="32.858249664" lon="35.247512817">
  <ele>266.697754</ele>
  <time>2011-07-22T06:51:29Z</time>
  <speed>2.440000</speed>
</trkpt>
<trkpt lat="32.858226776" lon="35.247566223">
  <ele>266.260254</ele>
  <time>2011-07-22T06:51:31Z</time>
  <speed>2.500000</speed>
</trkpt>
<trkpt lat="32.858211517" lon="35.247592926">
  <ele>265.541504</ele>
  <time>2011-07-22T06:51:32Z</time>
  <speed>2.500000</speed>
</trkpt>
<trkpt lat="32.858192444" lon="35.247650146">
  <ele>265.197754</ele>
  <time>2011-07-22T06:51:34Z</time>
  <speed>2.640000</speed>
</trkpt>
<trkpt lat="32.858165741" lon="35.247692108">
  <ele>264.479004</ele>
  <time>2011-07-22T06:51:36Z</time>
  <speed>2.580000</speed>
</trkpt>
<trkpt lat="32.858150482" lon="35.247749329">
  <ele>265.580566</ele>
  <time>2011-07-22T06:51:38Z</time>
  <speed>2.550000</speed>
</trkpt>
<trkpt lat="32.858135223" lon="35.247802734">
  <ele>265.627441</ele>
  <time>2011-07-22T06:51:40Z</time>
  <speed>2.280000</speed>
</trkpt>
<trkpt lat="32.858119965" lon="35.247848511">
  <ele>265.127441</ele>
  <time>2011-07-22T06:51:42Z</time>
  <speed>2.420000</speed>
</trkpt>
<trkpt lat="32.858108521" lon="35.247898102">
  <ele>265.299316</ele>
  <time>2011-07-22T06:51:44Z</time>
  <speed>2.440000</speed>
</trkpt>
<trkpt lat="32.858089447" lon="35.247947693">
  <ele>265.439941</ele>
  <time>2011-07-22T06:51:46Z</time>
  <speed>2.600000</speed>
</trkpt>
<trkpt lat="32.858078003" lon="35.248001099">
  <ele>266.002441</ele>
  <time>2011-07-22T06:51:48Z</time>
  <speed>2.520000</speed>
</trkpt>
<trkpt lat="32.858074188" lon="35.248035431">
  <ele>267.291504</ele>
  <time>2011-07-22T06:51:49Z</time>
  <speed>2.340000</speed>
</trkpt>
<trkpt lat="32.858062744" lon="35.248085022">
  <ele>268.268066</ele>
  <time>2011-07-22T06:51:51Z</time>
  <speed>2.600000</speed>
</trkpt>
<trkpt lat="32.858055115" lon="35.248134613">
  <ele>269.705566</ele>
  <time>2011-07-22T06:51:53Z</time>
  <speed>2.490000</speed>
</trkpt>
<trkpt lat="32.858047485" lon="35.248188019">
  <ele>270.080566</ele>
  <time>2011-07-22T06:51:55Z</time>
  <speed>2.400000</speed>
</trkpt>
<trkpt lat="32.858043671" lon="35.248245239">
  <ele>270.807129</ele>
  <time>2011-07-22T06:51:57Z</time>
  <speed>2.570000</speed>
</trkpt>
<trkpt lat="32.858039856" lon="35.248294830">
  <ele>270.775879</ele>
  <time>2011-07-22T06:51:59Z</time>
  <speed>2.330000</speed>
</trkpt>
<trkpt lat="32.858032227" lon="35.248344421">
  <ele>271.354004</ele>
  <time>2011-07-22T06:52:01Z</time>
  <speed>2.330000</speed>
</trkpt>
<trkpt lat="32.858036041" lon="35.248405457">
  <ele>272.064941</ele>
  <time>2011-07-22T06:52:03Z</time>
  <speed>2.440000</speed>
</trkpt>
<trkpt lat="32.858036041" lon="35.248451233">
  <ele>271.447754</ele>
  <time>2011-07-22T06:52:05Z</time>
  <speed>2.400000</speed>
</trkpt>
<trkpt lat="32.858039856" lon="35.248497009">
  <ele>271.533691</ele>
  <time>2011-07-22T06:52:07Z</time>
  <speed>2.660000</speed>
</trkpt>
<trkpt lat="32.858043671" lon="35.248550415">
  <ele>272.104004</ele>
  <time>2011-07-22T06:52:09Z</time>
  <speed>2.280000</speed>
</trkpt>
<trkpt lat="32.858036041" lon="35.248600006">
  <ele>274.447754</ele>
  <time>2011-07-22T06:52:11Z</time>
  <speed>2.520000</speed>
</trkpt>
<trkpt lat="32.858047485" lon="35.248649597">
  <ele>274.799316</ele>
  <time>2011-07-22T06:52:13Z</time>
  <speed>2.600000</speed>
</trkpt>
<trkpt lat="32.858058929" lon="35.248706818">
  <ele>274.885254</ele>
  <time>2011-07-22T06:52:15Z</time>
  <speed>2.450000</speed>
</trkpt>
<trkpt lat="32.858070374" lon="35.248764038">
  <ele>275.705566</ele>
  <time>2011-07-22T06:52:17Z</time>
  <speed>2.710000</speed>
</trkpt>
<trkpt lat="32.858078003" lon="35.248794556">
  <ele>276.064941</ele>
  <time>2011-07-22T06:52:18Z</time>
  <speed>3.090000</speed>
</trkpt>
<trkpt lat="32.858081818" lon="35.248825073">
  <ele>276.705566</ele>
  <time>2011-07-22T06:52:19Z</time>
  <speed>2.990000</speed>
</trkpt>
<trkpt lat="32.858089447" lon="35.248889923">
  <ele>277.197754</ele>
  <time>2011-07-22T06:52:21Z</time>
  <speed>2.790000</speed>
</trkpt>
<trkpt lat="32.858100891" lon="35.248920441">
  <ele>276.877441</ele>
  <time>2011-07-22T06:52:22Z</time>
  <speed>2.420000</speed>
</trkpt>
<trkpt lat="32.858104706" lon="35.248977661">
  <ele>277.455566</ele>
  <time>2011-07-22T06:52:24Z</time>
  <speed>2.640000</speed>
</trkpt>
<trkpt lat="32.858104706" lon="35.249008179">
  <ele>278.096191</ele>
  <time>2011-07-22T06:52:25Z</time>
  <speed>2.800000</speed>
</trkpt>
<trkpt lat="32.858112335" lon="35.249038696">
  <ele>278.658691</ele>
  <time>2011-07-22T06:52:26Z</time>
  <speed>2.560000</speed>
</trkpt>
<trkpt lat="32.858112335" lon="35.249076843">
  <ele>278.424316</ele>
  <time>2011-07-22T06:52:28Z</time>
  <speed>2.370000</speed>
</trkpt>
<trkpt lat="32.858112335" lon="35.249134064">
  <ele>279.689941</ele>
  <time>2011-07-22T06:52:30Z</time>
  <speed>2.390000</speed>
</trkpt>
<trkpt lat="32.858119965" lon="35.249164581">
  <ele>280.721191</ele>
  <time>2011-07-22T06:52:31Z</time>
  <speed>2.540000</speed>
</trkpt>
<trkpt lat="32.858127594" lon="35.249214172">
  <ele>280.393066</ele>
  <time>2011-07-22T06:52:33Z</time>
  <speed>2.660000</speed>
</trkpt>
<trkpt lat="32.858139038" lon="35.249244690">
  <ele>281.557129</ele>
  <time>2011-07-22T06:52:34Z</time>
  <speed>2.630000</speed>
</trkpt>
<trkpt lat="32.858154297" lon="35.249271393">
  <ele>282.377441</ele>
  <time>2011-07-22T06:52:35Z</time>
  <speed>2.630000</speed>
</trkpt>
<trkpt lat="32.858169556" lon="35.249301910">
  <ele>282.760254</ele>
  <time>2011-07-22T06:52:36Z</time>
  <speed>2.700000</speed>
</trkpt>
<trkpt lat="32.858188629" lon="35.249351501">
  <ele>282.557129</ele>
  <time>2011-07-22T06:52:38Z</time>
  <speed>2.760000</speed>
</trkpt>
<trkpt lat="32.858200073" lon="35.249385834">
  <ele>283.268066</ele>
  <time>2011-07-22T06:52:39Z</time>
  <speed>3.330000</speed>
</trkpt>
<trkpt lat="32.858203888" lon="35.249416351">
  <ele>282.908691</ele>
  <time>2011-07-22T06:52:40Z</time>
  <speed>2.750000</speed>
</trkpt>
<trkpt lat="32.858222961" lon="35.249465942">
  <ele>282.400879</ele>
  <time>2011-07-22T06:52:42Z</time>
  <speed>2.610000</speed>
</trkpt>
<trkpt lat="32.858249664" lon="35.249507904">
  <ele>281.369629</ele>
  <time>2011-07-22T06:52:44Z</time>
  <speed>2.620000</speed>
</trkpt>
<trkpt lat="32.858268738" lon="35.249530792">
  <ele>281.213379</ele>
  <time>2011-07-22T06:52:45Z</time>
  <speed>2.820000</speed>
</trkpt>
<trkpt lat="32.858287811" lon="35.249561310">
  <ele>281.588379</ele>
  <time>2011-07-22T06:52:46Z</time>
  <speed>3.190000</speed>
</trkpt>
<trkpt lat="32.858306885" lon="35.249595642">
  <ele>282.150879</ele>
  <time>2011-07-22T06:52:47Z</time>
  <speed>3.180000</speed>
</trkpt>
<trkpt lat="32.858325958" lon="35.249622345">
  <ele>282.080566</ele>
  <time>2011-07-22T06:52:48Z</time>
  <speed>3.350000</speed>
</trkpt>
<trkpt lat="32.858348846" lon="35.249649048">
  <ele>282.236816</ele>
  <time>2011-07-22T06:52:49Z</time>
  <speed>3.260000</speed>
</trkpt>
<trkpt lat="32.858367920" lon="35.249671936">
  <ele>282.400879</ele>
  <time>2011-07-22T06:52:50Z</time>
  <speed>2.900000</speed>
</trkpt>
<trkpt lat="32.858406067" lon="35.249717712">
  <ele>283.768066</ele>
  <time>2011-07-22T06:52:52Z</time>
  <speed>2.870000</speed>
</trkpt>
<trkpt lat="32.858432770" lon="35.249740601">
  <ele>284.721191</ele>
  <time>2011-07-22T06:52:53Z</time>
  <speed>3.080000</speed>
</trkpt>
<trkpt lat="32.858463287" lon="35.249759674">
  <ele>285.197754</ele>
  <time>2011-07-22T06:52:54Z</time>
  <speed>3.130000</speed>
</trkpt>
<trkpt lat="32.858486176" lon="35.249778748">
  <ele>285.369629</ele>
  <time>2011-07-22T06:52:55Z</time>
  <speed>3.110000</speed>
</trkpt>
<trkpt lat="32.858531952" lon="35.249816895">
  <ele>285.510254</ele>
  <time>2011-07-22T06:52:57Z</time>
  <speed>2.650000</speed>
</trkpt>
<trkpt lat="32.858558655" lon="35.249835968">
  <ele>286.143066</ele>
  <time>2011-07-22T06:52:58Z</time>
  <speed>3.190000</speed>
</trkpt>
<trkpt lat="32.858585358" lon="35.249855042">
  <ele>285.830566</ele>
  <time>2011-07-22T06:52:59Z</time>
  <speed>3.030000</speed>
</trkpt>
<trkpt lat="32.858615875" lon="35.249870300">
  <ele>284.854004</ele>
  <time>2011-07-22T06:53:00Z</time>
  <speed>3.250000</speed>
</trkpt>
<trkpt lat="32.858657837" lon="35.249897003">
  <ele>284.275879</ele>
  <time>2011-07-22T06:53:02Z</time>
  <speed>3.200000</speed>
</trkpt>
<trkpt lat="32.858695984" lon="35.249916077">
  <ele>283.635254</ele>
  <time>2011-07-22T06:53:03Z</time>
  <speed>3.320000</speed>
</trkpt>
<trkpt lat="32.858726501" lon="35.249927521">
  <ele>283.877441</ele>
  <time>2011-07-22T06:53:04Z</time>
  <speed>3.240000</speed>
</trkpt>
<trkpt lat="32.858760834" lon="35.249942780">
  <ele>284.041504</ele>
  <time>2011-07-22T06:53:05Z</time>
  <speed>3.420000</speed>
</trkpt>
<trkpt lat="32.858795166" lon="35.249958038">
  <ele>284.135254</ele>
  <time>2011-07-22T06:53:06Z</time>
  <speed>3.230000</speed>
</trkpt>
<trkpt lat="32.858825684" lon="35.249973297">
  <ele>284.893066</ele>
  <time>2011-07-22T06:53:07Z</time>
  <speed>3.050000</speed>
</trkpt>
<trkpt lat="32.858852386" lon="35.249992371">
  <ele>286.064941</ele>
  <time>2011-07-22T06:53:08Z</time>
  <speed>3.240000</speed>
</trkpt>
<trkpt lat="32.858882904" lon="35.250007629">
  <ele>286.361816</ele>
  <time>2011-07-22T06:53:09Z</time>
  <speed>3.050000</speed>
</trkpt>
<trkpt lat="32.858913422" lon="35.250019073">
  <ele>286.697754</ele>
  <time>2011-07-22T06:53:10Z</time>
  <speed>3.090000</speed>
</trkpt>
<trkpt lat="32.858974457" lon="35.250041962">
  <ele>286.127441</ele>
  <time>2011-07-22T06:53:12Z</time>
  <speed>4.030000</speed>
</trkpt>
<trkpt lat="32.859008789" lon="35.250061035">
  <ele>286.072754</ele>
  <time>2011-07-22T06:53:13Z</time>
  <speed>3.600000</speed>
</trkpt>
<trkpt lat="32.859035492" lon="35.250080109">
  <ele>285.643066</ele>
  <time>2011-07-22T06:53:14Z</time>
  <speed>3.240000</speed>
</trkpt>
<trkpt lat="32.859066010" lon="35.250091553">
  <ele>286.033691</ele>
  <time>2011-07-22T06:53:15Z</time>
  <speed>3.000000</speed>
</trkpt>
<trkpt lat="32.859092712" lon="35.250110626">
  <ele>286.619629</ele>
  <time>2011-07-22T06:53:16Z</time>
  <speed>3.170000</speed>
</trkpt>
<trkpt lat="32.859119415" lon="35.250118256">
  <ele>285.205566</ele>
  <time>2011-07-22T06:53:17Z</time>
  <speed>3.260000</speed>
</trkpt>
<trkpt lat="32.859157562" lon="35.250148773">
  <ele>284.557129</ele>
  <time>2011-07-22T06:53:19Z</time>
  <speed>3.110000</speed>
</trkpt>
<trkpt lat="32.859188080" lon="35.250164032">
  <ele>284.736816</ele>
  <time>2011-07-22T06:53:20Z</time>
  <speed>3.300000</speed>
</trkpt>
<trkpt lat="32.859214783" lon="35.250183105">
  <ele>284.361816</ele>
  <time>2011-07-22T06:53:21Z</time>
  <speed>3.450000</speed>
</trkpt>
<trkpt lat="32.859237671" lon="35.250175476">
  <ele>281.924316</ele>
  <time>2011-07-22T06:53:22Z</time>
  <speed>3.430000</speed>
</trkpt>
<trkpt lat="32.859268188" lon="35.250175476">
  <ele>280.057129</ele>
  <time>2011-07-22T06:53:23Z</time>
  <speed>3.250000</speed>
</trkpt>
<trkpt lat="32.859294891" lon="35.250186920">
  <ele>279.619629</ele>
  <time>2011-07-22T06:53:24Z</time>
  <speed>2.960000</speed>
</trkpt>
<trkpt lat="32.859321594" lon="35.250202179">
  <ele>279.588379</ele>
  <time>2011-07-22T06:53:25Z</time>
  <speed>3.000000</speed>
</trkpt>
<trkpt lat="32.859348297" lon="35.250217438">
  <ele>279.736816</ele>
  <time>2011-07-22T06:53:26Z</time>
  <speed>3.080000</speed>
</trkpt>
<trkpt lat="32.859386444" lon="35.250247955">
  <ele>279.900879</ele>
  <time>2011-07-22T06:53:28Z</time>
  <speed>2.880000</speed>
</trkpt>
<trkpt lat="32.859413147" lon="35.250263214">
  <ele>279.408691</ele>
  <time>2011-07-22T06:53:29Z</time>
  <speed>3.280000</speed>
</trkpt>
<trkpt lat="32.859458923" lon="35.250305176">
  <ele>279.432129</ele>
  <time>2011-07-22T06:53:31Z</time>
  <speed>3.350000</speed>
</trkpt>
<trkpt lat="32.859500885" lon="35.250343323">
  <ele>279.650879</ele>
  <time>2011-07-22T06:53:33Z</time>
  <speed>3.180000</speed>
</trkpt>
<trkpt lat="32.859535217" lon="35.250377655">
  <ele>279.564941</ele>
  <time>2011-07-22T06:53:35Z</time>
  <speed>2.420000</speed>
</trkpt>
<trkpt lat="32.859558105" lon="35.250427246">
  <ele>279.291504</ele>
  <time>2011-07-22T06:53:37Z</time>
  <speed>2.660000</speed>
</trkpt>
<trkpt lat="32.859580994" lon="35.250484467">
  <ele>279.471191</ele>
  <time>2011-07-22T06:53:39Z</time>
  <speed>2.600000</speed>
</trkpt>
<trkpt lat="32.859596252" lon="35.250526428">
  <ele>279.752441</ele>
  <time>2011-07-22T06:53:40Z</time>
  <speed>2.530000</speed>
</trkpt>
<trkpt lat="32.859611511" lon="35.250583649">
  <ele>279.455566</ele>
  <time>2011-07-22T06:53:42Z</time>
  <speed>3.070000</speed>
</trkpt>
<trkpt lat="32.859615326" lon="35.250644684">
  <ele>277.947754</ele>
  <time>2011-07-22T06:53:44Z</time>
  <speed>2.910000</speed>
</trkpt>
<trkpt lat="32.859607697" lon="35.250705719">
  <ele>277.830566</ele>
  <time>2011-07-22T06:53:46Z</time>
  <speed>2.820000</speed>
</trkpt>
<trkpt lat="32.859600067" lon="35.250736237">
  <ele>278.158691</ele>
  <time>2011-07-22T06:53:47Z</time>
  <speed>2.970000</speed>
</trkpt>
<trkpt lat="32.859588623" lon="35.250766754">
  <ele>278.189941</ele>
  <time>2011-07-22T06:53:48Z</time>
  <speed>2.870000</speed>
</trkpt>
<trkpt lat="32.859584808" lon="35.250801086">
  <ele>278.518066</ele>
  <time>2011-07-22T06:53:49Z</time>
  <speed>3.040000</speed>
</trkpt>
<trkpt lat="32.859577179" lon="35.250831604">
  <ele>278.557129</ele>
  <time>2011-07-22T06:53:50Z</time>
  <speed>2.910000</speed>
</trkpt>
<trkpt lat="32.859561920" lon="35.250858307">
  <ele>279.150879</ele>
  <time>2011-07-22T06:53:51Z</time>
  <speed>2.970000</speed>
</trkpt>
<trkpt lat="32.859546661" lon="35.250885010">
  <ele>279.361816</ele>
  <time>2011-07-22T06:53:52Z</time>
  <speed>3.020000</speed>
</trkpt>
<trkpt lat="32.859531403" lon="35.250946045">
  <ele>279.682129</ele>
  <time>2011-07-22T06:53:54Z</time>
  <speed>3.020000</speed>
</trkpt>
<trkpt lat="32.859527588" lon="35.250976563">
  <ele>279.736816</ele>
  <time>2011-07-22T06:53:55Z</time>
  <speed>3.040000</speed>
</trkpt>
<trkpt lat="32.859512329" lon="35.251029968">
  <ele>280.424316</ele>
  <time>2011-07-22T06:53:57Z</time>
  <speed>2.570000</speed>
</trkpt>
<trkpt lat="32.859508514" lon="35.251094818">
  <ele>280.533691</ele>
  <time>2011-07-22T06:53:59Z</time>
  <speed>2.830000</speed>
</trkpt>
<trkpt lat="32.859508514" lon="35.251129150">
  <ele>280.893066</ele>
  <time>2011-07-22T06:54:00Z</time>
  <speed>2.810000</speed>
</trkpt>
<trkpt lat="32.859508514" lon="35.251163483">
  <ele>280.885254</ele>
  <time>2011-07-22T06:54:01Z</time>
  <speed>3.060000</speed>
</trkpt>
<trkpt lat="32.859516144" lon="35.251197815">
  <ele>279.900879</ele>
  <time>2011-07-22T06:54:02Z</time>
  <speed>2.800000</speed>
</trkpt>
<trkpt lat="32.859512329" lon="35.251258850">
  <ele>280.822754</ele>
  <time>2011-07-22T06:54:04Z</time>
  <speed>2.760000</speed>
</trkpt>
<trkpt lat="32.859512329" lon="35.251296997">
  <ele>280.994629</ele>
  <time>2011-07-22T06:54:05Z</time>
  <speed>2.910000</speed>
</trkpt>
<trkpt lat="32.859519958" lon="35.251354218">
  <ele>281.643066</ele>
  <time>2011-07-22T06:54:07Z</time>
  <speed>2.470000</speed>
</trkpt>
<trkpt lat="32.859542847" lon="35.251407623">
  <ele>282.986816</ele>
  <time>2011-07-22T06:54:09Z</time>
  <speed>2.810000</speed>
</trkpt>
<trkpt lat="32.859558105" lon="35.251438141">
  <ele>284.229004</ele>
  <time>2011-07-22T06:54:10Z</time>
  <speed>2.820000</speed>
</trkpt>
<trkpt lat="32.859577179" lon="35.251472473">
  <ele>284.861816</ele>
  <time>2011-07-22T06:54:11Z</time>
  <speed>2.870000</speed>
</trkpt>
<trkpt lat="32.859592438" lon="35.251502991">
  <ele>284.994629</ele>
  <time>2011-07-22T06:54:12Z</time>
  <speed>2.530000</speed>
</trkpt>
<trkpt lat="32.859622955" lon="35.251560211">
  <ele>285.893066</ele>
  <time>2011-07-22T06:54:14Z</time>
  <speed>3.050000</speed>
</trkpt>
<trkpt lat="32.859645844" lon="35.251594543">
  <ele>286.221191</ele>
  <time>2011-07-22T06:54:15Z</time>
  <speed>3.270000</speed>
</trkpt>
<trkpt lat="32.859664917" lon="35.251625061">
  <ele>287.096191</ele>
  <time>2011-07-22T06:54:16Z</time>
  <speed>3.470000</speed>
</trkpt>
<trkpt lat="32.859687805" lon="35.251659393">
  <ele>287.361816</ele>
  <time>2011-07-22T06:54:17Z</time>
  <speed>3.350000</speed>
</trkpt>
<trkpt lat="32.859714508" lon="35.251686096">
  <ele>288.088379</ele>
  <time>2011-07-22T06:54:18Z</time>
  <speed>3.330000</speed>
</trkpt>
<trkpt lat="32.859733582" lon="35.251716614">
  <ele>288.549316</ele>
  <time>2011-07-22T06:54:19Z</time>
  <speed>3.090000</speed>
</trkpt>
<trkpt lat="32.859756470" lon="35.251747131">
  <ele>288.721191</ele>
  <time>2011-07-22T06:54:20Z</time>
  <speed>3.270000</speed>
</trkpt>
<trkpt lat="32.859783173" lon="35.251766205">
  <ele>288.752441</ele>
  <time>2011-07-22T06:54:21Z</time>
  <speed>2.930000</speed>
</trkpt>
<trkpt lat="32.859825134" lon="35.251800537">
  <ele>288.674316</ele>
  <time>2011-07-22T06:54:23Z</time>
  <speed>2.810000</speed>
</trkpt>
<trkpt lat="32.859870911" lon="35.251838684">
  <ele>288.588379</ele>
  <time>2011-07-22T06:54:25Z</time>
  <speed>2.750000</speed>
</trkpt>
<trkpt lat="32.859897614" lon="35.251857758">
  <ele>289.682129</ele>
  <time>2011-07-22T06:54:26Z</time>
  <speed>2.990000</speed>
</trkpt>
<trkpt lat="32.859920502" lon="35.251880646">
  <ele>290.697754</ele>
  <time>2011-07-22T06:54:27Z</time>
  <speed>2.850000</speed>
</trkpt>
<trkpt lat="32.859951019" lon="35.251899719">
  <ele>290.393066</ele>
  <time>2011-07-22T06:54:29Z</time>
  <speed>2.650000</speed>
</trkpt>
<trkpt lat="32.859977722" lon="35.251911163">
  <ele>290.229004</ele>
  <time>2011-07-22T06:54:30Z</time>
  <speed>2.530000</speed>
</trkpt>
<trkpt lat="32.860012054" lon="35.251922607">
  <ele>290.049316</ele>
  <time>2011-07-22T06:54:31Z</time>
  <speed>3.290000</speed>
</trkpt>
<trkpt lat="32.860038757" lon="35.251934052">
  <ele>290.268066</ele>
  <time>2011-07-22T06:54:32Z</time>
  <speed>2.830000</speed>
</trkpt>
<trkpt lat="32.860084534" lon="35.251960754">
  <ele>290.127441</ele>
  <time>2011-07-22T06:54:34Z</time>
  <speed>2.610000</speed>
</trkpt>
<trkpt lat="32.860111237" lon="35.251972198">
  <ele>289.994629</ele>
  <time>2011-07-22T06:54:35Z</time>
  <speed>2.520000</speed>
</trkpt>
<trkpt lat="32.860160828" lon="35.251991272">
  <ele>290.080566</ele>
  <time>2011-07-22T06:54:37Z</time>
  <speed>2.520000</speed>
</trkpt>
<trkpt lat="32.860210419" lon="35.252002716">
  <ele>289.627441</ele>
  <time>2011-07-22T06:54:39Z</time>
  <speed>2.520000</speed>
</trkpt>
<trkpt lat="32.860237122" lon="35.252006531">
  <ele>289.877441</ele>
  <time>2011-07-22T06:54:40Z</time>
  <speed>2.640000</speed>
</trkpt>
<trkpt lat="32.860290527" lon="35.252025604">
  <ele>289.760254</ele>
  <time>2011-07-22T06:54:42Z</time>
  <speed>2.700000</speed>
</trkpt>
<trkpt lat="32.860328674" lon="35.252037048">
  <ele>289.299316</ele>
  <time>2011-07-22T06:54:43Z</time>
  <speed>3.210000</speed>
</trkpt>
<trkpt lat="32.860378265" lon="35.252048492">
  <ele>289.674316</ele>
  <time>2011-07-22T06:54:45Z</time>
  <speed>2.720000</speed>
</trkpt>
<trkpt lat="32.860408783" lon="35.252056122">
  <ele>289.854004</ele>
  <time>2011-07-22T06:54:46Z</time>
  <speed>2.430000</speed>
</trkpt>
<trkpt lat="32.860462189" lon="35.252063751">
  <ele>289.814941</ele>
  <time>2011-07-22T06:54:48Z</time>
  <speed>2.780000</speed>
</trkpt>
<trkpt lat="32.860488892" lon="35.252071381">
  <ele>290.166504</ele>
  <time>2011-07-22T06:54:49Z</time>
  <speed>2.480000</speed>
</trkpt>
<trkpt lat="32.860534668" lon="35.252071381">
  <ele>289.471191</ele>
  <time>2011-07-22T06:54:51Z</time>
  <speed>2.000000</speed>
</trkpt>
<trkpt lat="32.860565186" lon="35.252094269">
  <ele>291.275879</ele>
  <time>2011-07-22T06:54:53Z</time>
  <speed>2.260000</speed>
</trkpt>
<trkpt lat="32.860607147" lon="35.252098083">
  <ele>292.752441</ele>
  <time>2011-07-22T06:54:55Z</time>
  <speed>2.530000</speed>
</trkpt>
<trkpt lat="32.860652924" lon="35.252105713">
  <ele>294.455566</ele>
  <time>2011-07-22T06:54:57Z</time>
  <speed>2.120000</speed>
</trkpt>
<trkpt lat="32.860671997" lon="35.252082825">
  <ele>292.736816</ele>
  <time>2011-07-22T06:54:58Z</time>
  <speed>2.460000</speed>
</trkpt>
<trkpt lat="32.860717773" lon="35.252086639">
  <ele>293.479004</ele>
  <time>2011-07-22T06:55:00Z</time>
  <speed>2.400000</speed>
</trkpt>
<trkpt lat="32.860763550" lon="35.252082825">
  <ele>293.322754</ele>
  <time>2011-07-22T06:55:02Z</time>
  <speed>2.400000</speed>
</trkpt>
<trkpt lat="32.860801697" lon="35.252101898">
  <ele>294.557129</ele>
  <time>2011-07-22T06:55:04Z</time>
  <speed>2.310000</speed>
</trkpt>
<trkpt lat="32.860843658" lon="35.252101898">
  <ele>296.025879</ele>
  <time>2011-07-22T06:55:06Z</time>
  <speed>2.190000</speed>
</trkpt>
<trkpt lat="32.860889435" lon="35.252101898">
  <ele>298.010254</ele>
  <time>2011-07-22T06:55:08Z</time>
  <speed>2.070000</speed>
</trkpt>
<trkpt lat="32.860931396" lon="35.252105713">
  <ele>299.518066</ele>
  <time>2011-07-22T06:55:10Z</time>
  <speed>2.120000</speed>
</trkpt>
<trkpt lat="32.860973358" lon="35.252105713">
  <ele>299.619629</ele>
  <time>2011-07-22T06:55:12Z</time>
  <speed>2.180000</speed>
</trkpt>
<trkpt lat="32.861015320" lon="35.252105713">
  <ele>299.713379</ele>
  <time>2011-07-22T06:55:14Z</time>
  <speed>2.130000</speed>
</trkpt>
<trkpt lat="32.861042023" lon="35.252105713">
  <ele>299.971191</ele>
  <time>2011-07-22T06:55:15Z</time>
  <speed>2.380000</speed>
</trkpt>
<trkpt lat="32.861083984" lon="35.252098083">
  <ele>299.885254</ele>
  <time>2011-07-22T06:55:17Z</time>
  <speed>2.160000</speed>
</trkpt>
<trkpt lat="32.861125946" lon="35.252098083">
  <ele>300.416504</ele>
  <time>2011-07-22T06:55:19Z</time>
  <speed>1.670000</speed>
</trkpt>
<trkpt lat="32.861156464" lon="35.252098083">
  <ele>300.314941</ele>
  <time>2011-07-22T06:55:20Z</time>
  <speed>2.340000</speed>
</trkpt>
<trkpt lat="32.861183167" lon="35.252082825">
  <ele>300.244629</ele>
  <time>2011-07-22T06:55:21Z</time>
  <speed>2.290000</speed>
</trkpt>
<trkpt lat="32.861236572" lon="35.252075195">
  <ele>300.486816</ele>
  <time>2011-07-22T06:55:23Z</time>
  <speed>2.560000</speed>
</trkpt>
<trkpt lat="32.861267090" lon="35.252079010">
  <ele>300.385254</ele>
  <time>2011-07-22T06:55:24Z</time>
  <speed>2.310000</speed>
</trkpt>
<trkpt lat="32.861312866" lon="35.252071381">
  <ele>299.369629</ele>
  <time>2011-07-22T06:55:26Z</time>
  <speed>2.080000</speed>
</trkpt>
<trkpt lat="32.861354828" lon="35.252059937">
  <ele>300.361816</ele>
  <time>2011-07-22T06:55:28Z</time>
  <speed>2.020000</speed>
</trkpt>
<trkpt lat="32.861400604" lon="35.252052307">
  <ele>300.900879</ele>
  <time>2011-07-22T06:55:30Z</time>
  <speed>2.320000</speed>
</trkpt>
<trkpt lat="32.861427307" lon="35.252059937">
  <ele>302.354004</ele>
  <time>2011-07-22T06:55:31Z</time>
  <speed>2.390000</speed>
</trkpt>
<trkpt lat="32.861473083" lon="35.252063751">
  <ele>303.439941</ele>
  <time>2011-07-22T06:55:33Z</time>
  <speed>2.200000</speed>
</trkpt>
<trkpt lat="32.861507416" lon="35.252056122">
  <ele>303.721191</ele>
  <time>2011-07-22T06:55:35Z</time>
  <speed>2.460000</speed>
</trkpt>
<trkpt lat="32.861557007" lon="35.252056122">
  <ele>304.275879</ele>
  <time>2011-07-22T06:55:37Z</time>
  <speed>2.050000</speed>
</trkpt>
<trkpt lat="32.861598969" lon="35.252040863">
  <ele>304.627441</ele>
  <time>2011-07-22T06:55:39Z</time>
  <speed>1.780000</speed>
</trkpt>
<trkpt lat="32.861629486" lon="35.252017975">
  <ele>304.604004</ele>
  <time>2011-07-22T06:55:41Z</time>
  <speed>1.800000</speed>
</trkpt>
<trkpt lat="32.861663818" lon="35.252002716">
  <ele>304.283691</ele>
  <time>2011-07-22T06:55:43Z</time>
  <speed>1.810000</speed>
</trkpt>
<trkpt lat="32.861686707" lon="35.251968384">
  <ele>303.143066</ele>
  <time>2011-07-22T06:55:45Z</time>
  <speed>1.900000</speed>
</trkpt>
<trkpt lat="32.861717224" lon="35.251941681">
  <ele>301.908691</ele>
  <time>2011-07-22T06:55:47Z</time>
  <speed>1.950000</speed>
</trkpt>
<trkpt lat="32.861747742" lon="35.251918793">
  <ele>301.385254</ele>
  <time>2011-07-22T06:55:49Z</time>
  <speed>1.920000</speed>
</trkpt>
<trkpt lat="32.861785889" lon="35.251907349">
  <ele>302.463379</ele>
  <time>2011-07-22T06:55:51Z</time>
  <speed>1.630000</speed>
</trkpt>
<trkpt lat="32.861824036" lon="35.251930237">
  <ele>301.174316</ele>
  <time>2011-07-22T06:55:54Z</time>
  <speed>2.360000</speed>
</trkpt>
<trkpt lat="32.861877441" lon="35.251991272">
  <ele>300.205566</ele>
  <time>2011-07-22T06:55:56Z</time>
  <speed>5.560000</speed>
</trkpt>
<trkpt lat="32.861896515" lon="35.252063751">
  <ele>300.080566</ele>
  <time>2011-07-22T06:55:57Z</time>
  <speed>6.640000</speed>
</trkpt>
<trkpt lat="32.861904144" lon="35.252136230">
  <ele>298.635254</ele>
  <time>2011-07-22T06:55:58Z</time>
  <speed>6.360000</speed>
</trkpt>
<trkpt lat="32.861907959" lon="35.252208710">
  <ele>298.268066</ele>
  <time>2011-07-22T06:55:59Z</time>
  <speed>6.820000</speed>
</trkpt>
<trkpt lat="32.861907959" lon="35.252281189">
  <ele>297.666504</ele>
  <time>2011-07-22T06:56:00Z</time>
  <speed>6.610000</speed>
</trkpt>
<trkpt lat="32.861904144" lon="35.252372742">
  <ele>297.416504</ele>
  <time>2011-07-22T06:56:01Z</time>
  <speed>7.250000</speed>
</trkpt>
<trkpt lat="32.861900330" lon="35.252460480">
  <ele>297.604004</ele>
  <time>2011-07-22T06:56:02Z</time>
  <speed>7.490000</speed>
</trkpt>
<trkpt lat="32.861888885" lon="35.252536774">
  <ele>297.244629</ele>
  <time>2011-07-22T06:56:03Z</time>
  <speed>7.260000</speed>
</trkpt>
<trkpt lat="32.861873627" lon="35.252624512">
  <ele>296.768066</ele>
  <time>2011-07-22T06:56:04Z</time>
  <speed>7.630000</speed>
</trkpt>
<trkpt lat="32.861858368" lon="35.252708435">
  <ele>296.252441</ele>
  <time>2011-07-22T06:56:05Z</time>
  <speed>7.380000</speed>
</trkpt>
<trkpt lat="32.861831665" lon="35.252780914">
  <ele>295.885254</ele>
  <time>2011-07-22T06:56:06Z</time>
  <speed>7.210000</speed>
</trkpt>
<trkpt lat="32.861789703" lon="35.252845764">
  <ele>294.979004</ele>
  <time>2011-07-22T06:56:07Z</time>
  <speed>6.770000</speed>
</trkpt>
<trkpt lat="32.861759186" lon="35.252910614">
  <ele>294.947754</ele>
  <time>2011-07-22T06:56:08Z</time>
  <speed>6.740000</speed>
</trkpt>
<trkpt lat="32.861724854" lon="35.252975464">
  <ele>295.025879</ele>
  <time>2011-07-22T06:56:09Z</time>
  <speed>6.710000</speed>
</trkpt>
<trkpt lat="32.861682892" lon="35.253028870">
  <ele>295.221191</ele>
  <time>2011-07-22T06:56:10Z</time>
  <speed>6.370000</speed>
</trkpt>
<trkpt lat="32.861648560" lon="35.253074646">
  <ele>295.049316</ele>
  <time>2011-07-22T06:56:11Z</time>
  <speed>5.300000</speed>
</trkpt>
<trkpt lat="32.861614227" lon="35.253120422">
  <ele>295.010254</ele>
  <time>2011-07-22T06:56:12Z</time>
  <speed>5.910000</speed>
</trkpt>
<trkpt lat="32.861583710" lon="35.253177643">
  <ele>294.861816</ele>
  <time>2011-07-22T06:56:13Z</time>
  <speed>5.960000</speed>
</trkpt>
<trkpt lat="32.861549377" lon="35.253223419">
  <ele>294.619629</ele>
  <time>2011-07-22T06:56:14Z</time>
  <speed>5.390000</speed>
</trkpt>
<trkpt lat="32.861515045" lon="35.253257751">
  <ele>294.463379</ele>
  <time>2011-07-22T06:56:15Z</time>
  <speed>4.680000</speed>
</trkpt>
<trkpt lat="32.861480713" lon="35.253299713">
  <ele>294.229004</ele>
  <time>2011-07-22T06:56:16Z</time>
  <speed>5.080000</speed>
</trkpt>
<trkpt lat="32.861446381" lon="35.253337860">
  <ele>294.018066</ele>
  <time>2011-07-22T06:56:17Z</time>
  <speed>4.840000</speed>
</trkpt>
<trkpt lat="32.861412048" lon="35.253360748">
  <ele>293.900879</ele>
  <time>2011-07-22T06:56:18Z</time>
  <speed>4.700000</speed>
</trkpt>
<trkpt lat="32.861373901" lon="35.253391266">
  <ele>293.830566</ele>
  <time>2011-07-22T06:56:19Z</time>
  <speed>5.330000</speed>
</trkpt>
<trkpt lat="32.861324310" lon="35.253417969">
  <ele>293.932129</ele>
  <time>2011-07-22T06:56:20Z</time>
  <speed>5.300000</speed>
</trkpt>
<trkpt lat="32.861282349" lon="35.253456116">
  <ele>293.713379</ele>
  <time>2011-07-22T06:56:21Z</time>
  <speed>5.140000</speed>
</trkpt>
<trkpt lat="32.861236572" lon="35.253486633">
  <ele>293.572754</ele>
  <time>2011-07-22T06:56:22Z</time>
  <speed>5.420000</speed>
</trkpt>
<trkpt lat="32.861190796" lon="35.253509521">
  <ele>293.322754</ele>
  <time>2011-07-22T06:56:23Z</time>
  <speed>4.780000</speed>
</trkpt>
<trkpt lat="32.861125946" lon="35.253532410">
  <ele>293.033691</ele>
  <time>2011-07-22T06:56:24Z</time>
  <speed>4.880000</speed>
</trkpt>
<trkpt lat="32.861026764" lon="35.253570557">
  <ele>293.822754</ele>
  <time>2011-07-22T06:56:25Z</time>
  <speed>6.330000</speed>
</trkpt>
<trkpt lat="32.860950470" lon="35.253593445">
  <ele>293.994629</ele>
  <time>2011-07-22T06:56:26Z</time>
  <speed>6.310000</speed>
</trkpt>
<trkpt lat="32.860893250" lon="35.253612518">
  <ele>293.869629</ele>
  <time>2011-07-22T06:56:27Z</time>
  <speed>6.190000</speed>
</trkpt>
<trkpt lat="32.860836029" lon="35.253631592">
  <ele>293.729004</ele>
  <time>2011-07-22T06:56:28Z</time>
  <speed>6.220000</speed>
</trkpt>
<trkpt lat="32.860782623" lon="35.253646851">
  <ele>293.721191</ele>
  <time>2011-07-22T06:56:29Z</time>
  <speed>5.550000</speed>
</trkpt>
<trkpt lat="32.860729218" lon="35.253662109">
  <ele>293.189941</ele>
  <time>2011-07-22T06:56:30Z</time>
  <speed>5.710000</speed>
</trkpt>
<trkpt lat="32.860675812" lon="35.253681183">
  <ele>292.744629</ele>
  <time>2011-07-22T06:56:31Z</time>
  <speed>5.720000</speed>
</trkpt>
<trkpt lat="32.860630035" lon="35.253704071">
  <ele>292.338379</ele>
  <time>2011-07-22T06:56:32Z</time>
  <speed>5.600000</speed>
</trkpt>
<trkpt lat="32.860588074" lon="35.253726959">
  <ele>292.072754</ele>
  <time>2011-07-22T06:56:33Z</time>
  <speed>4.930000</speed>
</trkpt>
<trkpt lat="32.860549927" lon="35.253753662">
  <ele>291.783691</ele>
  <time>2011-07-22T06:56:34Z</time>
  <speed>5.070000</speed>
</trkpt>
<trkpt lat="32.860511780" lon="35.253791809">
  <ele>291.275879</ele>
  <time>2011-07-22T06:56:35Z</time>
  <speed>4.860000</speed>
</trkpt>
<trkpt lat="32.860473633" lon="35.253833771">
  <ele>290.471191</ele>
  <time>2011-07-22T06:56:36Z</time>
  <speed>4.950000</speed>
</trkpt>
<trkpt lat="32.860408783" lon="35.253879547">
  <ele>288.611816</ele>
  <time>2011-07-22T06:56:37Z</time>
  <speed>4.760000</speed>
</trkpt>
<trkpt lat="32.860378265" lon="35.253925323">
  <ele>288.268066</ele>
  <time>2011-07-22T06:56:38Z</time>
  <speed>4.100000</speed>
</trkpt>
<trkpt lat="32.860351563" lon="35.253967285">
  <ele>287.627441</ele>
  <time>2011-07-22T06:56:39Z</time>
  <speed>3.770000</speed>
</trkpt>
<trkpt lat="32.860332489" lon="35.254001617">
  <ele>287.057129</ele>
  <time>2011-07-22T06:56:40Z</time>
  <speed>3.270000</speed>
</trkpt>
<trkpt lat="32.860313416" lon="35.254039764">
  <ele>286.979004</ele>
  <time>2011-07-22T06:56:41Z</time>
  <speed>2.800000</speed>
</trkpt>
<trkpt lat="32.860294342" lon="35.254096985">
  <ele>287.814941</ele>
  <time>2011-07-22T06:56:43Z</time>
  <speed>2.510000</speed>
</trkpt>
<trkpt lat="32.860282898" lon="35.254127502">
  <ele>288.205566</ele>
  <time>2011-07-22T06:56:44Z</time>
  <speed>2.540000</speed>
</trkpt>
<trkpt lat="32.860267639" lon="35.254161835">
  <ele>289.197754</ele>
  <time>2011-07-22T06:56:45Z</time>
  <speed>2.550000</speed>
</trkpt>
<trkpt lat="32.860263824" lon="35.254215240">
  <ele>289.104004</ele>
  <time>2011-07-22T06:56:47Z</time>
  <speed>2.370000</speed>
</trkpt>
<trkpt lat="32.860240936" lon="35.254257202">
  <ele>290.041504</ele>
  <time>2011-07-22T06:56:49Z</time>
  <speed>2.280000</speed>
</trkpt>
<trkpt lat="32.860229492" lon="35.254306793">
  <ele>290.979004</ele>
  <time>2011-07-22T06:56:51Z</time>
  <speed>2.320000</speed>
</trkpt>
<trkpt lat="32.860210419" lon="35.254352570">
  <ele>291.760254</ele>
  <time>2011-07-22T06:56:53Z</time>
  <speed>2.410000</speed>
</trkpt>
<trkpt lat="32.860191345" lon="35.254402161">
  <ele>291.900879</ele>
  <time>2011-07-22T06:56:55Z</time>
  <speed>2.300000</speed>
</trkpt>
<trkpt lat="32.860183716" lon="35.254444122">
  <ele>291.369629</ele>
  <time>2011-07-22T06:56:57Z</time>
  <speed>2.100000</speed>
</trkpt>
<trkpt lat="32.860172272" lon="35.254493713">
  <ele>292.229004</ele>
  <time>2011-07-22T06:56:59Z</time>
  <speed>2.070000</speed>
</trkpt>
<trkpt lat="32.860149384" lon="35.254531860">
  <ele>292.697754</ele>
  <time>2011-07-22T06:57:01Z</time>
  <speed>2.220000</speed>
</trkpt>
<trkpt lat="32.860141754" lon="35.254573822">
  <ele>293.166504</ele>
  <time>2011-07-22T06:57:03Z</time>
  <speed>2.120000</speed>
</trkpt>
<trkpt lat="32.860122681" lon="35.254611969">
  <ele>293.869629</ele>
  <time>2011-07-22T06:57:05Z</time>
  <speed>2.210000</speed>
</trkpt>
<trkpt lat="32.860099792" lon="35.254650116">
  <ele>294.986816</ele>
  <time>2011-07-22T06:57:07Z</time>
  <speed>2.280000</speed>
</trkpt>
<trkpt lat="32.860080719" lon="35.254692078">
  <ele>294.947754</ele>
  <time>2011-07-22T06:57:09Z</time>
  <speed>2.130000</speed>
</trkpt>
<trkpt lat="32.860061646" lon="35.254737854">
  <ele>295.471191</ele>
  <time>2011-07-22T06:57:11Z</time>
  <speed>2.200000</speed>
</trkpt>
<trkpt lat="32.860042572" lon="35.254760742">
  <ele>295.072754</ele>
  <time>2011-07-22T06:57:13Z</time>
  <speed>2.030000</speed>
</trkpt>
<trkpt lat="32.860023499" lon="35.254795074">
  <ele>295.549316</ele>
  <time>2011-07-22T06:57:15Z</time>
  <speed>2.080000</speed>
</trkpt>
<trkpt lat="32.860000610" lon="35.254833221">
  <ele>295.830566</ele>
  <time>2011-07-22T06:57:17Z</time>
  <speed>2.010000</speed>
</trkpt>
<trkpt lat="32.859981537" lon="35.254875183">
  <ele>296.002441</ele>
  <time>2011-07-22T06:57:19Z</time>
  <speed>1.940000</speed>
</trkpt>
<trkpt lat="32.859973907" lon="35.254924774">
  <ele>296.838379</ele>
  <time>2011-07-22T06:57:21Z</time>
  <speed>2.290000</speed>
</trkpt>
<trkpt lat="32.859954834" lon="35.254974365">
  <ele>297.393066</ele>
  <time>2011-07-22T06:57:23Z</time>
  <speed>2.250000</speed>
</trkpt>
<trkpt lat="32.859935760" lon="35.255020142">
  <ele>297.643066</ele>
  <time>2011-07-22T06:57:25Z</time>
  <speed>2.330000</speed>
</trkpt>
<trkpt lat="32.859924316" lon="35.255062103">
  <ele>297.557129</ele>
  <time>2011-07-22T06:57:27Z</time>
  <speed>2.220000</speed>
</trkpt>
<trkpt lat="32.859909058" lon="35.255104065">
  <ele>299.096191</ele>
  <time>2011-07-22T06:57:29Z</time>
  <speed>2.270000</speed>
</trkpt>
<trkpt lat="32.859893799" lon="35.255149841">
  <ele>299.721191</ele>
  <time>2011-07-22T06:57:31Z</time>
  <speed>2.300000</speed>
</trkpt>
<trkpt lat="32.859870911" lon="35.255199432">
  <ele>300.939941</ele>
  <time>2011-07-22T06:57:33Z</time>
  <speed>2.130000</speed>
</trkpt>
<trkpt lat="32.859867096" lon="35.255241394">
  <ele>299.908691</ele>
  <time>2011-07-22T06:57:35Z</time>
  <speed>2.060000</speed>
</trkpt>
<trkpt lat="32.859863281" lon="35.255279541">
  <ele>300.236816</ele>
  <time>2011-07-22T06:57:37Z</time>
  <speed>1.600000</speed>
</trkpt>
<trkpt lat="32.859863281" lon="35.255321503">
  <ele>299.213379</ele>
  <time>2011-07-22T06:57:39Z</time>
  <speed>2.320000</speed>
</trkpt>
<trkpt lat="32.859859467" lon="35.255371094">
  <ele>299.580566</ele>
  <time>2011-07-22T06:57:41Z</time>
  <speed>2.100000</speed>
</trkpt>
<trkpt lat="32.859863281" lon="35.255416870">
  <ele>299.268066</ele>
  <time>2011-07-22T06:57:43Z</time>
  <speed>2.260000</speed>
</trkpt>
<trkpt lat="32.859870911" lon="35.255458832">
  <ele>299.096191</ele>
  <time>2011-07-22T06:57:45Z</time>
  <speed>1.920000</speed>
</trkpt>
<trkpt lat="32.859878540" lon="35.255504608">
  <ele>299.611816</ele>
  <time>2011-07-22T06:57:47Z</time>
  <speed>2.050000</speed>
</trkpt>
<trkpt lat="32.859878540" lon="35.255546570">
  <ele>298.213379</ele>
  <time>2011-07-22T06:57:49Z</time>
  <speed>2.170000</speed>
</trkpt>
<trkpt lat="32.859886169" lon="35.255584717">
  <ele>297.869629</ele>
  <time>2011-07-22T06:57:51Z</time>
  <speed>2.150000</speed>
</trkpt>
<trkpt lat="32.859889984" lon="35.255626678">
  <ele>297.291504</ele>
  <time>2011-07-22T06:57:53Z</time>
  <speed>2.110000</speed>
</trkpt>
<trkpt lat="32.859893799" lon="35.255676270">
  <ele>297.854004</ele>
  <time>2011-07-22T06:57:55Z</time>
  <speed>2.310000</speed>
</trkpt>
<trkpt lat="32.859905243" lon="35.255722046">
  <ele>298.307129</ele>
  <time>2011-07-22T06:57:57Z</time>
  <speed>2.150000</speed>
</trkpt>
<trkpt lat="32.859909058" lon="35.255771637">
  <ele>299.127441</ele>
  <time>2011-07-22T06:57:59Z</time>
  <speed>2.230000</speed>
</trkpt>
<trkpt lat="32.859912872" lon="35.255821228">
  <ele>299.135254</ele>
  <time>2011-07-22T06:58:01Z</time>
  <speed>2.080000</speed>
</trkpt>
<trkpt lat="32.859916687" lon="35.255867004">
  <ele>300.330566</ele>
  <time>2011-07-22T06:58:03Z</time>
  <speed>2.080000</speed>
</trkpt>
<trkpt lat="32.859935760" lon="35.255916595">
  <ele>300.119629</ele>
  <time>2011-07-22T06:58:05Z</time>
  <speed>2.230000</speed>
</trkpt>
<trkpt lat="32.859947205" lon="35.255966187">
  <ele>300.580566</ele>
  <time>2011-07-22T06:58:07Z</time>
  <speed>2.400000</speed>
</trkpt>
<trkpt lat="32.859951019" lon="35.256019592">
  <ele>300.463379</ele>
  <time>2011-07-22T06:58:09Z</time>
  <speed>2.350000</speed>
</trkpt>
<trkpt lat="32.859954834" lon="35.256069183">
  <ele>300.627441</ele>
  <time>2011-07-22T06:58:11Z</time>
  <speed>2.340000</speed>
</trkpt>
<trkpt lat="32.859958649" lon="35.256122589">
  <ele>300.479004</ele>
  <time>2011-07-22T06:58:13Z</time>
  <speed>2.510000</speed>
</trkpt>
<trkpt lat="32.859966278" lon="35.256175995">
  <ele>301.416504</ele>
  <time>2011-07-22T06:58:15Z</time>
  <speed>1.960000</speed>
</trkpt>
<trkpt lat="32.859985352" lon="35.256225586">
  <ele>301.299316</ele>
  <time>2011-07-22T06:58:17Z</time>
  <speed>1.930000</speed>
</trkpt>
<trkpt lat="32.860004425" lon="35.256267548">
  <ele>300.955566</ele>
  <time>2011-07-22T06:58:19Z</time>
  <speed>1.910000</speed>
</trkpt>
<trkpt lat="32.859992981" lon="35.256301880">
  <ele>301.900879</ele>
  <time>2011-07-22T06:58:21Z</time>
  <speed>2.080000</speed>
</trkpt>
<trkpt lat="32.859996796" lon="35.256347656">
  <ele>302.119629</ele>
  <time>2011-07-22T06:58:23Z</time>
  <speed>2.330000</speed>
</trkpt>
<trkpt lat="32.860008240" lon="35.256401062">
  <ele>302.666504</ele>
  <time>2011-07-22T06:58:25Z</time>
  <speed>2.320000</speed>
</trkpt>
<trkpt lat="32.860015869" lon="35.256454468">
  <ele>302.955566</ele>
  <time>2011-07-22T06:58:27Z</time>
  <speed>2.560000</speed>
</trkpt>
<trkpt lat="32.860023499" lon="35.256496429">
  <ele>301.604004</ele>
  <time>2011-07-22T06:58:29Z</time>
  <speed>2.750000</speed>
</trkpt>
<trkpt lat="32.860042572" lon="35.256553650">
  <ele>301.588379</ele>
  <time>2011-07-22T06:58:31Z</time>
  <speed>3.060000</speed>
</trkpt>
<trkpt lat="32.860050201" lon="35.256618500">
  <ele>301.111816</ele>
  <time>2011-07-22T06:58:33Z</time>
  <speed>3.650000</speed>
</trkpt>
<trkpt lat="32.860050201" lon="35.256656647">
  <ele>300.697754</ele>
  <time>2011-07-22T06:58:34Z</time>
  <speed>3.160000</speed>
</trkpt>
<trkpt lat="32.860057831" lon="35.256690979">
  <ele>300.619629</ele>
  <time>2011-07-22T06:58:35Z</time>
  <speed>3.420000</speed>
</trkpt>
<trkpt lat="32.860065460" lon="35.256725311">
  <ele>300.393066</ele>
  <time>2011-07-22T06:58:36Z</time>
  <speed>3.550000</speed>
</trkpt>
<trkpt lat="32.860076904" lon="35.256763458">
  <ele>300.072754</ele>
  <time>2011-07-22T06:58:37Z</time>
  <speed>3.870000</speed>
</trkpt>
<trkpt lat="32.860092163" lon="35.256801605">
  <ele>300.174316</ele>
  <time>2011-07-22T06:58:38Z</time>
  <speed>3.960000</speed>
</trkpt>
<trkpt lat="32.860107422" lon="35.256851196">
  <ele>300.197754</ele>
  <time>2011-07-22T06:58:39Z</time>
  <speed>4.380000</speed>
</trkpt>
<trkpt lat="32.860126495" lon="35.256889343">
  <ele>299.775879</ele>
  <time>2011-07-22T06:58:40Z</time>
  <speed>4.170000</speed>
</trkpt>
<trkpt lat="32.860145569" lon="35.256927490">
  <ele>299.182129</ele>
  <time>2011-07-22T06:58:41Z</time>
  <speed>4.550000</speed>
</trkpt>
<trkpt lat="32.860168457" lon="35.256969452">
  <ele>298.510254</ele>
  <time>2011-07-22T06:58:42Z</time>
  <speed>4.700000</speed>
</trkpt>
<trkpt lat="32.860198975" lon="35.257007599">
  <ele>298.088379</ele>
  <time>2011-07-22T06:58:43Z</time>
  <speed>4.740000</speed>
</trkpt>
<trkpt lat="32.860233307" lon="35.257049561">
  <ele>297.924316</ele>
  <time>2011-07-22T06:58:44Z</time>
  <speed>4.960000</speed>
</trkpt>
<trkpt lat="32.860267639" lon="35.257083893">
  <ele>297.557129</ele>
  <time>2011-07-22T06:58:45Z</time>
  <speed>5.150000</speed>
</trkpt>
<trkpt lat="32.860298157" lon="35.257110596">
  <ele>296.682129</ele>
  <time>2011-07-22T06:58:46Z</time>
  <speed>4.750000</speed>
</trkpt>
<trkpt lat="32.860332489" lon="35.257133484">
  <ele>296.994629</ele>
  <time>2011-07-22T06:58:47Z</time>
  <speed>4.360000</speed>
</trkpt>
<trkpt lat="32.860374451" lon="35.257148743">
  <ele>296.846191</ele>
  <time>2011-07-22T06:58:48Z</time>
  <speed>4.680000</speed>
</trkpt>
<trkpt lat="32.860416412" lon="35.257164001">
  <ele>296.791504</ele>
  <time>2011-07-22T06:58:49Z</time>
  <speed>4.190000</speed>
</trkpt>
<trkpt lat="32.860454559" lon="35.257179260">
  <ele>297.486816</ele>
  <time>2011-07-22T06:58:50Z</time>
  <speed>4.040000</speed>
</trkpt>
<trkpt lat="32.860492706" lon="35.257186890">
  <ele>297.604004</ele>
  <time>2011-07-22T06:58:51Z</time>
  <speed>3.830000</speed>
</trkpt>
<trkpt lat="32.860527039" lon="35.257202148">
  <ele>298.268066</ele>
  <time>2011-07-22T06:58:52Z</time>
  <speed>3.490000</speed>
</trkpt>
<trkpt lat="32.860561371" lon="35.257209778">
  <ele>298.205566</ele>
  <time>2011-07-22T06:58:53Z</time>
  <speed>3.420000</speed>
</trkpt>
<trkpt lat="32.860591888" lon="35.257217407">
  <ele>298.393066</ele>
  <time>2011-07-22T06:58:54Z</time>
  <speed>3.420000</speed>
</trkpt>
<trkpt lat="32.860626221" lon="35.257228851">
  <ele>298.650879</ele>
  <time>2011-07-22T06:58:55Z</time>
  <speed>3.240000</speed>
</trkpt>
<trkpt lat="32.860652924" lon="35.257244110">
  <ele>298.619629</ele>
  <time>2011-07-22T06:58:56Z</time>
  <speed>3.010000</speed>
</trkpt>
<trkpt lat="32.860679626" lon="35.257251740">
  <ele>298.932129</ele>
  <time>2011-07-22T06:58:57Z</time>
  <speed>2.920000</speed>
</trkpt>
<trkpt lat="32.860729218" lon="35.257263184">
  <ele>297.994629</ele>
  <time>2011-07-22T06:58:59Z</time>
  <speed>2.680000</speed>
</trkpt>
<trkpt lat="32.860755920" lon="35.257266998">
  <ele>297.838379</ele>
  <time>2011-07-22T06:59:00Z</time>
  <speed>3.050000</speed>
</trkpt>
<trkpt lat="32.860782623" lon="35.257266998">
  <ele>298.229004</ele>
  <time>2011-07-22T06:59:01Z</time>
  <speed>2.920000</speed>
</trkpt>
<trkpt lat="32.860809326" lon="35.257278442">
  <ele>298.393066</ele>
  <time>2011-07-22T06:59:02Z</time>
  <speed>2.850000</speed>
</trkpt>
<trkpt lat="32.860862732" lon="35.257286072">
  <ele>298.361816</ele>
  <time>2011-07-22T06:59:04Z</time>
  <speed>2.810000</speed>
</trkpt>
<trkpt lat="32.860904694" lon="35.257301331">
  <ele>298.229004</ele>
  <time>2011-07-22T06:59:06Z</time>
  <speed>2.630000</speed>
</trkpt>
<trkpt lat="32.860950470" lon="35.257305145">
  <ele>298.439941</ele>
  <time>2011-07-22T06:59:08Z</time>
  <speed>2.510000</speed>
</trkpt>
<trkpt lat="32.861000061" lon="35.257305145">
  <ele>300.049316</ele>
  <time>2011-07-22T06:59:10Z</time>
  <speed>2.270000</speed>
</trkpt>
<trkpt lat="32.861049652" lon="35.257308960">
  <ele>300.807129</ele>
  <time>2011-07-22T06:59:12Z</time>
  <speed>2.120000</speed>
</trkpt>
<trkpt lat="32.861091614" lon="35.257316589">
  <ele>301.846191</ele>
  <time>2011-07-22T06:59:14Z</time>
  <speed>2.310000</speed>
</trkpt>
<trkpt lat="32.861118317" lon="35.257339478">
  <ele>301.846191</ele>
  <time>2011-07-22T06:59:16Z</time>
  <speed>2.070000</speed>
</trkpt>
<trkpt lat="32.861129761" lon="35.257381439">
  <ele>301.283691</ele>
  <time>2011-07-22T06:59:18Z</time>
  <speed>2.830000</speed>
</trkpt>
<trkpt lat="32.861164093" lon="35.257427216">
  <ele>300.807129</ele>
  <time>2011-07-22T06:59:20Z</time>
  <speed>3.280000</speed>
</trkpt>
<trkpt lat="32.861183167" lon="35.257461548">
  <ele>300.283691</ele>
  <time>2011-07-22T06:59:21Z</time>
  <speed>3.880000</speed>
</trkpt>
<trkpt lat="32.861194611" lon="35.257511139">
  <ele>299.768066</ele>
  <time>2011-07-22T06:59:22Z</time>
  <speed>5.360000</speed>
</trkpt>
<trkpt lat="32.861198425" lon="35.257575989">
  <ele>299.494629</ele>
  <time>2011-07-22T06:59:23Z</time>
  <speed>6.590000</speed>
</trkpt>
<trkpt lat="32.861186981" lon="35.257656097">
  <ele>300.049316</ele>
  <time>2011-07-22T06:59:24Z</time>
  <speed>6.860000</speed>
</trkpt>
<trkpt lat="32.861167908" lon="35.257728577">
  <ele>299.861816</ele>
  <time>2011-07-22T06:59:25Z</time>
  <speed>7.610000</speed>
</trkpt>
<trkpt lat="32.861141205" lon="35.257808685">
  <ele>299.002441</ele>
  <time>2011-07-22T06:59:26Z</time>
  <speed>8.140000</speed>
</trkpt>
<trkpt lat="32.861110687" lon="35.257881165">
  <ele>298.307129</ele>
  <time>2011-07-22T06:59:27Z</time>
  <speed>7.390000</speed>
</trkpt>
<trkpt lat="32.861072540" lon="35.257946014">
  <ele>297.822754</ele>
  <time>2011-07-22T06:59:28Z</time>
  <speed>6.990000</speed>
</trkpt>
<trkpt lat="32.861026764" lon="35.257999420">
  <ele>297.658691</ele>
  <time>2011-07-22T06:59:29Z</time>
  <speed>7.150000</speed>
</trkpt>
<trkpt lat="32.860973358" lon="35.258037567">
  <ele>297.299316</ele>
  <time>2011-07-22T06:59:30Z</time>
  <speed>7.040000</speed>
</trkpt>
<trkpt lat="32.860916138" lon="35.258056641">
  <ele>296.111816</ele>
  <time>2011-07-22T06:59:31Z</time>
  <speed>5.460000</speed>
</trkpt>
<trkpt lat="32.860870361" lon="35.258052826">
  <ele>294.354004</ele>
  <time>2011-07-22T06:59:32Z</time>
  <speed>3.880000</speed>
</trkpt>
<trkpt lat="32.860843658" lon="35.258052826">
  <ele>293.861816</ele>
  <time>2011-07-22T06:59:33Z</time>
  <speed>2.810000</speed>
</trkpt>
<trkpt lat="32.860816956" lon="35.258060455">
  <ele>293.557129</ele>
  <time>2011-07-22T06:59:36Z</time>
  <speed>0.420000</speed>
</trkpt>
<trkpt lat="32.860794067" lon="35.258068085">
  <ele>295.729004</ele>
  <time>2011-07-22T06:59:52Z</time>
  <speed>0.020000</speed>
</trkpt>
<trkpt lat="32.860774994" lon="35.258052826">
  <ele>297.955566</ele>
  <time>2011-07-22T06:59:54Z</time>
  <speed>0.030000</speed>
</trkpt>
<trkpt lat="32.860771179" lon="35.258052826">
  <ele>298.361816</ele>
  <time>2011-07-22T06:59:54Z</time>
  <speed>0.020000</speed>
</trkpt>
<trkpt lat="32.860778809" lon="35.258037567">
  <ele>301.174316</ele>
  <time>2011-07-22T06:59:58Z</time>
  <speed>0.010000</speed>
</trkpt>
</trkseg>
</trk>
</gpx>
